<?xml version="1.0" encoding="UTF-8" standalone="no" ?>
<gpx xmlns="http://www.topografix.com/GPX/1/1" xmlns:xsi="http://www.w3.org/2001/XMLSchema-instance" xsi:schemaLocation="http://www.topografix.com/GPX/1/1 http://www.topografix.com/GPX/1/1/gpx.xsd" version="1.1" creator="VisuGPX - https://www.visugpx.com">
  <metadata>
    <name>Kinomap-Col de la Faucille au départ de Gex </name>
    <desc><![CDATA[Home Trainer Christine]]></desc>
  </metadata>
  <trk>
    <name><![CDATA[Kinomap - 😍⛰ Col de la Faucille from Gex (🇫🇷)]]></name>
    <trkseg>
      <trkpt lat="46.3321" lon="6.05777">
        <ele>593.2</ele>
        <time>2020-11-01T10:49:46Z</time>
      </trkpt>
      <trkpt lat="46.3321" lon="6.05777">
        <ele>593.2</ele>
        <time>2020-11-01T10:49:47.022Z</time>
      </trkpt>
      <trkpt lat="46.3321" lon="6.05777">
        <ele>593.2</ele>
        <time>2020-11-01T10:49:48.023Z</time>
      </trkpt>
      <trkpt lat="46.3321" lon="6.05777">
        <ele>593.2</ele>
        <time>2020-11-01T10:49:49.021Z</time>
      </trkpt>
      <trkpt lat="46.33214" lon="6.05782">
        <ele>593.4</ele>
        <time>2020-11-01T10:49:50.022Z</time>
      </trkpt>
      <trkpt lat="46.33214" lon="6.05782">
        <ele>593.4</ele>
        <time>2020-11-01T10:49:51.021Z</time>
      </trkpt>
      <trkpt lat="46.33214" lon="6.05782">
        <ele>593.4</ele>
        <time>2020-11-01T10:49:52.022Z</time>
      </trkpt>
      <trkpt lat="46.33219" lon="6.05785">
        <ele>593.6</ele>
        <time>2020-11-01T10:49:53.021Z</time>
      </trkpt>
      <trkpt lat="46.33219" lon="6.05785">
        <ele>593.6</ele>
        <time>2020-11-01T10:49:54.021Z</time>
      </trkpt>
      <trkpt lat="46.33224" lon="6.05787">
        <ele>593.6</ele>
        <time>2020-11-01T10:49:55.021Z</time>
      </trkpt>
      <trkpt lat="46.33224" lon="6.05787">
        <ele>593.6</ele>
        <time>2020-11-01T10:49:56.022Z</time>
      </trkpt>
      <trkpt lat="46.33224" lon="6.05787">
        <ele>593.6</ele>
        <time>2020-11-01T10:49:57.021Z</time>
      </trkpt>
      <trkpt lat="46.3323" lon="6.05789">
        <ele>593.6</ele>
        <time>2020-11-01T10:49:58.022Z</time>
      </trkpt>
      <trkpt lat="46.3323" lon="6.05789">
        <ele>593.6</ele>
        <time>2020-11-01T10:49:59.021Z</time>
      </trkpt>
      <trkpt lat="46.33235" lon="6.0579">
        <ele>593.6</ele>
        <time>2020-11-01T10:50:00.022Z</time>
      </trkpt>
      <trkpt lat="46.33235" lon="6.0579">
        <ele>593.6</ele>
        <time>2020-11-01T10:50:01.02Z</time>
      </trkpt>
      <trkpt lat="46.33241" lon="6.05789">
        <ele>593.8</ele>
        <time>2020-11-01T10:50:02.021Z</time>
      </trkpt>
      <trkpt lat="46.33246" lon="6.05789">
        <ele>593.8</ele>
        <time>2020-11-01T10:50:03.022Z</time>
      </trkpt>
      <trkpt lat="46.33246" lon="6.05789">
        <ele>593.8</ele>
        <time>2020-11-01T10:50:04.021Z</time>
      </trkpt>
      <trkpt lat="46.33251" lon="6.05788">
        <ele>593.8</ele>
        <time>2020-11-01T10:50:05.02Z</time>
      </trkpt>
      <trkpt lat="46.33251" lon="6.05788">
        <ele>593.8</ele>
        <time>2020-11-01T10:50:06.023Z</time>
      </trkpt>
      <trkpt lat="46.33255" lon="6.05788">
        <ele>593.8</ele>
        <time>2020-11-01T10:50:07.023Z</time>
      </trkpt>
      <trkpt lat="46.3326" lon="6.05789">
        <ele>594</ele>
        <time>2020-11-01T10:50:08.022Z</time>
      </trkpt>
      <trkpt lat="46.3326" lon="6.05789">
        <ele>594</ele>
        <time>2020-11-01T10:50:09.022Z</time>
      </trkpt>
      <trkpt lat="46.33264" lon="6.0579">
        <ele>594</ele>
        <time>2020-11-01T10:50:10.023Z</time>
      </trkpt>
      <trkpt lat="46.33268" lon="6.05792">
        <ele>594</ele>
        <time>2020-11-01T10:50:11.021Z</time>
      </trkpt>
      <trkpt lat="46.33268" lon="6.05792">
        <ele>594</ele>
        <time>2020-11-01T10:50:12.021Z</time>
      </trkpt>
      <trkpt lat="46.33272" lon="6.05793">
        <ele>594.2</ele>
        <time>2020-11-01T10:50:13.022Z</time>
      </trkpt>
      <trkpt lat="46.33277" lon="6.05793">
        <ele>594.4</ele>
        <time>2020-11-01T10:50:14.021Z</time>
      </trkpt>
      <trkpt lat="46.33277" lon="6.05793">
        <ele>594.4</ele>
        <time>2020-11-01T10:50:15.022Z</time>
      </trkpt>
      <trkpt lat="46.33281" lon="6.05793">
        <ele>594.6</ele>
        <time>2020-11-01T10:50:16.022Z</time>
      </trkpt>
      <trkpt lat="46.33285" lon="6.05794">
        <ele>595</ele>
        <time>2020-11-01T10:50:17.02Z</time>
      </trkpt>
      <trkpt lat="46.33288" lon="6.05795">
        <ele>595.4</ele>
        <time>2020-11-01T10:50:18.02Z</time>
      </trkpt>
      <trkpt lat="46.33288" lon="6.05795">
        <ele>595.4</ele>
        <time>2020-11-01T10:50:19.022Z</time>
      </trkpt>
      <trkpt lat="46.33292" lon="6.05796">
        <ele>596</ele>
        <time>2020-11-01T10:50:20.021Z</time>
      </trkpt>
      <trkpt lat="46.33296" lon="6.05798">
        <ele>596.6</ele>
        <time>2020-11-01T10:50:21.021Z</time>
      </trkpt>
      <trkpt lat="46.33299" lon="6.058">
        <ele>597.2</ele>
        <time>2020-11-01T10:50:22.02Z</time>
      </trkpt>
      <trkpt lat="46.33299" lon="6.058">
        <ele>597.2</ele>
        <time>2020-11-01T10:50:23.021Z</time>
      </trkpt>
      <trkpt lat="46.33303" lon="6.05802">
        <ele>597.6</ele>
        <time>2020-11-01T10:50:24.021Z</time>
      </trkpt>
      <trkpt lat="46.33307" lon="6.05804">
        <ele>598</ele>
        <time>2020-11-01T10:50:25.023Z</time>
      </trkpt>
      <trkpt lat="46.3331" lon="6.05805">
        <ele>598.4</ele>
        <time>2020-11-01T10:50:26.022Z</time>
      </trkpt>
      <trkpt lat="46.33314" lon="6.05806">
        <ele>598.6</ele>
        <time>2020-11-01T10:50:27.021Z</time>
      </trkpt>
      <trkpt lat="46.33317" lon="6.05807">
        <ele>599.2</ele>
        <time>2020-11-01T10:50:28.021Z</time>
      </trkpt>
      <trkpt lat="46.33321" lon="6.05808">
        <ele>599.4</ele>
        <time>2020-11-01T10:50:29.023Z</time>
      </trkpt>
      <trkpt lat="46.33321" lon="6.05808">
        <ele>599.4</ele>
        <time>2020-11-01T10:50:30.023Z</time>
      </trkpt>
      <trkpt lat="46.33325" lon="6.05809">
        <ele>599.8</ele>
        <time>2020-11-01T10:50:31.021Z</time>
      </trkpt>
      <trkpt lat="46.33329" lon="6.05811">
        <ele>600.2</ele>
        <time>2020-11-01T10:50:32.021Z</time>
      </trkpt>
      <trkpt lat="46.33333" lon="6.05814">
        <ele>600.6</ele>
        <time>2020-11-01T10:50:33.022Z</time>
      </trkpt>
      <trkpt lat="46.33333" lon="6.05814">
        <ele>600.6</ele>
        <time>2020-11-01T10:50:34.022Z</time>
      </trkpt>
      <trkpt lat="46.33336" lon="6.05817">
        <ele>600.8</ele>
        <time>2020-11-01T10:50:35.023Z</time>
      </trkpt>
      <trkpt lat="46.3334" lon="6.0582">
        <ele>601</ele>
        <time>2020-11-01T10:50:36.021Z</time>
      </trkpt>
      <trkpt lat="46.3334" lon="6.0582">
        <ele>601</ele>
        <time>2020-11-01T10:50:37.021Z</time>
      </trkpt>
      <trkpt lat="46.33344" lon="6.05824">
        <ele>601.4</ele>
        <time>2020-11-01T10:50:38.021Z</time>
      </trkpt>
      <trkpt lat="46.33347" lon="6.05828">
        <ele>601.6</ele>
        <time>2020-11-01T10:50:39.021Z</time>
      </trkpt>
      <trkpt lat="46.33347" lon="6.05828">
        <ele>601.6</ele>
        <time>2020-11-01T10:50:40.022Z</time>
      </trkpt>
      <trkpt lat="46.33351" lon="6.05832">
        <ele>601.8</ele>
        <time>2020-11-01T10:50:41.023Z</time>
      </trkpt>
      <trkpt lat="46.33351" lon="6.05832">
        <ele>601.8</ele>
        <time>2020-11-01T10:50:42.021Z</time>
      </trkpt>
      <trkpt lat="46.33355" lon="6.05837">
        <ele>602.2</ele>
        <time>2020-11-01T10:50:43.022Z</time>
      </trkpt>
      <trkpt lat="46.33359" lon="6.05842">
        <ele>602.6</ele>
        <time>2020-11-01T10:50:44.021Z</time>
      </trkpt>
      <trkpt lat="46.33359" lon="6.05842">
        <ele>602.6</ele>
        <time>2020-11-01T10:50:45.022Z</time>
      </trkpt>
      <trkpt lat="46.33363" lon="6.05847">
        <ele>602.8</ele>
        <time>2020-11-01T10:50:46.022Z</time>
      </trkpt>
      <trkpt lat="46.33363" lon="6.05847">
        <ele>602.8</ele>
        <time>2020-11-01T10:50:47.021Z</time>
      </trkpt>
      <trkpt lat="46.33367" lon="6.05853">
        <ele>603.2</ele>
        <time>2020-11-01T10:50:48.02Z</time>
      </trkpt>
      <trkpt lat="46.33367" lon="6.05853">
        <ele>603.2</ele>
        <time>2020-11-01T10:50:49.023Z</time>
      </trkpt>
      <trkpt lat="46.3337" lon="6.05859">
        <ele>603.2</ele>
        <time>2020-11-01T10:50:50.022Z</time>
      </trkpt>
      <trkpt lat="46.33373" lon="6.05865">
        <ele>603.4</ele>
        <time>2020-11-01T10:50:51.02Z</time>
      </trkpt>
      <trkpt lat="46.33373" lon="6.05865">
        <ele>603.4</ele>
        <time>2020-11-01T10:50:52.021Z</time>
      </trkpt>
      <trkpt lat="46.33376" lon="6.05872">
        <ele>603.6</ele>
        <time>2020-11-01T10:50:53.021Z</time>
      </trkpt>
      <trkpt lat="46.33376" lon="6.05872">
        <ele>603.6</ele>
        <time>2020-11-01T10:50:54.021Z</time>
      </trkpt>
      <trkpt lat="46.33379" lon="6.05879">
        <ele>603.6</ele>
        <time>2020-11-01T10:50:55.02Z</time>
      </trkpt>
      <trkpt lat="46.33379" lon="6.05879">
        <ele>603.6</ele>
        <time>2020-11-01T10:50:56.022Z</time>
      </trkpt>
      <trkpt lat="46.33381" lon="6.05886">
        <ele>603.6</ele>
        <time>2020-11-01T10:50:57.022Z</time>
      </trkpt>
      <trkpt lat="46.33384" lon="6.05894">
        <ele>603.8</ele>
        <time>2020-11-01T10:50:58.021Z</time>
      </trkpt>
      <trkpt lat="46.33384" lon="6.05894">
        <ele>603.8</ele>
        <time>2020-11-01T10:50:59.021Z</time>
      </trkpt>
      <trkpt lat="46.33386" lon="6.05901">
        <ele>603.8</ele>
        <time>2020-11-01T10:51:00.022Z</time>
      </trkpt>
      <trkpt lat="46.33386" lon="6.05901">
        <ele>603.8</ele>
        <time>2020-11-01T10:51:01.021Z</time>
      </trkpt>
      <trkpt lat="46.33388" lon="6.05908">
        <ele>603.8</ele>
        <time>2020-11-01T10:51:02.021Z</time>
      </trkpt>
      <trkpt lat="46.33388" lon="6.05908">
        <ele>603.8</ele>
        <time>2020-11-01T10:51:03.022Z</time>
      </trkpt>
      <trkpt lat="46.33389" lon="6.05915">
        <ele>603.8</ele>
        <time>2020-11-01T10:51:04.021Z</time>
      </trkpt>
      <trkpt lat="46.33389" lon="6.05915">
        <ele>603.8</ele>
        <time>2020-11-01T10:51:05.021Z</time>
      </trkpt>
      <trkpt lat="46.33391" lon="6.05923">
        <ele>603.8</ele>
        <time>2020-11-01T10:51:06.021Z</time>
      </trkpt>
      <trkpt lat="46.33394" lon="6.0593">
        <ele>603.8</ele>
        <time>2020-11-01T10:51:07.022Z</time>
      </trkpt>
      <trkpt lat="46.33394" lon="6.0593">
        <ele>603.8</ele>
        <time>2020-11-01T10:51:08.02Z</time>
      </trkpt>
      <trkpt lat="46.33396" lon="6.05937">
        <ele>603.8</ele>
        <time>2020-11-01T10:51:09.021Z</time>
      </trkpt>
      <trkpt lat="46.33396" lon="6.05937">
        <ele>603.8</ele>
        <time>2020-11-01T10:51:10.021Z</time>
      </trkpt>
      <trkpt lat="46.33398" lon="6.05944">
        <ele>603.8</ele>
        <time>2020-11-01T10:51:11.023Z</time>
      </trkpt>
      <trkpt lat="46.33398" lon="6.05944">
        <ele>603.8</ele>
        <time>2020-11-01T10:51:12.021Z</time>
      </trkpt>
      <trkpt lat="46.33399" lon="6.05952">
        <ele>604</ele>
        <time>2020-11-01T10:51:13.022Z</time>
      </trkpt>
      <trkpt lat="46.33399" lon="6.05952">
        <ele>604</ele>
        <time>2020-11-01T10:51:14.02Z</time>
      </trkpt>
      <trkpt lat="46.33401" lon="6.0596">
        <ele>604</ele>
        <time>2020-11-01T10:51:15.02Z</time>
      </trkpt>
      <trkpt lat="46.33401" lon="6.0596">
        <ele>604</ele>
        <time>2020-11-01T10:51:16.021Z</time>
      </trkpt>
      <trkpt lat="46.33402" lon="6.05967">
        <ele>604</ele>
        <time>2020-11-01T10:51:17.022Z</time>
      </trkpt>
      <trkpt lat="46.33402" lon="6.05967">
        <ele>604</ele>
        <time>2020-11-01T10:51:18.021Z</time>
      </trkpt>
      <trkpt lat="46.33403" lon="6.05975">
        <ele>604</ele>
        <time>2020-11-01T10:51:19.023Z</time>
      </trkpt>
      <trkpt lat="46.33406" lon="6.05981">
        <ele>604</ele>
        <time>2020-11-01T10:51:20.022Z</time>
      </trkpt>
      <trkpt lat="46.33406" lon="6.05981">
        <ele>604</ele>
        <time>2020-11-01T10:51:21.023Z</time>
      </trkpt>
      <trkpt lat="46.3341" lon="6.05985">
        <ele>604</ele>
        <time>2020-11-01T10:51:22.022Z</time>
      </trkpt>
      <trkpt lat="46.3341" lon="6.05985">
        <ele>604</ele>
        <time>2020-11-01T10:51:23.022Z</time>
      </trkpt>
      <trkpt lat="46.33415" lon="6.05987">
        <ele>604</ele>
        <time>2020-11-01T10:51:24.022Z</time>
      </trkpt>
      <trkpt lat="46.33421" lon="6.05989">
        <ele>604</ele>
        <time>2020-11-01T10:51:25.022Z</time>
      </trkpt>
      <trkpt lat="46.33421" lon="6.05989">
        <ele>604</ele>
        <time>2020-11-01T10:51:26.021Z</time>
      </trkpt>
      <trkpt lat="46.33426" lon="6.05991">
        <ele>604</ele>
        <time>2020-11-01T10:51:27.021Z</time>
      </trkpt>
      <trkpt lat="46.33426" lon="6.05991">
        <ele>604</ele>
        <time>2020-11-01T10:51:28.024Z</time>
      </trkpt>
      <trkpt lat="46.33432" lon="6.05994">
        <ele>604</ele>
        <time>2020-11-01T10:51:29.022Z</time>
      </trkpt>
      <trkpt lat="46.33432" lon="6.05994">
        <ele>604</ele>
        <time>2020-11-01T10:51:30.022Z</time>
      </trkpt>
      <trkpt lat="46.33437" lon="6.05997">
        <ele>604</ele>
        <time>2020-11-01T10:51:31.021Z</time>
      </trkpt>
      <trkpt lat="46.33437" lon="6.05997">
        <ele>604</ele>
        <time>2020-11-01T10:51:32.022Z</time>
      </trkpt>
      <trkpt lat="46.33442" lon="6.06001">
        <ele>603.8</ele>
        <time>2020-11-01T10:51:33.022Z</time>
      </trkpt>
      <trkpt lat="46.33442" lon="6.06001">
        <ele>603.8</ele>
        <time>2020-11-01T10:51:34.021Z</time>
      </trkpt>
      <trkpt lat="46.33447" lon="6.06004">
        <ele>603.8</ele>
        <time>2020-11-01T10:51:35.021Z</time>
      </trkpt>
      <trkpt lat="46.33452" lon="6.06007">
        <ele>603.8</ele>
        <time>2020-11-01T10:51:36.022Z</time>
      </trkpt>
      <trkpt lat="46.33452" lon="6.06007">
        <ele>603.8</ele>
        <time>2020-11-01T10:51:37.02Z</time>
      </trkpt>
      <trkpt lat="46.33457" lon="6.0601">
        <ele>603.8</ele>
        <time>2020-11-01T10:51:38.022Z</time>
      </trkpt>
      <trkpt lat="46.33457" lon="6.0601">
        <ele>603.8</ele>
        <time>2020-11-01T10:51:39.021Z</time>
      </trkpt>
      <trkpt lat="46.33463" lon="6.06013">
        <ele>604</ele>
        <time>2020-11-01T10:51:40.021Z</time>
      </trkpt>
      <trkpt lat="46.33463" lon="6.06013">
        <ele>604</ele>
        <time>2020-11-01T10:51:41.021Z</time>
      </trkpt>
      <trkpt lat="46.33468" lon="6.06016">
        <ele>604</ele>
        <time>2020-11-01T10:51:42.02Z</time>
      </trkpt>
      <trkpt lat="46.33468" lon="6.06016">
        <ele>604</ele>
        <time>2020-11-01T10:51:43.021Z</time>
      </trkpt>
      <trkpt lat="46.33473" lon="6.06019">
        <ele>604</ele>
        <time>2020-11-01T10:51:44.021Z</time>
      </trkpt>
      <trkpt lat="46.33478" lon="6.06022">
        <ele>604.6</ele>
        <time>2020-11-01T10:51:45.021Z</time>
      </trkpt>
      <trkpt lat="46.33478" lon="6.06022">
        <ele>604.6</ele>
        <time>2020-11-01T10:51:46.021Z</time>
      </trkpt>
      <trkpt lat="46.33483" lon="6.06025">
        <ele>605</ele>
        <time>2020-11-01T10:51:47.022Z</time>
      </trkpt>
      <trkpt lat="46.33483" lon="6.06025">
        <ele>605</ele>
        <time>2020-11-01T10:51:48.02Z</time>
      </trkpt>
      <trkpt lat="46.33489" lon="6.06028">
        <ele>605.2</ele>
        <time>2020-11-01T10:51:49.02Z</time>
      </trkpt>
      <trkpt lat="46.33489" lon="6.06028">
        <ele>605.2</ele>
        <time>2020-11-01T10:51:50.021Z</time>
      </trkpt>
      <trkpt lat="46.33494" lon="6.06031">
        <ele>605.4</ele>
        <time>2020-11-01T10:51:51.022Z</time>
      </trkpt>
      <trkpt lat="46.33499" lon="6.06034">
        <ele>605.6</ele>
        <time>2020-11-01T10:51:52.021Z</time>
      </trkpt>
      <trkpt lat="46.33499" lon="6.06034">
        <ele>605.6</ele>
        <time>2020-11-01T10:51:53.022Z</time>
      </trkpt>
      <trkpt lat="46.33504" lon="6.06037">
        <ele>605.8</ele>
        <time>2020-11-01T10:51:54.022Z</time>
      </trkpt>
      <trkpt lat="46.33504" lon="6.06037">
        <ele>605.8</ele>
        <time>2020-11-01T10:51:55.022Z</time>
      </trkpt>
      <trkpt lat="46.33509" lon="6.0604">
        <ele>605.8</ele>
        <time>2020-11-01T10:51:56.02Z</time>
      </trkpt>
      <trkpt lat="46.33513" lon="6.06043">
        <ele>605.8</ele>
        <time>2020-11-01T10:51:57.021Z</time>
      </trkpt>
      <trkpt lat="46.33513" lon="6.06043">
        <ele>605.8</ele>
        <time>2020-11-01T10:51:58.021Z</time>
      </trkpt>
      <trkpt lat="46.33517" lon="6.06047">
        <ele>605.8</ele>
        <time>2020-11-01T10:51:59.021Z</time>
      </trkpt>
      <trkpt lat="46.33521" lon="6.06051">
        <ele>606</ele>
        <time>2020-11-01T10:52:00.022Z</time>
      </trkpt>
      <trkpt lat="46.33521" lon="6.06051">
        <ele>606</ele>
        <time>2020-11-01T10:52:01.023Z</time>
      </trkpt>
      <trkpt lat="46.33525" lon="6.06056">
        <ele>606</ele>
        <time>2020-11-01T10:52:02.021Z</time>
      </trkpt>
      <trkpt lat="46.33529" lon="6.0606">
        <ele>606.4</ele>
        <time>2020-11-01T10:52:03.02Z</time>
      </trkpt>
      <trkpt lat="46.33529" lon="6.0606">
        <ele>606.4</ele>
        <time>2020-11-01T10:52:04.022Z</time>
      </trkpt>
      <trkpt lat="46.33532" lon="6.06065">
        <ele>606.6</ele>
        <time>2020-11-01T10:52:05.021Z</time>
      </trkpt>
      <trkpt lat="46.33536" lon="6.0607">
        <ele>607</ele>
        <time>2020-11-01T10:52:06.022Z</time>
      </trkpt>
      <trkpt lat="46.33536" lon="6.0607">
        <ele>607</ele>
        <time>2020-11-01T10:52:07.02Z</time>
      </trkpt>
      <trkpt lat="46.33539" lon="6.06076">
        <ele>607.4</ele>
        <time>2020-11-01T10:52:08.022Z</time>
      </trkpt>
      <trkpt lat="46.33539" lon="6.06076">
        <ele>607.4</ele>
        <time>2020-11-01T10:52:09.021Z</time>
      </trkpt>
      <trkpt lat="46.33542" lon="6.06081">
        <ele>607.6</ele>
        <time>2020-11-01T10:52:10.02Z</time>
      </trkpt>
      <trkpt lat="46.33545" lon="6.06087">
        <ele>608</ele>
        <time>2020-11-01T10:52:11.022Z</time>
      </trkpt>
      <trkpt lat="46.33545" lon="6.06087">
        <ele>608</ele>
        <time>2020-11-01T10:52:12.022Z</time>
      </trkpt>
      <trkpt lat="46.33548" lon="6.06092">
        <ele>608.4</ele>
        <time>2020-11-01T10:52:13.02Z</time>
      </trkpt>
      <trkpt lat="46.3355" lon="6.06098">
        <ele>608.6</ele>
        <time>2020-11-01T10:52:14.023Z</time>
      </trkpt>
      <trkpt lat="46.3355" lon="6.06098">
        <ele>608.6</ele>
        <time>2020-11-01T10:52:15.022Z</time>
      </trkpt>
      <trkpt lat="46.33552" lon="6.06104">
        <ele>609.2</ele>
        <time>2020-11-01T10:52:16.021Z</time>
      </trkpt>
      <trkpt lat="46.33552" lon="6.06104">
        <ele>609.2</ele>
        <time>2020-11-01T10:52:17.022Z</time>
      </trkpt>
      <trkpt lat="46.33554" lon="6.06111">
        <ele>609.6</ele>
        <time>2020-11-01T10:52:18.021Z</time>
      </trkpt>
      <trkpt lat="46.33554" lon="6.06111">
        <ele>609.6</ele>
        <time>2020-11-01T10:52:19.022Z</time>
      </trkpt>
      <trkpt lat="46.33556" lon="6.06118">
        <ele>609.8</ele>
        <time>2020-11-01T10:52:20.02Z</time>
      </trkpt>
      <trkpt lat="46.33558" lon="6.06124">
        <ele>610</ele>
        <time>2020-11-01T10:52:21.022Z</time>
      </trkpt>
      <trkpt lat="46.33558" lon="6.06124">
        <ele>610</ele>
        <time>2020-11-01T10:52:22.021Z</time>
      </trkpt>
      <trkpt lat="46.33561" lon="6.06129">
        <ele>610.4</ele>
        <time>2020-11-01T10:52:23.02Z</time>
      </trkpt>
      <trkpt lat="46.33561" lon="6.06129">
        <ele>610.4</ele>
        <time>2020-11-01T10:52:24.022Z</time>
      </trkpt>
      <trkpt lat="46.33564" lon="6.06134">
        <ele>611.4</ele>
        <time>2020-11-01T10:52:25.02Z</time>
      </trkpt>
      <trkpt lat="46.33564" lon="6.06134">
        <ele>611.4</ele>
        <time>2020-11-01T10:52:26.02Z</time>
      </trkpt>
      <trkpt lat="46.33567" lon="6.0614">
        <ele>611.6</ele>
        <time>2020-11-01T10:52:27.02Z</time>
      </trkpt>
      <trkpt lat="46.3357" lon="6.06144">
        <ele>611.8</ele>
        <time>2020-11-01T10:52:28.02Z</time>
      </trkpt>
      <trkpt lat="46.3357" lon="6.06144">
        <ele>611.8</ele>
        <time>2020-11-01T10:52:29.02Z</time>
      </trkpt>
      <trkpt lat="46.33573" lon="6.06148">
        <ele>612</ele>
        <time>2020-11-01T10:52:30.021Z</time>
      </trkpt>
      <trkpt lat="46.33573" lon="6.06148">
        <ele>612</ele>
        <time>2020-11-01T10:52:31.021Z</time>
      </trkpt>
      <trkpt lat="46.33578" lon="6.06151">
        <ele>612.2</ele>
        <time>2020-11-01T10:52:32.021Z</time>
      </trkpt>
      <trkpt lat="46.33578" lon="6.06151">
        <ele>612.2</ele>
        <time>2020-11-01T10:52:33.021Z</time>
      </trkpt>
      <trkpt lat="46.33582" lon="6.06152">
        <ele>612.2</ele>
        <time>2020-11-01T10:52:34.021Z</time>
      </trkpt>
      <trkpt lat="46.33587" lon="6.06152">
        <ele>612.6</ele>
        <time>2020-11-01T10:52:35.021Z</time>
      </trkpt>
      <trkpt lat="46.33587" lon="6.06152">
        <ele>612.6</ele>
        <time>2020-11-01T10:52:36.02Z</time>
      </trkpt>
      <trkpt lat="46.33592" lon="6.0615">
        <ele>613</ele>
        <time>2020-11-01T10:52:37.021Z</time>
      </trkpt>
      <trkpt lat="46.33592" lon="6.0615">
        <ele>613</ele>
        <time>2020-11-01T10:52:38.02Z</time>
      </trkpt>
      <trkpt lat="46.33596" lon="6.06147">
        <ele>613.2</ele>
        <time>2020-11-01T10:52:39.02Z</time>
      </trkpt>
      <trkpt lat="46.33596" lon="6.06147">
        <ele>613.2</ele>
        <time>2020-11-01T10:52:40.02Z</time>
      </trkpt>
      <trkpt lat="46.33599" lon="6.06143">
        <ele>613.4</ele>
        <time>2020-11-01T10:52:41.022Z</time>
      </trkpt>
      <trkpt lat="46.33603" lon="6.06138">
        <ele>613.6</ele>
        <time>2020-11-01T10:52:42.022Z</time>
      </trkpt>
      <trkpt lat="46.33603" lon="6.06138">
        <ele>613.6</ele>
        <time>2020-11-01T10:52:43.02Z</time>
      </trkpt>
      <trkpt lat="46.33605" lon="6.06132">
        <ele>613.8</ele>
        <time>2020-11-01T10:52:44.021Z</time>
      </trkpt>
      <trkpt lat="46.33605" lon="6.06132">
        <ele>613.8</ele>
        <time>2020-11-01T10:52:45.022Z</time>
      </trkpt>
      <trkpt lat="46.33605" lon="6.06125">
        <ele>614</ele>
        <time>2020-11-01T10:52:46.021Z</time>
      </trkpt>
      <trkpt lat="46.33605" lon="6.06125">
        <ele>614</ele>
        <time>2020-11-01T10:52:47.021Z</time>
      </trkpt>
      <trkpt lat="46.33605" lon="6.06118">
        <ele>614.2</ele>
        <time>2020-11-01T10:52:48.023Z</time>
      </trkpt>
      <trkpt lat="46.33604" lon="6.06111">
        <ele>614.4</ele>
        <time>2020-11-01T10:52:49.02Z</time>
      </trkpt>
      <trkpt lat="46.33604" lon="6.06111">
        <ele>614.4</ele>
        <time>2020-11-01T10:52:50.022Z</time>
      </trkpt>
      <trkpt lat="46.33603" lon="6.06104">
        <ele>614.6</ele>
        <time>2020-11-01T10:52:51.021Z</time>
      </trkpt>
      <trkpt lat="46.33603" lon="6.06104">
        <ele>614.6</ele>
        <time>2020-11-01T10:52:52.021Z</time>
      </trkpt>
      <trkpt lat="46.33601" lon="6.06098">
        <ele>615</ele>
        <time>2020-11-01T10:52:53.022Z</time>
      </trkpt>
      <trkpt lat="46.33601" lon="6.06098">
        <ele>615</ele>
        <time>2020-11-01T10:52:54.02Z</time>
      </trkpt>
      <trkpt lat="46.33599" lon="6.06091">
        <ele>615.2</ele>
        <time>2020-11-01T10:52:55.021Z</time>
      </trkpt>
      <trkpt lat="46.33599" lon="6.06091">
        <ele>615.2</ele>
        <time>2020-11-01T10:52:56.02Z</time>
      </trkpt>
      <trkpt lat="46.33597" lon="6.06085">
        <ele>615.2</ele>
        <time>2020-11-01T10:52:57.02Z</time>
      </trkpt>
      <trkpt lat="46.33597" lon="6.06085">
        <ele>615.2</ele>
        <time>2020-11-01T10:52:58.022Z</time>
      </trkpt>
      <trkpt lat="46.33595" lon="6.06078">
        <ele>615.4</ele>
        <time>2020-11-01T10:52:59.022Z</time>
      </trkpt>
      <trkpt lat="46.33592" lon="6.06071">
        <ele>615.6</ele>
        <time>2020-11-01T10:53:00.023Z</time>
      </trkpt>
      <trkpt lat="46.33592" lon="6.06071">
        <ele>615.6</ele>
        <time>2020-11-01T10:53:01.021Z</time>
      </trkpt>
      <trkpt lat="46.3359" lon="6.06065">
        <ele>616</ele>
        <time>2020-11-01T10:53:02.02Z</time>
      </trkpt>
      <trkpt lat="46.3359" lon="6.06065">
        <ele>616</ele>
        <time>2020-11-01T10:53:03.02Z</time>
      </trkpt>
      <trkpt lat="46.33588" lon="6.06059">
        <ele>616.2</ele>
        <time>2020-11-01T10:53:04.022Z</time>
      </trkpt>
      <trkpt lat="46.33588" lon="6.06059">
        <ele>616.2</ele>
        <time>2020-11-01T10:53:05.02Z</time>
      </trkpt>
      <trkpt lat="46.33586" lon="6.06053">
        <ele>616.6</ele>
        <time>2020-11-01T10:53:06.02Z</time>
      </trkpt>
      <trkpt lat="46.33584" lon="6.06047">
        <ele>616.8</ele>
        <time>2020-11-01T10:53:07.02Z</time>
      </trkpt>
      <trkpt lat="46.33584" lon="6.06047">
        <ele>616.8</ele>
        <time>2020-11-01T10:53:08.022Z</time>
      </trkpt>
      <trkpt lat="46.33582" lon="6.06041">
        <ele>617</ele>
        <time>2020-11-01T10:53:09.022Z</time>
      </trkpt>
      <trkpt lat="46.33582" lon="6.06041">
        <ele>617</ele>
        <time>2020-11-01T10:53:10.023Z</time>
      </trkpt>
      <trkpt lat="46.33581" lon="6.06035">
        <ele>617.2</ele>
        <time>2020-11-01T10:53:11.021Z</time>
      </trkpt>
      <trkpt lat="46.33581" lon="6.06035">
        <ele>617.2</ele>
        <time>2020-11-01T10:53:12.021Z</time>
      </trkpt>
      <trkpt lat="46.33579" lon="6.06029">
        <ele>617.6</ele>
        <time>2020-11-01T10:53:13.02Z</time>
      </trkpt>
      <trkpt lat="46.33577" lon="6.06023">
        <ele>617.8</ele>
        <time>2020-11-01T10:53:14.022Z</time>
      </trkpt>
      <trkpt lat="46.33577" lon="6.06023">
        <ele>617.8</ele>
        <time>2020-11-01T10:53:15.02Z</time>
      </trkpt>
      <trkpt lat="46.33575" lon="6.06018">
        <ele>618</ele>
        <time>2020-11-01T10:53:16.021Z</time>
      </trkpt>
      <trkpt lat="46.33575" lon="6.06018">
        <ele>618</ele>
        <time>2020-11-01T10:53:17.02Z</time>
      </trkpt>
      <trkpt lat="46.33573" lon="6.06012">
        <ele>618.8</ele>
        <time>2020-11-01T10:53:18.023Z</time>
      </trkpt>
      <trkpt lat="46.33573" lon="6.06012">
        <ele>618.8</ele>
        <time>2020-11-01T10:53:19.023Z</time>
      </trkpt>
      <trkpt lat="46.33571" lon="6.06006">
        <ele>619</ele>
        <time>2020-11-01T10:53:20.02Z</time>
      </trkpt>
      <trkpt lat="46.33569" lon="6.06">
        <ele>619.4</ele>
        <time>2020-11-01T10:53:21.021Z</time>
      </trkpt>
      <trkpt lat="46.33569" lon="6.06">
        <ele>619.4</ele>
        <time>2020-11-01T10:53:22.022Z</time>
      </trkpt>
      <trkpt lat="46.33567" lon="6.05994">
        <ele>619.6</ele>
        <time>2020-11-01T10:53:23.02Z</time>
      </trkpt>
      <trkpt lat="46.33567" lon="6.05994">
        <ele>619.6</ele>
        <time>2020-11-01T10:53:24.021Z</time>
      </trkpt>
      <trkpt lat="46.33565" lon="6.05989">
        <ele>619.6</ele>
        <time>2020-11-01T10:53:25.022Z</time>
      </trkpt>
      <trkpt lat="46.33563" lon="6.05983">
        <ele>619.8</ele>
        <time>2020-11-01T10:53:26.024Z</time>
      </trkpt>
      <trkpt lat="46.33563" lon="6.05983">
        <ele>619.8</ele>
        <time>2020-11-01T10:53:27.02Z</time>
      </trkpt>
      <trkpt lat="46.33562" lon="6.05977">
        <ele>619.8</ele>
        <time>2020-11-01T10:53:28.022Z</time>
      </trkpt>
      <trkpt lat="46.33562" lon="6.05977">
        <ele>619.8</ele>
        <time>2020-11-01T10:53:29.022Z</time>
      </trkpt>
      <trkpt lat="46.3356" lon="6.05971">
        <ele>620</ele>
        <time>2020-11-01T10:53:30.02Z</time>
      </trkpt>
      <trkpt lat="46.33558" lon="6.05965">
        <ele>620.2</ele>
        <time>2020-11-01T10:53:31.02Z</time>
      </trkpt>
      <trkpt lat="46.33558" lon="6.05965">
        <ele>620.2</ele>
        <time>2020-11-01T10:53:32.02Z</time>
      </trkpt>
      <trkpt lat="46.33556" lon="6.05959">
        <ele>620.4</ele>
        <time>2020-11-01T10:53:33.021Z</time>
      </trkpt>
      <trkpt lat="46.33556" lon="6.05959">
        <ele>620.4</ele>
        <time>2020-11-01T10:53:34.021Z</time>
      </trkpt>
      <trkpt lat="46.33554" lon="6.05953">
        <ele>620.8</ele>
        <time>2020-11-01T10:53:35.021Z</time>
      </trkpt>
      <trkpt lat="46.33552" lon="6.05947">
        <ele>621</ele>
        <time>2020-11-01T10:53:36.023Z</time>
      </trkpt>
      <trkpt lat="46.33552" lon="6.05947">
        <ele>621</ele>
        <time>2020-11-01T10:53:37.021Z</time>
      </trkpt>
      <trkpt lat="46.3355" lon="6.05942">
        <ele>621.4</ele>
        <time>2020-11-01T10:53:38.02Z</time>
      </trkpt>
      <trkpt lat="46.33548" lon="6.05936">
        <ele>621.8</ele>
        <time>2020-11-01T10:53:39.021Z</time>
      </trkpt>
      <trkpt lat="46.33548" lon="6.05936">
        <ele>621.8</ele>
        <time>2020-11-01T10:53:40.022Z</time>
      </trkpt>
      <trkpt lat="46.33546" lon="6.0593">
        <ele>622.2</ele>
        <time>2020-11-01T10:53:41.022Z</time>
      </trkpt>
      <trkpt lat="46.33546" lon="6.0593">
        <ele>622.2</ele>
        <time>2020-11-01T10:53:42.021Z</time>
      </trkpt>
      <trkpt lat="46.33545" lon="6.05924">
        <ele>622.6</ele>
        <time>2020-11-01T10:53:43.021Z</time>
      </trkpt>
      <trkpt lat="46.33543" lon="6.05918">
        <ele>623.2</ele>
        <time>2020-11-01T10:53:44.02Z</time>
      </trkpt>
      <trkpt lat="46.33543" lon="6.05918">
        <ele>623.2</ele>
        <time>2020-11-01T10:53:45.022Z</time>
      </trkpt>
      <trkpt lat="46.33541" lon="6.05912">
        <ele>623.4</ele>
        <time>2020-11-01T10:53:46.021Z</time>
      </trkpt>
      <trkpt lat="46.33541" lon="6.05912">
        <ele>623.4</ele>
        <time>2020-11-01T10:53:47.02Z</time>
      </trkpt>
      <trkpt lat="46.33539" lon="6.05907">
        <ele>623.6</ele>
        <time>2020-11-01T10:53:48.023Z</time>
      </trkpt>
      <trkpt lat="46.33539" lon="6.05907">
        <ele>623.6</ele>
        <time>2020-11-01T10:53:49.02Z</time>
      </trkpt>
      <trkpt lat="46.33537" lon="6.05901">
        <ele>623.6</ele>
        <time>2020-11-01T10:53:50.021Z</time>
      </trkpt>
      <trkpt lat="46.33536" lon="6.05895">
        <ele>623.8</ele>
        <time>2020-11-01T10:53:51.02Z</time>
      </trkpt>
      <trkpt lat="46.33536" lon="6.05895">
        <ele>623.8</ele>
        <time>2020-11-01T10:53:52.021Z</time>
      </trkpt>
      <trkpt lat="46.33534" lon="6.0589">
        <ele>624</ele>
        <time>2020-11-01T10:53:53.021Z</time>
      </trkpt>
      <trkpt lat="46.33534" lon="6.0589">
        <ele>624</ele>
        <time>2020-11-01T10:53:54.022Z</time>
      </trkpt>
      <trkpt lat="46.33532" lon="6.05884">
        <ele>624.2</ele>
        <time>2020-11-01T10:53:55.022Z</time>
      </trkpt>
      <trkpt lat="46.33532" lon="6.05884">
        <ele>624.2</ele>
        <time>2020-11-01T10:53:56.022Z</time>
      </trkpt>
      <trkpt lat="46.3353" lon="6.05878">
        <ele>624.4</ele>
        <time>2020-11-01T10:53:57.021Z</time>
      </trkpt>
      <trkpt lat="46.33528" lon="6.05872">
        <ele>624.8</ele>
        <time>2020-11-01T10:53:58.021Z</time>
      </trkpt>
      <trkpt lat="46.33528" lon="6.05872">
        <ele>624.8</ele>
        <time>2020-11-01T10:53:59.022Z</time>
      </trkpt>
      <trkpt lat="46.33526" lon="6.05866">
        <ele>625</ele>
        <time>2020-11-01T10:54:00.021Z</time>
      </trkpt>
      <trkpt lat="46.33526" lon="6.05866">
        <ele>625</ele>
        <time>2020-11-01T10:54:01.022Z</time>
      </trkpt>
      <trkpt lat="46.33524" lon="6.05859">
        <ele>625.2</ele>
        <time>2020-11-01T10:54:02.022Z</time>
      </trkpt>
      <trkpt lat="46.33524" lon="6.05859">
        <ele>625.2</ele>
        <time>2020-11-01T10:54:03.022Z</time>
      </trkpt>
      <trkpt lat="46.33522" lon="6.05853">
        <ele>625.2</ele>
        <time>2020-11-01T10:54:04.02Z</time>
      </trkpt>
      <trkpt lat="46.3352" lon="6.05847">
        <ele>625.4</ele>
        <time>2020-11-01T10:54:05.023Z</time>
      </trkpt>
      <trkpt lat="46.3352" lon="6.05847">
        <ele>625.4</ele>
        <time>2020-11-01T10:54:06.02Z</time>
      </trkpt>
      <trkpt lat="46.33519" lon="6.05841">
        <ele>626.4</ele>
        <time>2020-11-01T10:54:07.023Z</time>
      </trkpt>
      <trkpt lat="46.33519" lon="6.05841">
        <ele>626.4</ele>
        <time>2020-11-01T10:54:08.021Z</time>
      </trkpt>
      <trkpt lat="46.33517" lon="6.05834">
        <ele>626.8</ele>
        <time>2020-11-01T10:54:09.023Z</time>
      </trkpt>
      <trkpt lat="46.33517" lon="6.05834">
        <ele>626.8</ele>
        <time>2020-11-01T10:54:10.02Z</time>
      </trkpt>
      <trkpt lat="46.33516" lon="6.05828">
        <ele>627.2</ele>
        <time>2020-11-01T10:54:11.02Z</time>
      </trkpt>
      <trkpt lat="46.33516" lon="6.05828">
        <ele>627.2</ele>
        <time>2020-11-01T10:54:12.021Z</time>
      </trkpt>
      <trkpt lat="46.33516" lon="6.05821">
        <ele>627.4</ele>
        <time>2020-11-01T10:54:13.021Z</time>
      </trkpt>
      <trkpt lat="46.33517" lon="6.05815">
        <ele>627.4</ele>
        <time>2020-11-01T10:54:14.022Z</time>
      </trkpt>
      <trkpt lat="46.33517" lon="6.05815">
        <ele>627.4</ele>
        <time>2020-11-01T10:54:15.022Z</time>
      </trkpt>
      <trkpt lat="46.33519" lon="6.05809">
        <ele>627.6</ele>
        <time>2020-11-01T10:54:16.022Z</time>
      </trkpt>
      <trkpt lat="46.33521" lon="6.05804">
        <ele>627.8</ele>
        <time>2020-11-01T10:54:17.021Z</time>
      </trkpt>
      <trkpt lat="46.33521" lon="6.05804">
        <ele>627.8</ele>
        <time>2020-11-01T10:54:18.023Z</time>
      </trkpt>
      <trkpt lat="46.33524" lon="6.05799">
        <ele>628</ele>
        <time>2020-11-01T10:54:19.022Z</time>
      </trkpt>
      <trkpt lat="46.33524" lon="6.05799">
        <ele>628</ele>
        <time>2020-11-01T10:54:20.021Z</time>
      </trkpt>
      <trkpt lat="46.33527" lon="6.05794">
        <ele>628.2</ele>
        <time>2020-11-01T10:54:21.022Z</time>
      </trkpt>
      <trkpt lat="46.33529" lon="6.05789">
        <ele>628.6</ele>
        <time>2020-11-01T10:54:22.021Z</time>
      </trkpt>
      <trkpt lat="46.33529" lon="6.05789">
        <ele>628.6</ele>
        <time>2020-11-01T10:54:23.021Z</time>
      </trkpt>
      <trkpt lat="46.33532" lon="6.05784">
        <ele>629</ele>
        <time>2020-11-01T10:54:24.021Z</time>
      </trkpt>
      <trkpt lat="46.33532" lon="6.05784">
        <ele>629</ele>
        <time>2020-11-01T10:54:25.021Z</time>
      </trkpt>
      <trkpt lat="46.33535" lon="6.05779">
        <ele>629.4</ele>
        <time>2020-11-01T10:54:26.024Z</time>
      </trkpt>
      <trkpt lat="46.33535" lon="6.05779">
        <ele>629.4</ele>
        <time>2020-11-01T10:54:27.02Z</time>
      </trkpt>
      <trkpt lat="46.33537" lon="6.05774">
        <ele>629.8</ele>
        <time>2020-11-01T10:54:28.022Z</time>
      </trkpt>
      <trkpt lat="46.3354" lon="6.05769">
        <ele>630.2</ele>
        <time>2020-11-01T10:54:29.022Z</time>
      </trkpt>
      <trkpt lat="46.3354" lon="6.05769">
        <ele>630.2</ele>
        <time>2020-11-01T10:54:30.021Z</time>
      </trkpt>
      <trkpt lat="46.33543" lon="6.05764">
        <ele>630.4</ele>
        <time>2020-11-01T10:54:31.022Z</time>
      </trkpt>
      <trkpt lat="46.33546" lon="6.05759">
        <ele>630.8</ele>
        <time>2020-11-01T10:54:32.022Z</time>
      </trkpt>
      <trkpt lat="46.33546" lon="6.05759">
        <ele>630.8</ele>
        <time>2020-11-01T10:54:33.02Z</time>
      </trkpt>
      <trkpt lat="46.33549" lon="6.05754">
        <ele>631</ele>
        <time>2020-11-01T10:54:34.021Z</time>
      </trkpt>
      <trkpt lat="46.33549" lon="6.05754">
        <ele>631</ele>
        <time>2020-11-01T10:54:35.022Z</time>
      </trkpt>
      <trkpt lat="46.33552" lon="6.0575">
        <ele>631.2</ele>
        <time>2020-11-01T10:54:36.021Z</time>
      </trkpt>
      <trkpt lat="46.33554" lon="6.05745">
        <ele>631.4</ele>
        <time>2020-11-01T10:54:37.022Z</time>
      </trkpt>
      <trkpt lat="46.33554" lon="6.05745">
        <ele>631.4</ele>
        <time>2020-11-01T10:54:38.02Z</time>
      </trkpt>
      <trkpt lat="46.33558" lon="6.0574">
        <ele>631.6</ele>
        <time>2020-11-01T10:54:39.022Z</time>
      </trkpt>
      <trkpt lat="46.33558" lon="6.0574">
        <ele>631.6</ele>
        <time>2020-11-01T10:54:40.021Z</time>
      </trkpt>
      <trkpt lat="46.33561" lon="6.05736">
        <ele>632</ele>
        <time>2020-11-01T10:54:41.021Z</time>
      </trkpt>
      <trkpt lat="46.33564" lon="6.05732">
        <ele>632.4</ele>
        <time>2020-11-01T10:54:42.021Z</time>
      </trkpt>
      <trkpt lat="46.33564" lon="6.05732">
        <ele>632.4</ele>
        <time>2020-11-01T10:54:43.022Z</time>
      </trkpt>
      <trkpt lat="46.33568" lon="6.05729">
        <ele>632.6</ele>
        <time>2020-11-01T10:54:44.02Z</time>
      </trkpt>
      <trkpt lat="46.33568" lon="6.05729">
        <ele>632.6</ele>
        <time>2020-11-01T10:54:45.023Z</time>
      </trkpt>
      <trkpt lat="46.33573" lon="6.05727">
        <ele>632.8</ele>
        <time>2020-11-01T10:54:46.02Z</time>
      </trkpt>
      <trkpt lat="46.33577" lon="6.05724">
        <ele>633</ele>
        <time>2020-11-01T10:54:47.022Z</time>
      </trkpt>
      <trkpt lat="46.33577" lon="6.05724">
        <ele>633</ele>
        <time>2020-11-01T10:54:48.022Z</time>
      </trkpt>
      <trkpt lat="46.33581" lon="6.05722">
        <ele>633.4</ele>
        <time>2020-11-01T10:54:49.022Z</time>
      </trkpt>
      <trkpt lat="46.33581" lon="6.05722">
        <ele>633.4</ele>
        <time>2020-11-01T10:54:50.022Z</time>
      </trkpt>
      <trkpt lat="46.33585" lon="6.0572">
        <ele>633.8</ele>
        <time>2020-11-01T10:54:51.021Z</time>
      </trkpt>
      <trkpt lat="46.33589" lon="6.05718">
        <ele>634.2</ele>
        <time>2020-11-01T10:54:52.021Z</time>
      </trkpt>
      <trkpt lat="46.33589" lon="6.05718">
        <ele>634.2</ele>
        <time>2020-11-01T10:54:53.021Z</time>
      </trkpt>
      <trkpt lat="46.33593" lon="6.05716">
        <ele>634.6</ele>
        <time>2020-11-01T10:54:54.021Z</time>
      </trkpt>
      <trkpt lat="46.33597" lon="6.05714">
        <ele>635</ele>
        <time>2020-11-01T10:54:55.02Z</time>
      </trkpt>
      <trkpt lat="46.33597" lon="6.05714">
        <ele>635</ele>
        <time>2020-11-01T10:54:56.021Z</time>
      </trkpt>
      <trkpt lat="46.33601" lon="6.05712">
        <ele>635.4</ele>
        <time>2020-11-01T10:54:57.022Z</time>
      </trkpt>
      <trkpt lat="46.33601" lon="6.05712">
        <ele>635.4</ele>
        <time>2020-11-01T10:54:58.021Z</time>
      </trkpt>
      <trkpt lat="46.33605" lon="6.05711">
        <ele>635.6</ele>
        <time>2020-11-01T10:54:59.022Z</time>
      </trkpt>
      <trkpt lat="46.33609" lon="6.05708">
        <ele>635.8</ele>
        <time>2020-11-01T10:55:00.021Z</time>
      </trkpt>
      <trkpt lat="46.33609" lon="6.05708">
        <ele>635.8</ele>
        <time>2020-11-01T10:55:01.023Z</time>
      </trkpt>
      <trkpt lat="46.33613" lon="6.05705">
        <ele>636</ele>
        <time>2020-11-01T10:55:02.021Z</time>
      </trkpt>
      <trkpt lat="46.33613" lon="6.05705">
        <ele>636</ele>
        <time>2020-11-01T10:55:03.022Z</time>
      </trkpt>
      <trkpt lat="46.33616" lon="6.05703">
        <ele>636.4</ele>
        <time>2020-11-01T10:55:04.02Z</time>
      </trkpt>
      <trkpt lat="46.3362" lon="6.057">
        <ele>636.8</ele>
        <time>2020-11-01T10:55:05.022Z</time>
      </trkpt>
      <trkpt lat="46.3362" lon="6.057">
        <ele>636.8</ele>
        <time>2020-11-01T10:55:06.022Z</time>
      </trkpt>
      <trkpt lat="46.33624" lon="6.05697">
        <ele>637.2</ele>
        <time>2020-11-01T10:55:07.022Z</time>
      </trkpt>
      <trkpt lat="46.33624" lon="6.05697">
        <ele>637.2</ele>
        <time>2020-11-01T10:55:08.021Z</time>
      </trkpt>
      <trkpt lat="46.33628" lon="6.05695">
        <ele>637.4</ele>
        <time>2020-11-01T10:55:09.021Z</time>
      </trkpt>
      <trkpt lat="46.33632" lon="6.05692">
        <ele>637.6</ele>
        <time>2020-11-01T10:55:10.023Z</time>
      </trkpt>
      <trkpt lat="46.33632" lon="6.05692">
        <ele>637.6</ele>
        <time>2020-11-01T10:55:11.02Z</time>
      </trkpt>
      <trkpt lat="46.33636" lon="6.05689">
        <ele>637.8</ele>
        <time>2020-11-01T10:55:12.021Z</time>
      </trkpt>
      <trkpt lat="46.33636" lon="6.05689">
        <ele>637.8</ele>
        <time>2020-11-01T10:55:13.022Z</time>
      </trkpt>
      <trkpt lat="46.33641" lon="6.05686">
        <ele>638.2</ele>
        <time>2020-11-01T10:55:14.021Z</time>
      </trkpt>
      <trkpt lat="46.33641" lon="6.05686">
        <ele>638.2</ele>
        <time>2020-11-01T10:55:15.02Z</time>
      </trkpt>
      <trkpt lat="46.33645" lon="6.05683">
        <ele>638.4</ele>
        <time>2020-11-01T10:55:16.02Z</time>
      </trkpt>
      <trkpt lat="46.33645" lon="6.05683">
        <ele>638.4</ele>
        <time>2020-11-01T10:55:17.021Z</time>
      </trkpt>
      <trkpt lat="46.33649" lon="6.0568">
        <ele>638.8</ele>
        <time>2020-11-01T10:55:18.021Z</time>
      </trkpt>
      <trkpt lat="46.33653" lon="6.05678">
        <ele>639</ele>
        <time>2020-11-01T10:55:19.022Z</time>
      </trkpt>
      <trkpt lat="46.33653" lon="6.05678">
        <ele>639</ele>
        <time>2020-11-01T10:55:20.021Z</time>
      </trkpt>
      <trkpt lat="46.33658" lon="6.05675">
        <ele>639.4</ele>
        <time>2020-11-01T10:55:21.02Z</time>
      </trkpt>
      <trkpt lat="46.33658" lon="6.05675">
        <ele>639.4</ele>
        <time>2020-11-01T10:55:22.021Z</time>
      </trkpt>
      <trkpt lat="46.33662" lon="6.05673">
        <ele>639.6</ele>
        <time>2020-11-01T10:55:23.021Z</time>
      </trkpt>
      <trkpt lat="46.33662" lon="6.05673">
        <ele>639.6</ele>
        <time>2020-11-01T10:55:24.022Z</time>
      </trkpt>
      <trkpt lat="46.33667" lon="6.0567">
        <ele>639.8</ele>
        <time>2020-11-01T10:55:25.022Z</time>
      </trkpt>
      <trkpt lat="46.33672" lon="6.05667">
        <ele>640</ele>
        <time>2020-11-01T10:55:26.021Z</time>
      </trkpt>
      <trkpt lat="46.33672" lon="6.05667">
        <ele>640</ele>
        <time>2020-11-01T10:55:27.021Z</time>
      </trkpt>
      <trkpt lat="46.33676" lon="6.05665">
        <ele>640</ele>
        <time>2020-11-01T10:55:28.021Z</time>
      </trkpt>
      <trkpt lat="46.33681" lon="6.05662">
        <ele>640.4</ele>
        <time>2020-11-01T10:55:29.023Z</time>
      </trkpt>
      <trkpt lat="46.33686" lon="6.05659">
        <ele>640.6</ele>
        <time>2020-11-01T10:55:30.021Z</time>
      </trkpt>
      <trkpt lat="46.33686" lon="6.05659">
        <ele>640.6</ele>
        <time>2020-11-01T10:55:31.022Z</time>
      </trkpt>
      <trkpt lat="46.33691" lon="6.05656">
        <ele>640.6</ele>
        <time>2020-11-01T10:55:32.023Z</time>
      </trkpt>
      <trkpt lat="46.33696" lon="6.05653">
        <ele>640.8</ele>
        <time>2020-11-01T10:55:33.022Z</time>
      </trkpt>
      <trkpt lat="46.337" lon="6.0565">
        <ele>641</ele>
        <time>2020-11-01T10:55:34.02Z</time>
      </trkpt>
      <trkpt lat="46.33705" lon="6.05648">
        <ele>641</ele>
        <time>2020-11-01T10:55:35.022Z</time>
      </trkpt>
      <trkpt lat="46.3371" lon="6.05647">
        <ele>641.2</ele>
        <time>2020-11-01T10:55:36.022Z</time>
      </trkpt>
      <trkpt lat="46.33715" lon="6.05647">
        <ele>641.2</ele>
        <time>2020-11-01T10:55:37.02Z</time>
      </trkpt>
      <trkpt lat="46.33715" lon="6.05647">
        <ele>641.2</ele>
        <time>2020-11-01T10:55:38.021Z</time>
      </trkpt>
      <trkpt lat="46.3372" lon="6.05648">
        <ele>641.2</ele>
        <time>2020-11-01T10:55:39.022Z</time>
      </trkpt>
      <trkpt lat="46.33725" lon="6.0565">
        <ele>641.2</ele>
        <time>2020-11-01T10:55:40.022Z</time>
      </trkpt>
      <trkpt lat="46.3373" lon="6.05652">
        <ele>641.4</ele>
        <time>2020-11-01T10:55:41.023Z</time>
      </trkpt>
      <trkpt lat="46.33735" lon="6.05654">
        <ele>641.6</ele>
        <time>2020-11-01T10:55:42.021Z</time>
      </trkpt>
      <trkpt lat="46.33739" lon="6.05657">
        <ele>641.8</ele>
        <time>2020-11-01T10:55:43.023Z</time>
      </trkpt>
      <trkpt lat="46.33744" lon="6.0566">
        <ele>642.2</ele>
        <time>2020-11-01T10:55:44.021Z</time>
      </trkpt>
      <trkpt lat="46.33744" lon="6.0566">
        <ele>642.2</ele>
        <time>2020-11-01T10:55:45.021Z</time>
      </trkpt>
      <trkpt lat="46.33749" lon="6.05664">
        <ele>642.4</ele>
        <time>2020-11-01T10:55:46.022Z</time>
      </trkpt>
      <trkpt lat="46.33753" lon="6.05668">
        <ele>642.6</ele>
        <time>2020-11-01T10:55:47.02Z</time>
      </trkpt>
      <trkpt lat="46.33757" lon="6.05672">
        <ele>642.8</ele>
        <time>2020-11-01T10:55:48.023Z</time>
      </trkpt>
      <trkpt lat="46.33757" lon="6.05672">
        <ele>642.8</ele>
        <time>2020-11-01T10:55:49.021Z</time>
      </trkpt>
      <trkpt lat="46.33762" lon="6.05677">
        <ele>642.8</ele>
        <time>2020-11-01T10:55:50.022Z</time>
      </trkpt>
      <trkpt lat="46.33766" lon="6.05682">
        <ele>642.8</ele>
        <time>2020-11-01T10:55:51.02Z</time>
      </trkpt>
      <trkpt lat="46.3377" lon="6.05687">
        <ele>643</ele>
        <time>2020-11-01T10:55:52.022Z</time>
      </trkpt>
      <trkpt lat="46.33774" lon="6.05692">
        <ele>643.2</ele>
        <time>2020-11-01T10:55:53.02Z</time>
      </trkpt>
      <trkpt lat="46.33778" lon="6.05697">
        <ele>643.4</ele>
        <time>2020-11-01T10:55:54.023Z</time>
      </trkpt>
      <trkpt lat="46.33778" lon="6.05697">
        <ele>643.4</ele>
        <time>2020-11-01T10:55:55.021Z</time>
      </trkpt>
      <trkpt lat="46.33782" lon="6.05702">
        <ele>643.4</ele>
        <time>2020-11-01T10:55:56.021Z</time>
      </trkpt>
      <trkpt lat="46.33786" lon="6.05707">
        <ele>643.6</ele>
        <time>2020-11-01T10:55:57.022Z</time>
      </trkpt>
      <trkpt lat="46.33789" lon="6.05712">
        <ele>643.6</ele>
        <time>2020-11-01T10:55:58.022Z</time>
      </trkpt>
      <trkpt lat="46.33789" lon="6.05712">
        <ele>643.6</ele>
        <time>2020-11-01T10:55:59.02Z</time>
      </trkpt>
      <trkpt lat="46.33793" lon="6.05718">
        <ele>643.6</ele>
        <time>2020-11-01T10:56:00.022Z</time>
      </trkpt>
      <trkpt lat="46.33797" lon="6.05723">
        <ele>644</ele>
        <time>2020-11-01T10:56:01.021Z</time>
      </trkpt>
      <trkpt lat="46.33801" lon="6.05728">
        <ele>644.2</ele>
        <time>2020-11-01T10:56:02.021Z</time>
      </trkpt>
      <trkpt lat="46.33801" lon="6.05728">
        <ele>644.2</ele>
        <time>2020-11-01T10:56:03.02Z</time>
      </trkpt>
      <trkpt lat="46.33806" lon="6.05733">
        <ele>644.6</ele>
        <time>2020-11-01T10:56:04.022Z</time>
      </trkpt>
      <trkpt lat="46.3381" lon="6.05738">
        <ele>644.8</ele>
        <time>2020-11-01T10:56:05.022Z</time>
      </trkpt>
      <trkpt lat="46.33814" lon="6.05743">
        <ele>645.2</ele>
        <time>2020-11-01T10:56:06.021Z</time>
      </trkpt>
      <trkpt lat="46.33814" lon="6.05743">
        <ele>645.2</ele>
        <time>2020-11-01T10:56:07.02Z</time>
      </trkpt>
      <trkpt lat="46.33818" lon="6.05749">
        <ele>645.4</ele>
        <time>2020-11-01T10:56:08.021Z</time>
      </trkpt>
      <trkpt lat="46.33822" lon="6.05754">
        <ele>645.4</ele>
        <time>2020-11-01T10:56:09.021Z</time>
      </trkpt>
      <trkpt lat="46.33826" lon="6.05759">
        <ele>645.8</ele>
        <time>2020-11-01T10:56:10.023Z</time>
      </trkpt>
      <trkpt lat="46.33826" lon="6.05759">
        <ele>645.8</ele>
        <time>2020-11-01T10:56:11.022Z</time>
      </trkpt>
      <trkpt lat="46.33831" lon="6.05764">
        <ele>646</ele>
        <time>2020-11-01T10:56:12.022Z</time>
      </trkpt>
      <trkpt lat="46.33835" lon="6.05768">
        <ele>646.4</ele>
        <time>2020-11-01T10:56:13.02Z</time>
      </trkpt>
      <trkpt lat="46.3384" lon="6.05773">
        <ele>646.6</ele>
        <time>2020-11-01T10:56:14.021Z</time>
      </trkpt>
      <trkpt lat="46.3384" lon="6.05773">
        <ele>646.6</ele>
        <time>2020-11-01T10:56:15.021Z</time>
      </trkpt>
      <trkpt lat="46.33844" lon="6.05777">
        <ele>646.8</ele>
        <time>2020-11-01T10:56:16.021Z</time>
      </trkpt>
      <trkpt lat="46.33849" lon="6.05781">
        <ele>647</ele>
        <time>2020-11-01T10:56:17.023Z</time>
      </trkpt>
      <trkpt lat="46.33854" lon="6.05785">
        <ele>647.2</ele>
        <time>2020-11-01T10:56:18.021Z</time>
      </trkpt>
      <trkpt lat="46.33854" lon="6.05785">
        <ele>647.2</ele>
        <time>2020-11-01T10:56:19.021Z</time>
      </trkpt>
      <trkpt lat="46.33859" lon="6.05789">
        <ele>647.2</ele>
        <time>2020-11-01T10:56:20.022Z</time>
      </trkpt>
      <trkpt lat="46.33864" lon="6.05793">
        <ele>647.4</ele>
        <time>2020-11-01T10:56:21.02Z</time>
      </trkpt>
      <trkpt lat="46.33864" lon="6.05793">
        <ele>647.4</ele>
        <time>2020-11-01T10:56:22.02Z</time>
      </trkpt>
      <trkpt lat="46.33868" lon="6.05797">
        <ele>647.4</ele>
        <time>2020-11-01T10:56:23.021Z</time>
      </trkpt>
      <trkpt lat="46.33874" lon="6.05801">
        <ele>647.6</ele>
        <time>2020-11-01T10:56:24.021Z</time>
      </trkpt>
      <trkpt lat="46.33879" lon="6.05804">
        <ele>647.8</ele>
        <time>2020-11-01T10:56:25.02Z</time>
      </trkpt>
      <trkpt lat="46.33879" lon="6.05804">
        <ele>647.8</ele>
        <time>2020-11-01T10:56:26.021Z</time>
      </trkpt>
      <trkpt lat="46.33884" lon="6.05807">
        <ele>648</ele>
        <time>2020-11-01T10:56:27.022Z</time>
      </trkpt>
      <trkpt lat="46.33889" lon="6.05809">
        <ele>648.2</ele>
        <time>2020-11-01T10:56:28.021Z</time>
      </trkpt>
      <trkpt lat="46.33889" lon="6.05809">
        <ele>648.2</ele>
        <time>2020-11-01T10:56:29.02Z</time>
      </trkpt>
      <trkpt lat="46.33895" lon="6.05811">
        <ele>648.4</ele>
        <time>2020-11-01T10:56:30.02Z</time>
      </trkpt>
      <trkpt lat="46.339" lon="6.05812">
        <ele>648.6</ele>
        <time>2020-11-01T10:56:31.021Z</time>
      </trkpt>
      <trkpt lat="46.33906" lon="6.05812">
        <ele>648.8</ele>
        <time>2020-11-01T10:56:32.021Z</time>
      </trkpt>
      <trkpt lat="46.33906" lon="6.05812">
        <ele>648.8</ele>
        <time>2020-11-01T10:56:33.021Z</time>
      </trkpt>
      <trkpt lat="46.33912" lon="6.05812">
        <ele>649</ele>
        <time>2020-11-01T10:56:34.023Z</time>
      </trkpt>
      <trkpt lat="46.33917" lon="6.0581">
        <ele>649.2</ele>
        <time>2020-11-01T10:56:35.021Z</time>
      </trkpt>
      <trkpt lat="46.33923" lon="6.05808">
        <ele>649.4</ele>
        <time>2020-11-01T10:56:36.022Z</time>
      </trkpt>
      <trkpt lat="46.33923" lon="6.05808">
        <ele>649.4</ele>
        <time>2020-11-01T10:56:37.022Z</time>
      </trkpt>
      <trkpt lat="46.33928" lon="6.05805">
        <ele>649.6</ele>
        <time>2020-11-01T10:56:38.021Z</time>
      </trkpt>
      <trkpt lat="46.33933" lon="6.05801">
        <ele>649.8</ele>
        <time>2020-11-01T10:56:39.022Z</time>
      </trkpt>
      <trkpt lat="46.33933" lon="6.05801">
        <ele>649.8</ele>
        <time>2020-11-01T10:56:40.02Z</time>
      </trkpt>
      <trkpt lat="46.33938" lon="6.05797">
        <ele>650.2</ele>
        <time>2020-11-01T10:56:41.022Z</time>
      </trkpt>
      <trkpt lat="46.33943" lon="6.05793">
        <ele>650.4</ele>
        <time>2020-11-01T10:56:42.021Z</time>
      </trkpt>
      <trkpt lat="46.33949" lon="6.05788">
        <ele>650.6</ele>
        <time>2020-11-01T10:56:43.02Z</time>
      </trkpt>
      <trkpt lat="46.33949" lon="6.05788">
        <ele>650.6</ele>
        <time>2020-11-01T10:56:44.021Z</time>
      </trkpt>
      <trkpt lat="46.33954" lon="6.05783">
        <ele>651</ele>
        <time>2020-11-01T10:56:45.023Z</time>
      </trkpt>
      <trkpt lat="46.33959" lon="6.05779">
        <ele>651.2</ele>
        <time>2020-11-01T10:56:46.022Z</time>
      </trkpt>
      <trkpt lat="46.33959" lon="6.05779">
        <ele>651.2</ele>
        <time>2020-11-01T10:56:47.022Z</time>
      </trkpt>
      <trkpt lat="46.33964" lon="6.05774">
        <ele>651.2</ele>
        <time>2020-11-01T10:56:48.021Z</time>
      </trkpt>
      <trkpt lat="46.33969" lon="6.05768">
        <ele>651.4</ele>
        <time>2020-11-01T10:56:49.021Z</time>
      </trkpt>
      <trkpt lat="46.33969" lon="6.05768">
        <ele>651.4</ele>
        <time>2020-11-01T10:56:50.023Z</time>
      </trkpt>
      <trkpt lat="46.33974" lon="6.05763">
        <ele>651.6</ele>
        <time>2020-11-01T10:56:51.021Z</time>
      </trkpt>
      <trkpt lat="46.33978" lon="6.05758">
        <ele>651.8</ele>
        <time>2020-11-01T10:56:52.02Z</time>
      </trkpt>
      <trkpt lat="46.33983" lon="6.05754">
        <ele>651.8</ele>
        <time>2020-11-01T10:56:53.02Z</time>
      </trkpt>
      <trkpt lat="46.33983" lon="6.05754">
        <ele>651.8</ele>
        <time>2020-11-01T10:56:54.021Z</time>
      </trkpt>
      <trkpt lat="46.33987" lon="6.05749">
        <ele>652</ele>
        <time>2020-11-01T10:56:55.022Z</time>
      </trkpt>
      <trkpt lat="46.33992" lon="6.05745">
        <ele>652</ele>
        <time>2020-11-01T10:56:56.022Z</time>
      </trkpt>
      <trkpt lat="46.33996" lon="6.05741">
        <ele>652</ele>
        <time>2020-11-01T10:56:57.022Z</time>
      </trkpt>
      <trkpt lat="46.33996" lon="6.05741">
        <ele>652</ele>
        <time>2020-11-01T10:56:58.021Z</time>
      </trkpt>
      <trkpt lat="46.34001" lon="6.05736">
        <ele>652.2</ele>
        <time>2020-11-01T10:56:59.022Z</time>
      </trkpt>
      <trkpt lat="46.34005" lon="6.05732">
        <ele>652.2</ele>
        <time>2020-11-01T10:57:00.022Z</time>
      </trkpt>
      <trkpt lat="46.3401" lon="6.05729">
        <ele>652.2</ele>
        <time>2020-11-01T10:57:01.022Z</time>
      </trkpt>
      <trkpt lat="46.34014" lon="6.05725">
        <ele>652.4</ele>
        <time>2020-11-01T10:57:02.02Z</time>
      </trkpt>
      <trkpt lat="46.34014" lon="6.05725">
        <ele>652.4</ele>
        <time>2020-11-01T10:57:03.021Z</time>
      </trkpt>
      <trkpt lat="46.34018" lon="6.05721">
        <ele>652.8</ele>
        <time>2020-11-01T10:57:04.02Z</time>
      </trkpt>
      <trkpt lat="46.34022" lon="6.05718">
        <ele>653</ele>
        <time>2020-11-01T10:57:05.021Z</time>
      </trkpt>
      <trkpt lat="46.34026" lon="6.05714">
        <ele>653.6</ele>
        <time>2020-11-01T10:57:06.022Z</time>
      </trkpt>
      <trkpt lat="46.34026" lon="6.05714">
        <ele>653.6</ele>
        <time>2020-11-01T10:57:07.022Z</time>
      </trkpt>
      <trkpt lat="46.3403" lon="6.05711">
        <ele>653.8</ele>
        <time>2020-11-01T10:57:08.02Z</time>
      </trkpt>
      <trkpt lat="46.34035" lon="6.05708">
        <ele>654</ele>
        <time>2020-11-01T10:57:09.023Z</time>
      </trkpt>
      <trkpt lat="46.34035" lon="6.05708">
        <ele>654</ele>
        <time>2020-11-01T10:57:10.021Z</time>
      </trkpt>
      <trkpt lat="46.34039" lon="6.05704">
        <ele>654.2</ele>
        <time>2020-11-01T10:57:11.022Z</time>
      </trkpt>
      <trkpt lat="46.34039" lon="6.05704">
        <ele>654.2</ele>
        <time>2020-11-01T10:57:12.021Z</time>
      </trkpt>
      <trkpt lat="46.34043" lon="6.05701">
        <ele>654.6</ele>
        <time>2020-11-01T10:57:13.021Z</time>
      </trkpt>
      <trkpt lat="46.34047" lon="6.05697">
        <ele>655</ele>
        <time>2020-11-01T10:57:14.022Z</time>
      </trkpt>
      <trkpt lat="46.34051" lon="6.05694">
        <ele>655.4</ele>
        <time>2020-11-01T10:57:15.022Z</time>
      </trkpt>
      <trkpt lat="46.34051" lon="6.05694">
        <ele>655.4</ele>
        <time>2020-11-01T10:57:16.02Z</time>
      </trkpt>
      <trkpt lat="46.34055" lon="6.05691">
        <ele>655.8</ele>
        <time>2020-11-01T10:57:17.023Z</time>
      </trkpt>
      <trkpt lat="46.34059" lon="6.05688">
        <ele>656.2</ele>
        <time>2020-11-01T10:57:18.022Z</time>
      </trkpt>
      <trkpt lat="46.34059" lon="6.05688">
        <ele>656.2</ele>
        <time>2020-11-01T10:57:19.022Z</time>
      </trkpt>
      <trkpt lat="46.34063" lon="6.05685">
        <ele>656.6</ele>
        <time>2020-11-01T10:57:20.021Z</time>
      </trkpt>
      <trkpt lat="46.34063" lon="6.05685">
        <ele>656.6</ele>
        <time>2020-11-01T10:57:21.021Z</time>
      </trkpt>
      <trkpt lat="46.34068" lon="6.05683">
        <ele>657</ele>
        <time>2020-11-01T10:57:22.02Z</time>
      </trkpt>
      <trkpt lat="46.34072" lon="6.05682">
        <ele>657.4</ele>
        <time>2020-11-01T10:57:23.022Z</time>
      </trkpt>
      <trkpt lat="46.34072" lon="6.05682">
        <ele>657.4</ele>
        <time>2020-11-01T10:57:24.021Z</time>
      </trkpt>
      <trkpt lat="46.34077" lon="6.05681">
        <ele>657.6</ele>
        <time>2020-11-01T10:57:25.022Z</time>
      </trkpt>
      <trkpt lat="46.34082" lon="6.05681">
        <ele>658</ele>
        <time>2020-11-01T10:57:26.02Z</time>
      </trkpt>
      <trkpt lat="46.34082" lon="6.05681">
        <ele>658</ele>
        <time>2020-11-01T10:57:27.02Z</time>
      </trkpt>
      <trkpt lat="46.34087" lon="6.05681">
        <ele>658.2</ele>
        <time>2020-11-01T10:57:28.022Z</time>
      </trkpt>
      <trkpt lat="46.34087" lon="6.05681">
        <ele>658.2</ele>
        <time>2020-11-01T10:57:29.022Z</time>
      </trkpt>
      <trkpt lat="46.34091" lon="6.05679">
        <ele>658.6</ele>
        <time>2020-11-01T10:57:30.021Z</time>
      </trkpt>
      <trkpt lat="46.34096" lon="6.05678">
        <ele>659</ele>
        <time>2020-11-01T10:57:31.022Z</time>
      </trkpt>
      <trkpt lat="46.34096" lon="6.05678">
        <ele>659</ele>
        <time>2020-11-01T10:57:32.022Z</time>
      </trkpt>
      <trkpt lat="46.341" lon="6.05675">
        <ele>659.6</ele>
        <time>2020-11-01T10:57:33.021Z</time>
      </trkpt>
      <trkpt lat="46.34105" lon="6.05673">
        <ele>660</ele>
        <time>2020-11-01T10:57:34.02Z</time>
      </trkpt>
      <trkpt lat="46.34105" lon="6.05673">
        <ele>660</ele>
        <time>2020-11-01T10:57:35.021Z</time>
      </trkpt>
      <trkpt lat="46.3411" lon="6.05672">
        <ele>660.2</ele>
        <time>2020-11-01T10:57:36.02Z</time>
      </trkpt>
      <trkpt lat="46.3411" lon="6.05672">
        <ele>660.2</ele>
        <time>2020-11-01T10:57:37.02Z</time>
      </trkpt>
      <trkpt lat="46.34115" lon="6.05672">
        <ele>660.4</ele>
        <time>2020-11-01T10:57:38.021Z</time>
      </trkpt>
      <trkpt lat="46.3412" lon="6.05672">
        <ele>660.6</ele>
        <time>2020-11-01T10:57:39.02Z</time>
      </trkpt>
      <trkpt lat="46.3412" lon="6.05672">
        <ele>660.6</ele>
        <time>2020-11-01T10:57:40.021Z</time>
      </trkpt>
      <trkpt lat="46.34126" lon="6.05674">
        <ele>660.6</ele>
        <time>2020-11-01T10:57:41.021Z</time>
      </trkpt>
      <trkpt lat="46.34126" lon="6.05674">
        <ele>660.6</ele>
        <time>2020-11-01T10:57:42.021Z</time>
      </trkpt>
      <trkpt lat="46.34131" lon="6.05675">
        <ele>660.8</ele>
        <time>2020-11-01T10:57:43.022Z</time>
      </trkpt>
      <trkpt lat="46.34131" lon="6.05675">
        <ele>660.8</ele>
        <time>2020-11-01T10:57:44.02Z</time>
      </trkpt>
      <trkpt lat="46.34136" lon="6.05677">
        <ele>662</ele>
        <time>2020-11-01T10:57:45.02Z</time>
      </trkpt>
      <trkpt lat="46.34136" lon="6.05677">
        <ele>662</ele>
        <time>2020-11-01T10:57:46.021Z</time>
      </trkpt>
      <trkpt lat="46.34141" lon="6.05679">
        <ele>662.2</ele>
        <time>2020-11-01T10:57:47.022Z</time>
      </trkpt>
      <trkpt lat="46.34141" lon="6.05679">
        <ele>662.2</ele>
        <time>2020-11-01T10:57:48.02Z</time>
      </trkpt>
      <trkpt lat="46.34145" lon="6.05681">
        <ele>662.4</ele>
        <time>2020-11-01T10:57:49.022Z</time>
      </trkpt>
      <trkpt lat="46.34145" lon="6.05681">
        <ele>662.4</ele>
        <time>2020-11-01T10:57:50.022Z</time>
      </trkpt>
      <trkpt lat="46.3415" lon="6.05684">
        <ele>662.6</ele>
        <time>2020-11-01T10:57:51.021Z</time>
      </trkpt>
      <trkpt lat="46.3415" lon="6.05684">
        <ele>662.6</ele>
        <time>2020-11-01T10:57:52.021Z</time>
      </trkpt>
      <trkpt lat="46.34155" lon="6.05686">
        <ele>662.8</ele>
        <time>2020-11-01T10:57:53.021Z</time>
      </trkpt>
      <trkpt lat="46.34159" lon="6.05689">
        <ele>662.8</ele>
        <time>2020-11-01T10:57:54.021Z</time>
      </trkpt>
      <trkpt lat="46.34159" lon="6.05689">
        <ele>662.8</ele>
        <time>2020-11-01T10:57:55.021Z</time>
      </trkpt>
      <trkpt lat="46.34163" lon="6.05692">
        <ele>663</ele>
        <time>2020-11-01T10:57:56.021Z</time>
      </trkpt>
      <trkpt lat="46.34163" lon="6.05692">
        <ele>663</ele>
        <time>2020-11-01T10:57:57.021Z</time>
      </trkpt>
      <trkpt lat="46.34168" lon="6.05694">
        <ele>663</ele>
        <time>2020-11-01T10:57:58.022Z</time>
      </trkpt>
      <trkpt lat="46.34172" lon="6.05697">
        <ele>663.4</ele>
        <time>2020-11-01T10:57:59.022Z</time>
      </trkpt>
      <trkpt lat="46.34172" lon="6.05697">
        <ele>663.4</ele>
        <time>2020-11-01T10:58:00.02Z</time>
      </trkpt>
      <trkpt lat="46.34176" lon="6.05699">
        <ele>663.8</ele>
        <time>2020-11-01T10:58:01.02Z</time>
      </trkpt>
      <trkpt lat="46.34176" lon="6.05699">
        <ele>663.8</ele>
        <time>2020-11-01T10:58:02.022Z</time>
      </trkpt>
      <trkpt lat="46.3418" lon="6.05702">
        <ele>664</ele>
        <time>2020-11-01T10:58:03.02Z</time>
      </trkpt>
      <trkpt lat="46.34184" lon="6.05704">
        <ele>664.4</ele>
        <time>2020-11-01T10:58:04.022Z</time>
      </trkpt>
      <trkpt lat="46.34184" lon="6.05704">
        <ele>664.4</ele>
        <time>2020-11-01T10:58:05.021Z</time>
      </trkpt>
      <trkpt lat="46.34188" lon="6.05707">
        <ele>664.6</ele>
        <time>2020-11-01T10:58:06.021Z</time>
      </trkpt>
      <trkpt lat="46.34188" lon="6.05707">
        <ele>664.6</ele>
        <time>2020-11-01T10:58:07.022Z</time>
      </trkpt>
      <trkpt lat="46.34192" lon="6.05709">
        <ele>665</ele>
        <time>2020-11-01T10:58:08.021Z</time>
      </trkpt>
      <trkpt lat="46.34196" lon="6.05711">
        <ele>665.4</ele>
        <time>2020-11-01T10:58:09.021Z</time>
      </trkpt>
      <trkpt lat="46.34196" lon="6.05711">
        <ele>665.4</ele>
        <time>2020-11-01T10:58:10.02Z</time>
      </trkpt>
      <trkpt lat="46.342" lon="6.05714">
        <ele>665.6</ele>
        <time>2020-11-01T10:58:11.021Z</time>
      </trkpt>
      <trkpt lat="46.34204" lon="6.05716">
        <ele>666</ele>
        <time>2020-11-01T10:58:12.023Z</time>
      </trkpt>
      <trkpt lat="46.34204" lon="6.05716">
        <ele>666</ele>
        <time>2020-11-01T10:58:13.021Z</time>
      </trkpt>
      <trkpt lat="46.34208" lon="6.05718">
        <ele>666.4</ele>
        <time>2020-11-01T10:58:14.02Z</time>
      </trkpt>
      <trkpt lat="46.34212" lon="6.0572">
        <ele>666.8</ele>
        <time>2020-11-01T10:58:15.022Z</time>
      </trkpt>
      <trkpt lat="46.34212" lon="6.0572">
        <ele>666.8</ele>
        <time>2020-11-01T10:58:16.021Z</time>
      </trkpt>
      <trkpt lat="46.34216" lon="6.05721">
        <ele>667.2</ele>
        <time>2020-11-01T10:58:17.022Z</time>
      </trkpt>
      <trkpt lat="46.34216" lon="6.05721">
        <ele>667.2</ele>
        <time>2020-11-01T10:58:18.022Z</time>
      </trkpt>
      <trkpt lat="46.3422" lon="6.05722">
        <ele>667.6</ele>
        <time>2020-11-01T10:58:19.022Z</time>
      </trkpt>
      <trkpt lat="46.34224" lon="6.05723">
        <ele>667.8</ele>
        <time>2020-11-01T10:58:20.02Z</time>
      </trkpt>
      <trkpt lat="46.34224" lon="6.05723">
        <ele>667.8</ele>
        <time>2020-11-01T10:58:21.022Z</time>
      </trkpt>
      <trkpt lat="46.34228" lon="6.05724">
        <ele>668.2</ele>
        <time>2020-11-01T10:58:22.022Z</time>
      </trkpt>
      <trkpt lat="46.34233" lon="6.05724">
        <ele>668.6</ele>
        <time>2020-11-01T10:58:23.022Z</time>
      </trkpt>
      <trkpt lat="46.34237" lon="6.05724">
        <ele>669</ele>
        <time>2020-11-01T10:58:24.022Z</time>
      </trkpt>
      <trkpt lat="46.34237" lon="6.05724">
        <ele>669</ele>
        <time>2020-11-01T10:58:25.021Z</time>
      </trkpt>
      <trkpt lat="46.34241" lon="6.05723">
        <ele>669.2</ele>
        <time>2020-11-01T10:58:26.021Z</time>
      </trkpt>
      <trkpt lat="46.34241" lon="6.05723">
        <ele>669.2</ele>
        <time>2020-11-01T10:58:27.021Z</time>
      </trkpt>
      <trkpt lat="46.34245" lon="6.05722">
        <ele>669.6</ele>
        <time>2020-11-01T10:58:28.022Z</time>
      </trkpt>
      <trkpt lat="46.34249" lon="6.05721">
        <ele>670</ele>
        <time>2020-11-01T10:58:29.022Z</time>
      </trkpt>
      <trkpt lat="46.34249" lon="6.05721">
        <ele>670</ele>
        <time>2020-11-01T10:58:30.021Z</time>
      </trkpt>
      <trkpt lat="46.34253" lon="6.05719">
        <ele>670.4</ele>
        <time>2020-11-01T10:58:31.021Z</time>
      </trkpt>
      <trkpt lat="46.34257" lon="6.05717">
        <ele>671</ele>
        <time>2020-11-01T10:58:32.021Z</time>
      </trkpt>
      <trkpt lat="46.34261" lon="6.05715">
        <ele>671.2</ele>
        <time>2020-11-01T10:58:33.02Z</time>
      </trkpt>
      <trkpt lat="46.34261" lon="6.05715">
        <ele>671.2</ele>
        <time>2020-11-01T10:58:34.022Z</time>
      </trkpt>
      <trkpt lat="46.34265" lon="6.05712">
        <ele>671.4</ele>
        <time>2020-11-01T10:58:35.021Z</time>
      </trkpt>
      <trkpt lat="46.34265" lon="6.05712">
        <ele>671.4</ele>
        <time>2020-11-01T10:58:36.02Z</time>
      </trkpt>
      <trkpt lat="46.34268" lon="6.05708">
        <ele>671.6</ele>
        <time>2020-11-01T10:58:37.02Z</time>
      </trkpt>
      <trkpt lat="46.34271" lon="6.05704">
        <ele>671.8</ele>
        <time>2020-11-01T10:58:38.023Z</time>
      </trkpt>
      <trkpt lat="46.34271" lon="6.05704">
        <ele>671.8</ele>
        <time>2020-11-01T10:58:39.02Z</time>
      </trkpt>
      <trkpt lat="46.34274" lon="6.057">
        <ele>672</ele>
        <time>2020-11-01T10:58:40.021Z</time>
      </trkpt>
      <trkpt lat="46.34277" lon="6.05695">
        <ele>672.2</ele>
        <time>2020-11-01T10:58:41.021Z</time>
      </trkpt>
      <trkpt lat="46.34277" lon="6.05695">
        <ele>672.2</ele>
        <time>2020-11-01T10:58:42.02Z</time>
      </trkpt>
      <trkpt lat="46.3428" lon="6.05691">
        <ele>672.6</ele>
        <time>2020-11-01T10:58:43.02Z</time>
      </trkpt>
      <trkpt lat="46.34283" lon="6.05686">
        <ele>673</ele>
        <time>2020-11-01T10:58:44.02Z</time>
      </trkpt>
      <trkpt lat="46.34283" lon="6.05686">
        <ele>673</ele>
        <time>2020-11-01T10:58:45.02Z</time>
      </trkpt>
      <trkpt lat="46.34285" lon="6.05681">
        <ele>673</ele>
        <time>2020-11-01T10:58:46.022Z</time>
      </trkpt>
      <trkpt lat="46.34287" lon="6.05676">
        <ele>673.2</ele>
        <time>2020-11-01T10:58:47.02Z</time>
      </trkpt>
      <trkpt lat="46.34287" lon="6.05676">
        <ele>673.2</ele>
        <time>2020-11-01T10:58:48.021Z</time>
      </trkpt>
      <trkpt lat="46.3429" lon="6.0567">
        <ele>673.6</ele>
        <time>2020-11-01T10:58:49.021Z</time>
      </trkpt>
      <trkpt lat="46.34292" lon="6.05665">
        <ele>673.8</ele>
        <time>2020-11-01T10:58:50.02Z</time>
      </trkpt>
      <trkpt lat="46.34292" lon="6.05665">
        <ele>673.8</ele>
        <time>2020-11-01T10:58:51.021Z</time>
      </trkpt>
      <trkpt lat="46.34294" lon="6.0566">
        <ele>674.2</ele>
        <time>2020-11-01T10:58:52.021Z</time>
      </trkpt>
      <trkpt lat="46.34295" lon="6.05654">
        <ele>674.2</ele>
        <time>2020-11-01T10:58:53.021Z</time>
      </trkpt>
      <trkpt lat="46.34295" lon="6.05654">
        <ele>674.2</ele>
        <time>2020-11-01T10:58:54.023Z</time>
      </trkpt>
      <trkpt lat="46.34297" lon="6.05649">
        <ele>674.6</ele>
        <time>2020-11-01T10:58:55.023Z</time>
      </trkpt>
      <trkpt lat="46.34297" lon="6.05649">
        <ele>674.6</ele>
        <time>2020-11-01T10:58:56.023Z</time>
      </trkpt>
      <trkpt lat="46.34299" lon="6.05644">
        <ele>674.6</ele>
        <time>2020-11-01T10:58:57.021Z</time>
      </trkpt>
      <trkpt lat="46.34301" lon="6.05639">
        <ele>674.8</ele>
        <time>2020-11-01T10:58:58.021Z</time>
      </trkpt>
      <trkpt lat="46.34301" lon="6.05639">
        <ele>674.8</ele>
        <time>2020-11-01T10:58:59.02Z</time>
      </trkpt>
      <trkpt lat="46.34303" lon="6.05634">
        <ele>675.2</ele>
        <time>2020-11-01T10:59:00.021Z</time>
      </trkpt>
      <trkpt lat="46.34306" lon="6.05629">
        <ele>675.4</ele>
        <time>2020-11-01T10:59:01.02Z</time>
      </trkpt>
      <trkpt lat="46.34309" lon="6.05625">
        <ele>675.6</ele>
        <time>2020-11-01T10:59:02.022Z</time>
      </trkpt>
      <trkpt lat="46.34309" lon="6.05625">
        <ele>675.6</ele>
        <time>2020-11-01T10:59:03.021Z</time>
      </trkpt>
      <trkpt lat="46.34312" lon="6.05621">
        <ele>676</ele>
        <time>2020-11-01T10:59:04.021Z</time>
      </trkpt>
      <trkpt lat="46.34315" lon="6.05617">
        <ele>676.2</ele>
        <time>2020-11-01T10:59:05.021Z</time>
      </trkpt>
      <trkpt lat="46.34315" lon="6.05617">
        <ele>676.2</ele>
        <time>2020-11-01T10:59:06.02Z</time>
      </trkpt>
      <trkpt lat="46.34319" lon="6.05614">
        <ele>676.6</ele>
        <time>2020-11-01T10:59:07.022Z</time>
      </trkpt>
      <trkpt lat="46.34323" lon="6.05612">
        <ele>676.8</ele>
        <time>2020-11-01T10:59:08.021Z</time>
      </trkpt>
      <trkpt lat="46.34323" lon="6.05612">
        <ele>676.8</ele>
        <time>2020-11-01T10:59:09.022Z</time>
      </trkpt>
      <trkpt lat="46.34327" lon="6.05611">
        <ele>677</ele>
        <time>2020-11-01T10:59:10.022Z</time>
      </trkpt>
      <trkpt lat="46.34331" lon="6.05609">
        <ele>677.2</ele>
        <time>2020-11-01T10:59:11.02Z</time>
      </trkpt>
      <trkpt lat="46.34331" lon="6.05609">
        <ele>677.2</ele>
        <time>2020-11-01T10:59:12.021Z</time>
      </trkpt>
      <trkpt lat="46.34335" lon="6.05608">
        <ele>677.6</ele>
        <time>2020-11-01T10:59:13.021Z</time>
      </trkpt>
      <trkpt lat="46.34339" lon="6.05608">
        <ele>677.8</ele>
        <time>2020-11-01T10:59:14.02Z</time>
      </trkpt>
      <trkpt lat="46.34339" lon="6.05608">
        <ele>677.8</ele>
        <time>2020-11-01T10:59:15.02Z</time>
      </trkpt>
      <trkpt lat="46.34343" lon="6.05607">
        <ele>677.8</ele>
        <time>2020-11-01T10:59:16.021Z</time>
      </trkpt>
      <trkpt lat="46.34347" lon="6.05608">
        <ele>678.2</ele>
        <time>2020-11-01T10:59:17.02Z</time>
      </trkpt>
      <trkpt lat="46.34351" lon="6.05608">
        <ele>678.2</ele>
        <time>2020-11-01T10:59:18.021Z</time>
      </trkpt>
      <trkpt lat="46.34351" lon="6.05608">
        <ele>678.2</ele>
        <time>2020-11-01T10:59:19.02Z</time>
      </trkpt>
      <trkpt lat="46.34355" lon="6.05608">
        <ele>678.6</ele>
        <time>2020-11-01T10:59:20.021Z</time>
      </trkpt>
      <trkpt lat="46.34355" lon="6.05608">
        <ele>678.6</ele>
        <time>2020-11-01T10:59:21.022Z</time>
      </trkpt>
      <trkpt lat="46.3436" lon="6.05609">
        <ele>678.8</ele>
        <time>2020-11-01T10:59:22.02Z</time>
      </trkpt>
      <trkpt lat="46.34364" lon="6.05611">
        <ele>679.2</ele>
        <time>2020-11-01T10:59:23.021Z</time>
      </trkpt>
      <trkpt lat="46.34364" lon="6.05611">
        <ele>679.2</ele>
        <time>2020-11-01T10:59:24.022Z</time>
      </trkpt>
      <trkpt lat="46.34368" lon="6.05612">
        <ele>679.4</ele>
        <time>2020-11-01T10:59:25.021Z</time>
      </trkpt>
      <trkpt lat="46.34372" lon="6.05614">
        <ele>679.8</ele>
        <time>2020-11-01T10:59:26.021Z</time>
      </trkpt>
      <trkpt lat="46.34376" lon="6.05615">
        <ele>680</ele>
        <time>2020-11-01T10:59:27.021Z</time>
      </trkpt>
      <trkpt lat="46.34376" lon="6.05615">
        <ele>680</ele>
        <time>2020-11-01T10:59:28.021Z</time>
      </trkpt>
      <trkpt lat="46.3438" lon="6.05616">
        <ele>680.4</ele>
        <time>2020-11-01T10:59:29.021Z</time>
      </trkpt>
      <trkpt lat="46.34383" lon="6.05618">
        <ele>680.6</ele>
        <time>2020-11-01T10:59:30.02Z</time>
      </trkpt>
      <trkpt lat="46.34383" lon="6.05618">
        <ele>680.6</ele>
        <time>2020-11-01T10:59:31.021Z</time>
      </trkpt>
      <trkpt lat="46.34387" lon="6.05619">
        <ele>681</ele>
        <time>2020-11-01T10:59:32.02Z</time>
      </trkpt>
      <trkpt lat="46.34391" lon="6.05621">
        <ele>681.2</ele>
        <time>2020-11-01T10:59:33.02Z</time>
      </trkpt>
      <trkpt lat="46.34391" lon="6.05621">
        <ele>681.2</ele>
        <time>2020-11-01T10:59:34.022Z</time>
      </trkpt>
      <trkpt lat="46.34396" lon="6.05621">
        <ele>681.6</ele>
        <time>2020-11-01T10:59:35.022Z</time>
      </trkpt>
      <trkpt lat="46.34396" lon="6.05621">
        <ele>681.6</ele>
        <time>2020-11-01T10:59:36.021Z</time>
      </trkpt>
      <trkpt lat="46.344" lon="6.05622">
        <ele>682</ele>
        <time>2020-11-01T10:59:37.021Z</time>
      </trkpt>
      <trkpt lat="46.34405" lon="6.05622">
        <ele>682.2</ele>
        <time>2020-11-01T10:59:38.023Z</time>
      </trkpt>
      <trkpt lat="46.34405" lon="6.05622">
        <ele>682.2</ele>
        <time>2020-11-01T10:59:39.021Z</time>
      </trkpt>
      <trkpt lat="46.34409" lon="6.05622">
        <ele>682.6</ele>
        <time>2020-11-01T10:59:40.021Z</time>
      </trkpt>
      <trkpt lat="46.34414" lon="6.05621">
        <ele>682.8</ele>
        <time>2020-11-01T10:59:41.021Z</time>
      </trkpt>
      <trkpt lat="46.34414" lon="6.05621">
        <ele>682.8</ele>
        <time>2020-11-01T10:59:42.022Z</time>
      </trkpt>
      <trkpt lat="46.34418" lon="6.0562">
        <ele>683.2</ele>
        <time>2020-11-01T10:59:43.02Z</time>
      </trkpt>
      <trkpt lat="46.34422" lon="6.05619">
        <ele>683.4</ele>
        <time>2020-11-01T10:59:44.021Z</time>
      </trkpt>
      <trkpt lat="46.34422" lon="6.05619">
        <ele>683.4</ele>
        <time>2020-11-01T10:59:45.021Z</time>
      </trkpt>
      <trkpt lat="46.34426" lon="6.05618">
        <ele>683.8</ele>
        <time>2020-11-01T10:59:46.021Z</time>
      </trkpt>
      <trkpt lat="46.34431" lon="6.05617">
        <ele>684</ele>
        <time>2020-11-01T10:59:47.02Z</time>
      </trkpt>
      <trkpt lat="46.34431" lon="6.05617">
        <ele>684</ele>
        <time>2020-11-01T10:59:48.022Z</time>
      </trkpt>
      <trkpt lat="46.34435" lon="6.05616">
        <ele>684.2</ele>
        <time>2020-11-01T10:59:49.021Z</time>
      </trkpt>
      <trkpt lat="46.34438" lon="6.05615">
        <ele>684.4</ele>
        <time>2020-11-01T10:59:50.021Z</time>
      </trkpt>
      <trkpt lat="46.34438" lon="6.05615">
        <ele>684.4</ele>
        <time>2020-11-01T10:59:51.022Z</time>
      </trkpt>
      <trkpt lat="46.34442" lon="6.05613">
        <ele>684.6</ele>
        <time>2020-11-01T10:59:52.023Z</time>
      </trkpt>
      <trkpt lat="46.34446" lon="6.05612">
        <ele>684.8</ele>
        <time>2020-11-01T10:59:53.02Z</time>
      </trkpt>
      <trkpt lat="46.34446" lon="6.05612">
        <ele>684.8</ele>
        <time>2020-11-01T10:59:54.02Z</time>
      </trkpt>
      <trkpt lat="46.3445" lon="6.0561">
        <ele>685</ele>
        <time>2020-11-01T10:59:55.022Z</time>
      </trkpt>
      <trkpt lat="46.34454" lon="6.05609">
        <ele>685.4</ele>
        <time>2020-11-01T10:59:56.022Z</time>
      </trkpt>
      <trkpt lat="46.34454" lon="6.05609">
        <ele>685.4</ele>
        <time>2020-11-01T10:59:57.022Z</time>
      </trkpt>
      <trkpt lat="46.34458" lon="6.05607">
        <ele>685.8</ele>
        <time>2020-11-01T10:59:58.022Z</time>
      </trkpt>
      <trkpt lat="46.34458" lon="6.05607">
        <ele>685.8</ele>
        <time>2020-11-01T10:59:59.021Z</time>
      </trkpt>
      <trkpt lat="46.34462" lon="6.05606">
        <ele>686</ele>
        <time>2020-11-01T11:00:00.022Z</time>
      </trkpt>
      <trkpt lat="46.34466" lon="6.05604">
        <ele>686.6</ele>
        <time>2020-11-01T11:00:01.021Z</time>
      </trkpt>
      <trkpt lat="46.34466" lon="6.05604">
        <ele>686.6</ele>
        <time>2020-11-01T11:00:02.02Z</time>
      </trkpt>
      <trkpt lat="46.3447" lon="6.05602">
        <ele>686.8</ele>
        <time>2020-11-01T11:00:03.02Z</time>
      </trkpt>
      <trkpt lat="46.34473" lon="6.056">
        <ele>687</ele>
        <time>2020-11-01T11:00:04.02Z</time>
      </trkpt>
      <trkpt lat="46.34473" lon="6.056">
        <ele>687</ele>
        <time>2020-11-01T11:00:05.021Z</time>
      </trkpt>
      <trkpt lat="46.34477" lon="6.05597">
        <ele>687.2</ele>
        <time>2020-11-01T11:00:06.021Z</time>
      </trkpt>
      <trkpt lat="46.34481" lon="6.05594">
        <ele>687.4</ele>
        <time>2020-11-01T11:00:07.021Z</time>
      </trkpt>
      <trkpt lat="46.34481" lon="6.05594">
        <ele>687.4</ele>
        <time>2020-11-01T11:00:08.022Z</time>
      </trkpt>
      <trkpt lat="46.34484" lon="6.05591">
        <ele>687.6</ele>
        <time>2020-11-01T11:00:09.02Z</time>
      </trkpt>
      <trkpt lat="46.34487" lon="6.05588">
        <ele>688</ele>
        <time>2020-11-01T11:00:10.02Z</time>
      </trkpt>
      <trkpt lat="46.34487" lon="6.05588">
        <ele>688</ele>
        <time>2020-11-01T11:00:11.021Z</time>
      </trkpt>
      <trkpt lat="46.34491" lon="6.05584">
        <ele>688.2</ele>
        <time>2020-11-01T11:00:12.022Z</time>
      </trkpt>
      <trkpt lat="46.34494" lon="6.05581">
        <ele>688.4</ele>
        <time>2020-11-01T11:00:13.021Z</time>
      </trkpt>
      <trkpt lat="46.34494" lon="6.05581">
        <ele>688.4</ele>
        <time>2020-11-01T11:00:14.022Z</time>
      </trkpt>
      <trkpt lat="46.34497" lon="6.05577">
        <ele>688.8</ele>
        <time>2020-11-01T11:00:15.022Z</time>
      </trkpt>
      <trkpt lat="46.34501" lon="6.05573">
        <ele>689.2</ele>
        <time>2020-11-01T11:00:16.021Z</time>
      </trkpt>
      <trkpt lat="46.34501" lon="6.05573">
        <ele>689.2</ele>
        <time>2020-11-01T11:00:17.022Z</time>
      </trkpt>
      <trkpt lat="46.34504" lon="6.0557">
        <ele>689.6</ele>
        <time>2020-11-01T11:00:18.021Z</time>
      </trkpt>
      <trkpt lat="46.34507" lon="6.05566">
        <ele>689.8</ele>
        <time>2020-11-01T11:00:19.022Z</time>
      </trkpt>
      <trkpt lat="46.3451" lon="6.05563">
        <ele>690.2</ele>
        <time>2020-11-01T11:00:20.024Z</time>
      </trkpt>
      <trkpt lat="46.3451" lon="6.05563">
        <ele>690.2</ele>
        <time>2020-11-01T11:00:21.022Z</time>
      </trkpt>
      <trkpt lat="46.34514" lon="6.05559">
        <ele>690.4</ele>
        <time>2020-11-01T11:00:22.021Z</time>
      </trkpt>
      <trkpt lat="46.34517" lon="6.05556">
        <ele>690.6</ele>
        <time>2020-11-01T11:00:23.021Z</time>
      </trkpt>
      <trkpt lat="46.34517" lon="6.05556">
        <ele>690.6</ele>
        <time>2020-11-01T11:00:24.02Z</time>
      </trkpt>
      <trkpt lat="46.3452" lon="6.05553">
        <ele>691</ele>
        <time>2020-11-01T11:00:25.023Z</time>
      </trkpt>
      <trkpt lat="46.34524" lon="6.05549">
        <ele>691.2</ele>
        <time>2020-11-01T11:00:26.021Z</time>
      </trkpt>
      <trkpt lat="46.34524" lon="6.05549">
        <ele>691.2</ele>
        <time>2020-11-01T11:00:27.02Z</time>
      </trkpt>
      <trkpt lat="46.34527" lon="6.05546">
        <ele>691.6</ele>
        <time>2020-11-01T11:00:28.021Z</time>
      </trkpt>
      <trkpt lat="46.34531" lon="6.05544">
        <ele>691.8</ele>
        <time>2020-11-01T11:00:29.023Z</time>
      </trkpt>
      <trkpt lat="46.34531" lon="6.05544">
        <ele>691.8</ele>
        <time>2020-11-01T11:00:30.022Z</time>
      </trkpt>
      <trkpt lat="46.34534" lon="6.05541">
        <ele>692</ele>
        <time>2020-11-01T11:00:31.022Z</time>
      </trkpt>
      <trkpt lat="46.34534" lon="6.05541">
        <ele>692</ele>
        <time>2020-11-01T11:00:32.021Z</time>
      </trkpt>
      <trkpt lat="46.34538" lon="6.05539">
        <ele>692</ele>
        <time>2020-11-01T11:00:33.023Z</time>
      </trkpt>
      <trkpt lat="46.34542" lon="6.05537">
        <ele>692.2</ele>
        <time>2020-11-01T11:00:34.021Z</time>
      </trkpt>
      <trkpt lat="46.34546" lon="6.05536">
        <ele>692.4</ele>
        <time>2020-11-01T11:00:35.021Z</time>
      </trkpt>
      <trkpt lat="46.34546" lon="6.05536">
        <ele>692.4</ele>
        <time>2020-11-01T11:00:36.02Z</time>
      </trkpt>
      <trkpt lat="46.3455" lon="6.05534">
        <ele>692.6</ele>
        <time>2020-11-01T11:00:37.021Z</time>
      </trkpt>
      <trkpt lat="46.3455" lon="6.05534">
        <ele>692.6</ele>
        <time>2020-11-01T11:00:38.021Z</time>
      </trkpt>
      <trkpt lat="46.34554" lon="6.05533">
        <ele>692.8</ele>
        <time>2020-11-01T11:00:39.02Z</time>
      </trkpt>
      <trkpt lat="46.34558" lon="6.05532">
        <ele>693</ele>
        <time>2020-11-01T11:00:40.022Z</time>
      </trkpt>
      <trkpt lat="46.34558" lon="6.05532">
        <ele>693</ele>
        <time>2020-11-01T11:00:41.021Z</time>
      </trkpt>
      <trkpt lat="46.34563" lon="6.0553">
        <ele>693.6</ele>
        <time>2020-11-01T11:00:42.022Z</time>
      </trkpt>
      <trkpt lat="46.34563" lon="6.0553">
        <ele>693.6</ele>
        <time>2020-11-01T11:00:43.022Z</time>
      </trkpt>
      <trkpt lat="46.34567" lon="6.05529">
        <ele>693.8</ele>
        <time>2020-11-01T11:00:44.021Z</time>
      </trkpt>
      <trkpt lat="46.34571" lon="6.05528">
        <ele>694.2</ele>
        <time>2020-11-01T11:00:45.022Z</time>
      </trkpt>
      <trkpt lat="46.34571" lon="6.05528">
        <ele>694.2</ele>
        <time>2020-11-01T11:00:46.021Z</time>
      </trkpt>
      <trkpt lat="46.34575" lon="6.05527">
        <ele>694.4</ele>
        <time>2020-11-01T11:00:47.02Z</time>
      </trkpt>
      <trkpt lat="46.34575" lon="6.05527">
        <ele>694.4</ele>
        <time>2020-11-01T11:00:48.021Z</time>
      </trkpt>
      <trkpt lat="46.34579" lon="6.05526">
        <ele>694.6</ele>
        <time>2020-11-01T11:00:49.021Z</time>
      </trkpt>
      <trkpt lat="46.34583" lon="6.05525">
        <ele>695.2</ele>
        <time>2020-11-01T11:00:50.023Z</time>
      </trkpt>
      <trkpt lat="46.34583" lon="6.05525">
        <ele>695.2</ele>
        <time>2020-11-01T11:00:51.021Z</time>
      </trkpt>
      <trkpt lat="46.34587" lon="6.05524">
        <ele>695.2</ele>
        <time>2020-11-01T11:00:52.022Z</time>
      </trkpt>
      <trkpt lat="46.34587" lon="6.05524">
        <ele>695.2</ele>
        <time>2020-11-01T11:00:53.022Z</time>
      </trkpt>
      <trkpt lat="46.34591" lon="6.05523">
        <ele>695.4</ele>
        <time>2020-11-01T11:00:54.021Z</time>
      </trkpt>
      <trkpt lat="46.34595" lon="6.05522">
        <ele>695.6</ele>
        <time>2020-11-01T11:00:55.023Z</time>
      </trkpt>
      <trkpt lat="46.34595" lon="6.05522">
        <ele>695.6</ele>
        <time>2020-11-01T11:00:56.022Z</time>
      </trkpt>
      <trkpt lat="46.34599" lon="6.05521">
        <ele>696</ele>
        <time>2020-11-01T11:00:57.02Z</time>
      </trkpt>
      <trkpt lat="46.34603" lon="6.0552">
        <ele>696.2</ele>
        <time>2020-11-01T11:00:58.022Z</time>
      </trkpt>
      <trkpt lat="46.34603" lon="6.0552">
        <ele>696.2</ele>
        <time>2020-11-01T11:00:59.022Z</time>
      </trkpt>
      <trkpt lat="46.34607" lon="6.05519">
        <ele>696.4</ele>
        <time>2020-11-01T11:01:00.021Z</time>
      </trkpt>
      <trkpt lat="46.34611" lon="6.05519">
        <ele>696.6</ele>
        <time>2020-11-01T11:01:01.021Z</time>
      </trkpt>
      <trkpt lat="46.34611" lon="6.05519">
        <ele>696.6</ele>
        <time>2020-11-01T11:01:02.021Z</time>
      </trkpt>
      <trkpt lat="46.34615" lon="6.05518">
        <ele>696.8</ele>
        <time>2020-11-01T11:01:03.021Z</time>
      </trkpt>
      <trkpt lat="46.34615" lon="6.05518">
        <ele>696.8</ele>
        <time>2020-11-01T11:01:04.021Z</time>
      </trkpt>
      <trkpt lat="46.34619" lon="6.05517">
        <ele>697.2</ele>
        <time>2020-11-01T11:01:05.022Z</time>
      </trkpt>
      <trkpt lat="46.34623" lon="6.05517">
        <ele>697.4</ele>
        <time>2020-11-01T11:01:06.021Z</time>
      </trkpt>
      <trkpt lat="46.34623" lon="6.05517">
        <ele>697.4</ele>
        <time>2020-11-01T11:01:07.023Z</time>
      </trkpt>
      <trkpt lat="46.34627" lon="6.05516">
        <ele>697.6</ele>
        <time>2020-11-01T11:01:08.021Z</time>
      </trkpt>
      <trkpt lat="46.34631" lon="6.05515">
        <ele>698</ele>
        <time>2020-11-01T11:01:09.021Z</time>
      </trkpt>
      <trkpt lat="46.34631" lon="6.05515">
        <ele>698</ele>
        <time>2020-11-01T11:01:10.022Z</time>
      </trkpt>
      <trkpt lat="46.34635" lon="6.05514">
        <ele>698.2</ele>
        <time>2020-11-01T11:01:11.02Z</time>
      </trkpt>
      <trkpt lat="46.34639" lon="6.05513">
        <ele>698.6</ele>
        <time>2020-11-01T11:01:12.022Z</time>
      </trkpt>
      <trkpt lat="46.34639" lon="6.05513">
        <ele>698.6</ele>
        <time>2020-11-01T11:01:13.021Z</time>
      </trkpt>
      <trkpt lat="46.34643" lon="6.05512">
        <ele>698.8</ele>
        <time>2020-11-01T11:01:14.022Z</time>
      </trkpt>
      <trkpt lat="46.34643" lon="6.05512">
        <ele>698.8</ele>
        <time>2020-11-01T11:01:15.021Z</time>
      </trkpt>
      <trkpt lat="46.34647" lon="6.05511">
        <ele>699</ele>
        <time>2020-11-01T11:01:16.021Z</time>
      </trkpt>
      <trkpt lat="46.34651" lon="6.05511">
        <ele>699.2</ele>
        <time>2020-11-01T11:01:17.022Z</time>
      </trkpt>
      <trkpt lat="46.34651" lon="6.05511">
        <ele>699.2</ele>
        <time>2020-11-01T11:01:18.022Z</time>
      </trkpt>
      <trkpt lat="46.34655" lon="6.05511">
        <ele>699.6</ele>
        <time>2020-11-01T11:01:19.021Z</time>
      </trkpt>
      <trkpt lat="46.34655" lon="6.05511">
        <ele>699.6</ele>
        <time>2020-11-01T11:01:20.022Z</time>
      </trkpt>
      <trkpt lat="46.34659" lon="6.05512">
        <ele>699.8</ele>
        <time>2020-11-01T11:01:21.023Z</time>
      </trkpt>
      <trkpt lat="46.34663" lon="6.05513">
        <ele>700</ele>
        <time>2020-11-01T11:01:22.021Z</time>
      </trkpt>
      <trkpt lat="46.34663" lon="6.05513">
        <ele>700</ele>
        <time>2020-11-01T11:01:23.02Z</time>
      </trkpt>
      <trkpt lat="46.34667" lon="6.05514">
        <ele>700.2</ele>
        <time>2020-11-01T11:01:24.023Z</time>
      </trkpt>
      <trkpt lat="46.34671" lon="6.05516">
        <ele>700.4</ele>
        <time>2020-11-01T11:01:25.021Z</time>
      </trkpt>
      <trkpt lat="46.34671" lon="6.05516">
        <ele>700.4</ele>
        <time>2020-11-01T11:01:26.02Z</time>
      </trkpt>
      <trkpt lat="46.34674" lon="6.05518">
        <ele>700.6</ele>
        <time>2020-11-01T11:01:27.021Z</time>
      </trkpt>
      <trkpt lat="46.34678" lon="6.0552">
        <ele>700.8</ele>
        <time>2020-11-01T11:01:28.021Z</time>
      </trkpt>
      <trkpt lat="46.34678" lon="6.0552">
        <ele>700.8</ele>
        <time>2020-11-01T11:01:29.022Z</time>
      </trkpt>
      <trkpt lat="46.34682" lon="6.05522">
        <ele>701.2</ele>
        <time>2020-11-01T11:01:30.02Z</time>
      </trkpt>
      <trkpt lat="46.34682" lon="6.05522">
        <ele>701.2</ele>
        <time>2020-11-01T11:01:31.022Z</time>
      </trkpt>
      <trkpt lat="46.34686" lon="6.05524">
        <ele>701.2</ele>
        <time>2020-11-01T11:01:32.022Z</time>
      </trkpt>
      <trkpt lat="46.34689" lon="6.05527">
        <ele>701.4</ele>
        <time>2020-11-01T11:01:33.023Z</time>
      </trkpt>
      <trkpt lat="46.34689" lon="6.05527">
        <ele>701.4</ele>
        <time>2020-11-01T11:01:34.022Z</time>
      </trkpt>
      <trkpt lat="46.34693" lon="6.05529">
        <ele>701.8</ele>
        <time>2020-11-01T11:01:35.022Z</time>
      </trkpt>
      <trkpt lat="46.34697" lon="6.0553">
        <ele>702.2</ele>
        <time>2020-11-01T11:01:36.021Z</time>
      </trkpt>
      <trkpt lat="46.34697" lon="6.0553">
        <ele>702.2</ele>
        <time>2020-11-01T11:01:37.022Z</time>
      </trkpt>
      <trkpt lat="46.34701" lon="6.05532">
        <ele>702.6</ele>
        <time>2020-11-01T11:01:38.021Z</time>
      </trkpt>
      <trkpt lat="46.34704" lon="6.05534">
        <ele>702.8</ele>
        <time>2020-11-01T11:01:39.02Z</time>
      </trkpt>
      <trkpt lat="46.34704" lon="6.05534">
        <ele>702.8</ele>
        <time>2020-11-01T11:01:40.022Z</time>
      </trkpt>
      <trkpt lat="46.34708" lon="6.05536">
        <ele>703.2</ele>
        <time>2020-11-01T11:01:41.02Z</time>
      </trkpt>
      <trkpt lat="46.34712" lon="6.05538">
        <ele>703.4</ele>
        <time>2020-11-01T11:01:42.022Z</time>
      </trkpt>
      <trkpt lat="46.34712" lon="6.05538">
        <ele>703.4</ele>
        <time>2020-11-01T11:01:43.021Z</time>
      </trkpt>
      <trkpt lat="46.34716" lon="6.05539">
        <ele>703.6</ele>
        <time>2020-11-01T11:01:44.022Z</time>
      </trkpt>
      <trkpt lat="46.34716" lon="6.05539">
        <ele>703.6</ele>
        <time>2020-11-01T11:01:45.02Z</time>
      </trkpt>
      <trkpt lat="46.3472" lon="6.0554">
        <ele>703.8</ele>
        <time>2020-11-01T11:01:46.021Z</time>
      </trkpt>
      <trkpt lat="46.34724" lon="6.05542">
        <ele>704</ele>
        <time>2020-11-01T11:01:47.02Z</time>
      </trkpt>
      <trkpt lat="46.34724" lon="6.05542">
        <ele>704</ele>
        <time>2020-11-01T11:01:48.022Z</time>
      </trkpt>
      <trkpt lat="46.34728" lon="6.05543">
        <ele>704.2</ele>
        <time>2020-11-01T11:01:49.021Z</time>
      </trkpt>
      <trkpt lat="46.34728" lon="6.05543">
        <ele>704.2</ele>
        <time>2020-11-01T11:01:50.022Z</time>
      </trkpt>
      <trkpt lat="46.34732" lon="6.05544">
        <ele>704.6</ele>
        <time>2020-11-01T11:01:51.021Z</time>
      </trkpt>
      <trkpt lat="46.34736" lon="6.05546">
        <ele>704.8</ele>
        <time>2020-11-01T11:01:52.021Z</time>
      </trkpt>
      <trkpt lat="46.34736" lon="6.05546">
        <ele>704.8</ele>
        <time>2020-11-01T11:01:53.02Z</time>
      </trkpt>
      <trkpt lat="46.3474" lon="6.05547">
        <ele>705</ele>
        <time>2020-11-01T11:01:54.02Z</time>
      </trkpt>
      <trkpt lat="46.34744" lon="6.05549">
        <ele>705.4</ele>
        <time>2020-11-01T11:01:55.021Z</time>
      </trkpt>
      <trkpt lat="46.34744" lon="6.05549">
        <ele>705.4</ele>
        <time>2020-11-01T11:01:56.02Z</time>
      </trkpt>
      <trkpt lat="46.34747" lon="6.0555">
        <ele>705.6</ele>
        <time>2020-11-01T11:01:57.02Z</time>
      </trkpt>
      <trkpt lat="46.34747" lon="6.0555">
        <ele>705.6</ele>
        <time>2020-11-01T11:01:58.021Z</time>
      </trkpt>
      <trkpt lat="46.34751" lon="6.05552">
        <ele>705.8</ele>
        <time>2020-11-01T11:01:59.021Z</time>
      </trkpt>
      <trkpt lat="46.34755" lon="6.05554">
        <ele>706.2</ele>
        <time>2020-11-01T11:02:00.022Z</time>
      </trkpt>
      <trkpt lat="46.34758" lon="6.05555">
        <ele>706.4</ele>
        <time>2020-11-01T11:02:01.022Z</time>
      </trkpt>
      <trkpt lat="46.34758" lon="6.05555">
        <ele>706.4</ele>
        <time>2020-11-01T11:02:02.021Z</time>
      </trkpt>
      <trkpt lat="46.34761" lon="6.05557">
        <ele>706.6</ele>
        <time>2020-11-01T11:02:03.022Z</time>
      </trkpt>
      <trkpt lat="46.34765" lon="6.05559">
        <ele>706.8</ele>
        <time>2020-11-01T11:02:04.022Z</time>
      </trkpt>
      <trkpt lat="46.34765" lon="6.05559">
        <ele>706.8</ele>
        <time>2020-11-01T11:02:05.021Z</time>
      </trkpt>
      <trkpt lat="46.34768" lon="6.05561">
        <ele>707</ele>
        <time>2020-11-01T11:02:06.022Z</time>
      </trkpt>
      <trkpt lat="46.34772" lon="6.05562">
        <ele>707.4</ele>
        <time>2020-11-01T11:02:07.021Z</time>
      </trkpt>
      <trkpt lat="46.34772" lon="6.05562">
        <ele>707.4</ele>
        <time>2020-11-01T11:02:08.021Z</time>
      </trkpt>
      <trkpt lat="46.34775" lon="6.05564">
        <ele>707.8</ele>
        <time>2020-11-01T11:02:09.021Z</time>
      </trkpt>
      <trkpt lat="46.34778" lon="6.05566">
        <ele>708</ele>
        <time>2020-11-01T11:02:10.02Z</time>
      </trkpt>
      <trkpt lat="46.34782" lon="6.05568">
        <ele>708.2</ele>
        <time>2020-11-01T11:02:11.021Z</time>
      </trkpt>
      <trkpt lat="46.34782" lon="6.05568">
        <ele>708.2</ele>
        <time>2020-11-01T11:02:12.022Z</time>
      </trkpt>
      <trkpt lat="46.34785" lon="6.0557">
        <ele>708.6</ele>
        <time>2020-11-01T11:02:13.021Z</time>
      </trkpt>
      <trkpt lat="46.34785" lon="6.0557">
        <ele>708.6</ele>
        <time>2020-11-01T11:02:14.022Z</time>
      </trkpt>
      <trkpt lat="46.34789" lon="6.05572">
        <ele>708.8</ele>
        <time>2020-11-01T11:02:15.02Z</time>
      </trkpt>
      <trkpt lat="46.34792" lon="6.05573">
        <ele>709.2</ele>
        <time>2020-11-01T11:02:16.02Z</time>
      </trkpt>
      <trkpt lat="46.34792" lon="6.05573">
        <ele>709.2</ele>
        <time>2020-11-01T11:02:17.02Z</time>
      </trkpt>
      <trkpt lat="46.34796" lon="6.05575">
        <ele>709.4</ele>
        <time>2020-11-01T11:02:18.021Z</time>
      </trkpt>
      <trkpt lat="46.34799" lon="6.05578">
        <ele>709.6</ele>
        <time>2020-11-01T11:02:19.021Z</time>
      </trkpt>
      <trkpt lat="46.34802" lon="6.0558">
        <ele>710.2</ele>
        <time>2020-11-01T11:02:20.021Z</time>
      </trkpt>
      <trkpt lat="46.34802" lon="6.0558">
        <ele>710.2</ele>
        <time>2020-11-01T11:02:21.021Z</time>
      </trkpt>
      <trkpt lat="46.34806" lon="6.05583">
        <ele>710.4</ele>
        <time>2020-11-01T11:02:22.021Z</time>
      </trkpt>
      <trkpt lat="46.34809" lon="6.05585">
        <ele>710.6</ele>
        <time>2020-11-01T11:02:23.022Z</time>
      </trkpt>
      <trkpt lat="46.34809" lon="6.05585">
        <ele>710.6</ele>
        <time>2020-11-01T11:02:24.021Z</time>
      </trkpt>
      <trkpt lat="46.34812" lon="6.05588">
        <ele>710.8</ele>
        <time>2020-11-01T11:02:25.02Z</time>
      </trkpt>
      <trkpt lat="46.34815" lon="6.05591">
        <ele>711.2</ele>
        <time>2020-11-01T11:02:26.022Z</time>
      </trkpt>
      <trkpt lat="46.34815" lon="6.05591">
        <ele>711.2</ele>
        <time>2020-11-01T11:02:27.021Z</time>
      </trkpt>
      <trkpt lat="46.34819" lon="6.05594">
        <ele>711.4</ele>
        <time>2020-11-01T11:02:28.023Z</time>
      </trkpt>
      <trkpt lat="46.34822" lon="6.05597">
        <ele>711.4</ele>
        <time>2020-11-01T11:02:29.021Z</time>
      </trkpt>
      <trkpt lat="46.34822" lon="6.05597">
        <ele>711.4</ele>
        <time>2020-11-01T11:02:30.021Z</time>
      </trkpt>
      <trkpt lat="46.34825" lon="6.05599">
        <ele>711.6</ele>
        <time>2020-11-01T11:02:31.022Z</time>
      </trkpt>
      <trkpt lat="46.34829" lon="6.05602">
        <ele>711.8</ele>
        <time>2020-11-01T11:02:32.021Z</time>
      </trkpt>
      <trkpt lat="46.34829" lon="6.05602">
        <ele>711.8</ele>
        <time>2020-11-01T11:02:33.021Z</time>
      </trkpt>
      <trkpt lat="46.34833" lon="6.05604">
        <ele>712</ele>
        <time>2020-11-01T11:02:34.022Z</time>
      </trkpt>
      <trkpt lat="46.34833" lon="6.05604">
        <ele>712</ele>
        <time>2020-11-01T11:02:35.022Z</time>
      </trkpt>
      <trkpt lat="46.34836" lon="6.05606">
        <ele>712.2</ele>
        <time>2020-11-01T11:02:36.021Z</time>
      </trkpt>
      <trkpt lat="46.3484" lon="6.05608">
        <ele>712.4</ele>
        <time>2020-11-01T11:02:37.022Z</time>
      </trkpt>
      <trkpt lat="46.3484" lon="6.05608">
        <ele>712.4</ele>
        <time>2020-11-01T11:02:38.021Z</time>
      </trkpt>
      <trkpt lat="46.34844" lon="6.05609">
        <ele>712.8</ele>
        <time>2020-11-01T11:02:39.022Z</time>
      </trkpt>
      <trkpt lat="46.34848" lon="6.05609">
        <ele>713</ele>
        <time>2020-11-01T11:02:40.02Z</time>
      </trkpt>
      <trkpt lat="46.34848" lon="6.05609">
        <ele>713</ele>
        <time>2020-11-01T11:02:41.021Z</time>
      </trkpt>
      <trkpt lat="46.34852" lon="6.05609">
        <ele>713.4</ele>
        <time>2020-11-01T11:02:42.02Z</time>
      </trkpt>
      <trkpt lat="46.34856" lon="6.05609">
        <ele>713.8</ele>
        <time>2020-11-01T11:02:43.022Z</time>
      </trkpt>
      <trkpt lat="46.34856" lon="6.05609">
        <ele>713.8</ele>
        <time>2020-11-01T11:02:44.021Z</time>
      </trkpt>
      <trkpt lat="46.3486" lon="6.05609">
        <ele>714</ele>
        <time>2020-11-01T11:02:45.024Z</time>
      </trkpt>
      <trkpt lat="46.34863" lon="6.05608">
        <ele>714.4</ele>
        <time>2020-11-01T11:02:46.02Z</time>
      </trkpt>
      <trkpt lat="46.34867" lon="6.05606">
        <ele>714.6</ele>
        <time>2020-11-01T11:02:47.021Z</time>
      </trkpt>
      <trkpt lat="46.34867" lon="6.05606">
        <ele>714.6</ele>
        <time>2020-11-01T11:02:48.02Z</time>
      </trkpt>
      <trkpt lat="46.34871" lon="6.05605">
        <ele>715</ele>
        <time>2020-11-01T11:02:49.023Z</time>
      </trkpt>
      <trkpt lat="46.34874" lon="6.05603">
        <ele>715.2</ele>
        <time>2020-11-01T11:02:50.022Z</time>
      </trkpt>
      <trkpt lat="46.34874" lon="6.05603">
        <ele>715.2</ele>
        <time>2020-11-01T11:02:51.022Z</time>
      </trkpt>
      <trkpt lat="46.34877" lon="6.05602">
        <ele>715.4</ele>
        <time>2020-11-01T11:02:52.021Z</time>
      </trkpt>
      <trkpt lat="46.34881" lon="6.056">
        <ele>715.8</ele>
        <time>2020-11-01T11:02:53.02Z</time>
      </trkpt>
      <trkpt lat="46.34884" lon="6.05597">
        <ele>716.2</ele>
        <time>2020-11-01T11:02:54.022Z</time>
      </trkpt>
      <trkpt lat="46.34884" lon="6.05597">
        <ele>716.2</ele>
        <time>2020-11-01T11:02:55.021Z</time>
      </trkpt>
      <trkpt lat="46.34887" lon="6.05595">
        <ele>716.4</ele>
        <time>2020-11-01T11:02:56.023Z</time>
      </trkpt>
      <trkpt lat="46.3489" lon="6.05593">
        <ele>716.6</ele>
        <time>2020-11-01T11:02:57.021Z</time>
      </trkpt>
      <trkpt lat="46.3489" lon="6.05593">
        <ele>716.6</ele>
        <time>2020-11-01T11:02:58.022Z</time>
      </trkpt>
      <trkpt lat="46.34894" lon="6.05591">
        <ele>716.8</ele>
        <time>2020-11-01T11:02:59.021Z</time>
      </trkpt>
      <trkpt lat="46.34897" lon="6.05589">
        <ele>717</ele>
        <time>2020-11-01T11:03:00.02Z</time>
      </trkpt>
      <trkpt lat="46.34897" lon="6.05589">
        <ele>717</ele>
        <time>2020-11-01T11:03:01.022Z</time>
      </trkpt>
      <trkpt lat="46.34901" lon="6.05586">
        <ele>717.2</ele>
        <time>2020-11-01T11:03:02.023Z</time>
      </trkpt>
      <trkpt lat="46.34904" lon="6.05584">
        <ele>717.6</ele>
        <time>2020-11-01T11:03:03.022Z</time>
      </trkpt>
      <trkpt lat="46.34904" lon="6.05584">
        <ele>717.6</ele>
        <time>2020-11-01T11:03:04.02Z</time>
      </trkpt>
      <trkpt lat="46.34908" lon="6.05581">
        <ele>717.8</ele>
        <time>2020-11-01T11:03:05.022Z</time>
      </trkpt>
      <trkpt lat="46.34908" lon="6.05581">
        <ele>717.8</ele>
        <time>2020-11-01T11:03:06.022Z</time>
      </trkpt>
      <trkpt lat="46.34912" lon="6.05578">
        <ele>718.2</ele>
        <time>2020-11-01T11:03:07.022Z</time>
      </trkpt>
      <trkpt lat="46.34915" lon="6.05574">
        <ele>718.6</ele>
        <time>2020-11-01T11:03:08.021Z</time>
      </trkpt>
      <trkpt lat="46.34915" lon="6.05574">
        <ele>718.6</ele>
        <time>2020-11-01T11:03:09.022Z</time>
      </trkpt>
      <trkpt lat="46.34919" lon="6.05571">
        <ele>719</ele>
        <time>2020-11-01T11:03:10.023Z</time>
      </trkpt>
      <trkpt lat="46.34922" lon="6.05568">
        <ele>719.4</ele>
        <time>2020-11-01T11:03:11.021Z</time>
      </trkpt>
      <trkpt lat="46.34922" lon="6.05568">
        <ele>719.4</ele>
        <time>2020-11-01T11:03:12.02Z</time>
      </trkpt>
      <trkpt lat="46.34925" lon="6.05565">
        <ele>719.6</ele>
        <time>2020-11-01T11:03:13.022Z</time>
      </trkpt>
      <trkpt lat="46.34928" lon="6.05562">
        <ele>720</ele>
        <time>2020-11-01T11:03:14.021Z</time>
      </trkpt>
      <trkpt lat="46.34928" lon="6.05562">
        <ele>720</ele>
        <time>2020-11-01T11:03:15.022Z</time>
      </trkpt>
      <trkpt lat="46.34932" lon="6.0556">
        <ele>720.2</ele>
        <time>2020-11-01T11:03:16.021Z</time>
      </trkpt>
      <trkpt lat="46.34936" lon="6.05559">
        <ele>720.6</ele>
        <time>2020-11-01T11:03:17.02Z</time>
      </trkpt>
      <trkpt lat="46.34936" lon="6.05559">
        <ele>720.6</ele>
        <time>2020-11-01T11:03:18.021Z</time>
      </trkpt>
      <trkpt lat="46.3494" lon="6.05559">
        <ele>720.8</ele>
        <time>2020-11-01T11:03:19.021Z</time>
      </trkpt>
      <trkpt lat="46.34943" lon="6.05559">
        <ele>721</ele>
        <time>2020-11-01T11:03:20.022Z</time>
      </trkpt>
      <trkpt lat="46.34943" lon="6.05559">
        <ele>721</ele>
        <time>2020-11-01T11:03:21.021Z</time>
      </trkpt>
      <trkpt lat="46.34947" lon="6.0556">
        <ele>721.2</ele>
        <time>2020-11-01T11:03:22.02Z</time>
      </trkpt>
      <trkpt lat="46.3495" lon="6.05562">
        <ele>721.6</ele>
        <time>2020-11-01T11:03:23.02Z</time>
      </trkpt>
      <trkpt lat="46.34954" lon="6.05565">
        <ele>721.6</ele>
        <time>2020-11-01T11:03:24.02Z</time>
      </trkpt>
      <trkpt lat="46.34954" lon="6.05565">
        <ele>721.6</ele>
        <time>2020-11-01T11:03:25.02Z</time>
      </trkpt>
      <trkpt lat="46.34957" lon="6.05568">
        <ele>721.8</ele>
        <time>2020-11-01T11:03:26.021Z</time>
      </trkpt>
      <trkpt lat="46.34957" lon="6.05568">
        <ele>721.8</ele>
        <time>2020-11-01T11:03:27.021Z</time>
      </trkpt>
      <trkpt lat="46.34961" lon="6.05571">
        <ele>722</ele>
        <time>2020-11-01T11:03:28.023Z</time>
      </trkpt>
      <trkpt lat="46.34964" lon="6.05574">
        <ele>722.2</ele>
        <time>2020-11-01T11:03:29.021Z</time>
      </trkpt>
      <trkpt lat="46.34964" lon="6.05574">
        <ele>722.2</ele>
        <time>2020-11-01T11:03:30.021Z</time>
      </trkpt>
      <trkpt lat="46.34967" lon="6.05578">
        <ele>722.6</ele>
        <time>2020-11-01T11:03:31.02Z</time>
      </trkpt>
      <trkpt lat="46.34967" lon="6.05578">
        <ele>722.6</ele>
        <time>2020-11-01T11:03:32.023Z</time>
      </trkpt>
      <trkpt lat="46.3497" lon="6.05583">
        <ele>722.8</ele>
        <time>2020-11-01T11:03:33.02Z</time>
      </trkpt>
      <trkpt lat="46.34972" lon="6.05588">
        <ele>723</ele>
        <time>2020-11-01T11:03:34.021Z</time>
      </trkpt>
      <trkpt lat="46.34972" lon="6.05588">
        <ele>723</ele>
        <time>2020-11-01T11:03:35.023Z</time>
      </trkpt>
      <trkpt lat="46.34973" lon="6.05593">
        <ele>723.4</ele>
        <time>2020-11-01T11:03:36.02Z</time>
      </trkpt>
      <trkpt lat="46.34974" lon="6.05598">
        <ele>723.8</ele>
        <time>2020-11-01T11:03:37.021Z</time>
      </trkpt>
      <trkpt lat="46.34974" lon="6.05598">
        <ele>723.8</ele>
        <time>2020-11-01T11:03:38.022Z</time>
      </trkpt>
      <trkpt lat="46.34974" lon="6.05603">
        <ele>724</ele>
        <time>2020-11-01T11:03:39.022Z</time>
      </trkpt>
      <trkpt lat="46.34974" lon="6.05608">
        <ele>724.4</ele>
        <time>2020-11-01T11:03:40.022Z</time>
      </trkpt>
      <trkpt lat="46.34974" lon="6.05608">
        <ele>724.4</ele>
        <time>2020-11-01T11:03:41.02Z</time>
      </trkpt>
      <trkpt lat="46.34973" lon="6.05612">
        <ele>724.6</ele>
        <time>2020-11-01T11:03:42.021Z</time>
      </trkpt>
      <trkpt lat="46.34973" lon="6.05617">
        <ele>724.8</ele>
        <time>2020-11-01T11:03:43.022Z</time>
      </trkpt>
      <trkpt lat="46.34971" lon="6.05621">
        <ele>725.2</ele>
        <time>2020-11-01T11:03:44.02Z</time>
      </trkpt>
      <trkpt lat="46.34971" lon="6.05621">
        <ele>725.2</ele>
        <time>2020-11-01T11:03:45.021Z</time>
      </trkpt>
      <trkpt lat="46.3497" lon="6.05626">
        <ele>725.2</ele>
        <time>2020-11-01T11:03:46.022Z</time>
      </trkpt>
      <trkpt lat="46.34969" lon="6.05631">
        <ele>725.4</ele>
        <time>2020-11-01T11:03:47.021Z</time>
      </trkpt>
      <trkpt lat="46.34968" lon="6.05636">
        <ele>726</ele>
        <time>2020-11-01T11:03:48.022Z</time>
      </trkpt>
      <trkpt lat="46.34968" lon="6.05636">
        <ele>726</ele>
        <time>2020-11-01T11:03:49.023Z</time>
      </trkpt>
      <trkpt lat="46.34966" lon="6.05641">
        <ele>726.4</ele>
        <time>2020-11-01T11:03:50.021Z</time>
      </trkpt>
      <trkpt lat="46.34965" lon="6.05646">
        <ele>726.6</ele>
        <time>2020-11-01T11:03:51.02Z</time>
      </trkpt>
      <trkpt lat="46.34965" lon="6.0565">
        <ele>726.8</ele>
        <time>2020-11-01T11:03:52.021Z</time>
      </trkpt>
      <trkpt lat="46.34965" lon="6.0565">
        <ele>726.8</ele>
        <time>2020-11-01T11:03:53.021Z</time>
      </trkpt>
      <trkpt lat="46.34964" lon="6.05656">
        <ele>727</ele>
        <time>2020-11-01T11:03:54.022Z</time>
      </trkpt>
      <trkpt lat="46.34964" lon="6.05661">
        <ele>727.2</ele>
        <time>2020-11-01T11:03:55.02Z</time>
      </trkpt>
      <trkpt lat="46.34964" lon="6.05661">
        <ele>727.2</ele>
        <time>2020-11-01T11:03:56.022Z</time>
      </trkpt>
      <trkpt lat="46.34965" lon="6.05667">
        <ele>727.6</ele>
        <time>2020-11-01T11:03:57.021Z</time>
      </trkpt>
      <trkpt lat="46.34966" lon="6.05672">
        <ele>727.8</ele>
        <time>2020-11-01T11:03:58.023Z</time>
      </trkpt>
      <trkpt lat="46.34966" lon="6.05672">
        <ele>727.8</ele>
        <time>2020-11-01T11:03:59.023Z</time>
      </trkpt>
      <trkpt lat="46.34968" lon="6.05679">
        <ele>728</ele>
        <time>2020-11-01T11:04:00.023Z</time>
      </trkpt>
      <trkpt lat="46.34968" lon="6.05679">
        <ele>728</ele>
        <time>2020-11-01T11:04:01.022Z</time>
      </trkpt>
      <trkpt lat="46.3497" lon="6.05684">
        <ele>728.2</ele>
        <time>2020-11-01T11:04:02.021Z</time>
      </trkpt>
      <trkpt lat="46.34973" lon="6.05688">
        <ele>728.2</ele>
        <time>2020-11-01T11:04:03.021Z</time>
      </trkpt>
      <trkpt lat="46.34973" lon="6.05688">
        <ele>728.2</ele>
        <time>2020-11-01T11:04:04.02Z</time>
      </trkpt>
      <trkpt lat="46.34977" lon="6.05691">
        <ele>728.4</ele>
        <time>2020-11-01T11:04:05.02Z</time>
      </trkpt>
      <trkpt lat="46.3498" lon="6.05693">
        <ele>728.8</ele>
        <time>2020-11-01T11:04:06.02Z</time>
      </trkpt>
      <trkpt lat="46.3498" lon="6.05693">
        <ele>728.8</ele>
        <time>2020-11-01T11:04:07.022Z</time>
      </trkpt>
      <trkpt lat="46.34984" lon="6.05695">
        <ele>729</ele>
        <time>2020-11-01T11:04:08.02Z</time>
      </trkpt>
      <trkpt lat="46.34984" lon="6.05695">
        <ele>729</ele>
        <time>2020-11-01T11:04:09.023Z</time>
      </trkpt>
      <trkpt lat="46.34988" lon="6.05696">
        <ele>729.2</ele>
        <time>2020-11-01T11:04:10.021Z</time>
      </trkpt>
      <trkpt lat="46.34993" lon="6.05697">
        <ele>729.4</ele>
        <time>2020-11-01T11:04:11.022Z</time>
      </trkpt>
      <trkpt lat="46.34993" lon="6.05697">
        <ele>729.4</ele>
        <time>2020-11-01T11:04:12.021Z</time>
      </trkpt>
      <trkpt lat="46.34997" lon="6.05697">
        <ele>729.6</ele>
        <time>2020-11-01T11:04:13.023Z</time>
      </trkpt>
      <trkpt lat="46.34997" lon="6.05697">
        <ele>729.6</ele>
        <time>2020-11-01T11:04:14.02Z</time>
      </trkpt>
      <trkpt lat="46.35001" lon="6.05697">
        <ele>729.8</ele>
        <time>2020-11-01T11:04:15.023Z</time>
      </trkpt>
      <trkpt lat="46.35005" lon="6.05697">
        <ele>730.2</ele>
        <time>2020-11-01T11:04:16.022Z</time>
      </trkpt>
      <trkpt lat="46.35005" lon="6.05697">
        <ele>730.2</ele>
        <time>2020-11-01T11:04:17.02Z</time>
      </trkpt>
      <trkpt lat="46.35009" lon="6.05697">
        <ele>730.4</ele>
        <time>2020-11-01T11:04:18.02Z</time>
      </trkpt>
      <trkpt lat="46.35014" lon="6.05697">
        <ele>730.6</ele>
        <time>2020-11-01T11:04:19.021Z</time>
      </trkpt>
      <trkpt lat="46.35014" lon="6.05697">
        <ele>730.6</ele>
        <time>2020-11-01T11:04:20.02Z</time>
      </trkpt>
      <trkpt lat="46.35018" lon="6.05697">
        <ele>730.8</ele>
        <time>2020-11-01T11:04:21.021Z</time>
      </trkpt>
      <trkpt lat="46.35022" lon="6.05697">
        <ele>731</ele>
        <time>2020-11-01T11:04:22.022Z</time>
      </trkpt>
      <trkpt lat="46.35022" lon="6.05697">
        <ele>731</ele>
        <time>2020-11-01T11:04:23.022Z</time>
      </trkpt>
      <trkpt lat="46.35026" lon="6.05698">
        <ele>731</ele>
        <time>2020-11-01T11:04:24.021Z</time>
      </trkpt>
      <trkpt lat="46.35026" lon="6.05698">
        <ele>731</ele>
        <time>2020-11-01T11:04:25.021Z</time>
      </trkpt>
      <trkpt lat="46.35031" lon="6.05698">
        <ele>731.2</ele>
        <time>2020-11-01T11:04:26.021Z</time>
      </trkpt>
      <trkpt lat="46.35035" lon="6.05699">
        <ele>731.4</ele>
        <time>2020-11-01T11:04:27.022Z</time>
      </trkpt>
      <trkpt lat="46.35038" lon="6.057">
        <ele>731.8</ele>
        <time>2020-11-01T11:04:28.02Z</time>
      </trkpt>
      <trkpt lat="46.35038" lon="6.057">
        <ele>731.8</ele>
        <time>2020-11-01T11:04:29.022Z</time>
      </trkpt>
      <trkpt lat="46.35042" lon="6.05702">
        <ele>731.8</ele>
        <time>2020-11-01T11:04:30.023Z</time>
      </trkpt>
      <trkpt lat="46.35042" lon="6.05702">
        <ele>731.8</ele>
        <time>2020-11-01T11:04:31.021Z</time>
      </trkpt>
      <trkpt lat="46.35046" lon="6.05703">
        <ele>732</ele>
        <time>2020-11-01T11:04:32.023Z</time>
      </trkpt>
      <trkpt lat="46.3505" lon="6.05705">
        <ele>732.4</ele>
        <time>2020-11-01T11:04:33.023Z</time>
      </trkpt>
      <trkpt lat="46.3505" lon="6.05705">
        <ele>732.4</ele>
        <time>2020-11-01T11:04:34.021Z</time>
      </trkpt>
      <trkpt lat="46.35054" lon="6.05707">
        <ele>732.8</ele>
        <time>2020-11-01T11:04:35.021Z</time>
      </trkpt>
      <trkpt lat="46.35058" lon="6.0571">
        <ele>733.2</ele>
        <time>2020-11-01T11:04:36.023Z</time>
      </trkpt>
      <trkpt lat="46.35058" lon="6.0571">
        <ele>733.2</ele>
        <time>2020-11-01T11:04:37.021Z</time>
      </trkpt>
      <trkpt lat="46.35061" lon="6.05713">
        <ele>733.6</ele>
        <time>2020-11-01T11:04:38.022Z</time>
      </trkpt>
      <trkpt lat="46.35061" lon="6.05713">
        <ele>733.6</ele>
        <time>2020-11-01T11:04:39.02Z</time>
      </trkpt>
      <trkpt lat="46.35064" lon="6.05717">
        <ele>733.8</ele>
        <time>2020-11-01T11:04:40.022Z</time>
      </trkpt>
      <trkpt lat="46.35064" lon="6.05717">
        <ele>733.8</ele>
        <time>2020-11-01T11:04:41.022Z</time>
      </trkpt>
      <trkpt lat="46.35067" lon="6.05721">
        <ele>734</ele>
        <time>2020-11-01T11:04:42.022Z</time>
      </trkpt>
      <trkpt lat="46.3507" lon="6.05725">
        <ele>734</ele>
        <time>2020-11-01T11:04:43.022Z</time>
      </trkpt>
      <trkpt lat="46.3507" lon="6.05725">
        <ele>734</ele>
        <time>2020-11-01T11:04:44.02Z</time>
      </trkpt>
      <trkpt lat="46.35072" lon="6.0573">
        <ele>734.2</ele>
        <time>2020-11-01T11:04:45.023Z</time>
      </trkpt>
      <trkpt lat="46.35074" lon="6.05735">
        <ele>734.4</ele>
        <time>2020-11-01T11:04:46.021Z</time>
      </trkpt>
      <trkpt lat="46.35074" lon="6.05735">
        <ele>734.4</ele>
        <time>2020-11-01T11:04:47.022Z</time>
      </trkpt>
      <trkpt lat="46.35076" lon="6.0574">
        <ele>734.4</ele>
        <time>2020-11-01T11:04:48.022Z</time>
      </trkpt>
      <trkpt lat="46.35079" lon="6.05745">
        <ele>734.6</ele>
        <time>2020-11-01T11:04:49.021Z</time>
      </trkpt>
      <trkpt lat="46.35079" lon="6.05745">
        <ele>734.6</ele>
        <time>2020-11-01T11:04:50.02Z</time>
      </trkpt>
      <trkpt lat="46.35081" lon="6.05749">
        <ele>734.8</ele>
        <time>2020-11-01T11:04:51.022Z</time>
      </trkpt>
      <trkpt lat="46.35081" lon="6.05749">
        <ele>734.8</ele>
        <time>2020-11-01T11:04:52.021Z</time>
      </trkpt>
      <trkpt lat="46.35083" lon="6.05754">
        <ele>735</ele>
        <time>2020-11-01T11:04:53.02Z</time>
      </trkpt>
      <trkpt lat="46.35085" lon="6.05758">
        <ele>735.4</ele>
        <time>2020-11-01T11:04:54.021Z</time>
      </trkpt>
      <trkpt lat="46.35085" lon="6.05758">
        <ele>735.4</ele>
        <time>2020-11-01T11:04:55.021Z</time>
      </trkpt>
      <trkpt lat="46.35088" lon="6.05762">
        <ele>735.6</ele>
        <time>2020-11-01T11:04:56.022Z</time>
      </trkpt>
      <trkpt lat="46.3509" lon="6.05767">
        <ele>735.8</ele>
        <time>2020-11-01T11:04:57.021Z</time>
      </trkpt>
      <trkpt lat="46.35092" lon="6.05771">
        <ele>736.2</ele>
        <time>2020-11-01T11:04:58.021Z</time>
      </trkpt>
      <trkpt lat="46.35092" lon="6.05771">
        <ele>736.2</ele>
        <time>2020-11-01T11:04:59.022Z</time>
      </trkpt>
      <trkpt lat="46.35095" lon="6.05775">
        <ele>736.6</ele>
        <time>2020-11-01T11:05:00.022Z</time>
      </trkpt>
      <trkpt lat="46.35095" lon="6.05775">
        <ele>736.6</ele>
        <time>2020-11-01T11:05:01.021Z</time>
      </trkpt>
      <trkpt lat="46.35098" lon="6.05779">
        <ele>736.8</ele>
        <time>2020-11-01T11:05:02.021Z</time>
      </trkpt>
      <trkpt lat="46.35101" lon="6.05782">
        <ele>737.2</ele>
        <time>2020-11-01T11:05:03.022Z</time>
      </trkpt>
      <trkpt lat="46.35101" lon="6.05782">
        <ele>737.2</ele>
        <time>2020-11-01T11:05:04.022Z</time>
      </trkpt>
      <trkpt lat="46.35104" lon="6.05786">
        <ele>737.4</ele>
        <time>2020-11-01T11:05:05.02Z</time>
      </trkpt>
      <trkpt lat="46.35107" lon="6.05789">
        <ele>737.8</ele>
        <time>2020-11-01T11:05:06.02Z</time>
      </trkpt>
      <trkpt lat="46.35107" lon="6.05789">
        <ele>737.8</ele>
        <time>2020-11-01T11:05:07.021Z</time>
      </trkpt>
      <trkpt lat="46.3511" lon="6.05792">
        <ele>738</ele>
        <time>2020-11-01T11:05:08.021Z</time>
      </trkpt>
      <trkpt lat="46.35114" lon="6.05795">
        <ele>738.4</ele>
        <time>2020-11-01T11:05:09.021Z</time>
      </trkpt>
      <trkpt lat="46.35114" lon="6.05795">
        <ele>738.4</ele>
        <time>2020-11-01T11:05:10.023Z</time>
      </trkpt>
      <trkpt lat="46.35117" lon="6.05798">
        <ele>738.6</ele>
        <time>2020-11-01T11:05:11.02Z</time>
      </trkpt>
      <trkpt lat="46.35121" lon="6.05799">
        <ele>738.8</ele>
        <time>2020-11-01T11:05:12.021Z</time>
      </trkpt>
      <trkpt lat="46.35121" lon="6.05799">
        <ele>738.8</ele>
        <time>2020-11-01T11:05:13.022Z</time>
      </trkpt>
      <trkpt lat="46.35125" lon="6.058">
        <ele>739.2</ele>
        <time>2020-11-01T11:05:14.021Z</time>
      </trkpt>
      <trkpt lat="46.35129" lon="6.058">
        <ele>739.4</ele>
        <time>2020-11-01T11:05:15.022Z</time>
      </trkpt>
      <trkpt lat="46.35129" lon="6.058">
        <ele>739.4</ele>
        <time>2020-11-01T11:05:16.022Z</time>
      </trkpt>
      <trkpt lat="46.35132" lon="6.05799">
        <ele>739.6</ele>
        <time>2020-11-01T11:05:17.022Z</time>
      </trkpt>
      <trkpt lat="46.35136" lon="6.05797">
        <ele>739.8</ele>
        <time>2020-11-01T11:05:18.021Z</time>
      </trkpt>
      <trkpt lat="46.35136" lon="6.05797">
        <ele>739.8</ele>
        <time>2020-11-01T11:05:19.023Z</time>
      </trkpt>
      <trkpt lat="46.3514" lon="6.05794">
        <ele>740.2</ele>
        <time>2020-11-01T11:05:20.021Z</time>
      </trkpt>
      <trkpt lat="46.3514" lon="6.05794">
        <ele>740.2</ele>
        <time>2020-11-01T11:05:21.022Z</time>
      </trkpt>
      <trkpt lat="46.35143" lon="6.0579">
        <ele>740.4</ele>
        <time>2020-11-01T11:05:22.02Z</time>
      </trkpt>
      <trkpt lat="46.35146" lon="6.05785">
        <ele>740.8</ele>
        <time>2020-11-01T11:05:23.022Z</time>
      </trkpt>
      <trkpt lat="46.35146" lon="6.05785">
        <ele>740.8</ele>
        <time>2020-11-01T11:05:24.02Z</time>
      </trkpt>
      <trkpt lat="46.35148" lon="6.0578">
        <ele>740.8</ele>
        <time>2020-11-01T11:05:25.021Z</time>
      </trkpt>
      <trkpt lat="46.35148" lon="6.0578">
        <ele>740.8</ele>
        <time>2020-11-01T11:05:26.022Z</time>
      </trkpt>
      <trkpt lat="46.3515" lon="6.05774">
        <ele>741</ele>
        <time>2020-11-01T11:05:27.023Z</time>
      </trkpt>
      <trkpt lat="46.3515" lon="6.05774">
        <ele>741</ele>
        <time>2020-11-01T11:05:28.02Z</time>
      </trkpt>
      <trkpt lat="46.3515" lon="6.05767">
        <ele>741.2</ele>
        <time>2020-11-01T11:05:29.02Z</time>
      </trkpt>
      <trkpt lat="46.3515" lon="6.05761">
        <ele>741.6</ele>
        <time>2020-11-01T11:05:30.022Z</time>
      </trkpt>
      <trkpt lat="46.3515" lon="6.05761">
        <ele>741.6</ele>
        <time>2020-11-01T11:05:31.021Z</time>
      </trkpt>
      <trkpt lat="46.35149" lon="6.05755">
        <ele>741.8</ele>
        <time>2020-11-01T11:05:32.023Z</time>
      </trkpt>
      <trkpt lat="46.35149" lon="6.05755">
        <ele>741.8</ele>
        <time>2020-11-01T11:05:33.022Z</time>
      </trkpt>
      <trkpt lat="46.35147" lon="6.05749">
        <ele>742</ele>
        <time>2020-11-01T11:05:34.021Z</time>
      </trkpt>
      <trkpt lat="46.35147" lon="6.05749">
        <ele>742</ele>
        <time>2020-11-01T11:05:35.021Z</time>
      </trkpt>
      <trkpt lat="46.35146" lon="6.05743">
        <ele>742.4</ele>
        <time>2020-11-01T11:05:36.021Z</time>
      </trkpt>
      <trkpt lat="46.35144" lon="6.05738">
        <ele>742.6</ele>
        <time>2020-11-01T11:05:37.021Z</time>
      </trkpt>
      <trkpt lat="46.35144" lon="6.05738">
        <ele>742.6</ele>
        <time>2020-11-01T11:05:38.021Z</time>
      </trkpt>
      <trkpt lat="46.35142" lon="6.05732">
        <ele>742.8</ele>
        <time>2020-11-01T11:05:39.021Z</time>
      </trkpt>
      <trkpt lat="46.3514" lon="6.05726">
        <ele>743</ele>
        <time>2020-11-01T11:05:40.023Z</time>
      </trkpt>
      <trkpt lat="46.3514" lon="6.05726">
        <ele>743</ele>
        <time>2020-11-01T11:05:41.02Z</time>
      </trkpt>
      <trkpt lat="46.35138" lon="6.05721">
        <ele>743.2</ele>
        <time>2020-11-01T11:05:42.02Z</time>
      </trkpt>
      <trkpt lat="46.35138" lon="6.05721">
        <ele>743.2</ele>
        <time>2020-11-01T11:05:43.022Z</time>
      </trkpt>
      <trkpt lat="46.35136" lon="6.05715">
        <ele>743.4</ele>
        <time>2020-11-01T11:05:44.021Z</time>
      </trkpt>
      <trkpt lat="46.35134" lon="6.0571">
        <ele>743.6</ele>
        <time>2020-11-01T11:05:45.022Z</time>
      </trkpt>
      <trkpt lat="46.35134" lon="6.0571">
        <ele>743.6</ele>
        <time>2020-11-01T11:05:46.021Z</time>
      </trkpt>
      <trkpt lat="46.35132" lon="6.05705">
        <ele>743.6</ele>
        <time>2020-11-01T11:05:47.022Z</time>
      </trkpt>
      <trkpt lat="46.3513" lon="6.05699">
        <ele>743.8</ele>
        <time>2020-11-01T11:05:48.021Z</time>
      </trkpt>
      <trkpt lat="46.3513" lon="6.05699">
        <ele>743.8</ele>
        <time>2020-11-01T11:05:49.021Z</time>
      </trkpt>
      <trkpt lat="46.35128" lon="6.05694">
        <ele>744</ele>
        <time>2020-11-01T11:05:50.021Z</time>
      </trkpt>
      <trkpt lat="46.35125" lon="6.05689">
        <ele>744.2</ele>
        <time>2020-11-01T11:05:51.021Z</time>
      </trkpt>
      <trkpt lat="46.35125" lon="6.05689">
        <ele>744.2</ele>
        <time>2020-11-01T11:05:52.02Z</time>
      </trkpt>
      <trkpt lat="46.35123" lon="6.05685">
        <ele>744.4</ele>
        <time>2020-11-01T11:05:53.021Z</time>
      </trkpt>
      <trkpt lat="46.35123" lon="6.05685">
        <ele>744.4</ele>
        <time>2020-11-01T11:05:54.021Z</time>
      </trkpt>
      <trkpt lat="46.3512" lon="6.0568">
        <ele>744.4</ele>
        <time>2020-11-01T11:05:55.021Z</time>
      </trkpt>
      <trkpt lat="46.35117" lon="6.05675">
        <ele>744.6</ele>
        <time>2020-11-01T11:05:56.022Z</time>
      </trkpt>
      <trkpt lat="46.35117" lon="6.05675">
        <ele>744.6</ele>
        <time>2020-11-01T11:05:57.024Z</time>
      </trkpt>
      <trkpt lat="46.35114" lon="6.05671">
        <ele>744.8</ele>
        <time>2020-11-01T11:05:58.02Z</time>
      </trkpt>
      <trkpt lat="46.35111" lon="6.05666">
        <ele>745.2</ele>
        <time>2020-11-01T11:05:59.021Z</time>
      </trkpt>
      <trkpt lat="46.35111" lon="6.05666">
        <ele>745.2</ele>
        <time>2020-11-01T11:06:00.022Z</time>
      </trkpt>
      <trkpt lat="46.35108" lon="6.05662">
        <ele>745.2</ele>
        <time>2020-11-01T11:06:01.021Z</time>
      </trkpt>
      <trkpt lat="46.35105" lon="6.05657">
        <ele>745.6</ele>
        <time>2020-11-01T11:06:02.021Z</time>
      </trkpt>
      <trkpt lat="46.35105" lon="6.05657">
        <ele>745.6</ele>
        <time>2020-11-01T11:06:03.022Z</time>
      </trkpt>
      <trkpt lat="46.35102" lon="6.05653">
        <ele>745.8</ele>
        <time>2020-11-01T11:06:04.02Z</time>
      </trkpt>
      <trkpt lat="46.35102" lon="6.05653">
        <ele>745.8</ele>
        <time>2020-11-01T11:06:05.023Z</time>
      </trkpt>
      <trkpt lat="46.351" lon="6.05648">
        <ele>746</ele>
        <time>2020-11-01T11:06:06.022Z</time>
      </trkpt>
      <trkpt lat="46.35097" lon="6.05642">
        <ele>746.2</ele>
        <time>2020-11-01T11:06:07.021Z</time>
      </trkpt>
      <trkpt lat="46.35097" lon="6.05642">
        <ele>746.2</ele>
        <time>2020-11-01T11:06:08.023Z</time>
      </trkpt>
      <trkpt lat="46.35095" lon="6.05637">
        <ele>746.6</ele>
        <time>2020-11-01T11:06:09.022Z</time>
      </trkpt>
      <trkpt lat="46.35095" lon="6.05637">
        <ele>746.6</ele>
        <time>2020-11-01T11:06:10.023Z</time>
      </trkpt>
      <trkpt lat="46.35093" lon="6.05632">
        <ele>746.8</ele>
        <time>2020-11-01T11:06:11.021Z</time>
      </trkpt>
      <trkpt lat="46.35091" lon="6.05626">
        <ele>747.2</ele>
        <time>2020-11-01T11:06:12.021Z</time>
      </trkpt>
      <trkpt lat="46.35091" lon="6.05626">
        <ele>747.2</ele>
        <time>2020-11-01T11:06:13.021Z</time>
      </trkpt>
      <trkpt lat="46.3509" lon="6.05621">
        <ele>747.4</ele>
        <time>2020-11-01T11:06:14.021Z</time>
      </trkpt>
      <trkpt lat="46.35088" lon="6.05615">
        <ele>747.6</ele>
        <time>2020-11-01T11:06:15.021Z</time>
      </trkpt>
      <trkpt lat="46.35088" lon="6.05615">
        <ele>747.6</ele>
        <time>2020-11-01T11:06:16.021Z</time>
      </trkpt>
      <trkpt lat="46.35087" lon="6.05609">
        <ele>747.8</ele>
        <time>2020-11-01T11:06:17.022Z</time>
      </trkpt>
      <trkpt lat="46.35087" lon="6.05609">
        <ele>747.8</ele>
        <time>2020-11-01T11:06:18.02Z</time>
      </trkpt>
      <trkpt lat="46.35086" lon="6.05604">
        <ele>748.2</ele>
        <time>2020-11-01T11:06:19.022Z</time>
      </trkpt>
      <trkpt lat="46.35084" lon="6.05598">
        <ele>748.2</ele>
        <time>2020-11-01T11:06:20.022Z</time>
      </trkpt>
      <trkpt lat="46.35084" lon="6.05598">
        <ele>748.2</ele>
        <time>2020-11-01T11:06:21.021Z</time>
      </trkpt>
      <trkpt lat="46.35084" lon="6.05592">
        <ele>748.6</ele>
        <time>2020-11-01T11:06:22.021Z</time>
      </trkpt>
      <trkpt lat="46.35083" lon="6.05586">
        <ele>748.8</ele>
        <time>2020-11-01T11:06:23.02Z</time>
      </trkpt>
      <trkpt lat="46.35083" lon="6.05586">
        <ele>748.8</ele>
        <time>2020-11-01T11:06:24.022Z</time>
      </trkpt>
      <trkpt lat="46.35082" lon="6.05581">
        <ele>749</ele>
        <time>2020-11-01T11:06:25.022Z</time>
      </trkpt>
      <trkpt lat="46.35082" lon="6.05581">
        <ele>749</ele>
        <time>2020-11-01T11:06:26.021Z</time>
      </trkpt>
      <trkpt lat="46.35082" lon="6.05575">
        <ele>749.2</ele>
        <time>2020-11-01T11:06:27.022Z</time>
      </trkpt>
      <trkpt lat="46.35082" lon="6.05569">
        <ele>749.6</ele>
        <time>2020-11-01T11:06:28.021Z</time>
      </trkpt>
      <trkpt lat="46.35082" lon="6.05564">
        <ele>749.8</ele>
        <time>2020-11-01T11:06:29.02Z</time>
      </trkpt>
      <trkpt lat="46.35082" lon="6.05564">
        <ele>749.8</ele>
        <time>2020-11-01T11:06:30.022Z</time>
      </trkpt>
      <trkpt lat="46.35082" lon="6.05558">
        <ele>750</ele>
        <time>2020-11-01T11:06:31.022Z</time>
      </trkpt>
      <trkpt lat="46.35082" lon="6.05558">
        <ele>750</ele>
        <time>2020-11-01T11:06:32.022Z</time>
      </trkpt>
      <trkpt lat="46.35082" lon="6.05552">
        <ele>750.2</ele>
        <time>2020-11-01T11:06:33.02Z</time>
      </trkpt>
      <trkpt lat="46.35083" lon="6.05546">
        <ele>750.6</ele>
        <time>2020-11-01T11:06:34.021Z</time>
      </trkpt>
      <trkpt lat="46.35083" lon="6.05546">
        <ele>750.6</ele>
        <time>2020-11-01T11:06:35.021Z</time>
      </trkpt>
      <trkpt lat="46.35083" lon="6.0554">
        <ele>751</ele>
        <time>2020-11-01T11:06:36.022Z</time>
      </trkpt>
      <trkpt lat="46.35083" lon="6.0554">
        <ele>751</ele>
        <time>2020-11-01T11:06:37.02Z</time>
      </trkpt>
      <trkpt lat="46.35084" lon="6.05534">
        <ele>751.2</ele>
        <time>2020-11-01T11:06:38.021Z</time>
      </trkpt>
      <trkpt lat="46.35084" lon="6.05529">
        <ele>751.6</ele>
        <time>2020-11-01T11:06:39.02Z</time>
      </trkpt>
      <trkpt lat="46.35084" lon="6.05529">
        <ele>751.6</ele>
        <time>2020-11-01T11:06:40.02Z</time>
      </trkpt>
      <trkpt lat="46.35084" lon="6.05523">
        <ele>751.8</ele>
        <time>2020-11-01T11:06:41.021Z</time>
      </trkpt>
      <trkpt lat="46.35085" lon="6.05517">
        <ele>752</ele>
        <time>2020-11-01T11:06:42.022Z</time>
      </trkpt>
      <trkpt lat="46.35085" lon="6.05517">
        <ele>752</ele>
        <time>2020-11-01T11:06:43.02Z</time>
      </trkpt>
      <trkpt lat="46.35086" lon="6.05512">
        <ele>752.4</ele>
        <time>2020-11-01T11:06:44.021Z</time>
      </trkpt>
      <trkpt lat="46.35087" lon="6.05507">
        <ele>752.8</ele>
        <time>2020-11-01T11:06:45.021Z</time>
      </trkpt>
      <trkpt lat="46.35087" lon="6.05507">
        <ele>752.8</ele>
        <time>2020-11-01T11:06:46.021Z</time>
      </trkpt>
      <trkpt lat="46.35087" lon="6.05502">
        <ele>753.2</ele>
        <time>2020-11-01T11:06:47.022Z</time>
      </trkpt>
      <trkpt lat="46.35088" lon="6.05496">
        <ele>753.4</ele>
        <time>2020-11-01T11:06:48.02Z</time>
      </trkpt>
      <trkpt lat="46.35088" lon="6.05496">
        <ele>753.4</ele>
        <time>2020-11-01T11:06:49.021Z</time>
      </trkpt>
      <trkpt lat="46.35088" lon="6.05491">
        <ele>753.8</ele>
        <time>2020-11-01T11:06:50.02Z</time>
      </trkpt>
      <trkpt lat="46.35088" lon="6.05485">
        <ele>754.2</ele>
        <time>2020-11-01T11:06:51.02Z</time>
      </trkpt>
      <trkpt lat="46.35088" lon="6.05485">
        <ele>754.2</ele>
        <time>2020-11-01T11:06:52.022Z</time>
      </trkpt>
      <trkpt lat="46.35088" lon="6.05479">
        <ele>754.6</ele>
        <time>2020-11-01T11:06:53.022Z</time>
      </trkpt>
      <trkpt lat="46.35087" lon="6.05474">
        <ele>755.2</ele>
        <time>2020-11-01T11:06:54.022Z</time>
      </trkpt>
      <trkpt lat="46.35087" lon="6.05474">
        <ele>755.2</ele>
        <time>2020-11-01T11:06:55.022Z</time>
      </trkpt>
      <trkpt lat="46.35086" lon="6.05468">
        <ele>755.4</ele>
        <time>2020-11-01T11:06:56.021Z</time>
      </trkpt>
      <trkpt lat="46.35085" lon="6.05463">
        <ele>755.6</ele>
        <time>2020-11-01T11:06:57.022Z</time>
      </trkpt>
      <trkpt lat="46.35085" lon="6.05463">
        <ele>755.6</ele>
        <time>2020-11-01T11:06:58.022Z</time>
      </trkpt>
      <trkpt lat="46.35084" lon="6.05457">
        <ele>755.8</ele>
        <time>2020-11-01T11:06:59.02Z</time>
      </trkpt>
      <trkpt lat="46.35082" lon="6.05452">
        <ele>755.8</ele>
        <time>2020-11-01T11:07:00.021Z</time>
      </trkpt>
      <trkpt lat="46.35082" lon="6.05452">
        <ele>755.8</ele>
        <time>2020-11-01T11:07:01.021Z</time>
      </trkpt>
      <trkpt lat="46.35081" lon="6.05446">
        <ele>756</ele>
        <time>2020-11-01T11:07:02.021Z</time>
      </trkpt>
      <trkpt lat="46.35081" lon="6.05446">
        <ele>756</ele>
        <time>2020-11-01T11:07:03.02Z</time>
      </trkpt>
      <trkpt lat="46.35079" lon="6.0544">
        <ele>756.2</ele>
        <time>2020-11-01T11:07:04.022Z</time>
      </trkpt>
      <trkpt lat="46.35078" lon="6.05435">
        <ele>756.6</ele>
        <time>2020-11-01T11:07:05.022Z</time>
      </trkpt>
      <trkpt lat="46.35078" lon="6.05435">
        <ele>756.6</ele>
        <time>2020-11-01T11:07:06.022Z</time>
      </trkpt>
      <trkpt lat="46.35076" lon="6.05429">
        <ele>756.8</ele>
        <time>2020-11-01T11:07:07.02Z</time>
      </trkpt>
      <trkpt lat="46.35076" lon="6.05429">
        <ele>756.8</ele>
        <time>2020-11-01T11:07:08.023Z</time>
      </trkpt>
      <trkpt lat="46.35074" lon="6.05424">
        <ele>757</ele>
        <time>2020-11-01T11:07:09.022Z</time>
      </trkpt>
      <trkpt lat="46.35072" lon="6.05418">
        <ele>757.2</ele>
        <time>2020-11-01T11:07:10.021Z</time>
      </trkpt>
      <trkpt lat="46.35072" lon="6.05418">
        <ele>757.2</ele>
        <time>2020-11-01T11:07:11.021Z</time>
      </trkpt>
      <trkpt lat="46.3507" lon="6.05413">
        <ele>757.6</ele>
        <time>2020-11-01T11:07:12.024Z</time>
      </trkpt>
      <trkpt lat="46.3507" lon="6.05413">
        <ele>757.6</ele>
        <time>2020-11-01T11:07:13.021Z</time>
      </trkpt>
      <trkpt lat="46.35068" lon="6.05408">
        <ele>757.8</ele>
        <time>2020-11-01T11:07:14.022Z</time>
      </trkpt>
      <trkpt lat="46.35067" lon="6.05402">
        <ele>757.8</ele>
        <time>2020-11-01T11:07:15.021Z</time>
      </trkpt>
      <trkpt lat="46.35067" lon="6.05402">
        <ele>757.8</ele>
        <time>2020-11-01T11:07:16.02Z</time>
      </trkpt>
      <trkpt lat="46.35065" lon="6.05397">
        <ele>758.2</ele>
        <time>2020-11-01T11:07:17.02Z</time>
      </trkpt>
      <trkpt lat="46.35065" lon="6.05397">
        <ele>758.2</ele>
        <time>2020-11-01T11:07:18.022Z</time>
      </trkpt>
      <trkpt lat="46.35063" lon="6.05392">
        <ele>758.2</ele>
        <time>2020-11-01T11:07:19.02Z</time>
      </trkpt>
      <trkpt lat="46.35061" lon="6.05386">
        <ele>758.4</ele>
        <time>2020-11-01T11:07:20.022Z</time>
      </trkpt>
      <trkpt lat="46.35061" lon="6.05386">
        <ele>758.4</ele>
        <time>2020-11-01T11:07:21.021Z</time>
      </trkpt>
      <trkpt lat="46.35059" lon="6.05381">
        <ele>758.6</ele>
        <time>2020-11-01T11:07:22.022Z</time>
      </trkpt>
      <trkpt lat="46.35057" lon="6.05376">
        <ele>758.8</ele>
        <time>2020-11-01T11:07:23.022Z</time>
      </trkpt>
      <trkpt lat="46.35057" lon="6.05376">
        <ele>758.8</ele>
        <time>2020-11-01T11:07:24.022Z</time>
      </trkpt>
      <trkpt lat="46.35055" lon="6.05371">
        <ele>759.2</ele>
        <time>2020-11-01T11:07:25.02Z</time>
      </trkpt>
      <trkpt lat="46.35053" lon="6.05366">
        <ele>759.2</ele>
        <time>2020-11-01T11:07:26.021Z</time>
      </trkpt>
      <trkpt lat="46.35053" lon="6.05366">
        <ele>759.2</ele>
        <time>2020-11-01T11:07:27.023Z</time>
      </trkpt>
      <trkpt lat="46.35051" lon="6.05361">
        <ele>759.4</ele>
        <time>2020-11-01T11:07:28.022Z</time>
      </trkpt>
      <trkpt lat="46.35051" lon="6.05361">
        <ele>759.4</ele>
        <time>2020-11-01T11:07:29.022Z</time>
      </trkpt>
      <trkpt lat="46.35048" lon="6.05357">
        <ele>759.6</ele>
        <time>2020-11-01T11:07:30.022Z</time>
      </trkpt>
      <trkpt lat="46.35046" lon="6.05352">
        <ele>759.8</ele>
        <time>2020-11-01T11:07:31.023Z</time>
      </trkpt>
      <trkpt lat="46.35044" lon="6.05348">
        <ele>760</ele>
        <time>2020-11-01T11:07:32.02Z</time>
      </trkpt>
      <trkpt lat="46.35044" lon="6.05348">
        <ele>760</ele>
        <time>2020-11-01T11:07:33.021Z</time>
      </trkpt>
      <trkpt lat="46.35041" lon="6.05344">
        <ele>760.2</ele>
        <time>2020-11-01T11:07:34.021Z</time>
      </trkpt>
      <trkpt lat="46.35039" lon="6.0534">
        <ele>760.4</ele>
        <time>2020-11-01T11:07:35.02Z</time>
      </trkpt>
      <trkpt lat="46.35039" lon="6.0534">
        <ele>760.4</ele>
        <time>2020-11-01T11:07:36.02Z</time>
      </trkpt>
      <trkpt lat="46.35037" lon="6.05335">
        <ele>760.8</ele>
        <time>2020-11-01T11:07:37.021Z</time>
      </trkpt>
      <trkpt lat="46.35034" lon="6.05331">
        <ele>761</ele>
        <time>2020-11-01T11:07:38.021Z</time>
      </trkpt>
      <trkpt lat="46.35034" lon="6.05331">
        <ele>761</ele>
        <time>2020-11-01T11:07:39.02Z</time>
      </trkpt>
      <trkpt lat="46.35032" lon="6.05328">
        <ele>761.4</ele>
        <time>2020-11-01T11:07:40.021Z</time>
      </trkpt>
      <trkpt lat="46.35029" lon="6.05324">
        <ele>761.6</ele>
        <time>2020-11-01T11:07:41.021Z</time>
      </trkpt>
      <trkpt lat="46.35026" lon="6.05321">
        <ele>761.8</ele>
        <time>2020-11-01T11:07:42.021Z</time>
      </trkpt>
      <trkpt lat="46.35023" lon="6.05318">
        <ele>762</ele>
        <time>2020-11-01T11:07:43.02Z</time>
      </trkpt>
      <trkpt lat="46.35023" lon="6.05318">
        <ele>762</ele>
        <time>2020-11-01T11:07:44.023Z</time>
      </trkpt>
      <trkpt lat="46.35021" lon="6.05314">
        <ele>762.4</ele>
        <time>2020-11-01T11:07:45.021Z</time>
      </trkpt>
      <trkpt lat="46.35018" lon="6.05309">
        <ele>762.6</ele>
        <time>2020-11-01T11:07:46.02Z</time>
      </trkpt>
      <trkpt lat="46.35018" lon="6.05309">
        <ele>762.6</ele>
        <time>2020-11-01T11:07:47.02Z</time>
      </trkpt>
      <trkpt lat="46.35015" lon="6.05305">
        <ele>762.8</ele>
        <time>2020-11-01T11:07:48.021Z</time>
      </trkpt>
      <trkpt lat="46.35013" lon="6.053">
        <ele>763</ele>
        <time>2020-11-01T11:07:49.021Z</time>
      </trkpt>
      <trkpt lat="46.35013" lon="6.053">
        <ele>763</ele>
        <time>2020-11-01T11:07:50.021Z</time>
      </trkpt>
      <trkpt lat="46.35012" lon="6.05294">
        <ele>763.2</ele>
        <time>2020-11-01T11:07:51.022Z</time>
      </trkpt>
      <trkpt lat="46.3501" lon="6.0529">
        <ele>763.4</ele>
        <time>2020-11-01T11:07:52.023Z</time>
      </trkpt>
      <trkpt lat="46.3501" lon="6.0529">
        <ele>763.4</ele>
        <time>2020-11-01T11:07:53.021Z</time>
      </trkpt>
      <trkpt lat="46.35008" lon="6.05285">
        <ele>763.6</ele>
        <time>2020-11-01T11:07:54.02Z</time>
      </trkpt>
      <trkpt lat="46.35006" lon="6.05281">
        <ele>764</ele>
        <time>2020-11-01T11:07:55.021Z</time>
      </trkpt>
      <trkpt lat="46.35005" lon="6.05275">
        <ele>764.2</ele>
        <time>2020-11-01T11:07:56.02Z</time>
      </trkpt>
      <trkpt lat="46.35005" lon="6.05275">
        <ele>764.2</ele>
        <time>2020-11-01T11:07:57.022Z</time>
      </trkpt>
      <trkpt lat="46.35003" lon="6.0527">
        <ele>764.6</ele>
        <time>2020-11-01T11:07:58.021Z</time>
      </trkpt>
      <trkpt lat="46.35003" lon="6.0527">
        <ele>764.6</ele>
        <time>2020-11-01T11:07:59.021Z</time>
      </trkpt>
      <trkpt lat="46.35001" lon="6.05265">
        <ele>765</ele>
        <time>2020-11-01T11:08:00.02Z</time>
      </trkpt>
      <trkpt lat="46.34999" lon="6.0526">
        <ele>765.4</ele>
        <time>2020-11-01T11:08:01.022Z</time>
      </trkpt>
      <trkpt lat="46.34999" lon="6.0526">
        <ele>765.4</ele>
        <time>2020-11-01T11:08:02.021Z</time>
      </trkpt>
      <trkpt lat="46.34997" lon="6.05255">
        <ele>765.6</ele>
        <time>2020-11-01T11:08:03.023Z</time>
      </trkpt>
      <trkpt lat="46.34997" lon="6.05255">
        <ele>765.6</ele>
        <time>2020-11-01T11:08:04.02Z</time>
      </trkpt>
      <trkpt lat="46.34995" lon="6.05249">
        <ele>765.6</ele>
        <time>2020-11-01T11:08:05.021Z</time>
      </trkpt>
      <trkpt lat="46.34994" lon="6.05244">
        <ele>766</ele>
        <time>2020-11-01T11:08:06.021Z</time>
      </trkpt>
      <trkpt lat="46.34994" lon="6.05244">
        <ele>766</ele>
        <time>2020-11-01T11:08:07.021Z</time>
      </trkpt>
      <trkpt lat="46.34992" lon="6.05238">
        <ele>766.2</ele>
        <time>2020-11-01T11:08:08.022Z</time>
      </trkpt>
      <trkpt lat="46.34991" lon="6.05233">
        <ele>766.4</ele>
        <time>2020-11-01T11:08:09.021Z</time>
      </trkpt>
      <trkpt lat="46.34991" lon="6.05233">
        <ele>766.4</ele>
        <time>2020-11-01T11:08:10.02Z</time>
      </trkpt>
      <trkpt lat="46.34989" lon="6.05227">
        <ele>766.6</ele>
        <time>2020-11-01T11:08:11.02Z</time>
      </trkpt>
      <trkpt lat="46.34989" lon="6.05227">
        <ele>766.6</ele>
        <time>2020-11-01T11:08:12.02Z</time>
      </trkpt>
      <trkpt lat="46.34988" lon="6.05222">
        <ele>766.8</ele>
        <time>2020-11-01T11:08:13.021Z</time>
      </trkpt>
      <trkpt lat="46.34986" lon="6.05216">
        <ele>767</ele>
        <time>2020-11-01T11:08:14.022Z</time>
      </trkpt>
      <trkpt lat="46.34986" lon="6.05216">
        <ele>767</ele>
        <time>2020-11-01T11:08:15.022Z</time>
      </trkpt>
      <trkpt lat="46.34984" lon="6.05211">
        <ele>767</ele>
        <time>2020-11-01T11:08:16.02Z</time>
      </trkpt>
      <trkpt lat="46.34983" lon="6.05206">
        <ele>767.2</ele>
        <time>2020-11-01T11:08:17.022Z</time>
      </trkpt>
      <trkpt lat="46.34983" lon="6.05206">
        <ele>767.2</ele>
        <time>2020-11-01T11:08:18.021Z</time>
      </trkpt>
      <trkpt lat="46.34982" lon="6.052">
        <ele>767.4</ele>
        <time>2020-11-01T11:08:19.02Z</time>
      </trkpt>
      <trkpt lat="46.34982" lon="6.052">
        <ele>767.4</ele>
        <time>2020-11-01T11:08:20.021Z</time>
      </trkpt>
      <trkpt lat="46.3498" lon="6.05195">
        <ele>767.8</ele>
        <time>2020-11-01T11:08:21.021Z</time>
      </trkpt>
      <trkpt lat="46.34978" lon="6.0519">
        <ele>768</ele>
        <time>2020-11-01T11:08:22.023Z</time>
      </trkpt>
      <trkpt lat="46.34978" lon="6.0519">
        <ele>768</ele>
        <time>2020-11-01T11:08:23.021Z</time>
      </trkpt>
      <trkpt lat="46.34976" lon="6.05185">
        <ele>768.6</ele>
        <time>2020-11-01T11:08:24.02Z</time>
      </trkpt>
      <trkpt lat="46.34974" lon="6.0518">
        <ele>768.8</ele>
        <time>2020-11-01T11:08:25.022Z</time>
      </trkpt>
      <trkpt lat="46.34974" lon="6.0518">
        <ele>768.8</ele>
        <time>2020-11-01T11:08:26.02Z</time>
      </trkpt>
      <trkpt lat="46.34971" lon="6.05175">
        <ele>769</ele>
        <time>2020-11-01T11:08:27.021Z</time>
      </trkpt>
      <trkpt lat="46.34971" lon="6.05175">
        <ele>769</ele>
        <time>2020-11-01T11:08:28.02Z</time>
      </trkpt>
      <trkpt lat="46.34969" lon="6.05171">
        <ele>769.2</ele>
        <time>2020-11-01T11:08:29.022Z</time>
      </trkpt>
      <trkpt lat="46.34967" lon="6.05166">
        <ele>769.4</ele>
        <time>2020-11-01T11:08:30.021Z</time>
      </trkpt>
      <trkpt lat="46.34967" lon="6.05166">
        <ele>769.4</ele>
        <time>2020-11-01T11:08:31.022Z</time>
      </trkpt>
      <trkpt lat="46.34964" lon="6.05161">
        <ele>769.8</ele>
        <time>2020-11-01T11:08:32.021Z</time>
      </trkpt>
      <trkpt lat="46.34962" lon="6.05157">
        <ele>770.2</ele>
        <time>2020-11-01T11:08:33.022Z</time>
      </trkpt>
      <trkpt lat="46.34962" lon="6.05157">
        <ele>770.2</ele>
        <time>2020-11-01T11:08:34.021Z</time>
      </trkpt>
      <trkpt lat="46.34959" lon="6.05153">
        <ele>770.4</ele>
        <time>2020-11-01T11:08:35.021Z</time>
      </trkpt>
      <trkpt lat="46.34956" lon="6.05149">
        <ele>770.8</ele>
        <time>2020-11-01T11:08:36.021Z</time>
      </trkpt>
      <trkpt lat="46.34956" lon="6.05149">
        <ele>770.8</ele>
        <time>2020-11-01T11:08:37.021Z</time>
      </trkpt>
      <trkpt lat="46.34953" lon="6.05145">
        <ele>771</ele>
        <time>2020-11-01T11:08:38.022Z</time>
      </trkpt>
      <trkpt lat="46.34953" lon="6.05145">
        <ele>771</ele>
        <time>2020-11-01T11:08:39.023Z</time>
      </trkpt>
      <trkpt lat="46.3495" lon="6.05141">
        <ele>771.2</ele>
        <time>2020-11-01T11:08:40.021Z</time>
      </trkpt>
      <trkpt lat="46.34947" lon="6.05136">
        <ele>771.4</ele>
        <time>2020-11-01T11:08:41.02Z</time>
      </trkpt>
      <trkpt lat="46.34947" lon="6.05136">
        <ele>771.4</ele>
        <time>2020-11-01T11:08:42.022Z</time>
      </trkpt>
      <trkpt lat="46.34944" lon="6.05132">
        <ele>771.6</ele>
        <time>2020-11-01T11:08:43.021Z</time>
      </trkpt>
      <trkpt lat="46.34944" lon="6.05132">
        <ele>771.6</ele>
        <time>2020-11-01T11:08:44.021Z</time>
      </trkpt>
      <trkpt lat="46.34941" lon="6.05128">
        <ele>771.8</ele>
        <time>2020-11-01T11:08:45.022Z</time>
      </trkpt>
      <trkpt lat="46.34938" lon="6.05124">
        <ele>772</ele>
        <time>2020-11-01T11:08:46.021Z</time>
      </trkpt>
      <trkpt lat="46.34938" lon="6.05124">
        <ele>772</ele>
        <time>2020-11-01T11:08:47.021Z</time>
      </trkpt>
      <trkpt lat="46.34935" lon="6.0512">
        <ele>772.4</ele>
        <time>2020-11-01T11:08:48.023Z</time>
      </trkpt>
      <trkpt lat="46.34935" lon="6.0512">
        <ele>772.4</ele>
        <time>2020-11-01T11:08:49.02Z</time>
      </trkpt>
      <trkpt lat="46.34932" lon="6.05116">
        <ele>772.4</ele>
        <time>2020-11-01T11:08:50.02Z</time>
      </trkpt>
      <trkpt lat="46.34929" lon="6.05112">
        <ele>772.6</ele>
        <time>2020-11-01T11:08:51.021Z</time>
      </trkpt>
      <trkpt lat="46.34929" lon="6.05112">
        <ele>772.6</ele>
        <time>2020-11-01T11:08:52.02Z</time>
      </trkpt>
      <trkpt lat="46.34926" lon="6.05108">
        <ele>772.8</ele>
        <time>2020-11-01T11:08:53.02Z</time>
      </trkpt>
      <trkpt lat="46.34926" lon="6.05108">
        <ele>772.8</ele>
        <time>2020-11-01T11:08:54.02Z</time>
      </trkpt>
      <trkpt lat="46.34922" lon="6.05104">
        <ele>772.8</ele>
        <time>2020-11-01T11:08:55.022Z</time>
      </trkpt>
      <trkpt lat="46.3492" lon="6.051">
        <ele>773.2</ele>
        <time>2020-11-01T11:08:56.023Z</time>
      </trkpt>
      <trkpt lat="46.3492" lon="6.051">
        <ele>773.2</ele>
        <time>2020-11-01T11:08:57.02Z</time>
      </trkpt>
      <trkpt lat="46.34917" lon="6.05096">
        <ele>773.4</ele>
        <time>2020-11-01T11:08:58.022Z</time>
      </trkpt>
      <trkpt lat="46.34914" lon="6.05092">
        <ele>773.8</ele>
        <time>2020-11-01T11:08:59.021Z</time>
      </trkpt>
      <trkpt lat="46.34914" lon="6.05092">
        <ele>773.8</ele>
        <time>2020-11-01T11:09:00.022Z</time>
      </trkpt>
      <trkpt lat="46.34911" lon="6.05088">
        <ele>774.2</ele>
        <time>2020-11-01T11:09:01.022Z</time>
      </trkpt>
      <trkpt lat="46.34908" lon="6.05084">
        <ele>774.6</ele>
        <time>2020-11-01T11:09:02.02Z</time>
      </trkpt>
      <trkpt lat="46.34908" lon="6.05084">
        <ele>774.6</ele>
        <time>2020-11-01T11:09:03.022Z</time>
      </trkpt>
      <trkpt lat="46.34906" lon="6.0508">
        <ele>774.8</ele>
        <time>2020-11-01T11:09:04.021Z</time>
      </trkpt>
      <trkpt lat="46.34903" lon="6.05076">
        <ele>775</ele>
        <time>2020-11-01T11:09:05.021Z</time>
      </trkpt>
      <trkpt lat="46.34903" lon="6.05076">
        <ele>775</ele>
        <time>2020-11-01T11:09:06.022Z</time>
      </trkpt>
      <trkpt lat="46.349" lon="6.05072">
        <ele>775.2</ele>
        <time>2020-11-01T11:09:07.021Z</time>
      </trkpt>
      <trkpt lat="46.349" lon="6.05072">
        <ele>775.2</ele>
        <time>2020-11-01T11:09:08.02Z</time>
      </trkpt>
      <trkpt lat="46.34897" lon="6.05068">
        <ele>775.4</ele>
        <time>2020-11-01T11:09:09.021Z</time>
      </trkpt>
      <trkpt lat="46.34895" lon="6.05064">
        <ele>775.6</ele>
        <time>2020-11-01T11:09:10.023Z</time>
      </trkpt>
      <trkpt lat="46.34895" lon="6.05064">
        <ele>775.6</ele>
        <time>2020-11-01T11:09:11.02Z</time>
      </trkpt>
      <trkpt lat="46.34892" lon="6.05059">
        <ele>776.2</ele>
        <time>2020-11-01T11:09:12.022Z</time>
      </trkpt>
      <trkpt lat="46.3489" lon="6.05055">
        <ele>776.4</ele>
        <time>2020-11-01T11:09:13.022Z</time>
      </trkpt>
      <trkpt lat="46.3489" lon="6.05055">
        <ele>776.4</ele>
        <time>2020-11-01T11:09:14.02Z</time>
      </trkpt>
      <trkpt lat="46.34887" lon="6.05051">
        <ele>776.6</ele>
        <time>2020-11-01T11:09:15.021Z</time>
      </trkpt>
      <trkpt lat="46.34884" lon="6.05047">
        <ele>777</ele>
        <time>2020-11-01T11:09:16.021Z</time>
      </trkpt>
      <trkpt lat="46.34884" lon="6.05047">
        <ele>777</ele>
        <time>2020-11-01T11:09:17.021Z</time>
      </trkpt>
      <trkpt lat="46.34881" lon="6.05043">
        <ele>777.2</ele>
        <time>2020-11-01T11:09:18.022Z</time>
      </trkpt>
      <trkpt lat="46.34879" lon="6.05039">
        <ele>777.4</ele>
        <time>2020-11-01T11:09:19.022Z</time>
      </trkpt>
      <trkpt lat="46.34879" lon="6.05039">
        <ele>777.4</ele>
        <time>2020-11-01T11:09:20.022Z</time>
      </trkpt>
      <trkpt lat="46.34876" lon="6.05035">
        <ele>777.6</ele>
        <time>2020-11-01T11:09:21.022Z</time>
      </trkpt>
      <trkpt lat="46.34873" lon="6.05031">
        <ele>777.8</ele>
        <time>2020-11-01T11:09:22.02Z</time>
      </trkpt>
      <trkpt lat="46.34873" lon="6.05031">
        <ele>777.8</ele>
        <time>2020-11-01T11:09:23.023Z</time>
      </trkpt>
      <trkpt lat="46.34871" lon="6.05027">
        <ele>778</ele>
        <time>2020-11-01T11:09:24.02Z</time>
      </trkpt>
      <trkpt lat="46.34868" lon="6.05023">
        <ele>778.2</ele>
        <time>2020-11-01T11:09:25.021Z</time>
      </trkpt>
      <trkpt lat="46.34868" lon="6.05023">
        <ele>778.2</ele>
        <time>2020-11-01T11:09:26.024Z</time>
      </trkpt>
      <trkpt lat="46.34866" lon="6.05018">
        <ele>778.4</ele>
        <time>2020-11-01T11:09:27.021Z</time>
      </trkpt>
      <trkpt lat="46.34864" lon="6.05013">
        <ele>778.6</ele>
        <time>2020-11-01T11:09:28.021Z</time>
      </trkpt>
      <trkpt lat="46.34864" lon="6.05013">
        <ele>778.6</ele>
        <time>2020-11-01T11:09:29.022Z</time>
      </trkpt>
      <trkpt lat="46.34863" lon="6.05007">
        <ele>778.8</ele>
        <time>2020-11-01T11:09:30.021Z</time>
      </trkpt>
      <trkpt lat="46.34863" lon="6.05007">
        <ele>778.8</ele>
        <time>2020-11-01T11:09:31.02Z</time>
      </trkpt>
      <trkpt lat="46.34862" lon="6.05002">
        <ele>779</ele>
        <time>2020-11-01T11:09:32.022Z</time>
      </trkpt>
      <trkpt lat="46.34863" lon="6.04996">
        <ele>779.2</ele>
        <time>2020-11-01T11:09:33.022Z</time>
      </trkpt>
      <trkpt lat="46.34863" lon="6.04996">
        <ele>779.2</ele>
        <time>2020-11-01T11:09:34.021Z</time>
      </trkpt>
      <trkpt lat="46.34864" lon="6.04991">
        <ele>779.4</ele>
        <time>2020-11-01T11:09:35.021Z</time>
      </trkpt>
      <trkpt lat="46.34867" lon="6.04988">
        <ele>779.6</ele>
        <time>2020-11-01T11:09:36.021Z</time>
      </trkpt>
      <trkpt lat="46.34867" lon="6.04988">
        <ele>779.6</ele>
        <time>2020-11-01T11:09:37.023Z</time>
      </trkpt>
      <trkpt lat="46.3487" lon="6.04986">
        <ele>779.8</ele>
        <time>2020-11-01T11:09:38.021Z</time>
      </trkpt>
      <trkpt lat="46.34875" lon="6.04986">
        <ele>780</ele>
        <time>2020-11-01T11:09:39.021Z</time>
      </trkpt>
      <trkpt lat="46.34875" lon="6.04986">
        <ele>780</ele>
        <time>2020-11-01T11:09:40.022Z</time>
      </trkpt>
      <trkpt lat="46.34879" lon="6.04987">
        <ele>780.2</ele>
        <time>2020-11-01T11:09:41.02Z</time>
      </trkpt>
      <trkpt lat="46.34879" lon="6.04987">
        <ele>780.2</ele>
        <time>2020-11-01T11:09:42.021Z</time>
      </trkpt>
      <trkpt lat="46.34883" lon="6.04988">
        <ele>780.4</ele>
        <time>2020-11-01T11:09:43.023Z</time>
      </trkpt>
      <trkpt lat="46.34887" lon="6.04991">
        <ele>780.4</ele>
        <time>2020-11-01T11:09:44.02Z</time>
      </trkpt>
      <trkpt lat="46.34887" lon="6.04991">
        <ele>780.4</ele>
        <time>2020-11-01T11:09:45.02Z</time>
      </trkpt>
      <trkpt lat="46.34891" lon="6.04994">
        <ele>780.6</ele>
        <time>2020-11-01T11:09:46.02Z</time>
      </trkpt>
      <trkpt lat="46.34891" lon="6.04994">
        <ele>780.6</ele>
        <time>2020-11-01T11:09:47.02Z</time>
      </trkpt>
      <trkpt lat="46.34895" lon="6.04997">
        <ele>781</ele>
        <time>2020-11-01T11:09:48.022Z</time>
      </trkpt>
      <trkpt lat="46.34895" lon="6.04997">
        <ele>781</ele>
        <time>2020-11-01T11:09:49.02Z</time>
      </trkpt>
      <trkpt lat="46.34899" lon="6.04999">
        <ele>781.4</ele>
        <time>2020-11-01T11:09:50.022Z</time>
      </trkpt>
      <trkpt lat="46.34899" lon="6.04999">
        <ele>781.4</ele>
        <time>2020-11-01T11:09:51.02Z</time>
      </trkpt>
      <trkpt lat="46.34903" lon="6.05002">
        <ele>781.6</ele>
        <time>2020-11-01T11:09:52.022Z</time>
      </trkpt>
      <trkpt lat="46.34903" lon="6.05002">
        <ele>781.6</ele>
        <time>2020-11-01T11:09:53.022Z</time>
      </trkpt>
      <trkpt lat="46.34907" lon="6.05005">
        <ele>782</ele>
        <time>2020-11-01T11:09:54.022Z</time>
      </trkpt>
      <trkpt lat="46.34907" lon="6.05005">
        <ele>782</ele>
        <time>2020-11-01T11:09:55.021Z</time>
      </trkpt>
      <trkpt lat="46.34911" lon="6.05007">
        <ele>782.2</ele>
        <time>2020-11-01T11:09:56.023Z</time>
      </trkpt>
      <trkpt lat="46.34916" lon="6.0501">
        <ele>782.4</ele>
        <time>2020-11-01T11:09:57.021Z</time>
      </trkpt>
      <trkpt lat="46.34916" lon="6.0501">
        <ele>782.4</ele>
        <time>2020-11-01T11:09:58.021Z</time>
      </trkpt>
      <trkpt lat="46.3492" lon="6.05012">
        <ele>782.6</ele>
        <time>2020-11-01T11:09:59.022Z</time>
      </trkpt>
      <trkpt lat="46.3492" lon="6.05012">
        <ele>782.6</ele>
        <time>2020-11-01T11:10:00.021Z</time>
      </trkpt>
      <trkpt lat="46.34924" lon="6.05014">
        <ele>783.4</ele>
        <time>2020-11-01T11:10:01.02Z</time>
      </trkpt>
      <trkpt lat="46.34924" lon="6.05014">
        <ele>783.4</ele>
        <time>2020-11-01T11:10:02.021Z</time>
      </trkpt>
      <trkpt lat="46.34928" lon="6.05016">
        <ele>783.6</ele>
        <time>2020-11-01T11:10:03.021Z</time>
      </trkpt>
      <trkpt lat="46.34928" lon="6.05016">
        <ele>783.6</ele>
        <time>2020-11-01T11:10:04.021Z</time>
      </trkpt>
      <trkpt lat="46.34933" lon="6.05017">
        <ele>784</ele>
        <time>2020-11-01T11:10:05.023Z</time>
      </trkpt>
      <trkpt lat="46.34937" lon="6.05019">
        <ele>784.2</ele>
        <time>2020-11-01T11:10:06.021Z</time>
      </trkpt>
      <trkpt lat="46.34937" lon="6.05019">
        <ele>784.2</ele>
        <time>2020-11-01T11:10:07.022Z</time>
      </trkpt>
      <trkpt lat="46.34942" lon="6.0502">
        <ele>784.4</ele>
        <time>2020-11-01T11:10:08.021Z</time>
      </trkpt>
      <trkpt lat="46.34942" lon="6.0502">
        <ele>784.4</ele>
        <time>2020-11-01T11:10:09.022Z</time>
      </trkpt>
      <trkpt lat="46.34946" lon="6.05022">
        <ele>784.6</ele>
        <time>2020-11-01T11:10:10.02Z</time>
      </trkpt>
      <trkpt lat="46.34946" lon="6.05022">
        <ele>784.6</ele>
        <time>2020-11-01T11:10:11.02Z</time>
      </trkpt>
      <trkpt lat="46.3495" lon="6.05023">
        <ele>784.6</ele>
        <time>2020-11-01T11:10:12.021Z</time>
      </trkpt>
      <trkpt lat="46.3495" lon="6.05023">
        <ele>784.6</ele>
        <time>2020-11-01T11:10:13.021Z</time>
      </trkpt>
      <trkpt lat="46.34955" lon="6.05024">
        <ele>784.8</ele>
        <time>2020-11-01T11:10:14.021Z</time>
      </trkpt>
      <trkpt lat="46.34959" lon="6.05025">
        <ele>785</ele>
        <time>2020-11-01T11:10:15.021Z</time>
      </trkpt>
      <trkpt lat="46.34959" lon="6.05025">
        <ele>785</ele>
        <time>2020-11-01T11:10:16.022Z</time>
      </trkpt>
      <trkpt lat="46.34964" lon="6.05026">
        <ele>785.2</ele>
        <time>2020-11-01T11:10:17.023Z</time>
      </trkpt>
      <trkpt lat="46.34964" lon="6.05026">
        <ele>785.2</ele>
        <time>2020-11-01T11:10:18.022Z</time>
      </trkpt>
      <trkpt lat="46.34968" lon="6.05027">
        <ele>785.4</ele>
        <time>2020-11-01T11:10:19.021Z</time>
      </trkpt>
      <trkpt lat="46.34968" lon="6.05027">
        <ele>785.4</ele>
        <time>2020-11-01T11:10:20.02Z</time>
      </trkpt>
      <trkpt lat="46.34972" lon="6.05028">
        <ele>785.6</ele>
        <time>2020-11-01T11:10:21.02Z</time>
      </trkpt>
      <trkpt lat="46.34972" lon="6.05028">
        <ele>785.6</ele>
        <time>2020-11-01T11:10:22.02Z</time>
      </trkpt>
      <trkpt lat="46.34977" lon="6.05028">
        <ele>785.8</ele>
        <time>2020-11-01T11:10:23.021Z</time>
      </trkpt>
      <trkpt lat="46.34981" lon="6.05029">
        <ele>786</ele>
        <time>2020-11-01T11:10:24.022Z</time>
      </trkpt>
      <trkpt lat="46.34981" lon="6.05029">
        <ele>786</ele>
        <time>2020-11-01T11:10:25.02Z</time>
      </trkpt>
      <trkpt lat="46.34986" lon="6.0503">
        <ele>786.2</ele>
        <time>2020-11-01T11:10:26.021Z</time>
      </trkpt>
      <trkpt lat="46.34986" lon="6.0503">
        <ele>786.2</ele>
        <time>2020-11-01T11:10:27.021Z</time>
      </trkpt>
      <trkpt lat="46.3499" lon="6.05031">
        <ele>786.4</ele>
        <time>2020-11-01T11:10:28.021Z</time>
      </trkpt>
      <trkpt lat="46.34994" lon="6.05031">
        <ele>786.4</ele>
        <time>2020-11-01T11:10:29.02Z</time>
      </trkpt>
      <trkpt lat="46.34994" lon="6.05031">
        <ele>786.4</ele>
        <time>2020-11-01T11:10:30.02Z</time>
      </trkpt>
      <trkpt lat="46.34999" lon="6.05032">
        <ele>786.8</ele>
        <time>2020-11-01T11:10:31.02Z</time>
      </trkpt>
      <trkpt lat="46.34999" lon="6.05032">
        <ele>786.8</ele>
        <time>2020-11-01T11:10:32.02Z</time>
      </trkpt>
      <trkpt lat="46.35003" lon="6.05033">
        <ele>786.8</ele>
        <time>2020-11-01T11:10:33.021Z</time>
      </trkpt>
      <trkpt lat="46.35003" lon="6.05033">
        <ele>786.8</ele>
        <time>2020-11-01T11:10:34.021Z</time>
      </trkpt>
      <trkpt lat="46.35007" lon="6.05033">
        <ele>787</ele>
        <time>2020-11-01T11:10:35.022Z</time>
      </trkpt>
      <trkpt lat="46.35011" lon="6.05034">
        <ele>787.4</ele>
        <time>2020-11-01T11:10:36.021Z</time>
      </trkpt>
      <trkpt lat="46.35011" lon="6.05034">
        <ele>787.4</ele>
        <time>2020-11-01T11:10:37.022Z</time>
      </trkpt>
      <trkpt lat="46.35015" lon="6.05035">
        <ele>787.6</ele>
        <time>2020-11-01T11:10:38.02Z</time>
      </trkpt>
      <trkpt lat="46.35019" lon="6.05036">
        <ele>788</ele>
        <time>2020-11-01T11:10:39.021Z</time>
      </trkpt>
      <trkpt lat="46.35019" lon="6.05036">
        <ele>788</ele>
        <time>2020-11-01T11:10:40.02Z</time>
      </trkpt>
      <trkpt lat="46.35022" lon="6.05037">
        <ele>788.2</ele>
        <time>2020-11-01T11:10:41.02Z</time>
      </trkpt>
      <trkpt lat="46.35026" lon="6.05038">
        <ele>788.4</ele>
        <time>2020-11-01T11:10:42.022Z</time>
      </trkpt>
      <trkpt lat="46.35026" lon="6.05038">
        <ele>788.4</ele>
        <time>2020-11-01T11:10:43.02Z</time>
      </trkpt>
      <trkpt lat="46.3503" lon="6.05038">
        <ele>788.6</ele>
        <time>2020-11-01T11:10:44.02Z</time>
      </trkpt>
      <trkpt lat="46.3503" lon="6.05038">
        <ele>788.6</ele>
        <time>2020-11-01T11:10:45.022Z</time>
      </trkpt>
      <trkpt lat="46.35034" lon="6.05039">
        <ele>788.8</ele>
        <time>2020-11-01T11:10:46.02Z</time>
      </trkpt>
      <trkpt lat="46.35038" lon="6.05039">
        <ele>789</ele>
        <time>2020-11-01T11:10:47.023Z</time>
      </trkpt>
      <trkpt lat="46.35042" lon="6.0504">
        <ele>789.2</ele>
        <time>2020-11-01T11:10:48.021Z</time>
      </trkpt>
      <trkpt lat="46.35042" lon="6.0504">
        <ele>789.2</ele>
        <time>2020-11-01T11:10:49.022Z</time>
      </trkpt>
      <trkpt lat="46.35046" lon="6.0504">
        <ele>789.4</ele>
        <time>2020-11-01T11:10:50.022Z</time>
      </trkpt>
      <trkpt lat="46.35046" lon="6.0504">
        <ele>789.4</ele>
        <time>2020-11-01T11:10:51.02Z</time>
      </trkpt>
      <trkpt lat="46.3505" lon="6.05041">
        <ele>789.8</ele>
        <time>2020-11-01T11:10:52.02Z</time>
      </trkpt>
      <trkpt lat="46.35054" lon="6.05041">
        <ele>790</ele>
        <time>2020-11-01T11:10:53.021Z</time>
      </trkpt>
      <trkpt lat="46.35054" lon="6.05041">
        <ele>790</ele>
        <time>2020-11-01T11:10:54.022Z</time>
      </trkpt>
      <trkpt lat="46.35058" lon="6.05041">
        <ele>790.4</ele>
        <time>2020-11-01T11:10:55.021Z</time>
      </trkpt>
      <trkpt lat="46.35058" lon="6.05041">
        <ele>790.4</ele>
        <time>2020-11-01T11:10:56.022Z</time>
      </trkpt>
      <trkpt lat="46.35062" lon="6.05042">
        <ele>790.6</ele>
        <time>2020-11-01T11:10:57.02Z</time>
      </trkpt>
      <trkpt lat="46.35066" lon="6.05042">
        <ele>791</ele>
        <time>2020-11-01T11:10:58.023Z</time>
      </trkpt>
      <trkpt lat="46.35066" lon="6.05042">
        <ele>791</ele>
        <time>2020-11-01T11:10:59.022Z</time>
      </trkpt>
      <trkpt lat="46.35071" lon="6.05043">
        <ele>791.2</ele>
        <time>2020-11-01T11:11:00.021Z</time>
      </trkpt>
      <trkpt lat="46.35071" lon="6.05043">
        <ele>791.2</ele>
        <time>2020-11-01T11:11:01.02Z</time>
      </trkpt>
      <trkpt lat="46.35075" lon="6.05044">
        <ele>791.6</ele>
        <time>2020-11-01T11:11:02.02Z</time>
      </trkpt>
      <trkpt lat="46.35079" lon="6.05044">
        <ele>791.8</ele>
        <time>2020-11-01T11:11:03.02Z</time>
      </trkpt>
      <trkpt lat="46.35079" lon="6.05044">
        <ele>791.8</ele>
        <time>2020-11-01T11:11:04.023Z</time>
      </trkpt>
      <trkpt lat="46.35083" lon="6.05045">
        <ele>792</ele>
        <time>2020-11-01T11:11:05.021Z</time>
      </trkpt>
      <trkpt lat="46.35083" lon="6.05045">
        <ele>792</ele>
        <time>2020-11-01T11:11:06.02Z</time>
      </trkpt>
      <trkpt lat="46.35087" lon="6.05045">
        <ele>792.4</ele>
        <time>2020-11-01T11:11:07.022Z</time>
      </trkpt>
      <trkpt lat="46.35091" lon="6.05046">
        <ele>792.4</ele>
        <time>2020-11-01T11:11:08.023Z</time>
      </trkpt>
      <trkpt lat="46.35091" lon="6.05046">
        <ele>792.4</ele>
        <time>2020-11-01T11:11:09.021Z</time>
      </trkpt>
      <trkpt lat="46.35095" lon="6.05046">
        <ele>792.8</ele>
        <time>2020-11-01T11:11:10.021Z</time>
      </trkpt>
      <trkpt lat="46.35098" lon="6.05048">
        <ele>793</ele>
        <time>2020-11-01T11:11:11.021Z</time>
      </trkpt>
      <trkpt lat="46.35098" lon="6.05048">
        <ele>793</ele>
        <time>2020-11-01T11:11:12.021Z</time>
      </trkpt>
      <trkpt lat="46.35102" lon="6.0505">
        <ele>793.2</ele>
        <time>2020-11-01T11:11:13.021Z</time>
      </trkpt>
      <trkpt lat="46.35102" lon="6.0505">
        <ele>793.2</ele>
        <time>2020-11-01T11:11:14.02Z</time>
      </trkpt>
      <trkpt lat="46.35106" lon="6.05051">
        <ele>793.4</ele>
        <time>2020-11-01T11:11:15.022Z</time>
      </trkpt>
      <trkpt lat="46.3511" lon="6.05052">
        <ele>793.8</ele>
        <time>2020-11-01T11:11:16.021Z</time>
      </trkpt>
      <trkpt lat="46.3511" lon="6.05052">
        <ele>793.8</ele>
        <time>2020-11-01T11:11:17.022Z</time>
      </trkpt>
      <trkpt lat="46.35114" lon="6.05053">
        <ele>793.8</ele>
        <time>2020-11-01T11:11:18.021Z</time>
      </trkpt>
      <trkpt lat="46.35114" lon="6.05053">
        <ele>793.8</ele>
        <time>2020-11-01T11:11:19.021Z</time>
      </trkpt>
      <trkpt lat="46.35118" lon="6.05055">
        <ele>794</ele>
        <time>2020-11-01T11:11:20.021Z</time>
      </trkpt>
      <trkpt lat="46.35122" lon="6.05057">
        <ele>794.2</ele>
        <time>2020-11-01T11:11:21.021Z</time>
      </trkpt>
      <trkpt lat="46.35122" lon="6.05057">
        <ele>794.2</ele>
        <time>2020-11-01T11:11:22.021Z</time>
      </trkpt>
      <trkpt lat="46.35126" lon="6.0506">
        <ele>794.4</ele>
        <time>2020-11-01T11:11:23.021Z</time>
      </trkpt>
      <trkpt lat="46.35126" lon="6.0506">
        <ele>794.4</ele>
        <time>2020-11-01T11:11:24.022Z</time>
      </trkpt>
      <trkpt lat="46.3513" lon="6.05062">
        <ele>794.6</ele>
        <time>2020-11-01T11:11:25.022Z</time>
      </trkpt>
      <trkpt lat="46.35133" lon="6.05065">
        <ele>794.8</ele>
        <time>2020-11-01T11:11:26.022Z</time>
      </trkpt>
      <trkpt lat="46.35133" lon="6.05065">
        <ele>794.8</ele>
        <time>2020-11-01T11:11:27.022Z</time>
      </trkpt>
      <trkpt lat="46.35137" lon="6.05068">
        <ele>795</ele>
        <time>2020-11-01T11:11:28.021Z</time>
      </trkpt>
      <trkpt lat="46.3514" lon="6.05072">
        <ele>795.4</ele>
        <time>2020-11-01T11:11:29.02Z</time>
      </trkpt>
      <trkpt lat="46.3514" lon="6.05072">
        <ele>795.4</ele>
        <time>2020-11-01T11:11:30.021Z</time>
      </trkpt>
      <trkpt lat="46.35143" lon="6.05075">
        <ele>795.6</ele>
        <time>2020-11-01T11:11:31.02Z</time>
      </trkpt>
      <trkpt lat="46.35143" lon="6.05075">
        <ele>795.6</ele>
        <time>2020-11-01T11:11:32.022Z</time>
      </trkpt>
      <trkpt lat="46.35146" lon="6.05079">
        <ele>796</ele>
        <time>2020-11-01T11:11:33.021Z</time>
      </trkpt>
      <trkpt lat="46.3515" lon="6.05082">
        <ele>796.2</ele>
        <time>2020-11-01T11:11:34.022Z</time>
      </trkpt>
      <trkpt lat="46.3515" lon="6.05082">
        <ele>796.2</ele>
        <time>2020-11-01T11:11:35.021Z</time>
      </trkpt>
      <trkpt lat="46.35154" lon="6.05086">
        <ele>796.4</ele>
        <time>2020-11-01T11:11:36.021Z</time>
      </trkpt>
      <trkpt lat="46.35154" lon="6.05086">
        <ele>796.4</ele>
        <time>2020-11-01T11:11:37.022Z</time>
      </trkpt>
      <trkpt lat="46.35157" lon="6.05089">
        <ele>796.6</ele>
        <time>2020-11-01T11:11:38.022Z</time>
      </trkpt>
      <trkpt lat="46.35157" lon="6.05089">
        <ele>796.6</ele>
        <time>2020-11-01T11:11:39.022Z</time>
      </trkpt>
      <trkpt lat="46.35161" lon="6.05093">
        <ele>797</ele>
        <time>2020-11-01T11:11:40.021Z</time>
      </trkpt>
      <trkpt lat="46.35164" lon="6.05096">
        <ele>797.4</ele>
        <time>2020-11-01T11:11:41.021Z</time>
      </trkpt>
      <trkpt lat="46.35164" lon="6.05096">
        <ele>797.4</ele>
        <time>2020-11-01T11:11:42.02Z</time>
      </trkpt>
      <trkpt lat="46.35167" lon="6.051">
        <ele>797.6</ele>
        <time>2020-11-01T11:11:43.022Z</time>
      </trkpt>
      <trkpt lat="46.35167" lon="6.051">
        <ele>797.6</ele>
        <time>2020-11-01T11:11:44.02Z</time>
      </trkpt>
      <trkpt lat="46.35171" lon="6.05104">
        <ele>797.8</ele>
        <time>2020-11-01T11:11:45.022Z</time>
      </trkpt>
      <trkpt lat="46.35175" lon="6.05107">
        <ele>798.2</ele>
        <time>2020-11-01T11:11:46.02Z</time>
      </trkpt>
      <trkpt lat="46.35175" lon="6.05107">
        <ele>798.2</ele>
        <time>2020-11-01T11:11:47.021Z</time>
      </trkpt>
      <trkpt lat="46.35178" lon="6.05111">
        <ele>798.4</ele>
        <time>2020-11-01T11:11:48.021Z</time>
      </trkpt>
      <trkpt lat="46.35178" lon="6.05111">
        <ele>798.4</ele>
        <time>2020-11-01T11:11:49.023Z</time>
      </trkpt>
      <trkpt lat="46.35181" lon="6.05114">
        <ele>798.6</ele>
        <time>2020-11-01T11:11:50.02Z</time>
      </trkpt>
      <trkpt lat="46.35184" lon="6.05118">
        <ele>799</ele>
        <time>2020-11-01T11:11:51.022Z</time>
      </trkpt>
      <trkpt lat="46.35184" lon="6.05118">
        <ele>799</ele>
        <time>2020-11-01T11:11:52.02Z</time>
      </trkpt>
      <trkpt lat="46.35188" lon="6.05122">
        <ele>799.2</ele>
        <time>2020-11-01T11:11:53.021Z</time>
      </trkpt>
      <trkpt lat="46.35188" lon="6.05122">
        <ele>799.2</ele>
        <time>2020-11-01T11:11:54.022Z</time>
      </trkpt>
      <trkpt lat="46.35191" lon="6.05126">
        <ele>799.6</ele>
        <time>2020-11-01T11:11:55.021Z</time>
      </trkpt>
      <trkpt lat="46.35194" lon="6.05129">
        <ele>799.8</ele>
        <time>2020-11-01T11:11:56.02Z</time>
      </trkpt>
      <trkpt lat="46.35194" lon="6.05129">
        <ele>799.8</ele>
        <time>2020-11-01T11:11:57.022Z</time>
      </trkpt>
      <trkpt lat="46.35197" lon="6.05133">
        <ele>800.4</ele>
        <time>2020-11-01T11:11:58.02Z</time>
      </trkpt>
      <trkpt lat="46.352" lon="6.05137">
        <ele>800.8</ele>
        <time>2020-11-01T11:11:59.02Z</time>
      </trkpt>
      <trkpt lat="46.352" lon="6.05137">
        <ele>800.8</ele>
        <time>2020-11-01T11:12:00.022Z</time>
      </trkpt>
      <trkpt lat="46.35203" lon="6.05141">
        <ele>801</ele>
        <time>2020-11-01T11:12:01.021Z</time>
      </trkpt>
      <trkpt lat="46.35206" lon="6.05144">
        <ele>801.2</ele>
        <time>2020-11-01T11:12:02.022Z</time>
      </trkpt>
      <trkpt lat="46.35206" lon="6.05144">
        <ele>801.2</ele>
        <time>2020-11-01T11:12:03.022Z</time>
      </trkpt>
      <trkpt lat="46.35209" lon="6.05148">
        <ele>801.4</ele>
        <time>2020-11-01T11:12:04.023Z</time>
      </trkpt>
      <trkpt lat="46.35211" lon="6.05151">
        <ele>801.6</ele>
        <time>2020-11-01T11:12:05.021Z</time>
      </trkpt>
      <trkpt lat="46.35211" lon="6.05151">
        <ele>801.6</ele>
        <time>2020-11-01T11:12:06.02Z</time>
      </trkpt>
      <trkpt lat="46.35214" lon="6.05155">
        <ele>801.8</ele>
        <time>2020-11-01T11:12:07.021Z</time>
      </trkpt>
      <trkpt lat="46.35214" lon="6.05155">
        <ele>801.8</ele>
        <time>2020-11-01T11:12:08.023Z</time>
      </trkpt>
      <trkpt lat="46.35217" lon="6.05158">
        <ele>802</ele>
        <time>2020-11-01T11:12:09.022Z</time>
      </trkpt>
      <trkpt lat="46.3522" lon="6.05162">
        <ele>802.6</ele>
        <time>2020-11-01T11:12:10.02Z</time>
      </trkpt>
      <trkpt lat="46.3522" lon="6.05162">
        <ele>802.6</ele>
        <time>2020-11-01T11:12:11.023Z</time>
      </trkpt>
      <trkpt lat="46.35223" lon="6.05165">
        <ele>802.8</ele>
        <time>2020-11-01T11:12:12.022Z</time>
      </trkpt>
      <trkpt lat="46.35226" lon="6.05168">
        <ele>803.2</ele>
        <time>2020-11-01T11:12:13.022Z</time>
      </trkpt>
      <trkpt lat="46.35226" lon="6.05168">
        <ele>803.2</ele>
        <time>2020-11-01T11:12:14.021Z</time>
      </trkpt>
      <trkpt lat="46.35229" lon="6.05171">
        <ele>803.6</ele>
        <time>2020-11-01T11:12:15.022Z</time>
      </trkpt>
      <trkpt lat="46.35232" lon="6.05175">
        <ele>804</ele>
        <time>2020-11-01T11:12:16.021Z</time>
      </trkpt>
      <trkpt lat="46.35232" lon="6.05175">
        <ele>804</ele>
        <time>2020-11-01T11:12:17.021Z</time>
      </trkpt>
      <trkpt lat="46.35235" lon="6.05179">
        <ele>804.4</ele>
        <time>2020-11-01T11:12:18.021Z</time>
      </trkpt>
      <trkpt lat="46.35238" lon="6.05182">
        <ele>804.6</ele>
        <time>2020-11-01T11:12:19.021Z</time>
      </trkpt>
      <trkpt lat="46.35238" lon="6.05182">
        <ele>804.6</ele>
        <time>2020-11-01T11:12:20.022Z</time>
      </trkpt>
      <trkpt lat="46.35241" lon="6.05186">
        <ele>805</ele>
        <time>2020-11-01T11:12:21.023Z</time>
      </trkpt>
      <trkpt lat="46.35244" lon="6.0519">
        <ele>805.2</ele>
        <time>2020-11-01T11:12:22.02Z</time>
      </trkpt>
      <trkpt lat="46.35244" lon="6.0519">
        <ele>805.2</ele>
        <time>2020-11-01T11:12:23.02Z</time>
      </trkpt>
      <trkpt lat="46.35247" lon="6.05193">
        <ele>805.4</ele>
        <time>2020-11-01T11:12:24.022Z</time>
      </trkpt>
      <trkpt lat="46.35247" lon="6.05193">
        <ele>805.4</ele>
        <time>2020-11-01T11:12:25.021Z</time>
      </trkpt>
      <trkpt lat="46.3525" lon="6.05197">
        <ele>805.8</ele>
        <time>2020-11-01T11:12:26.021Z</time>
      </trkpt>
      <trkpt lat="46.3525" lon="6.05197">
        <ele>805.8</ele>
        <time>2020-11-01T11:12:27.021Z</time>
      </trkpt>
      <trkpt lat="46.35253" lon="6.05201">
        <ele>806.4</ele>
        <time>2020-11-01T11:12:28.02Z</time>
      </trkpt>
      <trkpt lat="46.35256" lon="6.05204">
        <ele>806.6</ele>
        <time>2020-11-01T11:12:29.02Z</time>
      </trkpt>
      <trkpt lat="46.35256" lon="6.05204">
        <ele>806.6</ele>
        <time>2020-11-01T11:12:30.022Z</time>
      </trkpt>
      <trkpt lat="46.35259" lon="6.05207">
        <ele>806.8</ele>
        <time>2020-11-01T11:12:31.02Z</time>
      </trkpt>
      <trkpt lat="46.35262" lon="6.05211">
        <ele>806.8</ele>
        <time>2020-11-01T11:12:32.021Z</time>
      </trkpt>
      <trkpt lat="46.35262" lon="6.05211">
        <ele>806.8</ele>
        <time>2020-11-01T11:12:33.021Z</time>
      </trkpt>
      <trkpt lat="46.35265" lon="6.05214">
        <ele>807</ele>
        <time>2020-11-01T11:12:34.022Z</time>
      </trkpt>
      <trkpt lat="46.35268" lon="6.05218">
        <ele>807</ele>
        <time>2020-11-01T11:12:35.021Z</time>
      </trkpt>
      <trkpt lat="46.35268" lon="6.05218">
        <ele>807</ele>
        <time>2020-11-01T11:12:36.021Z</time>
      </trkpt>
      <trkpt lat="46.35271" lon="6.05222">
        <ele>807.4</ele>
        <time>2020-11-01T11:12:37.02Z</time>
      </trkpt>
      <trkpt lat="46.35271" lon="6.05222">
        <ele>807.4</ele>
        <time>2020-11-01T11:12:38.023Z</time>
      </trkpt>
      <trkpt lat="46.35275" lon="6.05225">
        <ele>807.6</ele>
        <time>2020-11-01T11:12:39.021Z</time>
      </trkpt>
      <trkpt lat="46.35278" lon="6.05228">
        <ele>807.8</ele>
        <time>2020-11-01T11:12:40.022Z</time>
      </trkpt>
      <trkpt lat="46.35278" lon="6.05228">
        <ele>807.8</ele>
        <time>2020-11-01T11:12:41.022Z</time>
      </trkpt>
      <trkpt lat="46.35281" lon="6.05232">
        <ele>808.2</ele>
        <time>2020-11-01T11:12:42.022Z</time>
      </trkpt>
      <trkpt lat="46.35281" lon="6.05232">
        <ele>808.2</ele>
        <time>2020-11-01T11:12:43.022Z</time>
      </trkpt>
      <trkpt lat="46.35285" lon="6.05235">
        <ele>808.4</ele>
        <time>2020-11-01T11:12:44.022Z</time>
      </trkpt>
      <trkpt lat="46.35288" lon="6.05239">
        <ele>808.6</ele>
        <time>2020-11-01T11:12:45.02Z</time>
      </trkpt>
      <trkpt lat="46.35288" lon="6.05239">
        <ele>808.6</ele>
        <time>2020-11-01T11:12:46.02Z</time>
      </trkpt>
      <trkpt lat="46.35292" lon="6.05243">
        <ele>808.8</ele>
        <time>2020-11-01T11:12:47.02Z</time>
      </trkpt>
      <trkpt lat="46.35292" lon="6.05243">
        <ele>808.8</ele>
        <time>2020-11-01T11:12:48.022Z</time>
      </trkpt>
      <trkpt lat="46.35295" lon="6.05246">
        <ele>808.8</ele>
        <time>2020-11-01T11:12:49.022Z</time>
      </trkpt>
      <trkpt lat="46.35295" lon="6.05246">
        <ele>808.8</ele>
        <time>2020-11-01T11:12:50.02Z</time>
      </trkpt>
      <trkpt lat="46.35299" lon="6.0525">
        <ele>809.2</ele>
        <time>2020-11-01T11:12:51.022Z</time>
      </trkpt>
      <trkpt lat="46.35302" lon="6.05253">
        <ele>809.4</ele>
        <time>2020-11-01T11:12:52.021Z</time>
      </trkpt>
      <trkpt lat="46.35302" lon="6.05253">
        <ele>809.4</ele>
        <time>2020-11-01T11:12:53.02Z</time>
      </trkpt>
      <trkpt lat="46.35305" lon="6.05257">
        <ele>809.6</ele>
        <time>2020-11-01T11:12:54.021Z</time>
      </trkpt>
      <trkpt lat="46.35308" lon="6.05261">
        <ele>810</ele>
        <time>2020-11-01T11:12:55.021Z</time>
      </trkpt>
      <trkpt lat="46.35308" lon="6.05261">
        <ele>810</ele>
        <time>2020-11-01T11:12:56.02Z</time>
      </trkpt>
      <trkpt lat="46.35311" lon="6.05265">
        <ele>810</ele>
        <time>2020-11-01T11:12:57.021Z</time>
      </trkpt>
      <trkpt lat="46.35311" lon="6.05265">
        <ele>810</ele>
        <time>2020-11-01T11:12:58.021Z</time>
      </trkpt>
      <trkpt lat="46.35314" lon="6.05269">
        <ele>810.2</ele>
        <time>2020-11-01T11:12:59.023Z</time>
      </trkpt>
      <trkpt lat="46.35317" lon="6.05273">
        <ele>810.4</ele>
        <time>2020-11-01T11:13:00.02Z</time>
      </trkpt>
      <trkpt lat="46.35317" lon="6.05273">
        <ele>810.4</ele>
        <time>2020-11-01T11:13:01.02Z</time>
      </trkpt>
      <trkpt lat="46.35319" lon="6.05277">
        <ele>810.8</ele>
        <time>2020-11-01T11:13:02.021Z</time>
      </trkpt>
      <trkpt lat="46.35322" lon="6.05281">
        <ele>811.2</ele>
        <time>2020-11-01T11:13:03.02Z</time>
      </trkpt>
      <trkpt lat="46.35322" lon="6.05281">
        <ele>811.2</ele>
        <time>2020-11-01T11:13:04.022Z</time>
      </trkpt>
      <trkpt lat="46.35324" lon="6.05286">
        <ele>811.6</ele>
        <time>2020-11-01T11:13:05.022Z</time>
      </trkpt>
      <trkpt lat="46.35324" lon="6.05286">
        <ele>811.6</ele>
        <time>2020-11-01T11:13:06.022Z</time>
      </trkpt>
      <trkpt lat="46.35326" lon="6.05291">
        <ele>812</ele>
        <time>2020-11-01T11:13:07.022Z</time>
      </trkpt>
      <trkpt lat="46.35328" lon="6.05296">
        <ele>812.4</ele>
        <time>2020-11-01T11:13:08.021Z</time>
      </trkpt>
      <trkpt lat="46.35328" lon="6.05296">
        <ele>812.4</ele>
        <time>2020-11-01T11:13:09.021Z</time>
      </trkpt>
      <trkpt lat="46.3533" lon="6.05301">
        <ele>812.6</ele>
        <time>2020-11-01T11:13:10.02Z</time>
      </trkpt>
      <trkpt lat="46.35332" lon="6.05306">
        <ele>812.8</ele>
        <time>2020-11-01T11:13:11.021Z</time>
      </trkpt>
      <trkpt lat="46.35332" lon="6.05306">
        <ele>812.8</ele>
        <time>2020-11-01T11:13:12.021Z</time>
      </trkpt>
      <trkpt lat="46.35334" lon="6.05311">
        <ele>813</ele>
        <time>2020-11-01T11:13:13.021Z</time>
      </trkpt>
      <trkpt lat="46.35334" lon="6.05311">
        <ele>813</ele>
        <time>2020-11-01T11:13:14.02Z</time>
      </trkpt>
      <trkpt lat="46.35335" lon="6.05316">
        <ele>813.2</ele>
        <time>2020-11-01T11:13:15.021Z</time>
      </trkpt>
      <trkpt lat="46.35337" lon="6.05321">
        <ele>813.8</ele>
        <time>2020-11-01T11:13:16.021Z</time>
      </trkpt>
      <trkpt lat="46.35337" lon="6.05321">
        <ele>813.8</ele>
        <time>2020-11-01T11:13:17.022Z</time>
      </trkpt>
      <trkpt lat="46.35339" lon="6.05327">
        <ele>813.8</ele>
        <time>2020-11-01T11:13:18.022Z</time>
      </trkpt>
      <trkpt lat="46.3534" lon="6.05332">
        <ele>814</ele>
        <time>2020-11-01T11:13:19.022Z</time>
      </trkpt>
      <trkpt lat="46.3534" lon="6.05332">
        <ele>814</ele>
        <time>2020-11-01T11:13:20.02Z</time>
      </trkpt>
      <trkpt lat="46.35341" lon="6.05337">
        <ele>814.2</ele>
        <time>2020-11-01T11:13:21.022Z</time>
      </trkpt>
      <trkpt lat="46.35343" lon="6.05343">
        <ele>814.4</ele>
        <time>2020-11-01T11:13:22.02Z</time>
      </trkpt>
      <trkpt lat="46.35343" lon="6.05343">
        <ele>814.4</ele>
        <time>2020-11-01T11:13:23.02Z</time>
      </trkpt>
      <trkpt lat="46.35344" lon="6.05348">
        <ele>814.8</ele>
        <time>2020-11-01T11:13:24.02Z</time>
      </trkpt>
      <trkpt lat="46.35344" lon="6.05348">
        <ele>814.8</ele>
        <time>2020-11-01T11:13:25.022Z</time>
      </trkpt>
      <trkpt lat="46.35345" lon="6.05354">
        <ele>815</ele>
        <time>2020-11-01T11:13:26.021Z</time>
      </trkpt>
      <trkpt lat="46.35347" lon="6.05359">
        <ele>815.2</ele>
        <time>2020-11-01T11:13:27.02Z</time>
      </trkpt>
      <trkpt lat="46.35347" lon="6.05359">
        <ele>815.2</ele>
        <time>2020-11-01T11:13:28.02Z</time>
      </trkpt>
      <trkpt lat="46.35348" lon="6.05364">
        <ele>815.6</ele>
        <time>2020-11-01T11:13:29.022Z</time>
      </trkpt>
      <trkpt lat="46.35348" lon="6.05364">
        <ele>815.6</ele>
        <time>2020-11-01T11:13:30.02Z</time>
      </trkpt>
      <trkpt lat="46.3535" lon="6.05369">
        <ele>815.8</ele>
        <time>2020-11-01T11:13:31.021Z</time>
      </trkpt>
      <trkpt lat="46.35352" lon="6.05374">
        <ele>816</ele>
        <time>2020-11-01T11:13:32.02Z</time>
      </trkpt>
      <trkpt lat="46.35352" lon="6.05374">
        <ele>816</ele>
        <time>2020-11-01T11:13:33.02Z</time>
      </trkpt>
      <trkpt lat="46.35353" lon="6.0538">
        <ele>816.4</ele>
        <time>2020-11-01T11:13:34.02Z</time>
      </trkpt>
      <trkpt lat="46.35355" lon="6.05384">
        <ele>816.6</ele>
        <time>2020-11-01T11:13:35.02Z</time>
      </trkpt>
      <trkpt lat="46.35355" lon="6.05384">
        <ele>816.6</ele>
        <time>2020-11-01T11:13:36.022Z</time>
      </trkpt>
      <trkpt lat="46.35357" lon="6.05389">
        <ele>817</ele>
        <time>2020-11-01T11:13:37.02Z</time>
      </trkpt>
      <trkpt lat="46.35359" lon="6.05394">
        <ele>817.2</ele>
        <time>2020-11-01T11:13:38.022Z</time>
      </trkpt>
      <trkpt lat="46.35359" lon="6.05394">
        <ele>817.2</ele>
        <time>2020-11-01T11:13:39.021Z</time>
      </trkpt>
      <trkpt lat="46.35361" lon="6.05398">
        <ele>817.6</ele>
        <time>2020-11-01T11:13:40.021Z</time>
      </trkpt>
      <trkpt lat="46.35361" lon="6.05398">
        <ele>817.6</ele>
        <time>2020-11-01T11:13:41.021Z</time>
      </trkpt>
      <trkpt lat="46.35364" lon="6.05402">
        <ele>817.8</ele>
        <time>2020-11-01T11:13:42.021Z</time>
      </trkpt>
      <trkpt lat="46.35366" lon="6.05406">
        <ele>818</ele>
        <time>2020-11-01T11:13:43.02Z</time>
      </trkpt>
      <trkpt lat="46.35366" lon="6.05406">
        <ele>818</ele>
        <time>2020-11-01T11:13:44.022Z</time>
      </trkpt>
      <trkpt lat="46.35369" lon="6.0541">
        <ele>818.2</ele>
        <time>2020-11-01T11:13:45.021Z</time>
      </trkpt>
      <trkpt lat="46.35372" lon="6.05413">
        <ele>818.4</ele>
        <time>2020-11-01T11:13:46.023Z</time>
      </trkpt>
      <trkpt lat="46.35372" lon="6.05413">
        <ele>818.4</ele>
        <time>2020-11-01T11:13:47.02Z</time>
      </trkpt>
      <trkpt lat="46.35375" lon="6.05417">
        <ele>818.8</ele>
        <time>2020-11-01T11:13:48.022Z</time>
      </trkpt>
      <trkpt lat="46.35378" lon="6.05419">
        <ele>819.2</ele>
        <time>2020-11-01T11:13:49.022Z</time>
      </trkpt>
      <trkpt lat="46.35381" lon="6.05422">
        <ele>819.4</ele>
        <time>2020-11-01T11:13:50.021Z</time>
      </trkpt>
      <trkpt lat="46.35381" lon="6.05422">
        <ele>819.4</ele>
        <time>2020-11-01T11:13:51.022Z</time>
      </trkpt>
      <trkpt lat="46.35385" lon="6.05423">
        <ele>819.8</ele>
        <time>2020-11-01T11:13:52.022Z</time>
      </trkpt>
      <trkpt lat="46.35388" lon="6.05425">
        <ele>820.2</ele>
        <time>2020-11-01T11:13:53.021Z</time>
      </trkpt>
      <trkpt lat="46.35388" lon="6.05425">
        <ele>820.2</ele>
        <time>2020-11-01T11:13:54.021Z</time>
      </trkpt>
      <trkpt lat="46.35391" lon="6.05426">
        <ele>820.6</ele>
        <time>2020-11-01T11:13:55.02Z</time>
      </trkpt>
      <trkpt lat="46.35395" lon="6.05427">
        <ele>821</ele>
        <time>2020-11-01T11:13:56.021Z</time>
      </trkpt>
      <trkpt lat="46.35398" lon="6.05427">
        <ele>821.4</ele>
        <time>2020-11-01T11:13:57.021Z</time>
      </trkpt>
      <trkpt lat="46.35398" lon="6.05427">
        <ele>821.4</ele>
        <time>2020-11-01T11:13:58.02Z</time>
      </trkpt>
      <trkpt lat="46.35402" lon="6.05426">
        <ele>821.6</ele>
        <time>2020-11-01T11:13:59.022Z</time>
      </trkpt>
      <trkpt lat="46.35405" lon="6.05426">
        <ele>821.8</ele>
        <time>2020-11-01T11:14:00.02Z</time>
      </trkpt>
      <trkpt lat="46.35409" lon="6.05425">
        <ele>822</ele>
        <time>2020-11-01T11:14:01.021Z</time>
      </trkpt>
      <trkpt lat="46.35409" lon="6.05425">
        <ele>822</ele>
        <time>2020-11-01T11:14:02.02Z</time>
      </trkpt>
      <trkpt lat="46.35412" lon="6.05424">
        <ele>822.4</ele>
        <time>2020-11-01T11:14:03.021Z</time>
      </trkpt>
      <trkpt lat="46.35412" lon="6.05424">
        <ele>822.4</ele>
        <time>2020-11-01T11:14:04.02Z</time>
      </trkpt>
      <trkpt lat="46.35416" lon="6.05421">
        <ele>822.8</ele>
        <time>2020-11-01T11:14:05.021Z</time>
      </trkpt>
      <trkpt lat="46.35419" lon="6.05419">
        <ele>823</ele>
        <time>2020-11-01T11:14:06.02Z</time>
      </trkpt>
      <trkpt lat="46.35419" lon="6.05419">
        <ele>823</ele>
        <time>2020-11-01T11:14:07.021Z</time>
      </trkpt>
      <trkpt lat="46.35423" lon="6.05417">
        <ele>823</ele>
        <time>2020-11-01T11:14:08.02Z</time>
      </trkpt>
      <trkpt lat="46.35426" lon="6.05414">
        <ele>823.2</ele>
        <time>2020-11-01T11:14:09.021Z</time>
      </trkpt>
      <trkpt lat="46.35426" lon="6.05414">
        <ele>823.2</ele>
        <time>2020-11-01T11:14:10.022Z</time>
      </trkpt>
      <trkpt lat="46.3543" lon="6.05411">
        <ele>823.6</ele>
        <time>2020-11-01T11:14:11.022Z</time>
      </trkpt>
      <trkpt lat="46.35433" lon="6.05408">
        <ele>823.8</ele>
        <time>2020-11-01T11:14:12.021Z</time>
      </trkpt>
      <trkpt lat="46.35433" lon="6.05408">
        <ele>823.8</ele>
        <time>2020-11-01T11:14:13.021Z</time>
      </trkpt>
      <trkpt lat="46.35436" lon="6.05405">
        <ele>824.2</ele>
        <time>2020-11-01T11:14:14.021Z</time>
      </trkpt>
      <trkpt lat="46.35436" lon="6.05405">
        <ele>824.2</ele>
        <time>2020-11-01T11:14:15.02Z</time>
      </trkpt>
      <trkpt lat="46.3544" lon="6.05403">
        <ele>824.4</ele>
        <time>2020-11-01T11:14:16.023Z</time>
      </trkpt>
      <trkpt lat="46.35444" lon="6.054">
        <ele>824.6</ele>
        <time>2020-11-01T11:14:17.021Z</time>
      </trkpt>
      <trkpt lat="46.35444" lon="6.054">
        <ele>824.6</ele>
        <time>2020-11-01T11:14:18.02Z</time>
      </trkpt>
      <trkpt lat="46.35447" lon="6.05397">
        <ele>824.8</ele>
        <time>2020-11-01T11:14:19.022Z</time>
      </trkpt>
      <trkpt lat="46.35447" lon="6.05397">
        <ele>824.8</ele>
        <time>2020-11-01T11:14:20.02Z</time>
      </trkpt>
      <trkpt lat="46.35451" lon="6.05393">
        <ele>825.2</ele>
        <time>2020-11-01T11:14:21.022Z</time>
      </trkpt>
      <trkpt lat="46.35454" lon="6.0539">
        <ele>825.4</ele>
        <time>2020-11-01T11:14:22.02Z</time>
      </trkpt>
      <trkpt lat="46.35454" lon="6.0539">
        <ele>825.4</ele>
        <time>2020-11-01T11:14:23.021Z</time>
      </trkpt>
      <trkpt lat="46.35458" lon="6.05387">
        <ele>825.4</ele>
        <time>2020-11-01T11:14:24.021Z</time>
      </trkpt>
      <trkpt lat="46.35458" lon="6.05387">
        <ele>825.4</ele>
        <time>2020-11-01T11:14:25.02Z</time>
      </trkpt>
      <trkpt lat="46.35461" lon="6.05384">
        <ele>825.6</ele>
        <time>2020-11-01T11:14:26.021Z</time>
      </trkpt>
      <trkpt lat="46.35464" lon="6.05381">
        <ele>825.8</ele>
        <time>2020-11-01T11:14:27.022Z</time>
      </trkpt>
      <trkpt lat="46.35464" lon="6.05381">
        <ele>825.8</ele>
        <time>2020-11-01T11:14:28.021Z</time>
      </trkpt>
      <trkpt lat="46.35468" lon="6.05379">
        <ele>825.8</ele>
        <time>2020-11-01T11:14:29.02Z</time>
      </trkpt>
      <trkpt lat="46.35472" lon="6.05376">
        <ele>826</ele>
        <time>2020-11-01T11:14:30.021Z</time>
      </trkpt>
      <trkpt lat="46.35472" lon="6.05376">
        <ele>826</ele>
        <time>2020-11-01T11:14:31.021Z</time>
      </trkpt>
      <trkpt lat="46.35475" lon="6.05374">
        <ele>826.2</ele>
        <time>2020-11-01T11:14:32.021Z</time>
      </trkpt>
      <trkpt lat="46.35475" lon="6.05374">
        <ele>826.2</ele>
        <time>2020-11-01T11:14:33.023Z</time>
      </trkpt>
      <trkpt lat="46.35479" lon="6.05372">
        <ele>826.4</ele>
        <time>2020-11-01T11:14:34.021Z</time>
      </trkpt>
      <trkpt lat="46.35483" lon="6.0537">
        <ele>826.8</ele>
        <time>2020-11-01T11:14:35.022Z</time>
      </trkpt>
      <trkpt lat="46.35483" lon="6.0537">
        <ele>826.8</ele>
        <time>2020-11-01T11:14:36.022Z</time>
      </trkpt>
      <trkpt lat="46.35486" lon="6.05368">
        <ele>827.2</ele>
        <time>2020-11-01T11:14:37.021Z</time>
      </trkpt>
      <trkpt lat="46.3549" lon="6.05367">
        <ele>827.4</ele>
        <time>2020-11-01T11:14:38.021Z</time>
      </trkpt>
      <trkpt lat="46.3549" lon="6.05367">
        <ele>827.4</ele>
        <time>2020-11-01T11:14:39.021Z</time>
      </trkpt>
      <trkpt lat="46.35493" lon="6.05365">
        <ele>827.8</ele>
        <time>2020-11-01T11:14:40.02Z</time>
      </trkpt>
      <trkpt lat="46.35497" lon="6.05364">
        <ele>828</ele>
        <time>2020-11-01T11:14:41.02Z</time>
      </trkpt>
      <trkpt lat="46.35497" lon="6.05364">
        <ele>828</ele>
        <time>2020-11-01T11:14:42.022Z</time>
      </trkpt>
      <trkpt lat="46.35501" lon="6.05363">
        <ele>828.2</ele>
        <time>2020-11-01T11:14:43.02Z</time>
      </trkpt>
      <trkpt lat="46.35505" lon="6.05362">
        <ele>828.6</ele>
        <time>2020-11-01T11:14:44.021Z</time>
      </trkpt>
      <trkpt lat="46.35505" lon="6.05362">
        <ele>828.6</ele>
        <time>2020-11-01T11:14:45.022Z</time>
      </trkpt>
      <trkpt lat="46.35509" lon="6.05361">
        <ele>828.6</ele>
        <time>2020-11-01T11:14:46.022Z</time>
      </trkpt>
      <trkpt lat="46.35509" lon="6.05361">
        <ele>828.6</ele>
        <time>2020-11-01T11:14:47.022Z</time>
      </trkpt>
      <trkpt lat="46.35512" lon="6.05361">
        <ele>829</ele>
        <time>2020-11-01T11:14:48.02Z</time>
      </trkpt>
      <trkpt lat="46.35516" lon="6.0536">
        <ele>829.4</ele>
        <time>2020-11-01T11:14:49.022Z</time>
      </trkpt>
      <trkpt lat="46.35519" lon="6.0536">
        <ele>829.6</ele>
        <time>2020-11-01T11:14:50.021Z</time>
      </trkpt>
      <trkpt lat="46.35519" lon="6.0536">
        <ele>829.6</ele>
        <time>2020-11-01T11:14:51.02Z</time>
      </trkpt>
      <trkpt lat="46.35523" lon="6.0536">
        <ele>829.8</ele>
        <time>2020-11-01T11:14:52.02Z</time>
      </trkpt>
      <trkpt lat="46.35527" lon="6.0536">
        <ele>830.2</ele>
        <time>2020-11-01T11:14:53.022Z</time>
      </trkpt>
      <trkpt lat="46.35527" lon="6.0536">
        <ele>830.2</ele>
        <time>2020-11-01T11:14:54.021Z</time>
      </trkpt>
      <trkpt lat="46.3553" lon="6.0536">
        <ele>830.4</ele>
        <time>2020-11-01T11:14:55.022Z</time>
      </trkpt>
      <trkpt lat="46.35534" lon="6.05361">
        <ele>830.8</ele>
        <time>2020-11-01T11:14:56.022Z</time>
      </trkpt>
      <trkpt lat="46.35534" lon="6.05361">
        <ele>830.8</ele>
        <time>2020-11-01T11:14:57.021Z</time>
      </trkpt>
      <trkpt lat="46.35538" lon="6.05361">
        <ele>831</ele>
        <time>2020-11-01T11:14:58.021Z</time>
      </trkpt>
      <trkpt lat="46.35541" lon="6.05362">
        <ele>831.4</ele>
        <time>2020-11-01T11:14:59.021Z</time>
      </trkpt>
      <trkpt lat="46.35541" lon="6.05362">
        <ele>831.4</ele>
        <time>2020-11-01T11:15:00.021Z</time>
      </trkpt>
      <trkpt lat="46.35545" lon="6.05362">
        <ele>831.6</ele>
        <time>2020-11-01T11:15:01.022Z</time>
      </trkpt>
      <trkpt lat="46.35548" lon="6.05363">
        <ele>832</ele>
        <time>2020-11-01T11:15:02.02Z</time>
      </trkpt>
      <trkpt lat="46.35548" lon="6.05363">
        <ele>832</ele>
        <time>2020-11-01T11:15:03.021Z</time>
      </trkpt>
      <trkpt lat="46.35552" lon="6.05364">
        <ele>832</ele>
        <time>2020-11-01T11:15:04.02Z</time>
      </trkpt>
      <trkpt lat="46.35555" lon="6.05365">
        <ele>832.2</ele>
        <time>2020-11-01T11:15:05.02Z</time>
      </trkpt>
      <trkpt lat="46.35559" lon="6.05366">
        <ele>832.6</ele>
        <time>2020-11-01T11:15:06.021Z</time>
      </trkpt>
      <trkpt lat="46.35559" lon="6.05366">
        <ele>832.6</ele>
        <time>2020-11-01T11:15:07.021Z</time>
      </trkpt>
      <trkpt lat="46.35562" lon="6.05367">
        <ele>832.8</ele>
        <time>2020-11-01T11:15:08.022Z</time>
      </trkpt>
      <trkpt lat="46.35566" lon="6.05368">
        <ele>833.2</ele>
        <time>2020-11-01T11:15:09.02Z</time>
      </trkpt>
      <trkpt lat="46.35566" lon="6.05368">
        <ele>833.2</ele>
        <time>2020-11-01T11:15:10.021Z</time>
      </trkpt>
      <trkpt lat="46.35569" lon="6.05369">
        <ele>833.4</ele>
        <time>2020-11-01T11:15:11.022Z</time>
      </trkpt>
      <trkpt lat="46.35573" lon="6.0537">
        <ele>833.8</ele>
        <time>2020-11-01T11:15:12.022Z</time>
      </trkpt>
      <trkpt lat="46.35573" lon="6.0537">
        <ele>833.8</ele>
        <time>2020-11-01T11:15:13.02Z</time>
      </trkpt>
      <trkpt lat="46.35576" lon="6.05372">
        <ele>834.2</ele>
        <time>2020-11-01T11:15:14.022Z</time>
      </trkpt>
      <trkpt lat="46.35579" lon="6.05373">
        <ele>834.4</ele>
        <time>2020-11-01T11:15:15.02Z</time>
      </trkpt>
      <trkpt lat="46.35582" lon="6.05375">
        <ele>834.8</ele>
        <time>2020-11-01T11:15:16.021Z</time>
      </trkpt>
      <trkpt lat="46.35586" lon="6.05376">
        <ele>835</ele>
        <time>2020-11-01T11:15:17.02Z</time>
      </trkpt>
      <trkpt lat="46.35586" lon="6.05376">
        <ele>835</ele>
        <time>2020-11-01T11:15:18.02Z</time>
      </trkpt>
      <trkpt lat="46.35589" lon="6.05378">
        <ele>835.4</ele>
        <time>2020-11-01T11:15:19.021Z</time>
      </trkpt>
      <trkpt lat="46.35592" lon="6.0538">
        <ele>835.8</ele>
        <time>2020-11-01T11:15:20.021Z</time>
      </trkpt>
      <trkpt lat="46.35592" lon="6.0538">
        <ele>835.8</ele>
        <time>2020-11-01T11:15:21.021Z</time>
      </trkpt>
      <trkpt lat="46.35595" lon="6.05382">
        <ele>836</ele>
        <time>2020-11-01T11:15:22.022Z</time>
      </trkpt>
      <trkpt lat="46.35599" lon="6.05384">
        <ele>836.2</ele>
        <time>2020-11-01T11:15:23.022Z</time>
      </trkpt>
      <trkpt lat="46.35599" lon="6.05384">
        <ele>836.2</ele>
        <time>2020-11-01T11:15:24.02Z</time>
      </trkpt>
      <trkpt lat="46.35602" lon="6.05387">
        <ele>836.6</ele>
        <time>2020-11-01T11:15:25.022Z</time>
      </trkpt>
      <trkpt lat="46.35606" lon="6.05389">
        <ele>837</ele>
        <time>2020-11-01T11:15:26.021Z</time>
      </trkpt>
      <trkpt lat="46.35606" lon="6.05389">
        <ele>837</ele>
        <time>2020-11-01T11:15:27.021Z</time>
      </trkpt>
      <trkpt lat="46.35609" lon="6.05391">
        <ele>837.2</ele>
        <time>2020-11-01T11:15:28.022Z</time>
      </trkpt>
      <trkpt lat="46.35613" lon="6.05394">
        <ele>837.4</ele>
        <time>2020-11-01T11:15:29.02Z</time>
      </trkpt>
      <trkpt lat="46.35613" lon="6.05394">
        <ele>837.4</ele>
        <time>2020-11-01T11:15:30.02Z</time>
      </trkpt>
      <trkpt lat="46.35616" lon="6.05396">
        <ele>837.8</ele>
        <time>2020-11-01T11:15:31.022Z</time>
      </trkpt>
      <trkpt lat="46.35619" lon="6.05398">
        <ele>838</ele>
        <time>2020-11-01T11:15:32.021Z</time>
      </trkpt>
      <trkpt lat="46.35619" lon="6.05398">
        <ele>838</ele>
        <time>2020-11-01T11:15:33.023Z</time>
      </trkpt>
      <trkpt lat="46.35623" lon="6.05401">
        <ele>838.4</ele>
        <time>2020-11-01T11:15:34.02Z</time>
      </trkpt>
      <trkpt lat="46.35626" lon="6.05403">
        <ele>838.6</ele>
        <time>2020-11-01T11:15:35.021Z</time>
      </trkpt>
      <trkpt lat="46.35626" lon="6.05403">
        <ele>838.6</ele>
        <time>2020-11-01T11:15:36.021Z</time>
      </trkpt>
      <trkpt lat="46.35629" lon="6.05406">
        <ele>838.8</ele>
        <time>2020-11-01T11:15:37.021Z</time>
      </trkpt>
      <trkpt lat="46.35632" lon="6.05409">
        <ele>839.2</ele>
        <time>2020-11-01T11:15:38.02Z</time>
      </trkpt>
      <trkpt lat="46.35632" lon="6.05409">
        <ele>839.2</ele>
        <time>2020-11-01T11:15:39.02Z</time>
      </trkpt>
      <trkpt lat="46.35635" lon="6.05413">
        <ele>839.4</ele>
        <time>2020-11-01T11:15:40.022Z</time>
      </trkpt>
      <trkpt lat="46.35637" lon="6.05417">
        <ele>840</ele>
        <time>2020-11-01T11:15:41.022Z</time>
      </trkpt>
      <trkpt lat="46.35637" lon="6.05417">
        <ele>840</ele>
        <time>2020-11-01T11:15:42.022Z</time>
      </trkpt>
      <trkpt lat="46.3564" lon="6.0542">
        <ele>840.2</ele>
        <time>2020-11-01T11:15:43.022Z</time>
      </trkpt>
      <trkpt lat="46.35642" lon="6.05425">
        <ele>840.4</ele>
        <time>2020-11-01T11:15:44.02Z</time>
      </trkpt>
      <trkpt lat="46.35642" lon="6.05425">
        <ele>840.4</ele>
        <time>2020-11-01T11:15:45.02Z</time>
      </trkpt>
      <trkpt lat="46.35645" lon="6.05429">
        <ele>840.6</ele>
        <time>2020-11-01T11:15:46.02Z</time>
      </trkpt>
      <trkpt lat="46.35647" lon="6.05433">
        <ele>840.6</ele>
        <time>2020-11-01T11:15:47.021Z</time>
      </trkpt>
      <trkpt lat="46.35647" lon="6.05433">
        <ele>840.6</ele>
        <time>2020-11-01T11:15:48.021Z</time>
      </trkpt>
      <trkpt lat="46.3565" lon="6.05437">
        <ele>840.8</ele>
        <time>2020-11-01T11:15:49.021Z</time>
      </trkpt>
      <trkpt lat="46.35652" lon="6.0544">
        <ele>840.8</ele>
        <time>2020-11-01T11:15:50.022Z</time>
      </trkpt>
      <trkpt lat="46.35652" lon="6.0544">
        <ele>840.8</ele>
        <time>2020-11-01T11:15:51.021Z</time>
      </trkpt>
      <trkpt lat="46.35655" lon="6.05444">
        <ele>841</ele>
        <time>2020-11-01T11:15:52.02Z</time>
      </trkpt>
      <trkpt lat="46.35658" lon="6.05447">
        <ele>841</ele>
        <time>2020-11-01T11:15:53.022Z</time>
      </trkpt>
      <trkpt lat="46.35661" lon="6.0545">
        <ele>841</ele>
        <time>2020-11-01T11:15:54.021Z</time>
      </trkpt>
      <trkpt lat="46.35661" lon="6.0545">
        <ele>841</ele>
        <time>2020-11-01T11:15:55.022Z</time>
      </trkpt>
      <trkpt lat="46.35664" lon="6.05453">
        <ele>841.2</ele>
        <time>2020-11-01T11:15:56.021Z</time>
      </trkpt>
      <trkpt lat="46.35664" lon="6.05453">
        <ele>841.2</ele>
        <time>2020-11-01T11:15:57.02Z</time>
      </trkpt>
      <trkpt lat="46.35667" lon="6.05455">
        <ele>841.4</ele>
        <time>2020-11-01T11:15:58.02Z</time>
      </trkpt>
      <trkpt lat="46.35671" lon="6.05457">
        <ele>841.6</ele>
        <time>2020-11-01T11:15:59.022Z</time>
      </trkpt>
      <trkpt lat="46.35675" lon="6.05457">
        <ele>841.8</ele>
        <time>2020-11-01T11:16:00.022Z</time>
      </trkpt>
      <trkpt lat="46.35675" lon="6.05457">
        <ele>841.8</ele>
        <time>2020-11-01T11:16:01.022Z</time>
      </trkpt>
      <trkpt lat="46.35679" lon="6.05458">
        <ele>842.2</ele>
        <time>2020-11-01T11:16:02.021Z</time>
      </trkpt>
      <trkpt lat="46.35679" lon="6.05458">
        <ele>842.2</ele>
        <time>2020-11-01T11:16:03.023Z</time>
      </trkpt>
      <trkpt lat="46.35683" lon="6.05458">
        <ele>842.4</ele>
        <time>2020-11-01T11:16:04.021Z</time>
      </trkpt>
      <trkpt lat="46.35686" lon="6.05457">
        <ele>842.8</ele>
        <time>2020-11-01T11:16:05.021Z</time>
      </trkpt>
      <trkpt lat="46.3569" lon="6.05456">
        <ele>843.2</ele>
        <time>2020-11-01T11:16:06.022Z</time>
      </trkpt>
      <trkpt lat="46.3569" lon="6.05456">
        <ele>843.2</ele>
        <time>2020-11-01T11:16:07.023Z</time>
      </trkpt>
      <trkpt lat="46.35694" lon="6.05455">
        <ele>843.6</ele>
        <time>2020-11-01T11:16:08.021Z</time>
      </trkpt>
      <trkpt lat="46.35697" lon="6.05453">
        <ele>844</ele>
        <time>2020-11-01T11:16:09.021Z</time>
      </trkpt>
      <trkpt lat="46.35697" lon="6.05453">
        <ele>844</ele>
        <time>2020-11-01T11:16:10.022Z</time>
      </trkpt>
      <trkpt lat="46.35701" lon="6.05452">
        <ele>844.4</ele>
        <time>2020-11-01T11:16:11.023Z</time>
      </trkpt>
      <trkpt lat="46.35705" lon="6.05451">
        <ele>844.6</ele>
        <time>2020-11-01T11:16:12.022Z</time>
      </trkpt>
      <trkpt lat="46.35708" lon="6.05449">
        <ele>845</ele>
        <time>2020-11-01T11:16:13.021Z</time>
      </trkpt>
      <trkpt lat="46.35708" lon="6.05449">
        <ele>845</ele>
        <time>2020-11-01T11:16:14.02Z</time>
      </trkpt>
      <trkpt lat="46.35712" lon="6.05447">
        <ele>845.2</ele>
        <time>2020-11-01T11:16:15.021Z</time>
      </trkpt>
      <trkpt lat="46.35712" lon="6.05447">
        <ele>845.2</ele>
        <time>2020-11-01T11:16:16.021Z</time>
      </trkpt>
      <trkpt lat="46.35716" lon="6.05446">
        <ele>845.4</ele>
        <time>2020-11-01T11:16:17.022Z</time>
      </trkpt>
      <trkpt lat="46.3572" lon="6.05444">
        <ele>845.8</ele>
        <time>2020-11-01T11:16:18.022Z</time>
      </trkpt>
      <trkpt lat="46.35723" lon="6.05443">
        <ele>846</ele>
        <time>2020-11-01T11:16:19.021Z</time>
      </trkpt>
      <trkpt lat="46.35723" lon="6.05443">
        <ele>846</ele>
        <time>2020-11-01T11:16:20.021Z</time>
      </trkpt>
      <trkpt lat="46.35727" lon="6.05441">
        <ele>846.2</ele>
        <time>2020-11-01T11:16:21.021Z</time>
      </trkpt>
      <trkpt lat="46.3573" lon="6.05439">
        <ele>846.4</ele>
        <time>2020-11-01T11:16:22.022Z</time>
      </trkpt>
      <trkpt lat="46.3573" lon="6.05439">
        <ele>846.4</ele>
        <time>2020-11-01T11:16:23.02Z</time>
      </trkpt>
      <trkpt lat="46.35734" lon="6.05438">
        <ele>846.6</ele>
        <time>2020-11-01T11:16:24.023Z</time>
      </trkpt>
      <trkpt lat="46.35737" lon="6.05435">
        <ele>847</ele>
        <time>2020-11-01T11:16:25.021Z</time>
      </trkpt>
      <trkpt lat="46.35737" lon="6.05435">
        <ele>847</ele>
        <time>2020-11-01T11:16:26.021Z</time>
      </trkpt>
      <trkpt lat="46.35741" lon="6.05433">
        <ele>847.2</ele>
        <time>2020-11-01T11:16:27.02Z</time>
      </trkpt>
      <trkpt lat="46.35744" lon="6.05431">
        <ele>847.6</ele>
        <time>2020-11-01T11:16:28.021Z</time>
      </trkpt>
      <trkpt lat="46.35744" lon="6.05431">
        <ele>847.6</ele>
        <time>2020-11-01T11:16:29.021Z</time>
      </trkpt>
      <trkpt lat="46.35748" lon="6.05428">
        <ele>847.8</ele>
        <time>2020-11-01T11:16:30.021Z</time>
      </trkpt>
      <trkpt lat="46.35751" lon="6.05425">
        <ele>848.2</ele>
        <time>2020-11-01T11:16:31.02Z</time>
      </trkpt>
      <trkpt lat="46.35751" lon="6.05425">
        <ele>848.2</ele>
        <time>2020-11-01T11:16:32.02Z</time>
      </trkpt>
      <trkpt lat="46.35754" lon="6.05423">
        <ele>848.4</ele>
        <time>2020-11-01T11:16:33.022Z</time>
      </trkpt>
      <trkpt lat="46.35757" lon="6.05421">
        <ele>848.8</ele>
        <time>2020-11-01T11:16:34.021Z</time>
      </trkpt>
      <trkpt lat="46.3576" lon="6.05419">
        <ele>849</ele>
        <time>2020-11-01T11:16:35.022Z</time>
      </trkpt>
      <trkpt lat="46.3576" lon="6.05419">
        <ele>849</ele>
        <time>2020-11-01T11:16:36.02Z</time>
      </trkpt>
      <trkpt lat="46.35763" lon="6.05417">
        <ele>849.2</ele>
        <time>2020-11-01T11:16:37.022Z</time>
      </trkpt>
      <trkpt lat="46.35767" lon="6.05415">
        <ele>849.6</ele>
        <time>2020-11-01T11:16:38.02Z</time>
      </trkpt>
      <trkpt lat="46.35767" lon="6.05415">
        <ele>849.6</ele>
        <time>2020-11-01T11:16:39.021Z</time>
      </trkpt>
      <trkpt lat="46.3577" lon="6.05412">
        <ele>849.8</ele>
        <time>2020-11-01T11:16:40.021Z</time>
      </trkpt>
      <trkpt lat="46.35773" lon="6.0541">
        <ele>850</ele>
        <time>2020-11-01T11:16:41.02Z</time>
      </trkpt>
      <trkpt lat="46.35773" lon="6.0541">
        <ele>850</ele>
        <time>2020-11-01T11:16:42.02Z</time>
      </trkpt>
      <trkpt lat="46.35776" lon="6.05407">
        <ele>850.4</ele>
        <time>2020-11-01T11:16:43.021Z</time>
      </trkpt>
      <trkpt lat="46.35779" lon="6.05405">
        <ele>850.6</ele>
        <time>2020-11-01T11:16:44.022Z</time>
      </trkpt>
      <trkpt lat="46.35783" lon="6.05403">
        <ele>850.8</ele>
        <time>2020-11-01T11:16:45.02Z</time>
      </trkpt>
      <trkpt lat="46.35783" lon="6.05403">
        <ele>850.8</ele>
        <time>2020-11-01T11:16:46.022Z</time>
      </trkpt>
      <trkpt lat="46.35786" lon="6.054">
        <ele>851</ele>
        <time>2020-11-01T11:16:47.022Z</time>
      </trkpt>
      <trkpt lat="46.35786" lon="6.054">
        <ele>851</ele>
        <time>2020-11-01T11:16:48.022Z</time>
      </trkpt>
      <trkpt lat="46.35789" lon="6.05398">
        <ele>851.2</ele>
        <time>2020-11-01T11:16:49.02Z</time>
      </trkpt>
      <trkpt lat="46.35793" lon="6.05395">
        <ele>851.4</ele>
        <time>2020-11-01T11:16:50.021Z</time>
      </trkpt>
      <trkpt lat="46.35793" lon="6.05395">
        <ele>851.4</ele>
        <time>2020-11-01T11:16:51.021Z</time>
      </trkpt>
      <trkpt lat="46.35796" lon="6.05393">
        <ele>851.6</ele>
        <time>2020-11-01T11:16:52.021Z</time>
      </trkpt>
      <trkpt lat="46.35799" lon="6.0539">
        <ele>852</ele>
        <time>2020-11-01T11:16:53.022Z</time>
      </trkpt>
      <trkpt lat="46.35799" lon="6.0539">
        <ele>852</ele>
        <time>2020-11-01T11:16:54.021Z</time>
      </trkpt>
      <trkpt lat="46.35802" lon="6.05387">
        <ele>852.2</ele>
        <time>2020-11-01T11:16:55.021Z</time>
      </trkpt>
      <trkpt lat="46.35805" lon="6.05384">
        <ele>852.4</ele>
        <time>2020-11-01T11:16:56.021Z</time>
      </trkpt>
      <trkpt lat="46.35805" lon="6.05384">
        <ele>852.4</ele>
        <time>2020-11-01T11:16:57.02Z</time>
      </trkpt>
      <trkpt lat="46.35809" lon="6.05381">
        <ele>852.6</ele>
        <time>2020-11-01T11:16:58.022Z</time>
      </trkpt>
      <trkpt lat="46.35812" lon="6.05378">
        <ele>852.8</ele>
        <time>2020-11-01T11:16:59.021Z</time>
      </trkpt>
      <trkpt lat="46.35812" lon="6.05378">
        <ele>852.8</ele>
        <time>2020-11-01T11:17:00.02Z</time>
      </trkpt>
      <trkpt lat="46.35815" lon="6.05374">
        <ele>853</ele>
        <time>2020-11-01T11:17:01.022Z</time>
      </trkpt>
      <trkpt lat="46.35818" lon="6.05371">
        <ele>853.2</ele>
        <time>2020-11-01T11:17:02.022Z</time>
      </trkpt>
      <trkpt lat="46.35818" lon="6.05371">
        <ele>853.2</ele>
        <time>2020-11-01T11:17:03.021Z</time>
      </trkpt>
      <trkpt lat="46.35821" lon="6.05367">
        <ele>853.4</ele>
        <time>2020-11-01T11:17:04.021Z</time>
      </trkpt>
      <trkpt lat="46.35823" lon="6.05363">
        <ele>853.6</ele>
        <time>2020-11-01T11:17:05.022Z</time>
      </trkpt>
      <trkpt lat="46.35826" lon="6.05359">
        <ele>853.6</ele>
        <time>2020-11-01T11:17:06.021Z</time>
      </trkpt>
      <trkpt lat="46.35826" lon="6.05359">
        <ele>853.6</ele>
        <time>2020-11-01T11:17:07.022Z</time>
      </trkpt>
      <trkpt lat="46.35828" lon="6.05354">
        <ele>853.8</ele>
        <time>2020-11-01T11:17:08.022Z</time>
      </trkpt>
      <trkpt lat="46.35828" lon="6.05354">
        <ele>853.8</ele>
        <time>2020-11-01T11:17:09.021Z</time>
      </trkpt>
      <trkpt lat="46.35831" lon="6.0535">
        <ele>854.2</ele>
        <time>2020-11-01T11:17:10.021Z</time>
      </trkpt>
      <trkpt lat="46.35833" lon="6.05345">
        <ele>854.4</ele>
        <time>2020-11-01T11:17:11.02Z</time>
      </trkpt>
      <trkpt lat="46.35833" lon="6.05345">
        <ele>854.4</ele>
        <time>2020-11-01T11:17:12.022Z</time>
      </trkpt>
      <trkpt lat="46.35835" lon="6.0534">
        <ele>854.4</ele>
        <time>2020-11-01T11:17:13.021Z</time>
      </trkpt>
      <trkpt lat="46.35837" lon="6.05336">
        <ele>854.6</ele>
        <time>2020-11-01T11:17:14.02Z</time>
      </trkpt>
      <trkpt lat="46.35837" lon="6.05336">
        <ele>854.6</ele>
        <time>2020-11-01T11:17:15.021Z</time>
      </trkpt>
      <trkpt lat="46.35839" lon="6.05331">
        <ele>854.8</ele>
        <time>2020-11-01T11:17:16.021Z</time>
      </trkpt>
      <trkpt lat="46.35839" lon="6.05331">
        <ele>854.8</ele>
        <time>2020-11-01T11:17:17.02Z</time>
      </trkpt>
      <trkpt lat="46.35841" lon="6.05326">
        <ele>855.2</ele>
        <time>2020-11-01T11:17:18.021Z</time>
      </trkpt>
      <trkpt lat="46.35843" lon="6.05321">
        <ele>855.4</ele>
        <time>2020-11-01T11:17:19.021Z</time>
      </trkpt>
      <trkpt lat="46.35843" lon="6.05321">
        <ele>855.4</ele>
        <time>2020-11-01T11:17:20.022Z</time>
      </trkpt>
      <trkpt lat="46.35845" lon="6.05317">
        <ele>855.8</ele>
        <time>2020-11-01T11:17:21.021Z</time>
      </trkpt>
      <trkpt lat="46.35845" lon="6.05317">
        <ele>855.8</ele>
        <time>2020-11-01T11:17:22.021Z</time>
      </trkpt>
      <trkpt lat="46.35847" lon="6.05312">
        <ele>856</ele>
        <time>2020-11-01T11:17:23.02Z</time>
      </trkpt>
      <trkpt lat="46.3585" lon="6.05307">
        <ele>856</ele>
        <time>2020-11-01T11:17:24.022Z</time>
      </trkpt>
      <trkpt lat="46.3585" lon="6.05307">
        <ele>856</ele>
        <time>2020-11-01T11:17:25.021Z</time>
      </trkpt>
      <trkpt lat="46.35852" lon="6.05301">
        <ele>856.2</ele>
        <time>2020-11-01T11:17:26.022Z</time>
      </trkpt>
      <trkpt lat="46.35852" lon="6.05301">
        <ele>856.2</ele>
        <time>2020-11-01T11:17:27.021Z</time>
      </trkpt>
      <trkpt lat="46.35854" lon="6.05296">
        <ele>856.4</ele>
        <time>2020-11-01T11:17:28.022Z</time>
      </trkpt>
      <trkpt lat="46.35856" lon="6.05291">
        <ele>856.6</ele>
        <time>2020-11-01T11:17:29.02Z</time>
      </trkpt>
      <trkpt lat="46.35856" lon="6.05291">
        <ele>856.6</ele>
        <time>2020-11-01T11:17:30.021Z</time>
      </trkpt>
      <trkpt lat="46.35859" lon="6.05286">
        <ele>857</ele>
        <time>2020-11-01T11:17:31.021Z</time>
      </trkpt>
      <trkpt lat="46.35859" lon="6.05286">
        <ele>857</ele>
        <time>2020-11-01T11:17:32.023Z</time>
      </trkpt>
      <trkpt lat="46.35862" lon="6.05282">
        <ele>857.2</ele>
        <time>2020-11-01T11:17:33.02Z</time>
      </trkpt>
      <trkpt lat="46.35864" lon="6.05277">
        <ele>857.4</ele>
        <time>2020-11-01T11:17:34.02Z</time>
      </trkpt>
      <trkpt lat="46.35864" lon="6.05277">
        <ele>857.4</ele>
        <time>2020-11-01T11:17:35.023Z</time>
      </trkpt>
      <trkpt lat="46.35867" lon="6.05273">
        <ele>857.6</ele>
        <time>2020-11-01T11:17:36.02Z</time>
      </trkpt>
      <trkpt lat="46.35867" lon="6.05273">
        <ele>857.6</ele>
        <time>2020-11-01T11:17:37.022Z</time>
      </trkpt>
      <trkpt lat="46.3587" lon="6.05269">
        <ele>857.8</ele>
        <time>2020-11-01T11:17:38.022Z</time>
      </trkpt>
      <trkpt lat="46.35874" lon="6.05265">
        <ele>857.8</ele>
        <time>2020-11-01T11:17:39.022Z</time>
      </trkpt>
      <trkpt lat="46.35874" lon="6.05265">
        <ele>857.8</ele>
        <time>2020-11-01T11:17:40.021Z</time>
      </trkpt>
      <trkpt lat="46.35877" lon="6.05261">
        <ele>858</ele>
        <time>2020-11-01T11:17:41.022Z</time>
      </trkpt>
      <trkpt lat="46.35877" lon="6.05261">
        <ele>858</ele>
        <time>2020-11-01T11:17:42.02Z</time>
      </trkpt>
      <trkpt lat="46.3588" lon="6.05258">
        <ele>858.2</ele>
        <time>2020-11-01T11:17:43.02Z</time>
      </trkpt>
      <trkpt lat="46.35884" lon="6.05254">
        <ele>858.6</ele>
        <time>2020-11-01T11:17:44.02Z</time>
      </trkpt>
      <trkpt lat="46.35884" lon="6.05254">
        <ele>858.6</ele>
        <time>2020-11-01T11:17:45.022Z</time>
      </trkpt>
      <trkpt lat="46.35887" lon="6.0525">
        <ele>858.8</ele>
        <time>2020-11-01T11:17:46.021Z</time>
      </trkpt>
      <trkpt lat="46.35887" lon="6.0525">
        <ele>858.8</ele>
        <time>2020-11-01T11:17:47.02Z</time>
      </trkpt>
      <trkpt lat="46.3589" lon="6.05246">
        <ele>859</ele>
        <time>2020-11-01T11:17:48.022Z</time>
      </trkpt>
      <trkpt lat="46.35892" lon="6.05242">
        <ele>859.2</ele>
        <time>2020-11-01T11:17:49.02Z</time>
      </trkpt>
      <trkpt lat="46.35892" lon="6.05242">
        <ele>859.2</ele>
        <time>2020-11-01T11:17:50.02Z</time>
      </trkpt>
      <trkpt lat="46.35894" lon="6.05237">
        <ele>859.6</ele>
        <time>2020-11-01T11:17:51.022Z</time>
      </trkpt>
      <trkpt lat="46.35895" lon="6.05232">
        <ele>859.8</ele>
        <time>2020-11-01T11:17:52.021Z</time>
      </trkpt>
      <trkpt lat="46.35895" lon="6.05232">
        <ele>859.8</ele>
        <time>2020-11-01T11:17:53.021Z</time>
      </trkpt>
      <trkpt lat="46.35896" lon="6.05227">
        <ele>860</ele>
        <time>2020-11-01T11:17:54.022Z</time>
      </trkpt>
      <trkpt lat="46.35896" lon="6.05221">
        <ele>860.2</ele>
        <time>2020-11-01T11:17:55.02Z</time>
      </trkpt>
      <trkpt lat="46.35896" lon="6.05221">
        <ele>860.2</ele>
        <time>2020-11-01T11:17:56.022Z</time>
      </trkpt>
      <trkpt lat="46.35896" lon="6.05216">
        <ele>860.4</ele>
        <time>2020-11-01T11:17:57.022Z</time>
      </trkpt>
      <trkpt lat="46.35895" lon="6.0521">
        <ele>860.6</ele>
        <time>2020-11-01T11:17:58.022Z</time>
      </trkpt>
      <trkpt lat="46.35895" lon="6.0521">
        <ele>860.6</ele>
        <time>2020-11-01T11:17:59.021Z</time>
      </trkpt>
      <trkpt lat="46.35894" lon="6.05205">
        <ele>860.8</ele>
        <time>2020-11-01T11:18:00.02Z</time>
      </trkpt>
      <trkpt lat="46.35893" lon="6.05201">
        <ele>861.2</ele>
        <time>2020-11-01T11:18:01.02Z</time>
      </trkpt>
      <trkpt lat="46.35893" lon="6.05201">
        <ele>861.2</ele>
        <time>2020-11-01T11:18:02.022Z</time>
      </trkpt>
      <trkpt lat="46.35891" lon="6.05196">
        <ele>861.6</ele>
        <time>2020-11-01T11:18:03.02Z</time>
      </trkpt>
      <trkpt lat="46.3589" lon="6.05192">
        <ele>862</ele>
        <time>2020-11-01T11:18:04.021Z</time>
      </trkpt>
      <trkpt lat="46.35887" lon="6.0519">
        <ele>862.4</ele>
        <time>2020-11-01T11:18:05.022Z</time>
      </trkpt>
      <trkpt lat="46.35887" lon="6.0519">
        <ele>862.4</ele>
        <time>2020-11-01T11:18:06.021Z</time>
      </trkpt>
      <trkpt lat="46.35883" lon="6.05189">
        <ele>862.6</ele>
        <time>2020-11-01T11:18:07.022Z</time>
      </trkpt>
      <trkpt lat="46.35879" lon="6.05189">
        <ele>862.8</ele>
        <time>2020-11-01T11:18:08.022Z</time>
      </trkpt>
      <trkpt lat="46.35879" lon="6.05189">
        <ele>862.8</ele>
        <time>2020-11-01T11:18:09.021Z</time>
      </trkpt>
      <trkpt lat="46.35874" lon="6.05191">
        <ele>863</ele>
        <time>2020-11-01T11:18:10.021Z</time>
      </trkpt>
      <trkpt lat="46.35874" lon="6.05191">
        <ele>863</ele>
        <time>2020-11-01T11:18:11.022Z</time>
      </trkpt>
      <trkpt lat="46.3587" lon="6.05194">
        <ele>863.2</ele>
        <time>2020-11-01T11:18:12.021Z</time>
      </trkpt>
      <trkpt lat="46.3587" lon="6.05194">
        <ele>863.2</ele>
        <time>2020-11-01T11:18:13.02Z</time>
      </trkpt>
      <trkpt lat="46.35867" lon="6.05199">
        <ele>863.4</ele>
        <time>2020-11-01T11:18:14.022Z</time>
      </trkpt>
      <trkpt lat="46.35867" lon="6.05199">
        <ele>863.4</ele>
        <time>2020-11-01T11:18:15.023Z</time>
      </trkpt>
      <trkpt lat="46.35864" lon="6.05204">
        <ele>863.4</ele>
        <time>2020-11-01T11:18:16.021Z</time>
      </trkpt>
      <trkpt lat="46.35864" lon="6.05204">
        <ele>863.4</ele>
        <time>2020-11-01T11:18:17.02Z</time>
      </trkpt>
      <trkpt lat="46.35862" lon="6.05209">
        <ele>863.6</ele>
        <time>2020-11-01T11:18:18.02Z</time>
      </trkpt>
      <trkpt lat="46.35862" lon="6.05209">
        <ele>863.6</ele>
        <time>2020-11-01T11:18:19.023Z</time>
      </trkpt>
      <trkpt lat="46.3586" lon="6.05215">
        <ele>863.6</ele>
        <time>2020-11-01T11:18:20.021Z</time>
      </trkpt>
      <trkpt lat="46.35859" lon="6.0522">
        <ele>863.8</ele>
        <time>2020-11-01T11:18:21.021Z</time>
      </trkpt>
      <trkpt lat="46.35859" lon="6.0522">
        <ele>863.8</ele>
        <time>2020-11-01T11:18:22.021Z</time>
      </trkpt>
      <trkpt lat="46.35857" lon="6.05226">
        <ele>863.8</ele>
        <time>2020-11-01T11:18:23.022Z</time>
      </trkpt>
      <trkpt lat="46.35857" lon="6.05226">
        <ele>863.8</ele>
        <time>2020-11-01T11:18:24.02Z</time>
      </trkpt>
      <trkpt lat="46.35855" lon="6.05232">
        <ele>864</ele>
        <time>2020-11-01T11:18:25.02Z</time>
      </trkpt>
      <trkpt lat="46.35853" lon="6.05237">
        <ele>864</ele>
        <time>2020-11-01T11:18:26.021Z</time>
      </trkpt>
      <trkpt lat="46.35853" lon="6.05237">
        <ele>864</ele>
        <time>2020-11-01T11:18:27.021Z</time>
      </trkpt>
      <trkpt lat="46.35851" lon="6.05243">
        <ele>864</ele>
        <time>2020-11-01T11:18:28.02Z</time>
      </trkpt>
      <trkpt lat="46.35851" lon="6.05243">
        <ele>864</ele>
        <time>2020-11-01T11:18:29.021Z</time>
      </trkpt>
      <trkpt lat="46.35849" lon="6.05249">
        <ele>864.2</ele>
        <time>2020-11-01T11:18:30.021Z</time>
      </trkpt>
      <trkpt lat="46.35849" lon="6.05249">
        <ele>864.2</ele>
        <time>2020-11-01T11:18:31.021Z</time>
      </trkpt>
      <trkpt lat="46.35846" lon="6.05255">
        <ele>864.2</ele>
        <time>2020-11-01T11:18:32.023Z</time>
      </trkpt>
      <trkpt lat="46.35846" lon="6.05255">
        <ele>864.2</ele>
        <time>2020-11-01T11:18:33.022Z</time>
      </trkpt>
      <trkpt lat="46.35844" lon="6.0526">
        <ele>864.4</ele>
        <time>2020-11-01T11:18:34.02Z</time>
      </trkpt>
      <trkpt lat="46.35844" lon="6.0526">
        <ele>864.4</ele>
        <time>2020-11-01T11:18:35.022Z</time>
      </trkpt>
      <trkpt lat="46.35841" lon="6.05266">
        <ele>864.6</ele>
        <time>2020-11-01T11:18:36.021Z</time>
      </trkpt>
      <trkpt lat="46.35838" lon="6.05271">
        <ele>864.8</ele>
        <time>2020-11-01T11:18:37.02Z</time>
      </trkpt>
      <trkpt lat="46.35838" lon="6.05271">
        <ele>864.8</ele>
        <time>2020-11-01T11:18:38.02Z</time>
      </trkpt>
      <trkpt lat="46.35835" lon="6.05276">
        <ele>865</ele>
        <time>2020-11-01T11:18:39.021Z</time>
      </trkpt>
      <trkpt lat="46.35835" lon="6.05276">
        <ele>865</ele>
        <time>2020-11-01T11:18:40.02Z</time>
      </trkpt>
      <trkpt lat="46.35832" lon="6.0528">
        <ele>865</ele>
        <time>2020-11-01T11:18:41.02Z</time>
      </trkpt>
      <trkpt lat="46.35832" lon="6.0528">
        <ele>865</ele>
        <time>2020-11-01T11:18:42.021Z</time>
      </trkpt>
      <trkpt lat="46.35829" lon="6.05284">
        <ele>865.2</ele>
        <time>2020-11-01T11:18:43.02Z</time>
      </trkpt>
      <trkpt lat="46.35825" lon="6.05287">
        <ele>865.2</ele>
        <time>2020-11-01T11:18:44.021Z</time>
      </trkpt>
      <trkpt lat="46.35825" lon="6.05287">
        <ele>865.2</ele>
        <time>2020-11-01T11:18:45.023Z</time>
      </trkpt>
      <trkpt lat="46.35822" lon="6.05289">
        <ele>865.2</ele>
        <time>2020-11-01T11:18:46.02Z</time>
      </trkpt>
      <trkpt lat="46.35819" lon="6.05291">
        <ele>865.4</ele>
        <time>2020-11-01T11:18:47.021Z</time>
      </trkpt>
      <trkpt lat="46.35816" lon="6.05292">
        <ele>865.4</ele>
        <time>2020-11-01T11:18:48.021Z</time>
      </trkpt>
      <trkpt lat="46.35816" lon="6.05292">
        <ele>865.4</ele>
        <time>2020-11-01T11:18:49.021Z</time>
      </trkpt>
      <trkpt lat="46.35812" lon="6.05293">
        <ele>865.8</ele>
        <time>2020-11-01T11:18:50.02Z</time>
      </trkpt>
      <trkpt lat="46.35809" lon="6.05295">
        <ele>866.2</ele>
        <time>2020-11-01T11:18:51.02Z</time>
      </trkpt>
      <trkpt lat="46.35809" lon="6.05295">
        <ele>866.2</ele>
        <time>2020-11-01T11:18:52.022Z</time>
      </trkpt>
      <trkpt lat="46.35805" lon="6.05296">
        <ele>866.6</ele>
        <time>2020-11-01T11:18:53.021Z</time>
      </trkpt>
      <trkpt lat="46.35802" lon="6.05297">
        <ele>866.8</ele>
        <time>2020-11-01T11:18:54.021Z</time>
      </trkpt>
      <trkpt lat="46.35802" lon="6.05297">
        <ele>866.8</ele>
        <time>2020-11-01T11:18:55.022Z</time>
      </trkpt>
      <trkpt lat="46.35798" lon="6.05299">
        <ele>867.2</ele>
        <time>2020-11-01T11:18:56.022Z</time>
      </trkpt>
      <trkpt lat="46.35795" lon="6.05299">
        <ele>867.4</ele>
        <time>2020-11-01T11:18:57.021Z</time>
      </trkpt>
      <trkpt lat="46.35795" lon="6.05299">
        <ele>867.4</ele>
        <time>2020-11-01T11:18:58.02Z</time>
      </trkpt>
      <trkpt lat="46.35791" lon="6.05301">
        <ele>867.8</ele>
        <time>2020-11-01T11:18:59.022Z</time>
      </trkpt>
      <trkpt lat="46.35787" lon="6.05302">
        <ele>868.2</ele>
        <time>2020-11-01T11:19:00.022Z</time>
      </trkpt>
      <trkpt lat="46.35787" lon="6.05302">
        <ele>868.2</ele>
        <time>2020-11-01T11:19:01.021Z</time>
      </trkpt>
      <trkpt lat="46.35784" lon="6.05304">
        <ele>868.4</ele>
        <time>2020-11-01T11:19:02.021Z</time>
      </trkpt>
      <trkpt lat="46.35784" lon="6.05304">
        <ele>868.4</ele>
        <time>2020-11-01T11:19:03.021Z</time>
      </trkpt>
      <trkpt lat="46.3578" lon="6.05306">
        <ele>868.8</ele>
        <time>2020-11-01T11:19:04.022Z</time>
      </trkpt>
      <trkpt lat="46.35777" lon="6.05308">
        <ele>869.2</ele>
        <time>2020-11-01T11:19:05.021Z</time>
      </trkpt>
      <trkpt lat="46.35777" lon="6.05308">
        <ele>869.2</ele>
        <time>2020-11-01T11:19:06.021Z</time>
      </trkpt>
      <trkpt lat="46.35773" lon="6.05309">
        <ele>869.4</ele>
        <time>2020-11-01T11:19:07.02Z</time>
      </trkpt>
      <trkpt lat="46.3577" lon="6.05311">
        <ele>869.6</ele>
        <time>2020-11-01T11:19:08.022Z</time>
      </trkpt>
      <trkpt lat="46.3577" lon="6.05311">
        <ele>869.6</ele>
        <time>2020-11-01T11:19:09.022Z</time>
      </trkpt>
      <trkpt lat="46.35766" lon="6.05313">
        <ele>869.8</ele>
        <time>2020-11-01T11:19:10.023Z</time>
      </trkpt>
      <trkpt lat="46.35763" lon="6.05317">
        <ele>870.2</ele>
        <time>2020-11-01T11:19:11.021Z</time>
      </trkpt>
      <trkpt lat="46.35763" lon="6.05317">
        <ele>870.2</ele>
        <time>2020-11-01T11:19:12.022Z</time>
      </trkpt>
      <trkpt lat="46.35759" lon="6.05319">
        <ele>870.6</ele>
        <time>2020-11-01T11:19:13.021Z</time>
      </trkpt>
      <trkpt lat="46.35756" lon="6.05322">
        <ele>871</ele>
        <time>2020-11-01T11:19:14.021Z</time>
      </trkpt>
      <trkpt lat="46.35756" lon="6.05322">
        <ele>871</ele>
        <time>2020-11-01T11:19:15.022Z</time>
      </trkpt>
      <trkpt lat="46.35753" lon="6.05325">
        <ele>871.2</ele>
        <time>2020-11-01T11:19:16.022Z</time>
      </trkpt>
      <trkpt lat="46.35749" lon="6.05326">
        <ele>871.6</ele>
        <time>2020-11-01T11:19:17.02Z</time>
      </trkpt>
      <trkpt lat="46.35749" lon="6.05326">
        <ele>871.6</ele>
        <time>2020-11-01T11:19:18.021Z</time>
      </trkpt>
      <trkpt lat="46.35747" lon="6.0533">
        <ele>872</ele>
        <time>2020-11-01T11:19:19.02Z</time>
      </trkpt>
      <trkpt lat="46.35744" lon="6.05333">
        <ele>872.6</ele>
        <time>2020-11-01T11:19:20.02Z</time>
      </trkpt>
      <trkpt lat="46.35741" lon="6.05335">
        <ele>873</ele>
        <time>2020-11-01T11:19:21.023Z</time>
      </trkpt>
      <trkpt lat="46.35741" lon="6.05335">
        <ele>873</ele>
        <time>2020-11-01T11:19:22.021Z</time>
      </trkpt>
      <trkpt lat="46.35738" lon="6.05337">
        <ele>873.4</ele>
        <time>2020-11-01T11:19:23.023Z</time>
      </trkpt>
      <trkpt lat="46.35738" lon="6.05337">
        <ele>873.4</ele>
        <time>2020-11-01T11:19:24.021Z</time>
      </trkpt>
      <trkpt lat="46.35735" lon="6.0534">
        <ele>873.6</ele>
        <time>2020-11-01T11:19:25.021Z</time>
      </trkpt>
      <trkpt lat="46.35732" lon="6.05341">
        <ele>873.8</ele>
        <time>2020-11-01T11:19:26.022Z</time>
      </trkpt>
      <trkpt lat="46.35728" lon="6.05341">
        <ele>874</ele>
        <time>2020-11-01T11:19:27.021Z</time>
      </trkpt>
      <trkpt lat="46.35728" lon="6.05341">
        <ele>874</ele>
        <time>2020-11-01T11:19:28.022Z</time>
      </trkpt>
      <trkpt lat="46.35724" lon="6.05341">
        <ele>874.2</ele>
        <time>2020-11-01T11:19:29.022Z</time>
      </trkpt>
      <trkpt lat="46.3572" lon="6.05341">
        <ele>874.4</ele>
        <time>2020-11-01T11:19:30.022Z</time>
      </trkpt>
      <trkpt lat="46.3572" lon="6.05341">
        <ele>874.4</ele>
        <time>2020-11-01T11:19:31.02Z</time>
      </trkpt>
      <trkpt lat="46.35716" lon="6.05342">
        <ele>874.6</ele>
        <time>2020-11-01T11:19:32.02Z</time>
      </trkpt>
      <trkpt lat="46.35716" lon="6.05342">
        <ele>874.6</ele>
        <time>2020-11-01T11:19:33.021Z</time>
      </trkpt>
      <trkpt lat="46.35712" lon="6.05343">
        <ele>874.6</ele>
        <time>2020-11-01T11:19:34.021Z</time>
      </trkpt>
      <trkpt lat="46.35712" lon="6.05343">
        <ele>874.6</ele>
        <time>2020-11-01T11:19:35.021Z</time>
      </trkpt>
      <trkpt lat="46.35707" lon="6.05343">
        <ele>875</ele>
        <time>2020-11-01T11:19:36.021Z</time>
      </trkpt>
      <trkpt lat="46.35703" lon="6.05342">
        <ele>875.2</ele>
        <time>2020-11-01T11:19:37.02Z</time>
      </trkpt>
      <trkpt lat="46.35703" lon="6.05342">
        <ele>875.2</ele>
        <time>2020-11-01T11:19:38.021Z</time>
      </trkpt>
      <trkpt lat="46.357" lon="6.05341">
        <ele>875.6</ele>
        <time>2020-11-01T11:19:39.021Z</time>
      </trkpt>
      <trkpt lat="46.357" lon="6.05341">
        <ele>875.6</ele>
        <time>2020-11-01T11:19:40.02Z</time>
      </trkpt>
      <trkpt lat="46.35696" lon="6.05338">
        <ele>875.6</ele>
        <time>2020-11-01T11:19:41.021Z</time>
      </trkpt>
      <trkpt lat="46.35693" lon="6.05335">
        <ele>875.6</ele>
        <time>2020-11-01T11:19:42.02Z</time>
      </trkpt>
      <trkpt lat="46.35693" lon="6.05335">
        <ele>875.6</ele>
        <time>2020-11-01T11:19:43.022Z</time>
      </trkpt>
      <trkpt lat="46.3569" lon="6.05332">
        <ele>875.8</ele>
        <time>2020-11-01T11:19:44.02Z</time>
      </trkpt>
      <trkpt lat="46.3569" lon="6.05332">
        <ele>875.8</ele>
        <time>2020-11-01T11:19:45.022Z</time>
      </trkpt>
      <trkpt lat="46.35687" lon="6.05328">
        <ele>876</ele>
        <time>2020-11-01T11:19:46.02Z</time>
      </trkpt>
      <trkpt lat="46.35684" lon="6.05325">
        <ele>876.2</ele>
        <time>2020-11-01T11:19:47.022Z</time>
      </trkpt>
      <trkpt lat="46.35684" lon="6.05325">
        <ele>876.2</ele>
        <time>2020-11-01T11:19:48.021Z</time>
      </trkpt>
      <trkpt lat="46.35681" lon="6.05321">
        <ele>876.4</ele>
        <time>2020-11-01T11:19:49.021Z</time>
      </trkpt>
      <trkpt lat="46.35678" lon="6.05317">
        <ele>876.6</ele>
        <time>2020-11-01T11:19:50.021Z</time>
      </trkpt>
      <trkpt lat="46.35678" lon="6.05317">
        <ele>876.6</ele>
        <time>2020-11-01T11:19:51.021Z</time>
      </trkpt>
      <trkpt lat="46.35675" lon="6.05314">
        <ele>877</ele>
        <time>2020-11-01T11:19:52.02Z</time>
      </trkpt>
      <trkpt lat="46.35675" lon="6.05314">
        <ele>877</ele>
        <time>2020-11-01T11:19:53.023Z</time>
      </trkpt>
      <trkpt lat="46.35672" lon="6.0531">
        <ele>877.2</ele>
        <time>2020-11-01T11:19:54.02Z</time>
      </trkpt>
      <trkpt lat="46.35669" lon="6.05306">
        <ele>877.6</ele>
        <time>2020-11-01T11:19:55.02Z</time>
      </trkpt>
      <trkpt lat="46.35669" lon="6.05306">
        <ele>877.6</ele>
        <time>2020-11-01T11:19:56.021Z</time>
      </trkpt>
      <trkpt lat="46.35666" lon="6.05302">
        <ele>877.8</ele>
        <time>2020-11-01T11:19:57.022Z</time>
      </trkpt>
      <trkpt lat="46.35666" lon="6.05302">
        <ele>877.8</ele>
        <time>2020-11-01T11:19:58.021Z</time>
      </trkpt>
      <trkpt lat="46.35663" lon="6.05299">
        <ele>878</ele>
        <time>2020-11-01T11:19:59.021Z</time>
      </trkpt>
      <trkpt lat="46.3566" lon="6.05295">
        <ele>878.4</ele>
        <time>2020-11-01T11:20:00.022Z</time>
      </trkpt>
      <trkpt lat="46.3566" lon="6.05295">
        <ele>878.4</ele>
        <time>2020-11-01T11:20:01.021Z</time>
      </trkpt>
      <trkpt lat="46.35656" lon="6.05292">
        <ele>878.6</ele>
        <time>2020-11-01T11:20:02.022Z</time>
      </trkpt>
      <trkpt lat="46.35656" lon="6.05292">
        <ele>878.6</ele>
        <time>2020-11-01T11:20:03.02Z</time>
      </trkpt>
      <trkpt lat="46.35653" lon="6.05288">
        <ele>879</ele>
        <time>2020-11-01T11:20:04.021Z</time>
      </trkpt>
      <trkpt lat="46.3565" lon="6.05284">
        <ele>879.2</ele>
        <time>2020-11-01T11:20:05.021Z</time>
      </trkpt>
      <trkpt lat="46.3565" lon="6.05284">
        <ele>879.2</ele>
        <time>2020-11-01T11:20:06.021Z</time>
      </trkpt>
      <trkpt lat="46.35647" lon="6.05281">
        <ele>879.4</ele>
        <time>2020-11-01T11:20:07.02Z</time>
      </trkpt>
      <trkpt lat="46.35644" lon="6.05277">
        <ele>880</ele>
        <time>2020-11-01T11:20:08.021Z</time>
      </trkpt>
      <trkpt lat="46.35644" lon="6.05277">
        <ele>880</ele>
        <time>2020-11-01T11:20:09.02Z</time>
      </trkpt>
      <trkpt lat="46.35641" lon="6.05274">
        <ele>880.2</ele>
        <time>2020-11-01T11:20:10.023Z</time>
      </trkpt>
      <trkpt lat="46.35641" lon="6.05274">
        <ele>880.2</ele>
        <time>2020-11-01T11:20:11.021Z</time>
      </trkpt>
      <trkpt lat="46.35638" lon="6.0527">
        <ele>880.4</ele>
        <time>2020-11-01T11:20:12.021Z</time>
      </trkpt>
      <trkpt lat="46.35635" lon="6.05267">
        <ele>880.8</ele>
        <time>2020-11-01T11:20:13.021Z</time>
      </trkpt>
      <trkpt lat="46.35635" lon="6.05267">
        <ele>880.8</ele>
        <time>2020-11-01T11:20:14.022Z</time>
      </trkpt>
      <trkpt lat="46.35632" lon="6.05263">
        <ele>881.2</ele>
        <time>2020-11-01T11:20:15.021Z</time>
      </trkpt>
      <trkpt lat="46.3563" lon="6.05259">
        <ele>881.4</ele>
        <time>2020-11-01T11:20:16.021Z</time>
      </trkpt>
      <trkpt lat="46.3563" lon="6.05259">
        <ele>881.4</ele>
        <time>2020-11-01T11:20:17.02Z</time>
      </trkpt>
      <trkpt lat="46.35627" lon="6.05256">
        <ele>881.4</ele>
        <time>2020-11-01T11:20:18.021Z</time>
      </trkpt>
      <trkpt lat="46.35627" lon="6.05256">
        <ele>881.4</ele>
        <time>2020-11-01T11:20:19.022Z</time>
      </trkpt>
      <trkpt lat="46.35624" lon="6.05252">
        <ele>881.6</ele>
        <time>2020-11-01T11:20:20.023Z</time>
      </trkpt>
      <trkpt lat="46.35621" lon="6.05249">
        <ele>881.8</ele>
        <time>2020-11-01T11:20:21.02Z</time>
      </trkpt>
      <trkpt lat="46.35618" lon="6.05245">
        <ele>882</ele>
        <time>2020-11-01T11:20:22.022Z</time>
      </trkpt>
      <trkpt lat="46.35618" lon="6.05245">
        <ele>882</ele>
        <time>2020-11-01T11:20:23.022Z</time>
      </trkpt>
      <trkpt lat="46.35615" lon="6.05241">
        <ele>882.2</ele>
        <time>2020-11-01T11:20:24.023Z</time>
      </trkpt>
      <trkpt lat="46.35615" lon="6.05241">
        <ele>882.2</ele>
        <time>2020-11-01T11:20:25.021Z</time>
      </trkpt>
      <trkpt lat="46.35613" lon="6.05238">
        <ele>882.4</ele>
        <time>2020-11-01T11:20:26.021Z</time>
      </trkpt>
      <trkpt lat="46.3561" lon="6.05235">
        <ele>882.6</ele>
        <time>2020-11-01T11:20:27.021Z</time>
      </trkpt>
      <trkpt lat="46.3561" lon="6.05235">
        <ele>882.6</ele>
        <time>2020-11-01T11:20:28.021Z</time>
      </trkpt>
      <trkpt lat="46.35607" lon="6.05231">
        <ele>882.8</ele>
        <time>2020-11-01T11:20:29.021Z</time>
      </trkpt>
      <trkpt lat="46.35603" lon="6.05228">
        <ele>883</ele>
        <time>2020-11-01T11:20:30.022Z</time>
      </trkpt>
      <trkpt lat="46.35603" lon="6.05228">
        <ele>883</ele>
        <time>2020-11-01T11:20:31.022Z</time>
      </trkpt>
      <trkpt lat="46.356" lon="6.05225">
        <ele>883.2</ele>
        <time>2020-11-01T11:20:32.022Z</time>
      </trkpt>
      <trkpt lat="46.356" lon="6.05225">
        <ele>883.2</ele>
        <time>2020-11-01T11:20:33.021Z</time>
      </trkpt>
      <trkpt lat="46.35597" lon="6.05222">
        <ele>883.4</ele>
        <time>2020-11-01T11:20:34.022Z</time>
      </trkpt>
      <trkpt lat="46.35595" lon="6.05219">
        <ele>883.6</ele>
        <time>2020-11-01T11:20:35.021Z</time>
      </trkpt>
      <trkpt lat="46.35595" lon="6.05219">
        <ele>883.6</ele>
        <time>2020-11-01T11:20:36.022Z</time>
      </trkpt>
      <trkpt lat="46.35591" lon="6.05216">
        <ele>883.8</ele>
        <time>2020-11-01T11:20:37.02Z</time>
      </trkpt>
      <trkpt lat="46.35588" lon="6.05213">
        <ele>884.2</ele>
        <time>2020-11-01T11:20:38.022Z</time>
      </trkpt>
      <trkpt lat="46.35588" lon="6.05213">
        <ele>884.2</ele>
        <time>2020-11-01T11:20:39.021Z</time>
      </trkpt>
      <trkpt lat="46.35585" lon="6.05209">
        <ele>884.4</ele>
        <time>2020-11-01T11:20:40.021Z</time>
      </trkpt>
      <trkpt lat="46.35583" lon="6.05206">
        <ele>884.8</ele>
        <time>2020-11-01T11:20:41.022Z</time>
      </trkpt>
      <trkpt lat="46.35583" lon="6.05206">
        <ele>884.8</ele>
        <time>2020-11-01T11:20:42.02Z</time>
      </trkpt>
      <trkpt lat="46.3558" lon="6.05203">
        <ele>885</ele>
        <time>2020-11-01T11:20:43.02Z</time>
      </trkpt>
      <trkpt lat="46.35577" lon="6.05199">
        <ele>885.2</ele>
        <time>2020-11-01T11:20:44.022Z</time>
      </trkpt>
      <trkpt lat="46.35577" lon="6.05199">
        <ele>885.2</ele>
        <time>2020-11-01T11:20:45.021Z</time>
      </trkpt>
      <trkpt lat="46.35574" lon="6.05197">
        <ele>885.6</ele>
        <time>2020-11-01T11:20:46.022Z</time>
      </trkpt>
      <trkpt lat="46.35571" lon="6.05193">
        <ele>885.8</ele>
        <time>2020-11-01T11:20:47.022Z</time>
      </trkpt>
      <trkpt lat="46.35571" lon="6.05193">
        <ele>885.8</ele>
        <time>2020-11-01T11:20:48.02Z</time>
      </trkpt>
      <trkpt lat="46.35568" lon="6.0519">
        <ele>886</ele>
        <time>2020-11-01T11:20:49.021Z</time>
      </trkpt>
      <trkpt lat="46.35568" lon="6.0519">
        <ele>886</ele>
        <time>2020-11-01T11:20:50.022Z</time>
      </trkpt>
      <trkpt lat="46.35565" lon="6.05187">
        <ele>886.4</ele>
        <time>2020-11-01T11:20:51.022Z</time>
      </trkpt>
      <trkpt lat="46.35562" lon="6.05184">
        <ele>886.6</ele>
        <time>2020-11-01T11:20:52.021Z</time>
      </trkpt>
      <trkpt lat="46.35562" lon="6.05184">
        <ele>886.6</ele>
        <time>2020-11-01T11:20:53.023Z</time>
      </trkpt>
      <trkpt lat="46.35558" lon="6.05181">
        <ele>886.8</ele>
        <time>2020-11-01T11:20:54.022Z</time>
      </trkpt>
      <trkpt lat="46.35555" lon="6.05178">
        <ele>887</ele>
        <time>2020-11-01T11:20:55.02Z</time>
      </trkpt>
      <trkpt lat="46.35555" lon="6.05178">
        <ele>887</ele>
        <time>2020-11-01T11:20:56.021Z</time>
      </trkpt>
      <trkpt lat="46.35552" lon="6.05174">
        <ele>887.4</ele>
        <time>2020-11-01T11:20:57.022Z</time>
      </trkpt>
      <trkpt lat="46.35549" lon="6.05171">
        <ele>887.4</ele>
        <time>2020-11-01T11:20:58.02Z</time>
      </trkpt>
      <trkpt lat="46.35549" lon="6.05171">
        <ele>887.4</ele>
        <time>2020-11-01T11:20:59.02Z</time>
      </trkpt>
      <trkpt lat="46.35546" lon="6.05168">
        <ele>887.6</ele>
        <time>2020-11-01T11:21:00.021Z</time>
      </trkpt>
      <trkpt lat="46.35546" lon="6.05168">
        <ele>887.6</ele>
        <time>2020-11-01T11:21:01.023Z</time>
      </trkpt>
      <trkpt lat="46.35543" lon="6.05165">
        <ele>887.8</ele>
        <time>2020-11-01T11:21:02.02Z</time>
      </trkpt>
      <trkpt lat="46.3554" lon="6.05161">
        <ele>888</ele>
        <time>2020-11-01T11:21:03.022Z</time>
      </trkpt>
      <trkpt lat="46.3554" lon="6.05161">
        <ele>888</ele>
        <time>2020-11-01T11:21:04.02Z</time>
      </trkpt>
      <trkpt lat="46.35537" lon="6.05158">
        <ele>888.2</ele>
        <time>2020-11-01T11:21:05.022Z</time>
      </trkpt>
      <trkpt lat="46.35534" lon="6.05155">
        <ele>888.4</ele>
        <time>2020-11-01T11:21:06.022Z</time>
      </trkpt>
      <trkpt lat="46.35534" lon="6.05155">
        <ele>888.4</ele>
        <time>2020-11-01T11:21:07.02Z</time>
      </trkpt>
      <trkpt lat="46.35532" lon="6.05151">
        <ele>888.6</ele>
        <time>2020-11-01T11:21:08.021Z</time>
      </trkpt>
      <trkpt lat="46.35529" lon="6.05147">
        <ele>888.6</ele>
        <time>2020-11-01T11:21:09.021Z</time>
      </trkpt>
      <trkpt lat="46.35527" lon="6.05144">
        <ele>889</ele>
        <time>2020-11-01T11:21:10.02Z</time>
      </trkpt>
      <trkpt lat="46.35527" lon="6.05144">
        <ele>889</ele>
        <time>2020-11-01T11:21:11.022Z</time>
      </trkpt>
      <trkpt lat="46.35524" lon="6.0514">
        <ele>889.2</ele>
        <time>2020-11-01T11:21:12.021Z</time>
      </trkpt>
      <trkpt lat="46.35524" lon="6.0514">
        <ele>889.2</ele>
        <time>2020-11-01T11:21:13.02Z</time>
      </trkpt>
      <trkpt lat="46.35522" lon="6.05136">
        <ele>889.2</ele>
        <time>2020-11-01T11:21:14.021Z</time>
      </trkpt>
      <trkpt lat="46.35519" lon="6.05133">
        <ele>889.6</ele>
        <time>2020-11-01T11:21:15.02Z</time>
      </trkpt>
      <trkpt lat="46.35516" lon="6.0513">
        <ele>890</ele>
        <time>2020-11-01T11:21:16.02Z</time>
      </trkpt>
      <trkpt lat="46.35516" lon="6.0513">
        <ele>890</ele>
        <time>2020-11-01T11:21:17.022Z</time>
      </trkpt>
      <trkpt lat="46.35513" lon="6.05126">
        <ele>890.2</ele>
        <time>2020-11-01T11:21:18.023Z</time>
      </trkpt>
      <trkpt lat="46.3551" lon="6.05123">
        <ele>890.6</ele>
        <time>2020-11-01T11:21:19.02Z</time>
      </trkpt>
      <trkpt lat="46.3551" lon="6.05123">
        <ele>890.6</ele>
        <time>2020-11-01T11:21:20.021Z</time>
      </trkpt>
      <trkpt lat="46.35507" lon="6.05119">
        <ele>890.8</ele>
        <time>2020-11-01T11:21:21.022Z</time>
      </trkpt>
      <trkpt lat="46.35507" lon="6.05119">
        <ele>890.8</ele>
        <time>2020-11-01T11:21:22.02Z</time>
      </trkpt>
      <trkpt lat="46.35504" lon="6.05115">
        <ele>891.2</ele>
        <time>2020-11-01T11:21:23.023Z</time>
      </trkpt>
      <trkpt lat="46.35502" lon="6.05111">
        <ele>891.4</ele>
        <time>2020-11-01T11:21:24.022Z</time>
      </trkpt>
      <trkpt lat="46.35502" lon="6.05111">
        <ele>891.4</ele>
        <time>2020-11-01T11:21:25.021Z</time>
      </trkpt>
      <trkpt lat="46.35499" lon="6.05107">
        <ele>891.8</ele>
        <time>2020-11-01T11:21:26.021Z</time>
      </trkpt>
      <trkpt lat="46.35499" lon="6.05107">
        <ele>891.8</ele>
        <time>2020-11-01T11:21:27.023Z</time>
      </trkpt>
      <trkpt lat="46.35496" lon="6.05103">
        <ele>892</ele>
        <time>2020-11-01T11:21:28.021Z</time>
      </trkpt>
      <trkpt lat="46.35493" lon="6.051">
        <ele>892.2</ele>
        <time>2020-11-01T11:21:29.021Z</time>
      </trkpt>
      <trkpt lat="46.35493" lon="6.051">
        <ele>892.2</ele>
        <time>2020-11-01T11:21:30.02Z</time>
      </trkpt>
      <trkpt lat="46.3549" lon="6.05096">
        <ele>892.4</ele>
        <time>2020-11-01T11:21:31.021Z</time>
      </trkpt>
      <trkpt lat="46.35487" lon="6.05092">
        <ele>892.6</ele>
        <time>2020-11-01T11:21:32.021Z</time>
      </trkpt>
      <trkpt lat="46.35487" lon="6.05092">
        <ele>892.6</ele>
        <time>2020-11-01T11:21:33.021Z</time>
      </trkpt>
      <trkpt lat="46.35484" lon="6.05088">
        <ele>892.8</ele>
        <time>2020-11-01T11:21:34.021Z</time>
      </trkpt>
      <trkpt lat="46.35482" lon="6.05085">
        <ele>893</ele>
        <time>2020-11-01T11:21:35.02Z</time>
      </trkpt>
      <trkpt lat="46.35482" lon="6.05085">
        <ele>893</ele>
        <time>2020-11-01T11:21:36.022Z</time>
      </trkpt>
      <trkpt lat="46.35479" lon="6.05081">
        <ele>893.2</ele>
        <time>2020-11-01T11:21:37.022Z</time>
      </trkpt>
      <trkpt lat="46.35479" lon="6.05081">
        <ele>893.2</ele>
        <time>2020-11-01T11:21:38.022Z</time>
      </trkpt>
      <trkpt lat="46.35476" lon="6.05077">
        <ele>893.6</ele>
        <time>2020-11-01T11:21:39.021Z</time>
      </trkpt>
      <trkpt lat="46.35474" lon="6.05073">
        <ele>893.6</ele>
        <time>2020-11-01T11:21:40.022Z</time>
      </trkpt>
      <trkpt lat="46.35474" lon="6.05073">
        <ele>893.6</ele>
        <time>2020-11-01T11:21:41.022Z</time>
      </trkpt>
      <trkpt lat="46.35471" lon="6.05069">
        <ele>894</ele>
        <time>2020-11-01T11:21:42.022Z</time>
      </trkpt>
      <trkpt lat="46.35468" lon="6.05065">
        <ele>894.2</ele>
        <time>2020-11-01T11:21:43.02Z</time>
      </trkpt>
      <trkpt lat="46.35468" lon="6.05065">
        <ele>894.2</ele>
        <time>2020-11-01T11:21:44.021Z</time>
      </trkpt>
      <trkpt lat="46.35466" lon="6.05061">
        <ele>894.6</ele>
        <time>2020-11-01T11:21:45.02Z</time>
      </trkpt>
      <trkpt lat="46.35466" lon="6.05061">
        <ele>894.6</ele>
        <time>2020-11-01T11:21:46.022Z</time>
      </trkpt>
      <trkpt lat="46.35464" lon="6.05056">
        <ele>894.8</ele>
        <time>2020-11-01T11:21:47.02Z</time>
      </trkpt>
      <trkpt lat="46.35461" lon="6.05052">
        <ele>895</ele>
        <time>2020-11-01T11:21:48.02Z</time>
      </trkpt>
      <trkpt lat="46.35461" lon="6.05052">
        <ele>895</ele>
        <time>2020-11-01T11:21:49.021Z</time>
      </trkpt>
      <trkpt lat="46.35458" lon="6.05048">
        <ele>895.2</ele>
        <time>2020-11-01T11:21:50.021Z</time>
      </trkpt>
      <trkpt lat="46.35456" lon="6.05044">
        <ele>895.8</ele>
        <time>2020-11-01T11:21:51.022Z</time>
      </trkpt>
      <trkpt lat="46.35456" lon="6.05044">
        <ele>895.8</ele>
        <time>2020-11-01T11:21:52.022Z</time>
      </trkpt>
      <trkpt lat="46.35454" lon="6.0504">
        <ele>896.2</ele>
        <time>2020-11-01T11:21:53.021Z</time>
      </trkpt>
      <trkpt lat="46.35451" lon="6.05036">
        <ele>896.6</ele>
        <time>2020-11-01T11:21:54.022Z</time>
      </trkpt>
      <trkpt lat="46.35451" lon="6.05036">
        <ele>896.6</ele>
        <time>2020-11-01T11:21:55.022Z</time>
      </trkpt>
      <trkpt lat="46.35449" lon="6.05032">
        <ele>896.8</ele>
        <time>2020-11-01T11:21:56.021Z</time>
      </trkpt>
      <trkpt lat="46.35447" lon="6.05028">
        <ele>897.2</ele>
        <time>2020-11-01T11:21:57.023Z</time>
      </trkpt>
      <trkpt lat="46.35447" lon="6.05028">
        <ele>897.2</ele>
        <time>2020-11-01T11:21:58.021Z</time>
      </trkpt>
      <trkpt lat="46.35444" lon="6.05023">
        <ele>897.4</ele>
        <time>2020-11-01T11:21:59.022Z</time>
      </trkpt>
      <trkpt lat="46.35442" lon="6.05019">
        <ele>897.6</ele>
        <time>2020-11-01T11:22:00.021Z</time>
      </trkpt>
      <trkpt lat="46.35442" lon="6.05019">
        <ele>897.6</ele>
        <time>2020-11-01T11:22:01.021Z</time>
      </trkpt>
      <trkpt lat="46.3544" lon="6.05014">
        <ele>897.8</ele>
        <time>2020-11-01T11:22:02.022Z</time>
      </trkpt>
      <trkpt lat="46.35438" lon="6.0501">
        <ele>898</ele>
        <time>2020-11-01T11:22:03.021Z</time>
      </trkpt>
      <trkpt lat="46.35438" lon="6.0501">
        <ele>898</ele>
        <time>2020-11-01T11:22:04.022Z</time>
      </trkpt>
      <trkpt lat="46.35436" lon="6.05006">
        <ele>898.4</ele>
        <time>2020-11-01T11:22:05.023Z</time>
      </trkpt>
      <trkpt lat="46.35434" lon="6.05001">
        <ele>898.6</ele>
        <time>2020-11-01T11:22:06.021Z</time>
      </trkpt>
      <trkpt lat="46.35434" lon="6.05001">
        <ele>898.6</ele>
        <time>2020-11-01T11:22:07.023Z</time>
      </trkpt>
      <trkpt lat="46.35432" lon="6.04997">
        <ele>898.8</ele>
        <time>2020-11-01T11:22:08.021Z</time>
      </trkpt>
      <trkpt lat="46.3543" lon="6.04993">
        <ele>899</ele>
        <time>2020-11-01T11:22:09.022Z</time>
      </trkpt>
      <trkpt lat="46.3543" lon="6.04993">
        <ele>899</ele>
        <time>2020-11-01T11:22:10.022Z</time>
      </trkpt>
      <trkpt lat="46.35427" lon="6.04989">
        <ele>899.4</ele>
        <time>2020-11-01T11:22:11.022Z</time>
      </trkpt>
      <trkpt lat="46.35425" lon="6.04984">
        <ele>899.6</ele>
        <time>2020-11-01T11:22:12.022Z</time>
      </trkpt>
      <trkpt lat="46.35425" lon="6.04984">
        <ele>899.6</ele>
        <time>2020-11-01T11:22:13.021Z</time>
      </trkpt>
      <trkpt lat="46.35423" lon="6.0498">
        <ele>900</ele>
        <time>2020-11-01T11:22:14.02Z</time>
      </trkpt>
      <trkpt lat="46.35423" lon="6.0498">
        <ele>900</ele>
        <time>2020-11-01T11:22:15.02Z</time>
      </trkpt>
      <trkpt lat="46.3542" lon="6.04976">
        <ele>900</ele>
        <time>2020-11-01T11:22:16.022Z</time>
      </trkpt>
      <trkpt lat="46.35418" lon="6.04972">
        <ele>900.2</ele>
        <time>2020-11-01T11:22:17.022Z</time>
      </trkpt>
      <trkpt lat="46.35418" lon="6.04972">
        <ele>900.2</ele>
        <time>2020-11-01T11:22:18.021Z</time>
      </trkpt>
      <trkpt lat="46.35415" lon="6.04967">
        <ele>900.4</ele>
        <time>2020-11-01T11:22:19.02Z</time>
      </trkpt>
      <trkpt lat="46.35415" lon="6.04967">
        <ele>900.4</ele>
        <time>2020-11-01T11:22:20.02Z</time>
      </trkpt>
      <trkpt lat="46.35413" lon="6.04962">
        <ele>900.6</ele>
        <time>2020-11-01T11:22:21.022Z</time>
      </trkpt>
      <trkpt lat="46.35411" lon="6.04957">
        <ele>900.8</ele>
        <time>2020-11-01T11:22:22.021Z</time>
      </trkpt>
      <trkpt lat="46.35411" lon="6.04957">
        <ele>900.8</ele>
        <time>2020-11-01T11:22:23.021Z</time>
      </trkpt>
      <trkpt lat="46.35409" lon="6.04952">
        <ele>901</ele>
        <time>2020-11-01T11:22:24.021Z</time>
      </trkpt>
      <trkpt lat="46.35406" lon="6.04948">
        <ele>901</ele>
        <time>2020-11-01T11:22:25.022Z</time>
      </trkpt>
      <trkpt lat="46.35406" lon="6.04948">
        <ele>901</ele>
        <time>2020-11-01T11:22:26.02Z</time>
      </trkpt>
      <trkpt lat="46.35404" lon="6.04944">
        <ele>901.6</ele>
        <time>2020-11-01T11:22:27.022Z</time>
      </trkpt>
      <trkpt lat="46.35401" lon="6.04939">
        <ele>901.8</ele>
        <time>2020-11-01T11:22:28.022Z</time>
      </trkpt>
      <trkpt lat="46.35401" lon="6.04939">
        <ele>901.8</ele>
        <time>2020-11-01T11:22:29.022Z</time>
      </trkpt>
      <trkpt lat="46.35399" lon="6.04935">
        <ele>902</ele>
        <time>2020-11-01T11:22:30.022Z</time>
      </trkpt>
      <trkpt lat="46.35396" lon="6.04931">
        <ele>902.2</ele>
        <time>2020-11-01T11:22:31.02Z</time>
      </trkpt>
      <trkpt lat="46.35396" lon="6.04931">
        <ele>902.2</ele>
        <time>2020-11-01T11:22:32.021Z</time>
      </trkpt>
      <trkpt lat="46.35394" lon="6.04927">
        <ele>902.4</ele>
        <time>2020-11-01T11:22:33.022Z</time>
      </trkpt>
      <trkpt lat="46.35391" lon="6.04924">
        <ele>902.6</ele>
        <time>2020-11-01T11:22:34.021Z</time>
      </trkpt>
      <trkpt lat="46.35391" lon="6.04924">
        <ele>902.6</ele>
        <time>2020-11-01T11:22:35.022Z</time>
      </trkpt>
      <trkpt lat="46.35388" lon="6.0492">
        <ele>903</ele>
        <time>2020-11-01T11:22:36.022Z</time>
      </trkpt>
      <trkpt lat="46.35388" lon="6.0492">
        <ele>903</ele>
        <time>2020-11-01T11:22:37.022Z</time>
      </trkpt>
      <trkpt lat="46.35385" lon="6.04917">
        <ele>903.2</ele>
        <time>2020-11-01T11:22:38.021Z</time>
      </trkpt>
      <trkpt lat="46.35382" lon="6.04913">
        <ele>903.6</ele>
        <time>2020-11-01T11:22:39.021Z</time>
      </trkpt>
      <trkpt lat="46.35382" lon="6.04913">
        <ele>903.6</ele>
        <time>2020-11-01T11:22:40.022Z</time>
      </trkpt>
      <trkpt lat="46.35379" lon="6.0491">
        <ele>903.8</ele>
        <time>2020-11-01T11:22:41.022Z</time>
      </trkpt>
      <trkpt lat="46.35375" lon="6.04907">
        <ele>904.2</ele>
        <time>2020-11-01T11:22:42.023Z</time>
      </trkpt>
      <trkpt lat="46.35375" lon="6.04907">
        <ele>904.2</ele>
        <time>2020-11-01T11:22:43.02Z</time>
      </trkpt>
      <trkpt lat="46.35372" lon="6.04904">
        <ele>904.4</ele>
        <time>2020-11-01T11:22:44.022Z</time>
      </trkpt>
      <trkpt lat="46.35369" lon="6.04901">
        <ele>904.6</ele>
        <time>2020-11-01T11:22:45.021Z</time>
      </trkpt>
      <trkpt lat="46.35369" lon="6.04901">
        <ele>904.6</ele>
        <time>2020-11-01T11:22:46.022Z</time>
      </trkpt>
      <trkpt lat="46.35366" lon="6.04897">
        <ele>904.8</ele>
        <time>2020-11-01T11:22:47.02Z</time>
      </trkpt>
      <trkpt lat="46.35366" lon="6.04897">
        <ele>904.8</ele>
        <time>2020-11-01T11:22:48.022Z</time>
      </trkpt>
      <trkpt lat="46.35363" lon="6.04893">
        <ele>905</ele>
        <time>2020-11-01T11:22:49.021Z</time>
      </trkpt>
      <trkpt lat="46.3536" lon="6.0489">
        <ele>905.2</ele>
        <time>2020-11-01T11:22:50.021Z</time>
      </trkpt>
      <trkpt lat="46.3536" lon="6.0489">
        <ele>905.2</ele>
        <time>2020-11-01T11:22:51.021Z</time>
      </trkpt>
      <trkpt lat="46.35358" lon="6.04885">
        <ele>905.4</ele>
        <time>2020-11-01T11:22:52.026Z</time>
      </trkpt>
      <trkpt lat="46.35358" lon="6.04885">
        <ele>905.4</ele>
        <time>2020-11-01T11:22:53.021Z</time>
      </trkpt>
      <trkpt lat="46.35356" lon="6.0488">
        <ele>905.8</ele>
        <time>2020-11-01T11:22:54.023Z</time>
      </trkpt>
      <trkpt lat="46.35355" lon="6.04875">
        <ele>905.8</ele>
        <time>2020-11-01T11:22:55.021Z</time>
      </trkpt>
      <trkpt lat="46.35353" lon="6.0487">
        <ele>906.2</ele>
        <time>2020-11-01T11:22:56.022Z</time>
      </trkpt>
      <trkpt lat="46.35353" lon="6.0487">
        <ele>906.2</ele>
        <time>2020-11-01T11:22:57.022Z</time>
      </trkpt>
      <trkpt lat="46.35352" lon="6.04865">
        <ele>906.4</ele>
        <time>2020-11-01T11:22:58.02Z</time>
      </trkpt>
      <trkpt lat="46.35352" lon="6.04865">
        <ele>906.4</ele>
        <time>2020-11-01T11:22:59.02Z</time>
      </trkpt>
      <trkpt lat="46.35351" lon="6.0486">
        <ele>906.6</ele>
        <time>2020-11-01T11:23:00.021Z</time>
      </trkpt>
      <trkpt lat="46.3535" lon="6.04854">
        <ele>906.8</ele>
        <time>2020-11-01T11:23:01.022Z</time>
      </trkpt>
      <trkpt lat="46.3535" lon="6.04854">
        <ele>906.8</ele>
        <time>2020-11-01T11:23:02.021Z</time>
      </trkpt>
      <trkpt lat="46.35349" lon="6.04849">
        <ele>907.2</ele>
        <time>2020-11-01T11:23:03.021Z</time>
      </trkpt>
      <trkpt lat="46.35348" lon="6.04844">
        <ele>907.4</ele>
        <time>2020-11-01T11:23:04.022Z</time>
      </trkpt>
      <trkpt lat="46.35348" lon="6.04844">
        <ele>907.4</ele>
        <time>2020-11-01T11:23:05.02Z</time>
      </trkpt>
      <trkpt lat="46.35346" lon="6.04839">
        <ele>907.6</ele>
        <time>2020-11-01T11:23:06.02Z</time>
      </trkpt>
      <trkpt lat="46.35345" lon="6.04834">
        <ele>907.8</ele>
        <time>2020-11-01T11:23:07.021Z</time>
      </trkpt>
      <trkpt lat="46.35343" lon="6.0483">
        <ele>908.2</ele>
        <time>2020-11-01T11:23:08.021Z</time>
      </trkpt>
      <trkpt lat="46.35343" lon="6.0483">
        <ele>908.2</ele>
        <time>2020-11-01T11:23:09.022Z</time>
      </trkpt>
      <trkpt lat="46.35341" lon="6.04825">
        <ele>908.2</ele>
        <time>2020-11-01T11:23:10.022Z</time>
      </trkpt>
      <trkpt lat="46.35341" lon="6.04825">
        <ele>908.2</ele>
        <time>2020-11-01T11:23:11.021Z</time>
      </trkpt>
      <trkpt lat="46.35339" lon="6.04821">
        <ele>908.8</ele>
        <time>2020-11-01T11:23:12.021Z</time>
      </trkpt>
      <trkpt lat="46.35336" lon="6.04817">
        <ele>909.4</ele>
        <time>2020-11-01T11:23:13.021Z</time>
      </trkpt>
      <trkpt lat="46.35336" lon="6.04817">
        <ele>909.4</ele>
        <time>2020-11-01T11:23:14.021Z</time>
      </trkpt>
      <trkpt lat="46.35334" lon="6.04812">
        <ele>909.8</ele>
        <time>2020-11-01T11:23:15.022Z</time>
      </trkpt>
      <trkpt lat="46.35332" lon="6.04808">
        <ele>910</ele>
        <time>2020-11-01T11:23:16.02Z</time>
      </trkpt>
      <trkpt lat="46.35332" lon="6.04808">
        <ele>910</ele>
        <time>2020-11-01T11:23:17.02Z</time>
      </trkpt>
      <trkpt lat="46.3533" lon="6.04804">
        <ele>910.4</ele>
        <time>2020-11-01T11:23:18.022Z</time>
      </trkpt>
      <trkpt lat="46.35327" lon="6.048">
        <ele>910.6</ele>
        <time>2020-11-01T11:23:19.021Z</time>
      </trkpt>
      <trkpt lat="46.35327" lon="6.048">
        <ele>910.6</ele>
        <time>2020-11-01T11:23:20.021Z</time>
      </trkpt>
      <trkpt lat="46.35325" lon="6.04796">
        <ele>911</ele>
        <time>2020-11-01T11:23:21.021Z</time>
      </trkpt>
      <trkpt lat="46.35322" lon="6.04793">
        <ele>911.2</ele>
        <time>2020-11-01T11:23:22.021Z</time>
      </trkpt>
      <trkpt lat="46.35322" lon="6.04793">
        <ele>911.2</ele>
        <time>2020-11-01T11:23:23.021Z</time>
      </trkpt>
      <trkpt lat="46.35318" lon="6.0479">
        <ele>911</ele>
        <time>2020-11-01T11:23:24.02Z</time>
      </trkpt>
      <trkpt lat="46.35318" lon="6.0479">
        <ele>911</ele>
        <time>2020-11-01T11:23:25.02Z</time>
      </trkpt>
      <trkpt lat="46.35314" lon="6.04787">
        <ele>911.2</ele>
        <time>2020-11-01T11:23:26.023Z</time>
      </trkpt>
      <trkpt lat="46.3531" lon="6.04785">
        <ele>911.4</ele>
        <time>2020-11-01T11:23:27.02Z</time>
      </trkpt>
      <trkpt lat="46.3531" lon="6.04785">
        <ele>911.4</ele>
        <time>2020-11-01T11:23:28.02Z</time>
      </trkpt>
      <trkpt lat="46.35307" lon="6.04782">
        <ele>911.8</ele>
        <time>2020-11-01T11:23:29.021Z</time>
      </trkpt>
      <trkpt lat="46.35307" lon="6.04782">
        <ele>911.8</ele>
        <time>2020-11-01T11:23:30.023Z</time>
      </trkpt>
      <trkpt lat="46.35303" lon="6.04779">
        <ele>912</ele>
        <time>2020-11-01T11:23:31.021Z</time>
      </trkpt>
      <trkpt lat="46.35299" lon="6.04777">
        <ele>912.2</ele>
        <time>2020-11-01T11:23:32.021Z</time>
      </trkpt>
      <trkpt lat="46.35299" lon="6.04777">
        <ele>912.2</ele>
        <time>2020-11-01T11:23:33.023Z</time>
      </trkpt>
      <trkpt lat="46.35295" lon="6.04774">
        <ele>912.6</ele>
        <time>2020-11-01T11:23:34.021Z</time>
      </trkpt>
      <trkpt lat="46.35295" lon="6.04774">
        <ele>912.6</ele>
        <time>2020-11-01T11:23:35.022Z</time>
      </trkpt>
      <trkpt lat="46.35292" lon="6.04772">
        <ele>912.8</ele>
        <time>2020-11-01T11:23:36.02Z</time>
      </trkpt>
      <trkpt lat="46.35288" lon="6.04769">
        <ele>913</ele>
        <time>2020-11-01T11:23:37.02Z</time>
      </trkpt>
      <trkpt lat="46.35288" lon="6.04769">
        <ele>913</ele>
        <time>2020-11-01T11:23:38.021Z</time>
      </trkpt>
      <trkpt lat="46.35285" lon="6.04765">
        <ele>913.2</ele>
        <time>2020-11-01T11:23:39.023Z</time>
      </trkpt>
      <trkpt lat="46.35282" lon="6.04762">
        <ele>913.4</ele>
        <time>2020-11-01T11:23:40.02Z</time>
      </trkpt>
      <trkpt lat="46.35282" lon="6.04762">
        <ele>913.4</ele>
        <time>2020-11-01T11:23:41.022Z</time>
      </trkpt>
      <trkpt lat="46.35279" lon="6.04759">
        <ele>913.6</ele>
        <time>2020-11-01T11:23:42.02Z</time>
      </trkpt>
      <trkpt lat="46.35275" lon="6.04756">
        <ele>913.8</ele>
        <time>2020-11-01T11:23:43.021Z</time>
      </trkpt>
      <trkpt lat="46.35275" lon="6.04756">
        <ele>913.8</ele>
        <time>2020-11-01T11:23:44.021Z</time>
      </trkpt>
      <trkpt lat="46.35272" lon="6.04753">
        <ele>914</ele>
        <time>2020-11-01T11:23:45.02Z</time>
      </trkpt>
      <trkpt lat="46.35269" lon="6.04749">
        <ele>914.2</ele>
        <time>2020-11-01T11:23:46.02Z</time>
      </trkpt>
      <trkpt lat="46.35269" lon="6.04749">
        <ele>914.2</ele>
        <time>2020-11-01T11:23:47.02Z</time>
      </trkpt>
      <trkpt lat="46.35267" lon="6.04745">
        <ele>914.2</ele>
        <time>2020-11-01T11:23:48.021Z</time>
      </trkpt>
      <trkpt lat="46.35267" lon="6.04745">
        <ele>914.2</ele>
        <time>2020-11-01T11:23:49.021Z</time>
      </trkpt>
      <trkpt lat="46.35264" lon="6.04741">
        <ele>914.4</ele>
        <time>2020-11-01T11:23:50.022Z</time>
      </trkpt>
      <trkpt lat="46.35261" lon="6.04737">
        <ele>914.8</ele>
        <time>2020-11-01T11:23:51.02Z</time>
      </trkpt>
      <trkpt lat="46.35258" lon="6.04734">
        <ele>915</ele>
        <time>2020-11-01T11:23:52.022Z</time>
      </trkpt>
      <trkpt lat="46.35258" lon="6.04734">
        <ele>915</ele>
        <time>2020-11-01T11:23:53.02Z</time>
      </trkpt>
      <trkpt lat="46.35255" lon="6.0473">
        <ele>915.4</ele>
        <time>2020-11-01T11:23:54.021Z</time>
      </trkpt>
      <trkpt lat="46.35253" lon="6.04727">
        <ele>915.6</ele>
        <time>2020-11-01T11:23:55.021Z</time>
      </trkpt>
      <trkpt lat="46.35253" lon="6.04727">
        <ele>915.6</ele>
        <time>2020-11-01T11:23:56.022Z</time>
      </trkpt>
      <trkpt lat="46.3525" lon="6.04723">
        <ele>916</ele>
        <time>2020-11-01T11:23:57.022Z</time>
      </trkpt>
      <trkpt lat="46.3525" lon="6.04723">
        <ele>916</ele>
        <time>2020-11-01T11:23:58.02Z</time>
      </trkpt>
      <trkpt lat="46.35247" lon="6.04719">
        <ele>916.4</ele>
        <time>2020-11-01T11:23:59.02Z</time>
      </trkpt>
      <trkpt lat="46.35245" lon="6.04715">
        <ele>916.8</ele>
        <time>2020-11-01T11:24:00.024Z</time>
      </trkpt>
      <trkpt lat="46.35245" lon="6.04715">
        <ele>916.8</ele>
        <time>2020-11-01T11:24:01.022Z</time>
      </trkpt>
      <trkpt lat="46.35242" lon="6.04711">
        <ele>917</ele>
        <time>2020-11-01T11:24:02.021Z</time>
      </trkpt>
      <trkpt lat="46.3524" lon="6.04707">
        <ele>917.4</ele>
        <time>2020-11-01T11:24:03.02Z</time>
      </trkpt>
      <trkpt lat="46.3524" lon="6.04707">
        <ele>917.4</ele>
        <time>2020-11-01T11:24:04.02Z</time>
      </trkpt>
      <trkpt lat="46.35238" lon="6.04702">
        <ele>917.4</ele>
        <time>2020-11-01T11:24:05.022Z</time>
      </trkpt>
      <trkpt lat="46.35236" lon="6.04698">
        <ele>917.6</ele>
        <time>2020-11-01T11:24:06.022Z</time>
      </trkpt>
      <trkpt lat="46.35236" lon="6.04698">
        <ele>917.6</ele>
        <time>2020-11-01T11:24:07.021Z</time>
      </trkpt>
      <trkpt lat="46.35235" lon="6.04693">
        <ele>917.8</ele>
        <time>2020-11-01T11:24:08.021Z</time>
      </trkpt>
      <trkpt lat="46.35232" lon="6.04689">
        <ele>918.2</ele>
        <time>2020-11-01T11:24:09.021Z</time>
      </trkpt>
      <trkpt lat="46.35232" lon="6.04689">
        <ele>918.2</ele>
        <time>2020-11-01T11:24:10.022Z</time>
      </trkpt>
      <trkpt lat="46.3523" lon="6.04685">
        <ele>918.4</ele>
        <time>2020-11-01T11:24:11.021Z</time>
      </trkpt>
      <trkpt lat="46.35228" lon="6.04681">
        <ele>918.4</ele>
        <time>2020-11-01T11:24:12.02Z</time>
      </trkpt>
      <trkpt lat="46.35228" lon="6.04681">
        <ele>918.4</ele>
        <time>2020-11-01T11:24:13.021Z</time>
      </trkpt>
      <trkpt lat="46.35226" lon="6.04676">
        <ele>918.6</ele>
        <time>2020-11-01T11:24:14.022Z</time>
      </trkpt>
      <trkpt lat="46.35224" lon="6.04672">
        <ele>918.8</ele>
        <time>2020-11-01T11:24:15.022Z</time>
      </trkpt>
      <trkpt lat="46.35224" lon="6.04672">
        <ele>918.8</ele>
        <time>2020-11-01T11:24:16.021Z</time>
      </trkpt>
      <trkpt lat="46.35222" lon="6.04667">
        <ele>919</ele>
        <time>2020-11-01T11:24:17.023Z</time>
      </trkpt>
      <trkpt lat="46.35222" lon="6.04667">
        <ele>919</ele>
        <time>2020-11-01T11:24:18.021Z</time>
      </trkpt>
      <trkpt lat="46.3522" lon="6.04663">
        <ele>919.2</ele>
        <time>2020-11-01T11:24:19.022Z</time>
      </trkpt>
      <trkpt lat="46.35218" lon="6.04658">
        <ele>919.6</ele>
        <time>2020-11-01T11:24:20.021Z</time>
      </trkpt>
      <trkpt lat="46.35218" lon="6.04658">
        <ele>919.6</ele>
        <time>2020-11-01T11:24:21.022Z</time>
      </trkpt>
      <trkpt lat="46.35216" lon="6.04654">
        <ele>919.8</ele>
        <time>2020-11-01T11:24:22.022Z</time>
      </trkpt>
      <trkpt lat="46.35214" lon="6.04649">
        <ele>920</ele>
        <time>2020-11-01T11:24:23.02Z</time>
      </trkpt>
      <trkpt lat="46.35214" lon="6.04649">
        <ele>920</ele>
        <time>2020-11-01T11:24:24.02Z</time>
      </trkpt>
      <trkpt lat="46.35212" lon="6.04645">
        <ele>920.2</ele>
        <time>2020-11-01T11:24:25.021Z</time>
      </trkpt>
      <trkpt lat="46.3521" lon="6.04642">
        <ele>920.6</ele>
        <time>2020-11-01T11:24:26.022Z</time>
      </trkpt>
      <trkpt lat="46.3521" lon="6.04642">
        <ele>920.6</ele>
        <time>2020-11-01T11:24:27.022Z</time>
      </trkpt>
      <trkpt lat="46.35207" lon="6.04638">
        <ele>920.8</ele>
        <time>2020-11-01T11:24:28.02Z</time>
      </trkpt>
      <trkpt lat="46.35205" lon="6.04633">
        <ele>921</ele>
        <time>2020-11-01T11:24:29.021Z</time>
      </trkpt>
      <trkpt lat="46.35205" lon="6.04633">
        <ele>921</ele>
        <time>2020-11-01T11:24:30.021Z</time>
      </trkpt>
      <trkpt lat="46.35203" lon="6.04629">
        <ele>921.2</ele>
        <time>2020-11-01T11:24:31.021Z</time>
      </trkpt>
      <trkpt lat="46.352" lon="6.04624">
        <ele>921.4</ele>
        <time>2020-11-01T11:24:32.021Z</time>
      </trkpt>
      <trkpt lat="46.352" lon="6.04624">
        <ele>921.4</ele>
        <time>2020-11-01T11:24:33.021Z</time>
      </trkpt>
      <trkpt lat="46.35198" lon="6.0462">
        <ele>921.8</ele>
        <time>2020-11-01T11:24:34.023Z</time>
      </trkpt>
      <trkpt lat="46.35198" lon="6.0462">
        <ele>921.8</ele>
        <time>2020-11-01T11:24:35.021Z</time>
      </trkpt>
      <trkpt lat="46.35196" lon="6.04615">
        <ele>922</ele>
        <time>2020-11-01T11:24:36.022Z</time>
      </trkpt>
      <trkpt lat="46.35194" lon="6.0461">
        <ele>922.2</ele>
        <time>2020-11-01T11:24:37.021Z</time>
      </trkpt>
      <trkpt lat="46.35194" lon="6.0461">
        <ele>922.2</ele>
        <time>2020-11-01T11:24:38.021Z</time>
      </trkpt>
      <trkpt lat="46.35191" lon="6.04606">
        <ele>922.4</ele>
        <time>2020-11-01T11:24:39.021Z</time>
      </trkpt>
      <trkpt lat="46.35191" lon="6.04606">
        <ele>922.4</ele>
        <time>2020-11-01T11:24:40.021Z</time>
      </trkpt>
      <trkpt lat="46.35189" lon="6.04601">
        <ele>922.8</ele>
        <time>2020-11-01T11:24:41.021Z</time>
      </trkpt>
      <trkpt lat="46.35187" lon="6.04597">
        <ele>923</ele>
        <time>2020-11-01T11:24:42.021Z</time>
      </trkpt>
      <trkpt lat="46.35187" lon="6.04597">
        <ele>923</ele>
        <time>2020-11-01T11:24:43.02Z</time>
      </trkpt>
      <trkpt lat="46.35186" lon="6.04592">
        <ele>923.2</ele>
        <time>2020-11-01T11:24:44.021Z</time>
      </trkpt>
      <trkpt lat="46.35184" lon="6.04588">
        <ele>923.8</ele>
        <time>2020-11-01T11:24:45.022Z</time>
      </trkpt>
      <trkpt lat="46.35184" lon="6.04588">
        <ele>923.8</ele>
        <time>2020-11-01T11:24:46.02Z</time>
      </trkpt>
      <trkpt lat="46.35183" lon="6.04583">
        <ele>923.8</ele>
        <time>2020-11-01T11:24:47.021Z</time>
      </trkpt>
      <trkpt lat="46.35181" lon="6.04579">
        <ele>924</ele>
        <time>2020-11-01T11:24:48.021Z</time>
      </trkpt>
      <trkpt lat="46.35181" lon="6.04579">
        <ele>924</ele>
        <time>2020-11-01T11:24:49.022Z</time>
      </trkpt>
      <trkpt lat="46.35179" lon="6.04574">
        <ele>924.2</ele>
        <time>2020-11-01T11:24:50.02Z</time>
      </trkpt>
      <trkpt lat="46.35178" lon="6.0457">
        <ele>924.4</ele>
        <time>2020-11-01T11:24:51.02Z</time>
      </trkpt>
      <trkpt lat="46.35176" lon="6.04565">
        <ele>924.6</ele>
        <time>2020-11-01T11:24:52.022Z</time>
      </trkpt>
      <trkpt lat="46.35176" lon="6.04565">
        <ele>924.6</ele>
        <time>2020-11-01T11:24:53.022Z</time>
      </trkpt>
      <trkpt lat="46.35174" lon="6.04561">
        <ele>924.6</ele>
        <time>2020-11-01T11:24:54.02Z</time>
      </trkpt>
      <trkpt lat="46.35173" lon="6.04556">
        <ele>925</ele>
        <time>2020-11-01T11:24:55.02Z</time>
      </trkpt>
      <trkpt lat="46.35173" lon="6.04556">
        <ele>925</ele>
        <time>2020-11-01T11:24:56.021Z</time>
      </trkpt>
      <trkpt lat="46.35171" lon="6.04552">
        <ele>925.2</ele>
        <time>2020-11-01T11:24:57.021Z</time>
      </trkpt>
      <trkpt lat="46.3517" lon="6.04547">
        <ele>925.4</ele>
        <time>2020-11-01T11:24:58.021Z</time>
      </trkpt>
      <trkpt lat="46.3517" lon="6.04547">
        <ele>925.4</ele>
        <time>2020-11-01T11:24:59.021Z</time>
      </trkpt>
      <trkpt lat="46.35169" lon="6.04543">
        <ele>925.6</ele>
        <time>2020-11-01T11:25:00.021Z</time>
      </trkpt>
      <trkpt lat="46.35167" lon="6.04538">
        <ele>925.8</ele>
        <time>2020-11-01T11:25:01.022Z</time>
      </trkpt>
      <trkpt lat="46.35167" lon="6.04538">
        <ele>925.8</ele>
        <time>2020-11-01T11:25:02.022Z</time>
      </trkpt>
      <trkpt lat="46.35165" lon="6.04533">
        <ele>926</ele>
        <time>2020-11-01T11:25:03.021Z</time>
      </trkpt>
      <trkpt lat="46.35164" lon="6.04529">
        <ele>926.2</ele>
        <time>2020-11-01T11:25:04.022Z</time>
      </trkpt>
      <trkpt lat="46.35162" lon="6.04525">
        <ele>926.4</ele>
        <time>2020-11-01T11:25:05.021Z</time>
      </trkpt>
      <trkpt lat="46.35162" lon="6.04525">
        <ele>926.4</ele>
        <time>2020-11-01T11:25:06.021Z</time>
      </trkpt>
      <trkpt lat="46.3516" lon="6.0452">
        <ele>926.4</ele>
        <time>2020-11-01T11:25:07.02Z</time>
      </trkpt>
      <trkpt lat="46.35159" lon="6.04516">
        <ele>926.6</ele>
        <time>2020-11-01T11:25:08.022Z</time>
      </trkpt>
      <trkpt lat="46.35159" lon="6.04516">
        <ele>926.6</ele>
        <time>2020-11-01T11:25:09.021Z</time>
      </trkpt>
      <trkpt lat="46.35157" lon="6.04511">
        <ele>926.8</ele>
        <time>2020-11-01T11:25:10.021Z</time>
      </trkpt>
      <trkpt lat="46.35156" lon="6.04507">
        <ele>927.2</ele>
        <time>2020-11-01T11:25:11.023Z</time>
      </trkpt>
      <trkpt lat="46.35156" lon="6.04507">
        <ele>927.2</ele>
        <time>2020-11-01T11:25:12.021Z</time>
      </trkpt>
      <trkpt lat="46.35154" lon="6.04502">
        <ele>927.8</ele>
        <time>2020-11-01T11:25:13.02Z</time>
      </trkpt>
      <trkpt lat="46.35152" lon="6.04498">
        <ele>928</ele>
        <time>2020-11-01T11:25:14.021Z</time>
      </trkpt>
      <trkpt lat="46.35152" lon="6.04498">
        <ele>928</ele>
        <time>2020-11-01T11:25:15.021Z</time>
      </trkpt>
      <trkpt lat="46.35151" lon="6.04494">
        <ele>928.4</ele>
        <time>2020-11-01T11:25:16.021Z</time>
      </trkpt>
      <trkpt lat="46.35149" lon="6.04489">
        <ele>928.8</ele>
        <time>2020-11-01T11:25:17.023Z</time>
      </trkpt>
      <trkpt lat="46.35149" lon="6.04489">
        <ele>928.8</ele>
        <time>2020-11-01T11:25:18.021Z</time>
      </trkpt>
      <trkpt lat="46.35147" lon="6.04484">
        <ele>929.2</ele>
        <time>2020-11-01T11:25:19.021Z</time>
      </trkpt>
      <trkpt lat="46.35145" lon="6.0448">
        <ele>929.6</ele>
        <time>2020-11-01T11:25:20.02Z</time>
      </trkpt>
      <trkpt lat="46.35145" lon="6.0448">
        <ele>929.6</ele>
        <time>2020-11-01T11:25:21.023Z</time>
      </trkpt>
      <trkpt lat="46.35143" lon="6.04475">
        <ele>929.8</ele>
        <time>2020-11-01T11:25:22.022Z</time>
      </trkpt>
      <trkpt lat="46.35141" lon="6.04471">
        <ele>930.2</ele>
        <time>2020-11-01T11:25:23.022Z</time>
      </trkpt>
      <trkpt lat="46.35141" lon="6.04471">
        <ele>930.2</ele>
        <time>2020-11-01T11:25:24.02Z</time>
      </trkpt>
      <trkpt lat="46.35138" lon="6.04467">
        <ele>930.4</ele>
        <time>2020-11-01T11:25:25.021Z</time>
      </trkpt>
      <trkpt lat="46.35135" lon="6.04463">
        <ele>930.6</ele>
        <time>2020-11-01T11:25:26.022Z</time>
      </trkpt>
      <trkpt lat="46.35135" lon="6.04463">
        <ele>930.6</ele>
        <time>2020-11-01T11:25:27.02Z</time>
      </trkpt>
      <trkpt lat="46.35133" lon="6.04459">
        <ele>931</ele>
        <time>2020-11-01T11:25:28.02Z</time>
      </trkpt>
      <trkpt lat="46.35133" lon="6.04459">
        <ele>931</ele>
        <time>2020-11-01T11:25:29.021Z</time>
      </trkpt>
      <trkpt lat="46.3513" lon="6.04455">
        <ele>931.4</ele>
        <time>2020-11-01T11:25:30.02Z</time>
      </trkpt>
      <trkpt lat="46.35128" lon="6.04451">
        <ele>931.4</ele>
        <time>2020-11-01T11:25:31.021Z</time>
      </trkpt>
      <trkpt lat="46.35128" lon="6.04451">
        <ele>931.4</ele>
        <time>2020-11-01T11:25:32.021Z</time>
      </trkpt>
      <trkpt lat="46.35125" lon="6.04447">
        <ele>931.6</ele>
        <time>2020-11-01T11:25:33.02Z</time>
      </trkpt>
      <trkpt lat="46.35123" lon="6.04443">
        <ele>932</ele>
        <time>2020-11-01T11:25:34.023Z</time>
      </trkpt>
      <trkpt lat="46.35123" lon="6.04443">
        <ele>932</ele>
        <time>2020-11-01T11:25:35.021Z</time>
      </trkpt>
      <trkpt lat="46.3512" lon="6.04439">
        <ele>932.4</ele>
        <time>2020-11-01T11:25:36.022Z</time>
      </trkpt>
      <trkpt lat="46.35117" lon="6.04435">
        <ele>932.6</ele>
        <time>2020-11-01T11:25:37.02Z</time>
      </trkpt>
      <trkpt lat="46.35117" lon="6.04435">
        <ele>932.6</ele>
        <time>2020-11-01T11:25:38.023Z</time>
      </trkpt>
      <trkpt lat="46.35115" lon="6.04431">
        <ele>932.8</ele>
        <time>2020-11-01T11:25:39.02Z</time>
      </trkpt>
      <trkpt lat="46.35115" lon="6.04431">
        <ele>932.8</ele>
        <time>2020-11-01T11:25:40.022Z</time>
      </trkpt>
      <trkpt lat="46.35112" lon="6.04427">
        <ele>933.2</ele>
        <time>2020-11-01T11:25:41.021Z</time>
      </trkpt>
      <trkpt lat="46.35109" lon="6.04423">
        <ele>933.4</ele>
        <time>2020-11-01T11:25:42.021Z</time>
      </trkpt>
      <trkpt lat="46.35109" lon="6.04423">
        <ele>933.4</ele>
        <time>2020-11-01T11:25:43.022Z</time>
      </trkpt>
      <trkpt lat="46.35106" lon="6.04419">
        <ele>933.6</ele>
        <time>2020-11-01T11:25:44.021Z</time>
      </trkpt>
      <trkpt lat="46.35103" lon="6.04415">
        <ele>933.8</ele>
        <time>2020-11-01T11:25:45.021Z</time>
      </trkpt>
      <trkpt lat="46.35103" lon="6.04415">
        <ele>933.8</ele>
        <time>2020-11-01T11:25:46.021Z</time>
      </trkpt>
      <trkpt lat="46.351" lon="6.04411">
        <ele>934</ele>
        <time>2020-11-01T11:25:47.021Z</time>
      </trkpt>
      <trkpt lat="46.351" lon="6.04411">
        <ele>934</ele>
        <time>2020-11-01T11:25:48.021Z</time>
      </trkpt>
      <trkpt lat="46.35097" lon="6.04408">
        <ele>934.4</ele>
        <time>2020-11-01T11:25:49.022Z</time>
      </trkpt>
      <trkpt lat="46.35094" lon="6.04404">
        <ele>934.6</ele>
        <time>2020-11-01T11:25:50.02Z</time>
      </trkpt>
      <trkpt lat="46.35094" lon="6.04404">
        <ele>934.6</ele>
        <time>2020-11-01T11:25:51.021Z</time>
      </trkpt>
      <trkpt lat="46.35091" lon="6.044">
        <ele>934.6</ele>
        <time>2020-11-01T11:25:52.021Z</time>
      </trkpt>
      <trkpt lat="46.35091" lon="6.044">
        <ele>934.6</ele>
        <time>2020-11-01T11:25:53.022Z</time>
      </trkpt>
      <trkpt lat="46.35088" lon="6.04397">
        <ele>934.8</ele>
        <time>2020-11-01T11:25:54.02Z</time>
      </trkpt>
      <trkpt lat="46.35085" lon="6.04393">
        <ele>934.8</ele>
        <time>2020-11-01T11:25:55.021Z</time>
      </trkpt>
      <trkpt lat="46.35085" lon="6.04393">
        <ele>934.8</ele>
        <time>2020-11-01T11:25:56.021Z</time>
      </trkpt>
      <trkpt lat="46.35082" lon="6.04389">
        <ele>935</ele>
        <time>2020-11-01T11:25:57.021Z</time>
      </trkpt>
      <trkpt lat="46.35082" lon="6.04389">
        <ele>935</ele>
        <time>2020-11-01T11:25:58.02Z</time>
      </trkpt>
      <trkpt lat="46.35079" lon="6.04384">
        <ele>935.2</ele>
        <time>2020-11-01T11:25:59.02Z</time>
      </trkpt>
      <trkpt lat="46.35077" lon="6.0438">
        <ele>935.4</ele>
        <time>2020-11-01T11:26:00.022Z</time>
      </trkpt>
      <trkpt lat="46.35077" lon="6.0438">
        <ele>935.4</ele>
        <time>2020-11-01T11:26:01.021Z</time>
      </trkpt>
      <trkpt lat="46.35075" lon="6.04374">
        <ele>935.8</ele>
        <time>2020-11-01T11:26:02.021Z</time>
      </trkpt>
      <trkpt lat="46.35075" lon="6.04374">
        <ele>935.8</ele>
        <time>2020-11-01T11:26:03.022Z</time>
      </trkpt>
      <trkpt lat="46.35074" lon="6.04368">
        <ele>936</ele>
        <time>2020-11-01T11:26:04.021Z</time>
      </trkpt>
      <trkpt lat="46.35074" lon="6.04368">
        <ele>936</ele>
        <time>2020-11-01T11:26:05.022Z</time>
      </trkpt>
      <trkpt lat="46.35074" lon="6.04368">
        <ele>936</ele>
        <time>2020-11-01T11:26:06.022Z</time>
      </trkpt>
      <trkpt lat="46.35075" lon="6.04358">
        <ele>936.6</ele>
        <time>2020-11-01T11:26:07.02Z</time>
      </trkpt>
      <trkpt lat="46.35077" lon="6.04354">
        <ele>936.8</ele>
        <time>2020-11-01T11:26:08.021Z</time>
      </trkpt>
      <trkpt lat="46.35077" lon="6.04354">
        <ele>936.8</ele>
        <time>2020-11-01T11:26:09.021Z</time>
      </trkpt>
      <trkpt lat="46.3508" lon="6.04352">
        <ele>937</ele>
        <time>2020-11-01T11:26:10.022Z</time>
      </trkpt>
      <trkpt lat="46.35083" lon="6.04352">
        <ele>937.4</ele>
        <time>2020-11-01T11:26:11.021Z</time>
      </trkpt>
      <trkpt lat="46.35087" lon="6.04352">
        <ele>937.6</ele>
        <time>2020-11-01T11:26:12.02Z</time>
      </trkpt>
      <trkpt lat="46.35087" lon="6.04352">
        <ele>937.6</ele>
        <time>2020-11-01T11:26:13.021Z</time>
      </trkpt>
      <trkpt lat="46.3509" lon="6.04354">
        <ele>937.8</ele>
        <time>2020-11-01T11:26:14.021Z</time>
      </trkpt>
      <trkpt lat="46.35094" lon="6.04356">
        <ele>938.2</ele>
        <time>2020-11-01T11:26:15.021Z</time>
      </trkpt>
      <trkpt lat="46.35094" lon="6.04356">
        <ele>938.2</ele>
        <time>2020-11-01T11:26:16.02Z</time>
      </trkpt>
      <trkpt lat="46.35097" lon="6.04358">
        <ele>938.6</ele>
        <time>2020-11-01T11:26:17.021Z</time>
      </trkpt>
      <trkpt lat="46.351" lon="6.04361">
        <ele>939</ele>
        <time>2020-11-01T11:26:18.021Z</time>
      </trkpt>
      <trkpt lat="46.351" lon="6.04361">
        <ele>939</ele>
        <time>2020-11-01T11:26:19.021Z</time>
      </trkpt>
      <trkpt lat="46.35103" lon="6.04363">
        <ele>939.2</ele>
        <time>2020-11-01T11:26:20.021Z</time>
      </trkpt>
      <trkpt lat="46.35105" lon="6.04367">
        <ele>939.4</ele>
        <time>2020-11-01T11:26:21.022Z</time>
      </trkpt>
      <trkpt lat="46.35105" lon="6.04367">
        <ele>939.4</ele>
        <time>2020-11-01T11:26:22.022Z</time>
      </trkpt>
      <trkpt lat="46.35108" lon="6.0437">
        <ele>939.6</ele>
        <time>2020-11-01T11:26:23.022Z</time>
      </trkpt>
      <trkpt lat="46.35108" lon="6.0437">
        <ele>939.6</ele>
        <time>2020-11-01T11:26:24.02Z</time>
      </trkpt>
      <trkpt lat="46.35111" lon="6.04373">
        <ele>939.8</ele>
        <time>2020-11-01T11:26:25.021Z</time>
      </trkpt>
      <trkpt lat="46.35114" lon="6.04377">
        <ele>940</ele>
        <time>2020-11-01T11:26:26.022Z</time>
      </trkpt>
      <trkpt lat="46.35114" lon="6.04377">
        <ele>940</ele>
        <time>2020-11-01T11:26:27.022Z</time>
      </trkpt>
      <trkpt lat="46.35117" lon="6.0438">
        <ele>940.2</ele>
        <time>2020-11-01T11:26:28.02Z</time>
      </trkpt>
      <trkpt lat="46.35119" lon="6.04384">
        <ele>940.4</ele>
        <time>2020-11-01T11:26:29.022Z</time>
      </trkpt>
      <trkpt lat="46.35119" lon="6.04384">
        <ele>940.4</ele>
        <time>2020-11-01T11:26:30.022Z</time>
      </trkpt>
      <trkpt lat="46.35122" lon="6.04388">
        <ele>940.8</ele>
        <time>2020-11-01T11:26:31.02Z</time>
      </trkpt>
      <trkpt lat="46.35124" lon="6.04392">
        <ele>941</ele>
        <time>2020-11-01T11:26:32.021Z</time>
      </trkpt>
      <trkpt lat="46.35124" lon="6.04392">
        <ele>941</ele>
        <time>2020-11-01T11:26:33.02Z</time>
      </trkpt>
      <trkpt lat="46.35126" lon="6.04396">
        <ele>941.2</ele>
        <time>2020-11-01T11:26:34.022Z</time>
      </trkpt>
      <trkpt lat="46.35128" lon="6.044">
        <ele>941.4</ele>
        <time>2020-11-01T11:26:35.02Z</time>
      </trkpt>
      <trkpt lat="46.35128" lon="6.044">
        <ele>941.4</ele>
        <time>2020-11-01T11:26:36.021Z</time>
      </trkpt>
      <trkpt lat="46.3513" lon="6.04404">
        <ele>941.6</ele>
        <time>2020-11-01T11:26:37.02Z</time>
      </trkpt>
      <trkpt lat="46.35132" lon="6.04409">
        <ele>941.8</ele>
        <time>2020-11-01T11:26:38.021Z</time>
      </trkpt>
      <trkpt lat="46.35132" lon="6.04409">
        <ele>941.8</ele>
        <time>2020-11-01T11:26:39.021Z</time>
      </trkpt>
      <trkpt lat="46.35134" lon="6.04414">
        <ele>942</ele>
        <time>2020-11-01T11:26:40.021Z</time>
      </trkpt>
      <trkpt lat="46.35136" lon="6.04418">
        <ele>942.2</ele>
        <time>2020-11-01T11:26:41.021Z</time>
      </trkpt>
      <trkpt lat="46.35136" lon="6.04418">
        <ele>942.2</ele>
        <time>2020-11-01T11:26:42.023Z</time>
      </trkpt>
      <trkpt lat="46.35138" lon="6.04423">
        <ele>942.4</ele>
        <time>2020-11-01T11:26:43.021Z</time>
      </trkpt>
      <trkpt lat="46.3514" lon="6.04427">
        <ele>942.8</ele>
        <time>2020-11-01T11:26:44.021Z</time>
      </trkpt>
      <trkpt lat="46.3514" lon="6.04427">
        <ele>942.8</ele>
        <time>2020-11-01T11:26:45.02Z</time>
      </trkpt>
      <trkpt lat="46.35142" lon="6.04432">
        <ele>943</ele>
        <time>2020-11-01T11:26:46.021Z</time>
      </trkpt>
      <trkpt lat="46.35144" lon="6.04436">
        <ele>943.4</ele>
        <time>2020-11-01T11:26:47.021Z</time>
      </trkpt>
      <trkpt lat="46.35144" lon="6.04436">
        <ele>943.4</ele>
        <time>2020-11-01T11:26:48.021Z</time>
      </trkpt>
      <trkpt lat="46.35146" lon="6.0444">
        <ele>943.6</ele>
        <time>2020-11-01T11:26:49.022Z</time>
      </trkpt>
      <trkpt lat="46.35148" lon="6.04444">
        <ele>943.8</ele>
        <time>2020-11-01T11:26:50.021Z</time>
      </trkpt>
      <trkpt lat="46.35148" lon="6.04444">
        <ele>943.8</ele>
        <time>2020-11-01T11:26:51.023Z</time>
      </trkpt>
      <trkpt lat="46.35151" lon="6.04448">
        <ele>944</ele>
        <time>2020-11-01T11:26:52.022Z</time>
      </trkpt>
      <trkpt lat="46.35153" lon="6.04451">
        <ele>944.2</ele>
        <time>2020-11-01T11:26:53.021Z</time>
      </trkpt>
      <trkpt lat="46.35156" lon="6.04455">
        <ele>944.4</ele>
        <time>2020-11-01T11:26:54.021Z</time>
      </trkpt>
      <trkpt lat="46.35156" lon="6.04455">
        <ele>944.4</ele>
        <time>2020-11-01T11:26:55.021Z</time>
      </trkpt>
      <trkpt lat="46.35158" lon="6.04458">
        <ele>944.6</ele>
        <time>2020-11-01T11:26:56.021Z</time>
      </trkpt>
      <trkpt lat="46.35161" lon="6.04461">
        <ele>944.8</ele>
        <time>2020-11-01T11:26:57.022Z</time>
      </trkpt>
      <trkpt lat="46.35161" lon="6.04461">
        <ele>944.8</ele>
        <time>2020-11-01T11:26:58.02Z</time>
      </trkpt>
      <trkpt lat="46.35164" lon="6.04464">
        <ele>945</ele>
        <time>2020-11-01T11:26:59.022Z</time>
      </trkpt>
      <trkpt lat="46.35167" lon="6.04466">
        <ele>945.2</ele>
        <time>2020-11-01T11:27:00.02Z</time>
      </trkpt>
      <trkpt lat="46.35167" lon="6.04466">
        <ele>945.2</ele>
        <time>2020-11-01T11:27:01.021Z</time>
      </trkpt>
      <trkpt lat="46.35171" lon="6.04468">
        <ele>945.4</ele>
        <time>2020-11-01T11:27:02.021Z</time>
      </trkpt>
      <trkpt lat="46.35174" lon="6.0447">
        <ele>945.8</ele>
        <time>2020-11-01T11:27:03.02Z</time>
      </trkpt>
      <trkpt lat="46.35174" lon="6.0447">
        <ele>945.8</ele>
        <time>2020-11-01T11:27:04.021Z</time>
      </trkpt>
      <trkpt lat="46.35177" lon="6.04472">
        <ele>946.2</ele>
        <time>2020-11-01T11:27:05.021Z</time>
      </trkpt>
      <trkpt lat="46.35181" lon="6.04474">
        <ele>946.6</ele>
        <time>2020-11-01T11:27:06.021Z</time>
      </trkpt>
      <trkpt lat="46.35184" lon="6.04475">
        <ele>946.8</ele>
        <time>2020-11-01T11:27:07.021Z</time>
      </trkpt>
      <trkpt lat="46.35184" lon="6.04475">
        <ele>946.8</ele>
        <time>2020-11-01T11:27:08.022Z</time>
      </trkpt>
      <trkpt lat="46.35187" lon="6.04477">
        <ele>947</ele>
        <time>2020-11-01T11:27:09.021Z</time>
      </trkpt>
      <trkpt lat="46.35191" lon="6.04479">
        <ele>947.2</ele>
        <time>2020-11-01T11:27:10.02Z</time>
      </trkpt>
      <trkpt lat="46.35191" lon="6.04479">
        <ele>947.2</ele>
        <time>2020-11-01T11:27:11.02Z</time>
      </trkpt>
      <trkpt lat="46.35194" lon="6.0448">
        <ele>947.6</ele>
        <time>2020-11-01T11:27:12.022Z</time>
      </trkpt>
      <trkpt lat="46.35198" lon="6.04482">
        <ele>948</ele>
        <time>2020-11-01T11:27:13.02Z</time>
      </trkpt>
      <trkpt lat="46.35198" lon="6.04482">
        <ele>948</ele>
        <time>2020-11-01T11:27:14.022Z</time>
      </trkpt>
      <trkpt lat="46.35201" lon="6.04484">
        <ele>948.4</ele>
        <time>2020-11-01T11:27:15.021Z</time>
      </trkpt>
      <trkpt lat="46.35205" lon="6.04486">
        <ele>948.6</ele>
        <time>2020-11-01T11:27:16.023Z</time>
      </trkpt>
      <trkpt lat="46.35205" lon="6.04486">
        <ele>948.6</ele>
        <time>2020-11-01T11:27:17.021Z</time>
      </trkpt>
      <trkpt lat="46.35208" lon="6.04488">
        <ele>948.8</ele>
        <time>2020-11-01T11:27:18.022Z</time>
      </trkpt>
      <trkpt lat="46.35208" lon="6.04488">
        <ele>948.8</ele>
        <time>2020-11-01T11:27:19.021Z</time>
      </trkpt>
      <trkpt lat="46.35212" lon="6.0449">
        <ele>949</ele>
        <time>2020-11-01T11:27:20.021Z</time>
      </trkpt>
      <trkpt lat="46.35215" lon="6.04493">
        <ele>949.2</ele>
        <time>2020-11-01T11:27:21.021Z</time>
      </trkpt>
      <trkpt lat="46.35215" lon="6.04493">
        <ele>949.2</ele>
        <time>2020-11-01T11:27:22.021Z</time>
      </trkpt>
      <trkpt lat="46.35218" lon="6.04496">
        <ele>949.4</ele>
        <time>2020-11-01T11:27:23.021Z</time>
      </trkpt>
      <trkpt lat="46.35221" lon="6.045">
        <ele>949.6</ele>
        <time>2020-11-01T11:27:24.02Z</time>
      </trkpt>
      <trkpt lat="46.35221" lon="6.045">
        <ele>949.6</ele>
        <time>2020-11-01T11:27:25.021Z</time>
      </trkpt>
      <trkpt lat="46.35223" lon="6.04503">
        <ele>949.8</ele>
        <time>2020-11-01T11:27:26.021Z</time>
      </trkpt>
      <trkpt lat="46.35226" lon="6.04507">
        <ele>950</ele>
        <time>2020-11-01T11:27:27.021Z</time>
      </trkpt>
      <trkpt lat="46.35226" lon="6.04507">
        <ele>950</ele>
        <time>2020-11-01T11:27:28.02Z</time>
      </trkpt>
      <trkpt lat="46.35228" lon="6.04511">
        <ele>950</ele>
        <time>2020-11-01T11:27:29.021Z</time>
      </trkpt>
      <trkpt lat="46.35228" lon="6.04511">
        <ele>950</ele>
        <time>2020-11-01T11:27:30.021Z</time>
      </trkpt>
      <trkpt lat="46.35231" lon="6.04515">
        <ele>950.2</ele>
        <time>2020-11-01T11:27:31.022Z</time>
      </trkpt>
      <trkpt lat="46.35233" lon="6.04519">
        <ele>950.4</ele>
        <time>2020-11-01T11:27:32.021Z</time>
      </trkpt>
      <trkpt lat="46.35233" lon="6.04519">
        <ele>950.4</ele>
        <time>2020-11-01T11:27:33.022Z</time>
      </trkpt>
      <trkpt lat="46.35235" lon="6.04523">
        <ele>950.6</ele>
        <time>2020-11-01T11:27:34.02Z</time>
      </trkpt>
      <trkpt lat="46.35238" lon="6.04527">
        <ele>951</ele>
        <time>2020-11-01T11:27:35.021Z</time>
      </trkpt>
      <trkpt lat="46.35238" lon="6.04527">
        <ele>951</ele>
        <time>2020-11-01T11:27:36.021Z</time>
      </trkpt>
      <trkpt lat="46.3524" lon="6.04532">
        <ele>951.2</ele>
        <time>2020-11-01T11:27:37.02Z</time>
      </trkpt>
      <trkpt lat="46.35242" lon="6.04536">
        <ele>951.6</ele>
        <time>2020-11-01T11:27:38.022Z</time>
      </trkpt>
      <trkpt lat="46.35242" lon="6.04536">
        <ele>951.6</ele>
        <time>2020-11-01T11:27:39.02Z</time>
      </trkpt>
      <trkpt lat="46.35244" lon="6.0454">
        <ele>951.8</ele>
        <time>2020-11-01T11:27:40.021Z</time>
      </trkpt>
      <trkpt lat="46.35247" lon="6.04544">
        <ele>952</ele>
        <time>2020-11-01T11:27:41.02Z</time>
      </trkpt>
      <trkpt lat="46.35247" lon="6.04544">
        <ele>952</ele>
        <time>2020-11-01T11:27:42.023Z</time>
      </trkpt>
      <trkpt lat="46.35249" lon="6.04549">
        <ele>952.2</ele>
        <time>2020-11-01T11:27:43.021Z</time>
      </trkpt>
      <trkpt lat="46.35252" lon="6.04552">
        <ele>952.6</ele>
        <time>2020-11-01T11:27:44.022Z</time>
      </trkpt>
      <trkpt lat="46.35252" lon="6.04552">
        <ele>952.6</ele>
        <time>2020-11-01T11:27:45.021Z</time>
      </trkpt>
      <trkpt lat="46.35254" lon="6.04556">
        <ele>953</ele>
        <time>2020-11-01T11:27:46.022Z</time>
      </trkpt>
      <trkpt lat="46.35257" lon="6.04559">
        <ele>953.2</ele>
        <time>2020-11-01T11:27:47.021Z</time>
      </trkpt>
      <trkpt lat="46.35257" lon="6.04559">
        <ele>953.2</ele>
        <time>2020-11-01T11:27:48.022Z</time>
      </trkpt>
      <trkpt lat="46.3526" lon="6.04563">
        <ele>953.2</ele>
        <time>2020-11-01T11:27:49.021Z</time>
      </trkpt>
      <trkpt lat="46.35262" lon="6.04566">
        <ele>953.4</ele>
        <time>2020-11-01T11:27:50.021Z</time>
      </trkpt>
      <trkpt lat="46.35262" lon="6.04566">
        <ele>953.4</ele>
        <time>2020-11-01T11:27:51.021Z</time>
      </trkpt>
      <trkpt lat="46.35265" lon="6.04569">
        <ele>953.6</ele>
        <time>2020-11-01T11:27:52.021Z</time>
      </trkpt>
      <trkpt lat="46.35268" lon="6.04572">
        <ele>953.8</ele>
        <time>2020-11-01T11:27:53.02Z</time>
      </trkpt>
      <trkpt lat="46.35268" lon="6.04572">
        <ele>953.8</ele>
        <time>2020-11-01T11:27:54.021Z</time>
      </trkpt>
      <trkpt lat="46.35272" lon="6.04574">
        <ele>954.2</ele>
        <time>2020-11-01T11:27:55.022Z</time>
      </trkpt>
      <trkpt lat="46.35275" lon="6.04576">
        <ele>954.6</ele>
        <time>2020-11-01T11:27:56.021Z</time>
      </trkpt>
      <trkpt lat="46.35275" lon="6.04576">
        <ele>954.6</ele>
        <time>2020-11-01T11:27:57.02Z</time>
      </trkpt>
      <trkpt lat="46.35278" lon="6.04579">
        <ele>955</ele>
        <time>2020-11-01T11:27:58.02Z</time>
      </trkpt>
      <trkpt lat="46.35281" lon="6.04582">
        <ele>955.2</ele>
        <time>2020-11-01T11:27:59.023Z</time>
      </trkpt>
      <trkpt lat="46.35281" lon="6.04582">
        <ele>955.2</ele>
        <time>2020-11-01T11:28:00.021Z</time>
      </trkpt>
      <trkpt lat="46.35284" lon="6.04585">
        <ele>955.6</ele>
        <time>2020-11-01T11:28:01.021Z</time>
      </trkpt>
      <trkpt lat="46.35284" lon="6.04585">
        <ele>955.6</ele>
        <time>2020-11-01T11:28:02.02Z</time>
      </trkpt>
      <trkpt lat="46.35287" lon="6.04588">
        <ele>955.6</ele>
        <time>2020-11-01T11:28:03.022Z</time>
      </trkpt>
      <trkpt lat="46.35291" lon="6.0459">
        <ele>956</ele>
        <time>2020-11-01T11:28:04.021Z</time>
      </trkpt>
      <trkpt lat="46.35291" lon="6.0459">
        <ele>956</ele>
        <time>2020-11-01T11:28:05.021Z</time>
      </trkpt>
      <trkpt lat="46.35294" lon="6.04592">
        <ele>956.2</ele>
        <time>2020-11-01T11:28:06.021Z</time>
      </trkpt>
      <trkpt lat="46.35297" lon="6.04595">
        <ele>956.4</ele>
        <time>2020-11-01T11:28:07.022Z</time>
      </trkpt>
      <trkpt lat="46.353" lon="6.04598">
        <ele>956.6</ele>
        <time>2020-11-01T11:28:08.021Z</time>
      </trkpt>
      <trkpt lat="46.353" lon="6.04598">
        <ele>956.6</ele>
        <time>2020-11-01T11:28:09.024Z</time>
      </trkpt>
      <trkpt lat="46.35304" lon="6.046">
        <ele>956.8</ele>
        <time>2020-11-01T11:28:10.021Z</time>
      </trkpt>
      <trkpt lat="46.35307" lon="6.04602">
        <ele>957</ele>
        <time>2020-11-01T11:28:11.021Z</time>
      </trkpt>
      <trkpt lat="46.35307" lon="6.04602">
        <ele>957</ele>
        <time>2020-11-01T11:28:12.021Z</time>
      </trkpt>
      <trkpt lat="46.3531" lon="6.04604">
        <ele>957.2</ele>
        <time>2020-11-01T11:28:13.021Z</time>
      </trkpt>
      <trkpt lat="46.35313" lon="6.04606">
        <ele>957.6</ele>
        <time>2020-11-01T11:28:14.021Z</time>
      </trkpt>
      <trkpt lat="46.35313" lon="6.04606">
        <ele>957.6</ele>
        <time>2020-11-01T11:28:15.02Z</time>
      </trkpt>
      <trkpt lat="46.35317" lon="6.04607">
        <ele>957.8</ele>
        <time>2020-11-01T11:28:16.024Z</time>
      </trkpt>
      <trkpt lat="46.3532" lon="6.04609">
        <ele>958</ele>
        <time>2020-11-01T11:28:17.021Z</time>
      </trkpt>
      <trkpt lat="46.3532" lon="6.04609">
        <ele>958</ele>
        <time>2020-11-01T11:28:18.021Z</time>
      </trkpt>
      <trkpt lat="46.35324" lon="6.0461">
        <ele>958.2</ele>
        <time>2020-11-01T11:28:19.022Z</time>
      </trkpt>
      <trkpt lat="46.35327" lon="6.0461">
        <ele>958.6</ele>
        <time>2020-11-01T11:28:20.021Z</time>
      </trkpt>
      <trkpt lat="46.35327" lon="6.0461">
        <ele>958.6</ele>
        <time>2020-11-01T11:28:21.021Z</time>
      </trkpt>
      <trkpt lat="46.35331" lon="6.0461">
        <ele>958.8</ele>
        <time>2020-11-01T11:28:22.022Z</time>
      </trkpt>
      <trkpt lat="46.35334" lon="6.0461">
        <ele>959</ele>
        <time>2020-11-01T11:28:23.02Z</time>
      </trkpt>
      <trkpt lat="46.35334" lon="6.0461">
        <ele>959</ele>
        <time>2020-11-01T11:28:24.021Z</time>
      </trkpt>
      <trkpt lat="46.35338" lon="6.0461">
        <ele>959.2</ele>
        <time>2020-11-01T11:28:25.021Z</time>
      </trkpt>
      <trkpt lat="46.35341" lon="6.0461">
        <ele>959.4</ele>
        <time>2020-11-01T11:28:26.02Z</time>
      </trkpt>
      <trkpt lat="46.35341" lon="6.0461">
        <ele>959.4</ele>
        <time>2020-11-01T11:28:27.021Z</time>
      </trkpt>
      <trkpt lat="46.35345" lon="6.04609">
        <ele>959.8</ele>
        <time>2020-11-01T11:28:28.02Z</time>
      </trkpt>
      <trkpt lat="46.35348" lon="6.04609">
        <ele>960.2</ele>
        <time>2020-11-01T11:28:29.023Z</time>
      </trkpt>
      <trkpt lat="46.35352" lon="6.04608">
        <ele>960.4</ele>
        <time>2020-11-01T11:28:30.02Z</time>
      </trkpt>
      <trkpt lat="46.35352" lon="6.04608">
        <ele>960.4</ele>
        <time>2020-11-01T11:28:31.022Z</time>
      </trkpt>
      <trkpt lat="46.35356" lon="6.04607">
        <ele>960.6</ele>
        <time>2020-11-01T11:28:32.021Z</time>
      </trkpt>
      <trkpt lat="46.35359" lon="6.04606">
        <ele>960.8</ele>
        <time>2020-11-01T11:28:33.024Z</time>
      </trkpt>
      <trkpt lat="46.35359" lon="6.04606">
        <ele>960.8</ele>
        <time>2020-11-01T11:28:34.02Z</time>
      </trkpt>
      <trkpt lat="46.35363" lon="6.04605">
        <ele>961.2</ele>
        <time>2020-11-01T11:28:35.021Z</time>
      </trkpt>
      <trkpt lat="46.35366" lon="6.04605">
        <ele>961.4</ele>
        <time>2020-11-01T11:28:36.021Z</time>
      </trkpt>
      <trkpt lat="46.35366" lon="6.04605">
        <ele>961.4</ele>
        <time>2020-11-01T11:28:37.023Z</time>
      </trkpt>
      <trkpt lat="46.3537" lon="6.04605">
        <ele>961.6</ele>
        <time>2020-11-01T11:28:38.021Z</time>
      </trkpt>
      <trkpt lat="46.35373" lon="6.04605">
        <ele>961.8</ele>
        <time>2020-11-01T11:28:39.021Z</time>
      </trkpt>
      <trkpt lat="46.35373" lon="6.04605">
        <ele>961.8</ele>
        <time>2020-11-01T11:28:40.021Z</time>
      </trkpt>
      <trkpt lat="46.35377" lon="6.04605">
        <ele>961.8</ele>
        <time>2020-11-01T11:28:41.021Z</time>
      </trkpt>
      <trkpt lat="46.3538" lon="6.04606">
        <ele>962</ele>
        <time>2020-11-01T11:28:42.022Z</time>
      </trkpt>
      <trkpt lat="46.3538" lon="6.04606">
        <ele>962</ele>
        <time>2020-11-01T11:28:43.021Z</time>
      </trkpt>
      <trkpt lat="46.35384" lon="6.04606">
        <ele>962.2</ele>
        <time>2020-11-01T11:28:44.021Z</time>
      </trkpt>
      <trkpt lat="46.35387" lon="6.04607">
        <ele>962.4</ele>
        <time>2020-11-01T11:28:45.021Z</time>
      </trkpt>
      <trkpt lat="46.35387" lon="6.04607">
        <ele>962.4</ele>
        <time>2020-11-01T11:28:46.023Z</time>
      </trkpt>
      <trkpt lat="46.35391" lon="6.04609">
        <ele>962.6</ele>
        <time>2020-11-01T11:28:47.02Z</time>
      </trkpt>
      <trkpt lat="46.35394" lon="6.0461">
        <ele>962.8</ele>
        <time>2020-11-01T11:28:48.022Z</time>
      </trkpt>
      <trkpt lat="46.35394" lon="6.0461">
        <ele>962.8</ele>
        <time>2020-11-01T11:28:49.02Z</time>
      </trkpt>
      <trkpt lat="46.35398" lon="6.04612">
        <ele>963</ele>
        <time>2020-11-01T11:28:50.023Z</time>
      </trkpt>
      <trkpt lat="46.35401" lon="6.04614">
        <ele>963.2</ele>
        <time>2020-11-01T11:28:51.02Z</time>
      </trkpt>
      <trkpt lat="46.35401" lon="6.04614">
        <ele>963.2</ele>
        <time>2020-11-01T11:28:52.022Z</time>
      </trkpt>
      <trkpt lat="46.35405" lon="6.04616">
        <ele>963.6</ele>
        <time>2020-11-01T11:28:53.021Z</time>
      </trkpt>
      <trkpt lat="46.35408" lon="6.04618">
        <ele>963.8</ele>
        <time>2020-11-01T11:28:54.021Z</time>
      </trkpt>
      <trkpt lat="46.35408" lon="6.04618">
        <ele>963.8</ele>
        <time>2020-11-01T11:28:55.02Z</time>
      </trkpt>
      <trkpt lat="46.35411" lon="6.04621">
        <ele>964.2</ele>
        <time>2020-11-01T11:28:56.021Z</time>
      </trkpt>
      <trkpt lat="46.35414" lon="6.04624">
        <ele>964.4</ele>
        <time>2020-11-01T11:28:57.021Z</time>
      </trkpt>
      <trkpt lat="46.35414" lon="6.04624">
        <ele>964.4</ele>
        <time>2020-11-01T11:28:58.021Z</time>
      </trkpt>
      <trkpt lat="46.35417" lon="6.04628">
        <ele>964.8</ele>
        <time>2020-11-01T11:28:59.021Z</time>
      </trkpt>
      <trkpt lat="46.35417" lon="6.04628">
        <ele>964.8</ele>
        <time>2020-11-01T11:29:00.021Z</time>
      </trkpt>
      <trkpt lat="46.35419" lon="6.04631">
        <ele>965</ele>
        <time>2020-11-01T11:29:01.021Z</time>
      </trkpt>
      <trkpt lat="46.35422" lon="6.04635">
        <ele>965.4</ele>
        <time>2020-11-01T11:29:02.021Z</time>
      </trkpt>
      <trkpt lat="46.35422" lon="6.04635">
        <ele>965.4</ele>
        <time>2020-11-01T11:29:03.022Z</time>
      </trkpt>
      <trkpt lat="46.35425" lon="6.04638">
        <ele>965.8</ele>
        <time>2020-11-01T11:29:04.02Z</time>
      </trkpt>
      <trkpt lat="46.35428" lon="6.04642">
        <ele>965.8</ele>
        <time>2020-11-01T11:29:05.022Z</time>
      </trkpt>
      <trkpt lat="46.35428" lon="6.04642">
        <ele>965.8</ele>
        <time>2020-11-01T11:29:06.021Z</time>
      </trkpt>
      <trkpt lat="46.35431" lon="6.04645">
        <ele>966</ele>
        <time>2020-11-01T11:29:07.023Z</time>
      </trkpt>
      <trkpt lat="46.35434" lon="6.04649">
        <ele>966.2</ele>
        <time>2020-11-01T11:29:08.021Z</time>
      </trkpt>
      <trkpt lat="46.35434" lon="6.04649">
        <ele>966.2</ele>
        <time>2020-11-01T11:29:09.022Z</time>
      </trkpt>
      <trkpt lat="46.35436" lon="6.04652">
        <ele>966.6</ele>
        <time>2020-11-01T11:29:10.02Z</time>
      </trkpt>
      <trkpt lat="46.35436" lon="6.04652">
        <ele>966.6</ele>
        <time>2020-11-01T11:29:11.021Z</time>
      </trkpt>
      <trkpt lat="46.35439" lon="6.04655">
        <ele>966.8</ele>
        <time>2020-11-01T11:29:12.022Z</time>
      </trkpt>
      <trkpt lat="46.35442" lon="6.04659">
        <ele>967.2</ele>
        <time>2020-11-01T11:29:13.021Z</time>
      </trkpt>
      <trkpt lat="46.35442" lon="6.04659">
        <ele>967.2</ele>
        <time>2020-11-01T11:29:14.021Z</time>
      </trkpt>
      <trkpt lat="46.35444" lon="6.04662">
        <ele>967.6</ele>
        <time>2020-11-01T11:29:15.021Z</time>
      </trkpt>
      <trkpt lat="46.35447" lon="6.04665">
        <ele>967.8</ele>
        <time>2020-11-01T11:29:16.023Z</time>
      </trkpt>
      <trkpt lat="46.35447" lon="6.04665">
        <ele>967.8</ele>
        <time>2020-11-01T11:29:17.021Z</time>
      </trkpt>
      <trkpt lat="46.3545" lon="6.04668">
        <ele>968</ele>
        <time>2020-11-01T11:29:18.021Z</time>
      </trkpt>
      <trkpt lat="46.35453" lon="6.04671">
        <ele>968.2</ele>
        <time>2020-11-01T11:29:19.02Z</time>
      </trkpt>
      <trkpt lat="46.35456" lon="6.04674">
        <ele>968.4</ele>
        <time>2020-11-01T11:29:20.02Z</time>
      </trkpt>
      <trkpt lat="46.35456" lon="6.04674">
        <ele>968.4</ele>
        <time>2020-11-01T11:29:21.021Z</time>
      </trkpt>
      <trkpt lat="46.35459" lon="6.04676">
        <ele>968.6</ele>
        <time>2020-11-01T11:29:22.022Z</time>
      </trkpt>
      <trkpt lat="46.35462" lon="6.04679">
        <ele>969</ele>
        <time>2020-11-01T11:29:23.02Z</time>
      </trkpt>
      <trkpt lat="46.35462" lon="6.04679">
        <ele>969</ele>
        <time>2020-11-01T11:29:24.023Z</time>
      </trkpt>
      <trkpt lat="46.35465" lon="6.04682">
        <ele>969.2</ele>
        <time>2020-11-01T11:29:25.022Z</time>
      </trkpt>
      <trkpt lat="46.35468" lon="6.04685">
        <ele>969.4</ele>
        <time>2020-11-01T11:29:26.022Z</time>
      </trkpt>
      <trkpt lat="46.35468" lon="6.04685">
        <ele>969.4</ele>
        <time>2020-11-01T11:29:27.021Z</time>
      </trkpt>
      <trkpt lat="46.35471" lon="6.04687">
        <ele>969.8</ele>
        <time>2020-11-01T11:29:28.02Z</time>
      </trkpt>
      <trkpt lat="46.35471" lon="6.04687">
        <ele>969.8</ele>
        <time>2020-11-01T11:29:29.021Z</time>
      </trkpt>
      <trkpt lat="46.35475" lon="6.0469">
        <ele>970</ele>
        <time>2020-11-01T11:29:30.02Z</time>
      </trkpt>
      <trkpt lat="46.35478" lon="6.04693">
        <ele>970.2</ele>
        <time>2020-11-01T11:29:31.021Z</time>
      </trkpt>
      <trkpt lat="46.35478" lon="6.04693">
        <ele>970.2</ele>
        <time>2020-11-01T11:29:32.021Z</time>
      </trkpt>
      <trkpt lat="46.35481" lon="6.04696">
        <ele>970.4</ele>
        <time>2020-11-01T11:29:33.021Z</time>
      </trkpt>
      <trkpt lat="46.35484" lon="6.047">
        <ele>970.6</ele>
        <time>2020-11-01T11:29:34.022Z</time>
      </trkpt>
      <trkpt lat="46.35484" lon="6.047">
        <ele>970.6</ele>
        <time>2020-11-01T11:29:35.022Z</time>
      </trkpt>
      <trkpt lat="46.35486" lon="6.04703">
        <ele>970.8</ele>
        <time>2020-11-01T11:29:36.021Z</time>
      </trkpt>
      <trkpt lat="46.35486" lon="6.04703">
        <ele>970.8</ele>
        <time>2020-11-01T11:29:37.02Z</time>
      </trkpt>
      <trkpt lat="46.35489" lon="6.04707">
        <ele>971</ele>
        <time>2020-11-01T11:29:38.02Z</time>
      </trkpt>
      <trkpt lat="46.35491" lon="6.04711">
        <ele>971</ele>
        <time>2020-11-01T11:29:39.021Z</time>
      </trkpt>
      <trkpt lat="46.35491" lon="6.04711">
        <ele>971</ele>
        <time>2020-11-01T11:29:40.022Z</time>
      </trkpt>
      <trkpt lat="46.35493" lon="6.04715">
        <ele>971.2</ele>
        <time>2020-11-01T11:29:41.02Z</time>
      </trkpt>
      <trkpt lat="46.35496" lon="6.04719">
        <ele>971.2</ele>
        <time>2020-11-01T11:29:42.02Z</time>
      </trkpt>
      <trkpt lat="46.35496" lon="6.04719">
        <ele>971.2</ele>
        <time>2020-11-01T11:29:43.021Z</time>
      </trkpt>
      <trkpt lat="46.35498" lon="6.04723">
        <ele>971.2</ele>
        <time>2020-11-01T11:29:44.023Z</time>
      </trkpt>
      <trkpt lat="46.355" lon="6.04727">
        <ele>971.4</ele>
        <time>2020-11-01T11:29:45.021Z</time>
      </trkpt>
      <trkpt lat="46.355" lon="6.04727">
        <ele>971.4</ele>
        <time>2020-11-01T11:29:46.02Z</time>
      </trkpt>
      <trkpt lat="46.35502" lon="6.04732">
        <ele>971.6</ele>
        <time>2020-11-01T11:29:47.021Z</time>
      </trkpt>
      <trkpt lat="46.35503" lon="6.04736">
        <ele>971.8</ele>
        <time>2020-11-01T11:29:48.021Z</time>
      </trkpt>
      <trkpt lat="46.35503" lon="6.04736">
        <ele>971.8</ele>
        <time>2020-11-01T11:29:49.022Z</time>
      </trkpt>
      <trkpt lat="46.35505" lon="6.04741">
        <ele>972</ele>
        <time>2020-11-01T11:29:50.022Z</time>
      </trkpt>
      <trkpt lat="46.35507" lon="6.04745">
        <ele>972.2</ele>
        <time>2020-11-01T11:29:51.022Z</time>
      </trkpt>
      <trkpt lat="46.35507" lon="6.04745">
        <ele>972.2</ele>
        <time>2020-11-01T11:29:52.021Z</time>
      </trkpt>
      <trkpt lat="46.35509" lon="6.0475">
        <ele>972.6</ele>
        <time>2020-11-01T11:29:53.022Z</time>
      </trkpt>
      <trkpt lat="46.3551" lon="6.04754">
        <ele>972.8</ele>
        <time>2020-11-01T11:29:54.021Z</time>
      </trkpt>
      <trkpt lat="46.3551" lon="6.04754">
        <ele>972.8</ele>
        <time>2020-11-01T11:29:55.022Z</time>
      </trkpt>
      <trkpt lat="46.35512" lon="6.04759">
        <ele>973</ele>
        <time>2020-11-01T11:29:56.023Z</time>
      </trkpt>
      <trkpt lat="46.35513" lon="6.04764">
        <ele>973.2</ele>
        <time>2020-11-01T11:29:57.02Z</time>
      </trkpt>
      <trkpt lat="46.35513" lon="6.04764">
        <ele>973.2</ele>
        <time>2020-11-01T11:29:58.021Z</time>
      </trkpt>
      <trkpt lat="46.35515" lon="6.04769">
        <ele>973.4</ele>
        <time>2020-11-01T11:29:59.021Z</time>
      </trkpt>
      <trkpt lat="46.35516" lon="6.04773">
        <ele>973.6</ele>
        <time>2020-11-01T11:30:00.021Z</time>
      </trkpt>
      <trkpt lat="46.35516" lon="6.04773">
        <ele>973.6</ele>
        <time>2020-11-01T11:30:01.021Z</time>
      </trkpt>
      <trkpt lat="46.35517" lon="6.04778">
        <ele>973.8</ele>
        <time>2020-11-01T11:30:02.02Z</time>
      </trkpt>
      <trkpt lat="46.35519" lon="6.04783">
        <ele>974</ele>
        <time>2020-11-01T11:30:03.022Z</time>
      </trkpt>
      <trkpt lat="46.35519" lon="6.04783">
        <ele>974</ele>
        <time>2020-11-01T11:30:04.021Z</time>
      </trkpt>
      <trkpt lat="46.3552" lon="6.04788">
        <ele>974.4</ele>
        <time>2020-11-01T11:30:05.021Z</time>
      </trkpt>
      <trkpt lat="46.35521" lon="6.04793">
        <ele>974.8</ele>
        <time>2020-11-01T11:30:06.022Z</time>
      </trkpt>
      <trkpt lat="46.35521" lon="6.04793">
        <ele>974.8</ele>
        <time>2020-11-01T11:30:07.023Z</time>
      </trkpt>
      <trkpt lat="46.35523" lon="6.04797">
        <ele>975</ele>
        <time>2020-11-01T11:30:08.02Z</time>
      </trkpt>
      <trkpt lat="46.35524" lon="6.04802">
        <ele>975.4</ele>
        <time>2020-11-01T11:30:09.022Z</time>
      </trkpt>
      <trkpt lat="46.35524" lon="6.04802">
        <ele>975.4</ele>
        <time>2020-11-01T11:30:10.02Z</time>
      </trkpt>
      <trkpt lat="46.35525" lon="6.04807">
        <ele>975.6</ele>
        <time>2020-11-01T11:30:11.023Z</time>
      </trkpt>
      <trkpt lat="46.35527" lon="6.04811">
        <ele>975.8</ele>
        <time>2020-11-01T11:30:12.021Z</time>
      </trkpt>
      <trkpt lat="46.35527" lon="6.04811">
        <ele>975.8</ele>
        <time>2020-11-01T11:30:13.022Z</time>
      </trkpt>
      <trkpt lat="46.35528" lon="6.04816">
        <ele>976</ele>
        <time>2020-11-01T11:30:14.02Z</time>
      </trkpt>
      <trkpt lat="46.3553" lon="6.0482">
        <ele>976.2</ele>
        <time>2020-11-01T11:30:15.021Z</time>
      </trkpt>
      <trkpt lat="46.3553" lon="6.0482">
        <ele>976.2</ele>
        <time>2020-11-01T11:30:16.022Z</time>
      </trkpt>
      <trkpt lat="46.35531" lon="6.04825">
        <ele>976.4</ele>
        <time>2020-11-01T11:30:17.021Z</time>
      </trkpt>
      <trkpt lat="46.35532" lon="6.0483">
        <ele>976.8</ele>
        <time>2020-11-01T11:30:18.021Z</time>
      </trkpt>
      <trkpt lat="46.35532" lon="6.0483">
        <ele>976.8</ele>
        <time>2020-11-01T11:30:19.02Z</time>
      </trkpt>
      <trkpt lat="46.35534" lon="6.04835">
        <ele>977</ele>
        <time>2020-11-01T11:30:20.023Z</time>
      </trkpt>
      <trkpt lat="46.35535" lon="6.0484">
        <ele>977.2</ele>
        <time>2020-11-01T11:30:21.021Z</time>
      </trkpt>
      <trkpt lat="46.35535" lon="6.0484">
        <ele>977.2</ele>
        <time>2020-11-01T11:30:22.021Z</time>
      </trkpt>
      <trkpt lat="46.35537" lon="6.04844">
        <ele>977.6</ele>
        <time>2020-11-01T11:30:23.021Z</time>
      </trkpt>
      <trkpt lat="46.35539" lon="6.04848">
        <ele>977.8</ele>
        <time>2020-11-01T11:30:24.021Z</time>
      </trkpt>
      <trkpt lat="46.35539" lon="6.04848">
        <ele>977.8</ele>
        <time>2020-11-01T11:30:25.02Z</time>
      </trkpt>
      <trkpt lat="46.35541" lon="6.04853">
        <ele>978</ele>
        <time>2020-11-01T11:30:26.022Z</time>
      </trkpt>
      <trkpt lat="46.35543" lon="6.04857">
        <ele>978.2</ele>
        <time>2020-11-01T11:30:27.02Z</time>
      </trkpt>
      <trkpt lat="46.35543" lon="6.04857">
        <ele>978.2</ele>
        <time>2020-11-01T11:30:28.021Z</time>
      </trkpt>
      <trkpt lat="46.35546" lon="6.04861">
        <ele>978.4</ele>
        <time>2020-11-01T11:30:29.022Z</time>
      </trkpt>
      <trkpt lat="46.35548" lon="6.04865">
        <ele>978.6</ele>
        <time>2020-11-01T11:30:30.022Z</time>
      </trkpt>
      <trkpt lat="46.35548" lon="6.04865">
        <ele>978.6</ele>
        <time>2020-11-01T11:30:31.02Z</time>
      </trkpt>
      <trkpt lat="46.3555" lon="6.04869">
        <ele>978.8</ele>
        <time>2020-11-01T11:30:32.02Z</time>
      </trkpt>
      <trkpt lat="46.3555" lon="6.04869">
        <ele>978.8</ele>
        <time>2020-11-01T11:30:33.022Z</time>
      </trkpt>
      <trkpt lat="46.35553" lon="6.04873">
        <ele>979</ele>
        <time>2020-11-01T11:30:34.022Z</time>
      </trkpt>
      <trkpt lat="46.35556" lon="6.04877">
        <ele>979.4</ele>
        <time>2020-11-01T11:30:35.021Z</time>
      </trkpt>
      <trkpt lat="46.35556" lon="6.04877">
        <ele>979.4</ele>
        <time>2020-11-01T11:30:36.021Z</time>
      </trkpt>
      <trkpt lat="46.35558" lon="6.04881">
        <ele>979.8</ele>
        <time>2020-11-01T11:30:37.023Z</time>
      </trkpt>
      <trkpt lat="46.35558" lon="6.04881">
        <ele>979.8</ele>
        <time>2020-11-01T11:30:38.023Z</time>
      </trkpt>
      <trkpt lat="46.35561" lon="6.04885">
        <ele>980</ele>
        <time>2020-11-01T11:30:39.022Z</time>
      </trkpt>
      <trkpt lat="46.35563" lon="6.04888">
        <ele>980.2</ele>
        <time>2020-11-01T11:30:40.02Z</time>
      </trkpt>
      <trkpt lat="46.35563" lon="6.04888">
        <ele>980.2</ele>
        <time>2020-11-01T11:30:41.023Z</time>
      </trkpt>
      <trkpt lat="46.35566" lon="6.04892">
        <ele>980.4</ele>
        <time>2020-11-01T11:30:42.02Z</time>
      </trkpt>
      <trkpt lat="46.35568" lon="6.04896">
        <ele>980.4</ele>
        <time>2020-11-01T11:30:43.022Z</time>
      </trkpt>
      <trkpt lat="46.35568" lon="6.04896">
        <ele>980.4</ele>
        <time>2020-11-01T11:30:44.021Z</time>
      </trkpt>
      <trkpt lat="46.35571" lon="6.049">
        <ele>980.8</ele>
        <time>2020-11-01T11:30:45.021Z</time>
      </trkpt>
      <trkpt lat="46.35573" lon="6.04903">
        <ele>981</ele>
        <time>2020-11-01T11:30:46.021Z</time>
      </trkpt>
      <trkpt lat="46.35573" lon="6.04903">
        <ele>981</ele>
        <time>2020-11-01T11:30:47.022Z</time>
      </trkpt>
      <trkpt lat="46.35576" lon="6.04907">
        <ele>981.2</ele>
        <time>2020-11-01T11:30:48.02Z</time>
      </trkpt>
      <trkpt lat="46.35576" lon="6.04907">
        <ele>981.2</ele>
        <time>2020-11-01T11:30:49.02Z</time>
      </trkpt>
      <trkpt lat="46.35578" lon="6.04911">
        <ele>981.6</ele>
        <time>2020-11-01T11:30:50.023Z</time>
      </trkpt>
      <trkpt lat="46.35581" lon="6.04914">
        <ele>981.8</ele>
        <time>2020-11-01T11:30:51.021Z</time>
      </trkpt>
      <trkpt lat="46.35581" lon="6.04914">
        <ele>981.8</ele>
        <time>2020-11-01T11:30:52.021Z</time>
      </trkpt>
      <trkpt lat="46.35583" lon="6.04918">
        <ele>982</ele>
        <time>2020-11-01T11:30:53.02Z</time>
      </trkpt>
      <trkpt lat="46.35586" lon="6.04922">
        <ele>982.4</ele>
        <time>2020-11-01T11:30:54.022Z</time>
      </trkpt>
      <trkpt lat="46.35586" lon="6.04922">
        <ele>982.4</ele>
        <time>2020-11-01T11:30:55.021Z</time>
      </trkpt>
      <trkpt lat="46.35588" lon="6.04926">
        <ele>982.6</ele>
        <time>2020-11-01T11:30:56.022Z</time>
      </trkpt>
      <trkpt lat="46.35591" lon="6.04929">
        <ele>982.8</ele>
        <time>2020-11-01T11:30:57.02Z</time>
      </trkpt>
      <trkpt lat="46.35591" lon="6.04929">
        <ele>982.8</ele>
        <time>2020-11-01T11:30:58.022Z</time>
      </trkpt>
      <trkpt lat="46.35593" lon="6.04933">
        <ele>983</ele>
        <time>2020-11-01T11:30:59.022Z</time>
      </trkpt>
      <trkpt lat="46.35596" lon="6.04937">
        <ele>983.2</ele>
        <time>2020-11-01T11:31:00.021Z</time>
      </trkpt>
      <trkpt lat="46.35596" lon="6.04937">
        <ele>983.2</ele>
        <time>2020-11-01T11:31:01.02Z</time>
      </trkpt>
      <trkpt lat="46.35598" lon="6.04941">
        <ele>983.4</ele>
        <time>2020-11-01T11:31:02.021Z</time>
      </trkpt>
      <trkpt lat="46.35601" lon="6.04944">
        <ele>983.6</ele>
        <time>2020-11-01T11:31:03.022Z</time>
      </trkpt>
      <trkpt lat="46.35603" lon="6.04948">
        <ele>983.8</ele>
        <time>2020-11-01T11:31:04.021Z</time>
      </trkpt>
      <trkpt lat="46.35603" lon="6.04948">
        <ele>983.8</ele>
        <time>2020-11-01T11:31:05.021Z</time>
      </trkpt>
      <trkpt lat="46.35605" lon="6.04951">
        <ele>984</ele>
        <time>2020-11-01T11:31:06.021Z</time>
      </trkpt>
      <trkpt lat="46.35608" lon="6.04955">
        <ele>984.2</ele>
        <time>2020-11-01T11:31:07.022Z</time>
      </trkpt>
      <trkpt lat="46.35608" lon="6.04955">
        <ele>984.2</ele>
        <time>2020-11-01T11:31:08.021Z</time>
      </trkpt>
      <trkpt lat="46.3561" lon="6.04958">
        <ele>984.4</ele>
        <time>2020-11-01T11:31:09.021Z</time>
      </trkpt>
      <trkpt lat="46.35613" lon="6.04962">
        <ele>984.8</ele>
        <time>2020-11-01T11:31:10.02Z</time>
      </trkpt>
      <trkpt lat="46.35613" lon="6.04962">
        <ele>984.8</ele>
        <time>2020-11-01T11:31:11.023Z</time>
      </trkpt>
      <trkpt lat="46.35615" lon="6.04965">
        <ele>985</ele>
        <time>2020-11-01T11:31:12.022Z</time>
      </trkpt>
      <trkpt lat="46.35615" lon="6.04965">
        <ele>985</ele>
        <time>2020-11-01T11:31:13.022Z</time>
      </trkpt>
      <trkpt lat="46.35618" lon="6.04968">
        <ele>985.4</ele>
        <time>2020-11-01T11:31:14.022Z</time>
      </trkpt>
      <trkpt lat="46.35621" lon="6.04972">
        <ele>985.6</ele>
        <time>2020-11-01T11:31:15.023Z</time>
      </trkpt>
      <trkpt lat="46.35623" lon="6.04975">
        <ele>986</ele>
        <time>2020-11-01T11:31:16.023Z</time>
      </trkpt>
      <trkpt lat="46.35623" lon="6.04975">
        <ele>986</ele>
        <time>2020-11-01T11:31:17.022Z</time>
      </trkpt>
      <trkpt lat="46.35626" lon="6.04978">
        <ele>986.2</ele>
        <time>2020-11-01T11:31:18.02Z</time>
      </trkpt>
      <trkpt lat="46.35629" lon="6.04981">
        <ele>986.4</ele>
        <time>2020-11-01T11:31:19.021Z</time>
      </trkpt>
      <trkpt lat="46.35629" lon="6.04981">
        <ele>986.4</ele>
        <time>2020-11-01T11:31:20.02Z</time>
      </trkpt>
      <trkpt lat="46.35631" lon="6.04985">
        <ele>986.6</ele>
        <time>2020-11-01T11:31:21.021Z</time>
      </trkpt>
      <trkpt lat="46.35631" lon="6.04985">
        <ele>986.6</ele>
        <time>2020-11-01T11:31:22.021Z</time>
      </trkpt>
      <trkpt lat="46.35634" lon="6.04988">
        <ele>986.8</ele>
        <time>2020-11-01T11:31:23.021Z</time>
      </trkpt>
      <trkpt lat="46.35637" lon="6.04991">
        <ele>987</ele>
        <time>2020-11-01T11:31:24.023Z</time>
      </trkpt>
      <trkpt lat="46.35637" lon="6.04991">
        <ele>987</ele>
        <time>2020-11-01T11:31:25.021Z</time>
      </trkpt>
      <trkpt lat="46.3564" lon="6.04994">
        <ele>987.2</ele>
        <time>2020-11-01T11:31:26.021Z</time>
      </trkpt>
      <trkpt lat="46.35643" lon="6.04997">
        <ele>987.6</ele>
        <time>2020-11-01T11:31:27.021Z</time>
      </trkpt>
      <trkpt lat="46.35643" lon="6.04997">
        <ele>987.6</ele>
        <time>2020-11-01T11:31:28.023Z</time>
      </trkpt>
      <trkpt lat="46.35646" lon="6.04999">
        <ele>987.8</ele>
        <time>2020-11-01T11:31:29.021Z</time>
      </trkpt>
      <trkpt lat="46.35649" lon="6.05002">
        <ele>988.2</ele>
        <time>2020-11-01T11:31:30.021Z</time>
      </trkpt>
      <trkpt lat="46.35649" lon="6.05002">
        <ele>988.2</ele>
        <time>2020-11-01T11:31:31.02Z</time>
      </trkpt>
      <trkpt lat="46.35652" lon="6.05004">
        <ele>988.2</ele>
        <time>2020-11-01T11:31:32.024Z</time>
      </trkpt>
      <trkpt lat="46.35655" lon="6.05007">
        <ele>988.6</ele>
        <time>2020-11-01T11:31:33.021Z</time>
      </trkpt>
      <trkpt lat="46.35655" lon="6.05007">
        <ele>988.6</ele>
        <time>2020-11-01T11:31:34.021Z</time>
      </trkpt>
      <trkpt lat="46.35659" lon="6.05009">
        <ele>988.8</ele>
        <time>2020-11-01T11:31:35.02Z</time>
      </trkpt>
      <trkpt lat="46.35662" lon="6.05012">
        <ele>989</ele>
        <time>2020-11-01T11:31:36.02Z</time>
      </trkpt>
      <trkpt lat="46.35662" lon="6.05012">
        <ele>989</ele>
        <time>2020-11-01T11:31:37.023Z</time>
      </trkpt>
      <trkpt lat="46.35665" lon="6.05014">
        <ele>989.2</ele>
        <time>2020-11-01T11:31:38.021Z</time>
      </trkpt>
      <trkpt lat="46.35665" lon="6.05014">
        <ele>989.2</ele>
        <time>2020-11-01T11:31:39.021Z</time>
      </trkpt>
      <trkpt lat="46.35668" lon="6.05016">
        <ele>989.4</ele>
        <time>2020-11-01T11:31:40.02Z</time>
      </trkpt>
      <trkpt lat="46.35671" lon="6.05018">
        <ele>989.8</ele>
        <time>2020-11-01T11:31:41.022Z</time>
      </trkpt>
      <trkpt lat="46.35675" lon="6.0502">
        <ele>990</ele>
        <time>2020-11-01T11:31:42.021Z</time>
      </trkpt>
      <trkpt lat="46.35675" lon="6.0502">
        <ele>990</ele>
        <time>2020-11-01T11:31:43.021Z</time>
      </trkpt>
      <trkpt lat="46.35678" lon="6.05021">
        <ele>990.2</ele>
        <time>2020-11-01T11:31:44.021Z</time>
      </trkpt>
      <trkpt lat="46.35681" lon="6.05023">
        <ele>990.4</ele>
        <time>2020-11-01T11:31:45.022Z</time>
      </trkpt>
      <trkpt lat="46.35681" lon="6.05023">
        <ele>990.4</ele>
        <time>2020-11-01T11:31:46.021Z</time>
      </trkpt>
      <trkpt lat="46.35685" lon="6.05025">
        <ele>990.6</ele>
        <time>2020-11-01T11:31:47.023Z</time>
      </trkpt>
      <trkpt lat="46.35689" lon="6.05026">
        <ele>991</ele>
        <time>2020-11-01T11:31:48.02Z</time>
      </trkpt>
      <trkpt lat="46.35689" lon="6.05026">
        <ele>991</ele>
        <time>2020-11-01T11:31:49.023Z</time>
      </trkpt>
      <trkpt lat="46.35692" lon="6.05027">
        <ele>991.2</ele>
        <time>2020-11-01T11:31:50.021Z</time>
      </trkpt>
      <trkpt lat="46.35692" lon="6.05027">
        <ele>991.2</ele>
        <time>2020-11-01T11:31:51.023Z</time>
      </trkpt>
      <trkpt lat="46.35696" lon="6.05027">
        <ele>991.4</ele>
        <time>2020-11-01T11:31:52.02Z</time>
      </trkpt>
      <trkpt lat="46.35699" lon="6.05027">
        <ele>991.8</ele>
        <time>2020-11-01T11:31:53.021Z</time>
      </trkpt>
      <trkpt lat="46.35703" lon="6.05027">
        <ele>992</ele>
        <time>2020-11-01T11:31:54.022Z</time>
      </trkpt>
      <trkpt lat="46.35703" lon="6.05027">
        <ele>992</ele>
        <time>2020-11-01T11:31:55.021Z</time>
      </trkpt>
      <trkpt lat="46.35706" lon="6.05026">
        <ele>992.2</ele>
        <time>2020-11-01T11:31:56.021Z</time>
      </trkpt>
      <trkpt lat="46.35709" lon="6.05025">
        <ele>992.4</ele>
        <time>2020-11-01T11:31:57.022Z</time>
      </trkpt>
      <trkpt lat="46.35709" lon="6.05025">
        <ele>992.4</ele>
        <time>2020-11-01T11:31:58.023Z</time>
      </trkpt>
      <trkpt lat="46.35713" lon="6.05024">
        <ele>992.6</ele>
        <time>2020-11-01T11:31:59.022Z</time>
      </trkpt>
      <trkpt lat="46.35716" lon="6.05022">
        <ele>992.8</ele>
        <time>2020-11-01T11:32:00.021Z</time>
      </trkpt>
      <trkpt lat="46.35716" lon="6.05022">
        <ele>992.8</ele>
        <time>2020-11-01T11:32:01.022Z</time>
      </trkpt>
      <trkpt lat="46.35719" lon="6.05019">
        <ele>993</ele>
        <time>2020-11-01T11:32:02.023Z</time>
      </trkpt>
      <trkpt lat="46.35722" lon="6.05017">
        <ele>993.2</ele>
        <time>2020-11-01T11:32:03.021Z</time>
      </trkpt>
      <trkpt lat="46.35722" lon="6.05017">
        <ele>993.2</ele>
        <time>2020-11-01T11:32:04.021Z</time>
      </trkpt>
      <trkpt lat="46.35724" lon="6.05013">
        <ele>993.6</ele>
        <time>2020-11-01T11:32:05.021Z</time>
      </trkpt>
      <trkpt lat="46.35727" lon="6.05009">
        <ele>993.8</ele>
        <time>2020-11-01T11:32:06.021Z</time>
      </trkpt>
      <trkpt lat="46.35727" lon="6.05009">
        <ele>993.8</ele>
        <time>2020-11-01T11:32:07.021Z</time>
      </trkpt>
      <trkpt lat="46.35729" lon="6.05005">
        <ele>993.8</ele>
        <time>2020-11-01T11:32:08.021Z</time>
      </trkpt>
      <trkpt lat="46.35731" lon="6.05">
        <ele>994</ele>
        <time>2020-11-01T11:32:09.021Z</time>
      </trkpt>
      <trkpt lat="46.35731" lon="6.05">
        <ele>994</ele>
        <time>2020-11-01T11:32:10.02Z</time>
      </trkpt>
      <trkpt lat="46.35733" lon="6.04995">
        <ele>994.4</ele>
        <time>2020-11-01T11:32:11.023Z</time>
      </trkpt>
      <trkpt lat="46.35733" lon="6.04995">
        <ele>994.4</ele>
        <time>2020-11-01T11:32:12.021Z</time>
      </trkpt>
      <trkpt lat="46.35734" lon="6.0499">
        <ele>994.6</ele>
        <time>2020-11-01T11:32:13.021Z</time>
      </trkpt>
      <trkpt lat="46.35736" lon="6.04985">
        <ele>995</ele>
        <time>2020-11-01T11:32:14.021Z</time>
      </trkpt>
      <trkpt lat="46.35736" lon="6.04985">
        <ele>995</ele>
        <time>2020-11-01T11:32:15.023Z</time>
      </trkpt>
      <trkpt lat="46.35738" lon="6.0498">
        <ele>995.6</ele>
        <time>2020-11-01T11:32:16.021Z</time>
      </trkpt>
      <trkpt lat="46.35738" lon="6.0498">
        <ele>995.6</ele>
        <time>2020-11-01T11:32:17.022Z</time>
      </trkpt>
      <trkpt lat="46.35739" lon="6.04976">
        <ele>995.8</ele>
        <time>2020-11-01T11:32:18.022Z</time>
      </trkpt>
      <trkpt lat="46.35741" lon="6.04971">
        <ele>995.8</ele>
        <time>2020-11-01T11:32:19.024Z</time>
      </trkpt>
      <trkpt lat="46.35741" lon="6.04971">
        <ele>995.8</ele>
        <time>2020-11-01T11:32:20.022Z</time>
      </trkpt>
      <trkpt lat="46.35742" lon="6.04966">
        <ele>996</ele>
        <time>2020-11-01T11:32:21.021Z</time>
      </trkpt>
      <trkpt lat="46.35742" lon="6.04966">
        <ele>996</ele>
        <time>2020-11-01T11:32:22.02Z</time>
      </trkpt>
      <trkpt lat="46.35744" lon="6.04961">
        <ele>996.2</ele>
        <time>2020-11-01T11:32:23.021Z</time>
      </trkpt>
      <trkpt lat="46.35746" lon="6.04957">
        <ele>996.4</ele>
        <time>2020-11-01T11:32:24.021Z</time>
      </trkpt>
      <trkpt lat="46.35746" lon="6.04957">
        <ele>996.4</ele>
        <time>2020-11-01T11:32:25.021Z</time>
      </trkpt>
      <trkpt lat="46.35747" lon="6.04952">
        <ele>996.4</ele>
        <time>2020-11-01T11:32:26.021Z</time>
      </trkpt>
      <trkpt lat="46.35749" lon="6.04947">
        <ele>996.6</ele>
        <time>2020-11-01T11:32:27.02Z</time>
      </trkpt>
      <trkpt lat="46.35749" lon="6.04947">
        <ele>996.6</ele>
        <time>2020-11-01T11:32:28.023Z</time>
      </trkpt>
      <trkpt lat="46.3575" lon="6.04942">
        <ele>996.8</ele>
        <time>2020-11-01T11:32:29.021Z</time>
      </trkpt>
      <trkpt lat="46.35751" lon="6.04937">
        <ele>997.2</ele>
        <time>2020-11-01T11:32:30.021Z</time>
      </trkpt>
      <trkpt lat="46.35751" lon="6.04937">
        <ele>997.2</ele>
        <time>2020-11-01T11:32:31.021Z</time>
      </trkpt>
      <trkpt lat="46.35754" lon="6.04933">
        <ele>997.4</ele>
        <time>2020-11-01T11:32:32.022Z</time>
      </trkpt>
      <trkpt lat="46.35755" lon="6.04928">
        <ele>997.6</ele>
        <time>2020-11-01T11:32:33.02Z</time>
      </trkpt>
      <trkpt lat="46.35755" lon="6.04928">
        <ele>997.6</ele>
        <time>2020-11-01T11:32:34.021Z</time>
      </trkpt>
      <trkpt lat="46.35758" lon="6.04924">
        <ele>998</ele>
        <time>2020-11-01T11:32:35.021Z</time>
      </trkpt>
      <trkpt lat="46.35758" lon="6.04924">
        <ele>998</ele>
        <time>2020-11-01T11:32:36.023Z</time>
      </trkpt>
      <trkpt lat="46.3576" lon="6.04919">
        <ele>998.2</ele>
        <time>2020-11-01T11:32:37.021Z</time>
      </trkpt>
      <trkpt lat="46.35761" lon="6.04914">
        <ele>998.4</ele>
        <time>2020-11-01T11:32:38.022Z</time>
      </trkpt>
      <trkpt lat="46.35761" lon="6.04914">
        <ele>998.4</ele>
        <time>2020-11-01T11:32:39.023Z</time>
      </trkpt>
      <trkpt lat="46.35763" lon="6.04909">
        <ele>998.6</ele>
        <time>2020-11-01T11:32:40.021Z</time>
      </trkpt>
      <trkpt lat="46.35765" lon="6.04904">
        <ele>999</ele>
        <time>2020-11-01T11:32:41.023Z</time>
      </trkpt>
      <trkpt lat="46.35765" lon="6.04904">
        <ele>999</ele>
        <time>2020-11-01T11:32:42.021Z</time>
      </trkpt>
      <trkpt lat="46.35765" lon="6.04904">
        <ele>999</ele>
        <time>2020-11-01T11:32:43.021Z</time>
      </trkpt>
      <trkpt lat="46.35768" lon="6.04895">
        <ele>999.2</ele>
        <time>2020-11-01T11:32:44.021Z</time>
      </trkpt>
      <trkpt lat="46.35768" lon="6.04895">
        <ele>999.2</ele>
        <time>2020-11-01T11:32:45.022Z</time>
      </trkpt>
      <trkpt lat="46.35769" lon="6.0489">
        <ele>999.4</ele>
        <time>2020-11-01T11:32:46.021Z</time>
      </trkpt>
      <trkpt lat="46.35771" lon="6.04886">
        <ele>999.6</ele>
        <time>2020-11-01T11:32:47.022Z</time>
      </trkpt>
      <trkpt lat="46.35771" lon="6.04886">
        <ele>999.6</ele>
        <time>2020-11-01T11:32:48.02Z</time>
      </trkpt>
      <trkpt lat="46.35773" lon="6.04881">
        <ele>999.8</ele>
        <time>2020-11-01T11:32:49.022Z</time>
      </trkpt>
      <trkpt lat="46.35773" lon="6.04881">
        <ele>999.8</ele>
        <time>2020-11-01T11:32:50.021Z</time>
      </trkpt>
      <trkpt lat="46.35774" lon="6.04876">
        <ele>1000</ele>
        <time>2020-11-01T11:32:51.02Z</time>
      </trkpt>
      <trkpt lat="46.35776" lon="6.04871">
        <ele>1000.2</ele>
        <time>2020-11-01T11:32:52.02Z</time>
      </trkpt>
      <trkpt lat="46.35776" lon="6.04871">
        <ele>1000.2</ele>
        <time>2020-11-01T11:32:53.021Z</time>
      </trkpt>
      <trkpt lat="46.35778" lon="6.04866">
        <ele>1000.6</ele>
        <time>2020-11-01T11:32:54.021Z</time>
      </trkpt>
      <trkpt lat="46.3578" lon="6.04861">
        <ele>1000.8</ele>
        <time>2020-11-01T11:32:55.022Z</time>
      </trkpt>
      <trkpt lat="46.3578" lon="6.04861">
        <ele>1000.8</ele>
        <time>2020-11-01T11:32:56.021Z</time>
      </trkpt>
      <trkpt lat="46.35781" lon="6.04856">
        <ele>1001</ele>
        <time>2020-11-01T11:32:57.022Z</time>
      </trkpt>
      <trkpt lat="46.35782" lon="6.04851">
        <ele>1001.2</ele>
        <time>2020-11-01T11:32:58.023Z</time>
      </trkpt>
      <trkpt lat="46.35782" lon="6.04851">
        <ele>1001.2</ele>
        <time>2020-11-01T11:32:59.021Z</time>
      </trkpt>
      <trkpt lat="46.35784" lon="6.04847">
        <ele>1001.6</ele>
        <time>2020-11-01T11:33:00.021Z</time>
      </trkpt>
      <trkpt lat="46.35784" lon="6.04847">
        <ele>1001.6</ele>
        <time>2020-11-01T11:33:01.022Z</time>
      </trkpt>
      <trkpt lat="46.35785" lon="6.04842">
        <ele>1002</ele>
        <time>2020-11-01T11:33:02.02Z</time>
      </trkpt>
      <trkpt lat="46.35787" lon="6.04836">
        <ele>1002.4</ele>
        <time>2020-11-01T11:33:03.022Z</time>
      </trkpt>
      <trkpt lat="46.35787" lon="6.04836">
        <ele>1002.4</ele>
        <time>2020-11-01T11:33:04.021Z</time>
      </trkpt>
      <trkpt lat="46.35788" lon="6.04831">
        <ele>1002.6</ele>
        <time>2020-11-01T11:33:05.022Z</time>
      </trkpt>
      <trkpt lat="46.3579" lon="6.04826">
        <ele>1002.8</ele>
        <time>2020-11-01T11:33:06.02Z</time>
      </trkpt>
      <trkpt lat="46.3579" lon="6.04826">
        <ele>1002.8</ele>
        <time>2020-11-01T11:33:07.021Z</time>
      </trkpt>
      <trkpt lat="46.35792" lon="6.04821">
        <ele>1003</ele>
        <time>2020-11-01T11:33:08.021Z</time>
      </trkpt>
      <trkpt lat="46.35793" lon="6.04816">
        <ele>1003.4</ele>
        <time>2020-11-01T11:33:09.021Z</time>
      </trkpt>
      <trkpt lat="46.35793" lon="6.04816">
        <ele>1003.4</ele>
        <time>2020-11-01T11:33:10.021Z</time>
      </trkpt>
      <trkpt lat="46.35794" lon="6.0481">
        <ele>1003.6</ele>
        <time>2020-11-01T11:33:11.02Z</time>
      </trkpt>
      <trkpt lat="46.35794" lon="6.0481">
        <ele>1003.6</ele>
        <time>2020-11-01T11:33:12.022Z</time>
      </trkpt>
      <trkpt lat="46.35795" lon="6.04805">
        <ele>1004</ele>
        <time>2020-11-01T11:33:13.021Z</time>
      </trkpt>
      <trkpt lat="46.35795" lon="6.048">
        <ele>1004.2</ele>
        <time>2020-11-01T11:33:14.021Z</time>
      </trkpt>
      <trkpt lat="46.35795" lon="6.048">
        <ele>1004.2</ele>
        <time>2020-11-01T11:33:15.02Z</time>
      </trkpt>
      <trkpt lat="46.35797" lon="6.04795">
        <ele>1004.4</ele>
        <time>2020-11-01T11:33:16.021Z</time>
      </trkpt>
      <trkpt lat="46.35797" lon="6.04795">
        <ele>1004.4</ele>
        <time>2020-11-01T11:33:17.021Z</time>
      </trkpt>
      <trkpt lat="46.35799" lon="6.0479">
        <ele>1004.6</ele>
        <time>2020-11-01T11:33:18.022Z</time>
      </trkpt>
      <trkpt lat="46.35801" lon="6.04784">
        <ele>1004.8</ele>
        <time>2020-11-01T11:33:19.022Z</time>
      </trkpt>
      <trkpt lat="46.35801" lon="6.04784">
        <ele>1004.8</ele>
        <time>2020-11-01T11:33:20.022Z</time>
      </trkpt>
      <trkpt lat="46.35802" lon="6.04779">
        <ele>1005</ele>
        <time>2020-11-01T11:33:21.022Z</time>
      </trkpt>
      <trkpt lat="46.35802" lon="6.04779">
        <ele>1005</ele>
        <time>2020-11-01T11:33:22.02Z</time>
      </trkpt>
      <trkpt lat="46.35803" lon="6.04774">
        <ele>1005.2</ele>
        <time>2020-11-01T11:33:23.02Z</time>
      </trkpt>
      <trkpt lat="46.35805" lon="6.04768">
        <ele>1005.4</ele>
        <time>2020-11-01T11:33:24.021Z</time>
      </trkpt>
      <trkpt lat="46.35805" lon="6.04768">
        <ele>1005.4</ele>
        <time>2020-11-01T11:33:25.021Z</time>
      </trkpt>
      <trkpt lat="46.35806" lon="6.04763">
        <ele>1005.8</ele>
        <time>2020-11-01T11:33:26.02Z</time>
      </trkpt>
      <trkpt lat="46.35806" lon="6.04763">
        <ele>1005.8</ele>
        <time>2020-11-01T11:33:27.02Z</time>
      </trkpt>
      <trkpt lat="46.35807" lon="6.04757">
        <ele>1005.8</ele>
        <time>2020-11-01T11:33:28.02Z</time>
      </trkpt>
      <trkpt lat="46.35808" lon="6.04752">
        <ele>1006</ele>
        <time>2020-11-01T11:33:29.021Z</time>
      </trkpt>
      <trkpt lat="46.35808" lon="6.04752">
        <ele>1006</ele>
        <time>2020-11-01T11:33:30.02Z</time>
      </trkpt>
      <trkpt lat="46.35808" lon="6.04746">
        <ele>1006.2</ele>
        <time>2020-11-01T11:33:31.02Z</time>
      </trkpt>
      <trkpt lat="46.35809" lon="6.04741">
        <ele>1006.2</ele>
        <time>2020-11-01T11:33:32.023Z</time>
      </trkpt>
      <trkpt lat="46.35809" lon="6.04741">
        <ele>1006.2</ele>
        <time>2020-11-01T11:33:33.02Z</time>
      </trkpt>
      <trkpt lat="46.35809" lon="6.04736">
        <ele>1006.4</ele>
        <time>2020-11-01T11:33:34.02Z</time>
      </trkpt>
      <trkpt lat="46.35809" lon="6.04736">
        <ele>1006.4</ele>
        <time>2020-11-01T11:33:35.021Z</time>
      </trkpt>
      <trkpt lat="46.3581" lon="6.04731">
        <ele>1006.6</ele>
        <time>2020-11-01T11:33:36.02Z</time>
      </trkpt>
      <trkpt lat="46.35811" lon="6.04726">
        <ele>1006.8</ele>
        <time>2020-11-01T11:33:37.021Z</time>
      </trkpt>
      <trkpt lat="46.35811" lon="6.04726">
        <ele>1006.8</ele>
        <time>2020-11-01T11:33:38.022Z</time>
      </trkpt>
      <trkpt lat="46.35812" lon="6.0472">
        <ele>1006.8</ele>
        <time>2020-11-01T11:33:39.021Z</time>
      </trkpt>
      <trkpt lat="46.35813" lon="6.04716">
        <ele>1007</ele>
        <time>2020-11-01T11:33:40.02Z</time>
      </trkpt>
      <trkpt lat="46.35813" lon="6.04716">
        <ele>1007</ele>
        <time>2020-11-01T11:33:41.021Z</time>
      </trkpt>
      <trkpt lat="46.35814" lon="6.04711">
        <ele>1007.4</ele>
        <time>2020-11-01T11:33:42.022Z</time>
      </trkpt>
      <trkpt lat="46.35816" lon="6.04706">
        <ele>1007.6</ele>
        <time>2020-11-01T11:33:43.021Z</time>
      </trkpt>
      <trkpt lat="46.35816" lon="6.04706">
        <ele>1007.6</ele>
        <time>2020-11-01T11:33:44.022Z</time>
      </trkpt>
      <trkpt lat="46.35817" lon="6.04701">
        <ele>1007.8</ele>
        <time>2020-11-01T11:33:45.021Z</time>
      </trkpt>
      <trkpt lat="46.35817" lon="6.04701">
        <ele>1007.8</ele>
        <time>2020-11-01T11:33:46.02Z</time>
      </trkpt>
      <trkpt lat="46.35817" lon="6.04696">
        <ele>1008</ele>
        <time>2020-11-01T11:33:47.021Z</time>
      </trkpt>
      <trkpt lat="46.35818" lon="6.0469">
        <ele>1008.2</ele>
        <time>2020-11-01T11:33:48.02Z</time>
      </trkpt>
      <trkpt lat="46.35818" lon="6.0469">
        <ele>1008.2</ele>
        <time>2020-11-01T11:33:49.021Z</time>
      </trkpt>
      <trkpt lat="46.35819" lon="6.04685">
        <ele>1008.8</ele>
        <time>2020-11-01T11:33:50.021Z</time>
      </trkpt>
      <trkpt lat="46.35819" lon="6.04685">
        <ele>1008.8</ele>
        <time>2020-11-01T11:33:51.02Z</time>
      </trkpt>
      <trkpt lat="46.3582" lon="6.0468">
        <ele>1009.2</ele>
        <time>2020-11-01T11:33:52.02Z</time>
      </trkpt>
      <trkpt lat="46.3582" lon="6.04676">
        <ele>1009.4</ele>
        <time>2020-11-01T11:33:53.021Z</time>
      </trkpt>
      <trkpt lat="46.3582" lon="6.04676">
        <ele>1009.4</ele>
        <time>2020-11-01T11:33:54.02Z</time>
      </trkpt>
      <trkpt lat="46.35821" lon="6.0467">
        <ele>1009.6</ele>
        <time>2020-11-01T11:33:55.021Z</time>
      </trkpt>
      <trkpt lat="46.35821" lon="6.0467">
        <ele>1009.6</ele>
        <time>2020-11-01T11:33:56.02Z</time>
      </trkpt>
      <trkpt lat="46.35822" lon="6.04665">
        <ele>1009.8</ele>
        <time>2020-11-01T11:33:57.021Z</time>
      </trkpt>
      <trkpt lat="46.35822" lon="6.04665">
        <ele>1009.8</ele>
        <time>2020-11-01T11:33:58.021Z</time>
      </trkpt>
      <trkpt lat="46.35823" lon="6.0466">
        <ele>1010.2</ele>
        <time>2020-11-01T11:33:59.022Z</time>
      </trkpt>
      <trkpt lat="46.35823" lon="6.0466">
        <ele>1010.2</ele>
        <time>2020-11-01T11:34:00.021Z</time>
      </trkpt>
      <trkpt lat="46.35824" lon="6.04654">
        <ele>1010.4</ele>
        <time>2020-11-01T11:34:01.02Z</time>
      </trkpt>
      <trkpt lat="46.35824" lon="6.0465">
        <ele>1010.6</ele>
        <time>2020-11-01T11:34:02.021Z</time>
      </trkpt>
      <trkpt lat="46.35824" lon="6.0465">
        <ele>1010.6</ele>
        <time>2020-11-01T11:34:03.021Z</time>
      </trkpt>
      <trkpt lat="46.35825" lon="6.04645">
        <ele>1010.8</ele>
        <time>2020-11-01T11:34:04.021Z</time>
      </trkpt>
      <trkpt lat="46.35825" lon="6.04645">
        <ele>1010.8</ele>
        <time>2020-11-01T11:34:05.021Z</time>
      </trkpt>
      <trkpt lat="46.35826" lon="6.0464">
        <ele>1011.2</ele>
        <time>2020-11-01T11:34:06.023Z</time>
      </trkpt>
      <trkpt lat="46.35826" lon="6.0464">
        <ele>1011.2</ele>
        <time>2020-11-01T11:34:07.02Z</time>
      </trkpt>
      <trkpt lat="46.35828" lon="6.04635">
        <ele>1011.4</ele>
        <time>2020-11-01T11:34:08.021Z</time>
      </trkpt>
      <trkpt lat="46.35828" lon="6.04635">
        <ele>1011.4</ele>
        <time>2020-11-01T11:34:09.02Z</time>
      </trkpt>
      <trkpt lat="46.35828" lon="6.04635">
        <ele>1011.4</ele>
        <time>2020-11-01T11:34:10.023Z</time>
      </trkpt>
      <trkpt lat="46.35829" lon="6.0463">
        <ele>1011.8</ele>
        <time>2020-11-01T11:34:11.02Z</time>
      </trkpt>
      <trkpt lat="46.35829" lon="6.0463">
        <ele>1011.8</ele>
        <time>2020-11-01T11:34:12.022Z</time>
      </trkpt>
      <trkpt lat="46.3583" lon="6.04626">
        <ele>1012</ele>
        <time>2020-11-01T11:34:13.021Z</time>
      </trkpt>
      <trkpt lat="46.3583" lon="6.04626">
        <ele>1012</ele>
        <time>2020-11-01T11:34:14.023Z</time>
      </trkpt>
      <trkpt lat="46.35831" lon="6.04621">
        <ele>1012.4</ele>
        <time>2020-11-01T11:34:15.021Z</time>
      </trkpt>
      <trkpt lat="46.35833" lon="6.04616">
        <ele>1012.6</ele>
        <time>2020-11-01T11:34:16.022Z</time>
      </trkpt>
      <trkpt lat="46.35833" lon="6.04616">
        <ele>1012.6</ele>
        <time>2020-11-01T11:34:17.02Z</time>
      </trkpt>
      <trkpt lat="46.35835" lon="6.04611">
        <ele>1012.8</ele>
        <time>2020-11-01T11:34:18.021Z</time>
      </trkpt>
      <trkpt lat="46.35835" lon="6.04611">
        <ele>1012.8</ele>
        <time>2020-11-01T11:34:19.022Z</time>
      </trkpt>
      <trkpt lat="46.35837" lon="6.04607">
        <ele>1013</ele>
        <time>2020-11-01T11:34:20.021Z</time>
      </trkpt>
      <trkpt lat="46.35837" lon="6.04607">
        <ele>1013</ele>
        <time>2020-11-01T11:34:21.021Z</time>
      </trkpt>
      <trkpt lat="46.35838" lon="6.04603">
        <ele>1013.2</ele>
        <time>2020-11-01T11:34:22.021Z</time>
      </trkpt>
      <trkpt lat="46.35838" lon="6.04603">
        <ele>1013.2</ele>
        <time>2020-11-01T11:34:23.024Z</time>
      </trkpt>
      <trkpt lat="46.35841" lon="6.04599">
        <ele>1013.4</ele>
        <time>2020-11-01T11:34:24.022Z</time>
      </trkpt>
      <trkpt lat="46.35841" lon="6.04599">
        <ele>1013.4</ele>
        <time>2020-11-01T11:34:25.02Z</time>
      </trkpt>
      <trkpt lat="46.35843" lon="6.04596">
        <ele>1013.8</ele>
        <time>2020-11-01T11:34:26.021Z</time>
      </trkpt>
      <trkpt lat="46.35843" lon="6.04596">
        <ele>1013.8</ele>
        <time>2020-11-01T11:34:27.023Z</time>
      </trkpt>
      <trkpt lat="46.35846" lon="6.04593">
        <ele>1014</ele>
        <time>2020-11-01T11:34:28.021Z</time>
      </trkpt>
      <trkpt lat="46.35846" lon="6.04593">
        <ele>1014</ele>
        <time>2020-11-01T11:34:29.022Z</time>
      </trkpt>
      <trkpt lat="46.35849" lon="6.0459">
        <ele>1014.4</ele>
        <time>2020-11-01T11:34:30.02Z</time>
      </trkpt>
      <trkpt lat="46.35849" lon="6.0459">
        <ele>1014.4</ele>
        <time>2020-11-01T11:34:31.022Z</time>
      </trkpt>
      <trkpt lat="46.35852" lon="6.04587">
        <ele>1014.4</ele>
        <time>2020-11-01T11:34:32.021Z</time>
      </trkpt>
      <trkpt lat="46.35852" lon="6.04587">
        <ele>1014.4</ele>
        <time>2020-11-01T11:34:33.02Z</time>
      </trkpt>
      <trkpt lat="46.35855" lon="6.04585">
        <ele>1014.6</ele>
        <time>2020-11-01T11:34:34.021Z</time>
      </trkpt>
      <trkpt lat="46.35855" lon="6.04585">
        <ele>1014.6</ele>
        <time>2020-11-01T11:34:35.02Z</time>
      </trkpt>
      <trkpt lat="46.35857" lon="6.04582">
        <ele>1014.8</ele>
        <time>2020-11-01T11:34:36.021Z</time>
      </trkpt>
      <trkpt lat="46.35857" lon="6.04582">
        <ele>1014.8</ele>
        <time>2020-11-01T11:34:37.021Z</time>
      </trkpt>
      <trkpt lat="46.35861" lon="6.0458">
        <ele>1015.2</ele>
        <time>2020-11-01T11:34:38.021Z</time>
      </trkpt>
      <trkpt lat="46.35861" lon="6.0458">
        <ele>1015.2</ele>
        <time>2020-11-01T11:34:39.022Z</time>
      </trkpt>
      <trkpt lat="46.35864" lon="6.04578">
        <ele>1015.4</ele>
        <time>2020-11-01T11:34:40.023Z</time>
      </trkpt>
      <trkpt lat="46.35864" lon="6.04578">
        <ele>1015.4</ele>
        <time>2020-11-01T11:34:41.021Z</time>
      </trkpt>
      <trkpt lat="46.35867" lon="6.04576">
        <ele>1015.8</ele>
        <time>2020-11-01T11:34:42.022Z</time>
      </trkpt>
      <trkpt lat="46.3587" lon="6.04574">
        <ele>1016</ele>
        <time>2020-11-01T11:34:43.021Z</time>
      </trkpt>
      <trkpt lat="46.3587" lon="6.04574">
        <ele>1016</ele>
        <time>2020-11-01T11:34:44.024Z</time>
      </trkpt>
      <trkpt lat="46.35873" lon="6.04572">
        <ele>1016.2</ele>
        <time>2020-11-01T11:34:45.02Z</time>
      </trkpt>
      <trkpt lat="46.35873" lon="6.04572">
        <ele>1016.2</ele>
        <time>2020-11-01T11:34:46.021Z</time>
      </trkpt>
      <trkpt lat="46.35876" lon="6.0457">
        <ele>1016.8</ele>
        <time>2020-11-01T11:34:47.02Z</time>
      </trkpt>
      <trkpt lat="46.35876" lon="6.0457">
        <ele>1016.8</ele>
        <time>2020-11-01T11:34:48.021Z</time>
      </trkpt>
      <trkpt lat="46.3588" lon="6.04569">
        <ele>1017.2</ele>
        <time>2020-11-01T11:34:49.021Z</time>
      </trkpt>
      <trkpt lat="46.35883" lon="6.04567">
        <ele>1017.4</ele>
        <time>2020-11-01T11:34:50.021Z</time>
      </trkpt>
      <trkpt lat="46.35883" lon="6.04567">
        <ele>1017.4</ele>
        <time>2020-11-01T11:34:51.021Z</time>
      </trkpt>
      <trkpt lat="46.35886" lon="6.04566">
        <ele>1017.8</ele>
        <time>2020-11-01T11:34:52.02Z</time>
      </trkpt>
      <trkpt lat="46.35886" lon="6.04566">
        <ele>1017.8</ele>
        <time>2020-11-01T11:34:53.022Z</time>
      </trkpt>
      <trkpt lat="46.35889" lon="6.04564">
        <ele>1018.2</ele>
        <time>2020-11-01T11:34:54.02Z</time>
      </trkpt>
      <trkpt lat="46.35889" lon="6.04564">
        <ele>1018.2</ele>
        <time>2020-11-01T11:34:55.021Z</time>
      </trkpt>
      <trkpt lat="46.35891" lon="6.04563">
        <ele>1018.4</ele>
        <time>2020-11-01T11:34:56.02Z</time>
      </trkpt>
      <trkpt lat="46.35894" lon="6.04562">
        <ele>1018.6</ele>
        <time>2020-11-01T11:34:57.023Z</time>
      </trkpt>
      <trkpt lat="46.35894" lon="6.04562">
        <ele>1018.6</ele>
        <time>2020-11-01T11:34:58.02Z</time>
      </trkpt>
      <trkpt lat="46.35897" lon="6.04561">
        <ele>1019</ele>
        <time>2020-11-01T11:34:59.021Z</time>
      </trkpt>
      <trkpt lat="46.359" lon="6.0456">
        <ele>1019.2</ele>
        <time>2020-11-01T11:35:00.02Z</time>
      </trkpt>
      <trkpt lat="46.359" lon="6.0456">
        <ele>1019.2</ele>
        <time>2020-11-01T11:35:01.021Z</time>
      </trkpt>
      <trkpt lat="46.35903" lon="6.04559">
        <ele>1019.4</ele>
        <time>2020-11-01T11:35:02.021Z</time>
      </trkpt>
      <trkpt lat="46.35906" lon="6.04559">
        <ele>1019.8</ele>
        <time>2020-11-01T11:35:03.022Z</time>
      </trkpt>
      <trkpt lat="46.35906" lon="6.04559">
        <ele>1019.8</ele>
        <time>2020-11-01T11:35:04.02Z</time>
      </trkpt>
      <trkpt lat="46.35909" lon="6.04558">
        <ele>1020.2</ele>
        <time>2020-11-01T11:35:05.02Z</time>
      </trkpt>
      <trkpt lat="46.35909" lon="6.04558">
        <ele>1020.2</ele>
        <time>2020-11-01T11:35:06.021Z</time>
      </trkpt>
      <trkpt lat="46.35912" lon="6.04558">
        <ele>1020.4</ele>
        <time>2020-11-01T11:35:07.02Z</time>
      </trkpt>
      <trkpt lat="46.35915" lon="6.04557">
        <ele>1020.8</ele>
        <time>2020-11-01T11:35:08.021Z</time>
      </trkpt>
      <trkpt lat="46.35915" lon="6.04557">
        <ele>1020.8</ele>
        <time>2020-11-01T11:35:09.021Z</time>
      </trkpt>
      <trkpt lat="46.35918" lon="6.04557">
        <ele>1021.2</ele>
        <time>2020-11-01T11:35:10.022Z</time>
      </trkpt>
      <trkpt lat="46.35918" lon="6.04557">
        <ele>1021.2</ele>
        <time>2020-11-01T11:35:11.021Z</time>
      </trkpt>
      <trkpt lat="46.35921" lon="6.04556">
        <ele>1021.4</ele>
        <time>2020-11-01T11:35:12.021Z</time>
      </trkpt>
      <trkpt lat="46.35924" lon="6.04556">
        <ele>1021.8</ele>
        <time>2020-11-01T11:35:13.02Z</time>
      </trkpt>
      <trkpt lat="46.35924" lon="6.04556">
        <ele>1021.8</ele>
        <time>2020-11-01T11:35:14.021Z</time>
      </trkpt>
      <trkpt lat="46.35927" lon="6.04556">
        <ele>1022</ele>
        <time>2020-11-01T11:35:15.022Z</time>
      </trkpt>
      <trkpt lat="46.35927" lon="6.04556">
        <ele>1022</ele>
        <time>2020-11-01T11:35:16.022Z</time>
      </trkpt>
      <trkpt lat="46.3593" lon="6.04555">
        <ele>1022.4</ele>
        <time>2020-11-01T11:35:17.021Z</time>
      </trkpt>
      <trkpt lat="46.35933" lon="6.04554">
        <ele>1022.6</ele>
        <time>2020-11-01T11:35:18.023Z</time>
      </trkpt>
      <trkpt lat="46.35933" lon="6.04554">
        <ele>1022.6</ele>
        <time>2020-11-01T11:35:19.02Z</time>
      </trkpt>
      <trkpt lat="46.35935" lon="6.04554">
        <ele>1022.8</ele>
        <time>2020-11-01T11:35:20.023Z</time>
      </trkpt>
      <trkpt lat="46.35938" lon="6.04554">
        <ele>1023</ele>
        <time>2020-11-01T11:35:21.021Z</time>
      </trkpt>
      <trkpt lat="46.35938" lon="6.04554">
        <ele>1023</ele>
        <time>2020-11-01T11:35:22.02Z</time>
      </trkpt>
      <trkpt lat="46.35941" lon="6.04554">
        <ele>1023.4</ele>
        <time>2020-11-01T11:35:23.021Z</time>
      </trkpt>
      <trkpt lat="46.35944" lon="6.04555">
        <ele>1023.6</ele>
        <time>2020-11-01T11:35:24.021Z</time>
      </trkpt>
      <trkpt lat="46.35944" lon="6.04555">
        <ele>1023.6</ele>
        <time>2020-11-01T11:35:25.021Z</time>
      </trkpt>
      <trkpt lat="46.35947" lon="6.04555">
        <ele>1024</ele>
        <time>2020-11-01T11:35:26.021Z</time>
      </trkpt>
      <trkpt lat="46.3595" lon="6.04557">
        <ele>1024.2</ele>
        <time>2020-11-01T11:35:27.021Z</time>
      </trkpt>
      <trkpt lat="46.3595" lon="6.04557">
        <ele>1024.2</ele>
        <time>2020-11-01T11:35:28.022Z</time>
      </trkpt>
      <trkpt lat="46.35953" lon="6.04559">
        <ele>1024.4</ele>
        <time>2020-11-01T11:35:29.022Z</time>
      </trkpt>
      <trkpt lat="46.35953" lon="6.04559">
        <ele>1024.4</ele>
        <time>2020-11-01T11:35:30.02Z</time>
      </trkpt>
      <trkpt lat="46.35956" lon="6.04561">
        <ele>1024.6</ele>
        <time>2020-11-01T11:35:31.022Z</time>
      </trkpt>
      <trkpt lat="46.35956" lon="6.04561">
        <ele>1024.6</ele>
        <time>2020-11-01T11:35:32.021Z</time>
      </trkpt>
      <trkpt lat="46.35959" lon="6.04563">
        <ele>1025</ele>
        <time>2020-11-01T11:35:33.022Z</time>
      </trkpt>
      <trkpt lat="46.35959" lon="6.04563">
        <ele>1025</ele>
        <time>2020-11-01T11:35:34.02Z</time>
      </trkpt>
      <trkpt lat="46.35962" lon="6.04565">
        <ele>1025.2</ele>
        <time>2020-11-01T11:35:35.022Z</time>
      </trkpt>
      <trkpt lat="46.35965" lon="6.04566">
        <ele>1026</ele>
        <time>2020-11-01T11:35:36.02Z</time>
      </trkpt>
      <trkpt lat="46.35965" lon="6.04566">
        <ele>1026</ele>
        <time>2020-11-01T11:35:37.022Z</time>
      </trkpt>
      <trkpt lat="46.35968" lon="6.04567">
        <ele>1026.4</ele>
        <time>2020-11-01T11:35:38.021Z</time>
      </trkpt>
      <trkpt lat="46.35968" lon="6.04567">
        <ele>1026.4</ele>
        <time>2020-11-01T11:35:39.021Z</time>
      </trkpt>
      <trkpt lat="46.35971" lon="6.04568">
        <ele>1026.8</ele>
        <time>2020-11-01T11:35:40.023Z</time>
      </trkpt>
      <trkpt lat="46.35974" lon="6.04569">
        <ele>1027</ele>
        <time>2020-11-01T11:35:41.021Z</time>
      </trkpt>
      <trkpt lat="46.35974" lon="6.04569">
        <ele>1027</ele>
        <time>2020-11-01T11:35:42.021Z</time>
      </trkpt>
      <trkpt lat="46.35977" lon="6.04568">
        <ele>1027.4</ele>
        <time>2020-11-01T11:35:43.022Z</time>
      </trkpt>
      <trkpt lat="46.35977" lon="6.04568">
        <ele>1027.4</ele>
        <time>2020-11-01T11:35:44.023Z</time>
      </trkpt>
      <trkpt lat="46.3598" lon="6.04568">
        <ele>1027.8</ele>
        <time>2020-11-01T11:35:45.021Z</time>
      </trkpt>
      <trkpt lat="46.35983" lon="6.04566">
        <ele>1028.2</ele>
        <time>2020-11-01T11:35:46.021Z</time>
      </trkpt>
      <trkpt lat="46.35983" lon="6.04566">
        <ele>1028.2</ele>
        <time>2020-11-01T11:35:47.021Z</time>
      </trkpt>
      <trkpt lat="46.35985" lon="6.04564">
        <ele>1028.4</ele>
        <time>2020-11-01T11:35:48.024Z</time>
      </trkpt>
      <trkpt lat="46.35985" lon="6.04564">
        <ele>1028.4</ele>
        <time>2020-11-01T11:35:49.021Z</time>
      </trkpt>
      <trkpt lat="46.35987" lon="6.04562">
        <ele>1028.6</ele>
        <time>2020-11-01T11:35:50.021Z</time>
      </trkpt>
      <trkpt lat="46.35987" lon="6.04562">
        <ele>1028.6</ele>
        <time>2020-11-01T11:35:51.022Z</time>
      </trkpt>
      <trkpt lat="46.35989" lon="6.04558">
        <ele>1029</ele>
        <time>2020-11-01T11:35:52.022Z</time>
      </trkpt>
      <trkpt lat="46.35989" lon="6.04558">
        <ele>1029</ele>
        <time>2020-11-01T11:35:53.023Z</time>
      </trkpt>
      <trkpt lat="46.35991" lon="6.04555">
        <ele>1029.2</ele>
        <time>2020-11-01T11:35:54.021Z</time>
      </trkpt>
      <trkpt lat="46.35991" lon="6.04551">
        <ele>1029.6</ele>
        <time>2020-11-01T11:35:55.021Z</time>
      </trkpt>
      <trkpt lat="46.35991" lon="6.04551">
        <ele>1029.6</ele>
        <time>2020-11-01T11:35:56.021Z</time>
      </trkpt>
      <trkpt lat="46.35992" lon="6.04547">
        <ele>1029.8</ele>
        <time>2020-11-01T11:35:57.023Z</time>
      </trkpt>
      <trkpt lat="46.35991" lon="6.04543">
        <ele>1030</ele>
        <time>2020-11-01T11:35:58.021Z</time>
      </trkpt>
      <trkpt lat="46.35991" lon="6.04543">
        <ele>1030</ele>
        <time>2020-11-01T11:35:59.021Z</time>
      </trkpt>
      <trkpt lat="46.3599" lon="6.0454">
        <ele>1030.2</ele>
        <time>2020-11-01T11:36:00.022Z</time>
      </trkpt>
      <trkpt lat="46.35988" lon="6.04536">
        <ele>1030.4</ele>
        <time>2020-11-01T11:36:01.023Z</time>
      </trkpt>
      <trkpt lat="46.35988" lon="6.04536">
        <ele>1030.4</ele>
        <time>2020-11-01T11:36:02.021Z</time>
      </trkpt>
      <trkpt lat="46.35986" lon="6.04534">
        <ele>1030.8</ele>
        <time>2020-11-01T11:36:03.022Z</time>
      </trkpt>
      <trkpt lat="46.35984" lon="6.04532">
        <ele>1031</ele>
        <time>2020-11-01T11:36:04.02Z</time>
      </trkpt>
      <trkpt lat="46.35984" lon="6.04532">
        <ele>1031</ele>
        <time>2020-11-01T11:36:05.02Z</time>
      </trkpt>
      <trkpt lat="46.35981" lon="6.0453">
        <ele>1031.2</ele>
        <time>2020-11-01T11:36:06.02Z</time>
      </trkpt>
      <trkpt lat="46.35981" lon="6.0453">
        <ele>1031.2</ele>
        <time>2020-11-01T11:36:07.022Z</time>
      </trkpt>
      <trkpt lat="46.35979" lon="6.04529">
        <ele>1031.4</ele>
        <time>2020-11-01T11:36:08.02Z</time>
      </trkpt>
      <trkpt lat="46.35976" lon="6.04528">
        <ele>1031.6</ele>
        <time>2020-11-01T11:36:09.02Z</time>
      </trkpt>
      <trkpt lat="46.35976" lon="6.04528">
        <ele>1031.6</ele>
        <time>2020-11-01T11:36:10.023Z</time>
      </trkpt>
      <trkpt lat="46.35973" lon="6.04526">
        <ele>1031.8</ele>
        <time>2020-11-01T11:36:11.021Z</time>
      </trkpt>
      <trkpt lat="46.35973" lon="6.04526">
        <ele>1031.8</ele>
        <time>2020-11-01T11:36:12.021Z</time>
      </trkpt>
      <trkpt lat="46.3597" lon="6.04524">
        <ele>1031.8</ele>
        <time>2020-11-01T11:36:13.02Z</time>
      </trkpt>
      <trkpt lat="46.3597" lon="6.04524">
        <ele>1031.8</ele>
        <time>2020-11-01T11:36:14.023Z</time>
      </trkpt>
      <trkpt lat="46.35967" lon="6.04522">
        <ele>1032</ele>
        <time>2020-11-01T11:36:15.021Z</time>
      </trkpt>
      <trkpt lat="46.35965" lon="6.04521">
        <ele>1032.2</ele>
        <time>2020-11-01T11:36:16.022Z</time>
      </trkpt>
      <trkpt lat="46.35965" lon="6.04521">
        <ele>1032.2</ele>
        <time>2020-11-01T11:36:17.02Z</time>
      </trkpt>
      <trkpt lat="46.35962" lon="6.04519">
        <ele>1032.4</ele>
        <time>2020-11-01T11:36:18.023Z</time>
      </trkpt>
      <trkpt lat="46.35962" lon="6.04519">
        <ele>1032.4</ele>
        <time>2020-11-01T11:36:19.021Z</time>
      </trkpt>
      <trkpt lat="46.3596" lon="6.04517">
        <ele>1032.2</ele>
        <time>2020-11-01T11:36:20.021Z</time>
      </trkpt>
      <trkpt lat="46.35957" lon="6.04515">
        <ele>1032.4</ele>
        <time>2020-11-01T11:36:21.022Z</time>
      </trkpt>
      <trkpt lat="46.35957" lon="6.04515">
        <ele>1032.4</ele>
        <time>2020-11-01T11:36:22.023Z</time>
      </trkpt>
      <trkpt lat="46.35954" lon="6.04513">
        <ele>1032.4</ele>
        <time>2020-11-01T11:36:23.02Z</time>
      </trkpt>
      <trkpt lat="46.35952" lon="6.04511">
        <ele>1032.8</ele>
        <time>2020-11-01T11:36:24.02Z</time>
      </trkpt>
      <trkpt lat="46.35952" lon="6.04511">
        <ele>1032.8</ele>
        <time>2020-11-01T11:36:25.02Z</time>
      </trkpt>
      <trkpt lat="46.35949" lon="6.04509">
        <ele>1033</ele>
        <time>2020-11-01T11:36:26.021Z</time>
      </trkpt>
      <trkpt lat="46.35947" lon="6.04507">
        <ele>1033.2</ele>
        <time>2020-11-01T11:36:27.023Z</time>
      </trkpt>
      <trkpt lat="46.35947" lon="6.04507">
        <ele>1033.2</ele>
        <time>2020-11-01T11:36:28.021Z</time>
      </trkpt>
      <trkpt lat="46.35944" lon="6.04504">
        <ele>1033.6</ele>
        <time>2020-11-01T11:36:29.021Z</time>
      </trkpt>
      <trkpt lat="46.35942" lon="6.04502">
        <ele>1033.8</ele>
        <time>2020-11-01T11:36:30.021Z</time>
      </trkpt>
      <trkpt lat="46.35942" lon="6.04502">
        <ele>1033.8</ele>
        <time>2020-11-01T11:36:31.023Z</time>
      </trkpt>
      <trkpt lat="46.3594" lon="6.04499">
        <ele>1034</ele>
        <time>2020-11-01T11:36:32.021Z</time>
      </trkpt>
      <trkpt lat="46.35938" lon="6.04498">
        <ele>1034.2</ele>
        <time>2020-11-01T11:36:33.021Z</time>
      </trkpt>
      <trkpt lat="46.35936" lon="6.04496">
        <ele>1034.4</ele>
        <time>2020-11-01T11:36:34.02Z</time>
      </trkpt>
      <trkpt lat="46.35936" lon="6.04496">
        <ele>1034.4</ele>
        <time>2020-11-01T11:36:35.022Z</time>
      </trkpt>
      <trkpt lat="46.35934" lon="6.04494">
        <ele>1034.6</ele>
        <time>2020-11-01T11:36:36.021Z</time>
      </trkpt>
      <trkpt lat="46.35933" lon="6.04491">
        <ele>1035</ele>
        <time>2020-11-01T11:36:37.021Z</time>
      </trkpt>
      <trkpt lat="46.35931" lon="6.04489">
        <ele>1035.2</ele>
        <time>2020-11-01T11:36:38.02Z</time>
      </trkpt>
      <trkpt lat="46.35931" lon="6.04489">
        <ele>1035.2</ele>
        <time>2020-11-01T11:36:39.023Z</time>
      </trkpt>
      <trkpt lat="46.3593" lon="6.04485">
        <ele>1035.6</ele>
        <time>2020-11-01T11:36:40.021Z</time>
      </trkpt>
      <trkpt lat="46.3593" lon="6.04482">
        <ele>1035.8</ele>
        <time>2020-11-01T11:36:41.022Z</time>
      </trkpt>
      <trkpt lat="46.3593" lon="6.04482">
        <ele>1035.8</ele>
        <time>2020-11-01T11:36:42.02Z</time>
      </trkpt>
      <trkpt lat="46.35929" lon="6.04478">
        <ele>1036.2</ele>
        <time>2020-11-01T11:36:43.02Z</time>
      </trkpt>
      <trkpt lat="46.35929" lon="6.04474">
        <ele>1036.2</ele>
        <time>2020-11-01T11:36:44.023Z</time>
      </trkpt>
      <trkpt lat="46.35929" lon="6.04474">
        <ele>1036.2</ele>
        <time>2020-11-01T11:36:45.02Z</time>
      </trkpt>
      <trkpt lat="46.35929" lon="6.04469">
        <ele>1036.4</ele>
        <time>2020-11-01T11:36:46.021Z</time>
      </trkpt>
      <trkpt lat="46.35929" lon="6.04469">
        <ele>1036.4</ele>
        <time>2020-11-01T11:36:47.02Z</time>
      </trkpt>
      <trkpt lat="46.35929" lon="6.04465">
        <ele>1036.8</ele>
        <time>2020-11-01T11:36:48.023Z</time>
      </trkpt>
      <trkpt lat="46.35929" lon="6.04461">
        <ele>1037.2</ele>
        <time>2020-11-01T11:36:49.021Z</time>
      </trkpt>
      <trkpt lat="46.35929" lon="6.04461">
        <ele>1037.2</ele>
        <time>2020-11-01T11:36:50.022Z</time>
      </trkpt>
      <trkpt lat="46.35929" lon="6.04456">
        <ele>1037.4</ele>
        <time>2020-11-01T11:36:51.022Z</time>
      </trkpt>
      <trkpt lat="46.35929" lon="6.04456">
        <ele>1037.4</ele>
        <time>2020-11-01T11:36:52.021Z</time>
      </trkpt>
      <trkpt lat="46.35929" lon="6.04452">
        <ele>1037.8</ele>
        <time>2020-11-01T11:36:53.021Z</time>
      </trkpt>
      <trkpt lat="46.35929" lon="6.04452">
        <ele>1037.8</ele>
        <time>2020-11-01T11:36:54.022Z</time>
      </trkpt>
      <trkpt lat="46.35929" lon="6.04448">
        <ele>1038</ele>
        <time>2020-11-01T11:36:55.02Z</time>
      </trkpt>
      <trkpt lat="46.35929" lon="6.04443">
        <ele>1038.4</ele>
        <time>2020-11-01T11:36:56.023Z</time>
      </trkpt>
      <trkpt lat="46.35929" lon="6.04443">
        <ele>1038.4</ele>
        <time>2020-11-01T11:36:57.023Z</time>
      </trkpt>
      <trkpt lat="46.35929" lon="6.0444">
        <ele>1038.6</ele>
        <time>2020-11-01T11:36:58.021Z</time>
      </trkpt>
      <trkpt lat="46.35929" lon="6.04435">
        <ele>1038.8</ele>
        <time>2020-11-01T11:36:59.021Z</time>
      </trkpt>
      <trkpt lat="46.35929" lon="6.04435">
        <ele>1038.8</ele>
        <time>2020-11-01T11:37:00.021Z</time>
      </trkpt>
      <trkpt lat="46.35929" lon="6.04431">
        <ele>1039.2</ele>
        <time>2020-11-01T11:37:01.021Z</time>
      </trkpt>
      <trkpt lat="46.3593" lon="6.04427">
        <ele>1039.4</ele>
        <time>2020-11-01T11:37:02.02Z</time>
      </trkpt>
      <trkpt lat="46.3593" lon="6.04427">
        <ele>1039.4</ele>
        <time>2020-11-01T11:37:03.021Z</time>
      </trkpt>
      <trkpt lat="46.3593" lon="6.04423">
        <ele>1039.6</ele>
        <time>2020-11-01T11:37:04.021Z</time>
      </trkpt>
      <trkpt lat="46.3593" lon="6.04419">
        <ele>1040</ele>
        <time>2020-11-01T11:37:05.023Z</time>
      </trkpt>
      <trkpt lat="46.3593" lon="6.04419">
        <ele>1040</ele>
        <time>2020-11-01T11:37:06.02Z</time>
      </trkpt>
      <trkpt lat="46.3593" lon="6.04415">
        <ele>1040.2</ele>
        <time>2020-11-01T11:37:07.022Z</time>
      </trkpt>
      <trkpt lat="46.35929" lon="6.04411">
        <ele>1040.4</ele>
        <time>2020-11-01T11:37:08.02Z</time>
      </trkpt>
      <trkpt lat="46.35929" lon="6.04411">
        <ele>1040.4</ele>
        <time>2020-11-01T11:37:09.025Z</time>
      </trkpt>
      <trkpt lat="46.35929" lon="6.04407">
        <ele>1040.8</ele>
        <time>2020-11-01T11:37:10.021Z</time>
      </trkpt>
      <trkpt lat="46.35929" lon="6.04407">
        <ele>1040.8</ele>
        <time>2020-11-01T11:37:11.022Z</time>
      </trkpt>
      <trkpt lat="46.35929" lon="6.04402">
        <ele>1041.2</ele>
        <time>2020-11-01T11:37:12.02Z</time>
      </trkpt>
      <trkpt lat="46.35929" lon="6.04398">
        <ele>1041.4</ele>
        <time>2020-11-01T11:37:13.023Z</time>
      </trkpt>
      <trkpt lat="46.35929" lon="6.04398">
        <ele>1041.4</ele>
        <time>2020-11-01T11:37:14.023Z</time>
      </trkpt>
      <trkpt lat="46.35929" lon="6.04394">
        <ele>1041.6</ele>
        <time>2020-11-01T11:37:15.021Z</time>
      </trkpt>
      <trkpt lat="46.35928" lon="6.0439">
        <ele>1041.8</ele>
        <time>2020-11-01T11:37:16.021Z</time>
      </trkpt>
      <trkpt lat="46.35928" lon="6.04386">
        <ele>1042</ele>
        <time>2020-11-01T11:37:17.02Z</time>
      </trkpt>
      <trkpt lat="46.35928" lon="6.04386">
        <ele>1042</ele>
        <time>2020-11-01T11:37:18.023Z</time>
      </trkpt>
      <trkpt lat="46.35928" lon="6.04382">
        <ele>1042</ele>
        <time>2020-11-01T11:37:19.021Z</time>
      </trkpt>
      <trkpt lat="46.35929" lon="6.04378">
        <ele>1042.4</ele>
        <time>2020-11-01T11:37:20.021Z</time>
      </trkpt>
      <trkpt lat="46.35929" lon="6.04378">
        <ele>1042.4</ele>
        <time>2020-11-01T11:37:21.022Z</time>
      </trkpt>
      <trkpt lat="46.35929" lon="6.04374">
        <ele>1042.8</ele>
        <time>2020-11-01T11:37:22.022Z</time>
      </trkpt>
      <trkpt lat="46.35929" lon="6.04374">
        <ele>1042.8</ele>
        <time>2020-11-01T11:37:23.02Z</time>
      </trkpt>
      <trkpt lat="46.3593" lon="6.0437">
        <ele>1043.2</ele>
        <time>2020-11-01T11:37:24.02Z</time>
      </trkpt>
      <trkpt lat="46.35931" lon="6.04367">
        <ele>1043.4</ele>
        <time>2020-11-01T11:37:25.021Z</time>
      </trkpt>
      <trkpt lat="46.35931" lon="6.04367">
        <ele>1043.4</ele>
        <time>2020-11-01T11:37:26.022Z</time>
      </trkpt>
      <trkpt lat="46.35932" lon="6.04363">
        <ele>1043.6</ele>
        <time>2020-11-01T11:37:27.021Z</time>
      </trkpt>
      <trkpt lat="46.35933" lon="6.0436">
        <ele>1043.8</ele>
        <time>2020-11-01T11:37:28.022Z</time>
      </trkpt>
      <trkpt lat="46.35933" lon="6.0436">
        <ele>1043.8</ele>
        <time>2020-11-01T11:37:29.021Z</time>
      </trkpt>
      <trkpt lat="46.35935" lon="6.04356">
        <ele>1044</ele>
        <time>2020-11-01T11:37:30.02Z</time>
      </trkpt>
      <trkpt lat="46.35936" lon="6.04353">
        <ele>1044.2</ele>
        <time>2020-11-01T11:37:31.022Z</time>
      </trkpt>
      <trkpt lat="46.35938" lon="6.0435">
        <ele>1044.6</ele>
        <time>2020-11-01T11:37:32.021Z</time>
      </trkpt>
      <trkpt lat="46.35938" lon="6.0435">
        <ele>1044.6</ele>
        <time>2020-11-01T11:37:33.021Z</time>
      </trkpt>
      <trkpt lat="46.35939" lon="6.04347">
        <ele>1044.8</ele>
        <time>2020-11-01T11:37:34.02Z</time>
      </trkpt>
      <trkpt lat="46.35941" lon="6.04344">
        <ele>1045.2</ele>
        <time>2020-11-01T11:37:35.023Z</time>
      </trkpt>
      <trkpt lat="46.35943" lon="6.04341">
        <ele>1045.6</ele>
        <time>2020-11-01T11:37:36.021Z</time>
      </trkpt>
      <trkpt lat="46.35943" lon="6.04341">
        <ele>1045.6</ele>
        <time>2020-11-01T11:37:37.02Z</time>
      </trkpt>
      <trkpt lat="46.35945" lon="6.04338">
        <ele>1046</ele>
        <time>2020-11-01T11:37:38.02Z</time>
      </trkpt>
      <trkpt lat="46.35947" lon="6.04335">
        <ele>1046.2</ele>
        <time>2020-11-01T11:37:39.024Z</time>
      </trkpt>
      <trkpt lat="46.35949" lon="6.04333">
        <ele>1046.6</ele>
        <time>2020-11-01T11:37:40.02Z</time>
      </trkpt>
      <trkpt lat="46.35949" lon="6.04333">
        <ele>1046.6</ele>
        <time>2020-11-01T11:37:41.021Z</time>
      </trkpt>
      <trkpt lat="46.35951" lon="6.0433">
        <ele>1046.8</ele>
        <time>2020-11-01T11:37:42.021Z</time>
      </trkpt>
      <trkpt lat="46.35953" lon="6.04327">
        <ele>1047.2</ele>
        <time>2020-11-01T11:37:43.023Z</time>
      </trkpt>
      <trkpt lat="46.35953" lon="6.04327">
        <ele>1047.2</ele>
        <time>2020-11-01T11:37:44.022Z</time>
      </trkpt>
      <trkpt lat="46.35955" lon="6.04324">
        <ele>1047.6</ele>
        <time>2020-11-01T11:37:45.022Z</time>
      </trkpt>
      <trkpt lat="46.35957" lon="6.04322">
        <ele>1047.8</ele>
        <time>2020-11-01T11:37:46.02Z</time>
      </trkpt>
      <trkpt lat="46.35957" lon="6.04322">
        <ele>1047.8</ele>
        <time>2020-11-01T11:37:47.021Z</time>
      </trkpt>
      <trkpt lat="46.35959" lon="6.04319">
        <ele>1048</ele>
        <time>2020-11-01T11:37:48.021Z</time>
      </trkpt>
      <trkpt lat="46.35961" lon="6.04316">
        <ele>1048.4</ele>
        <time>2020-11-01T11:37:49.021Z</time>
      </trkpt>
      <trkpt lat="46.35963" lon="6.04313">
        <ele>1048.6</ele>
        <time>2020-11-01T11:37:50.021Z</time>
      </trkpt>
      <trkpt lat="46.35963" lon="6.04313">
        <ele>1048.6</ele>
        <time>2020-11-01T11:37:51.02Z</time>
      </trkpt>
      <trkpt lat="46.35964" lon="6.0431">
        <ele>1049</ele>
        <time>2020-11-01T11:37:52.022Z</time>
      </trkpt>
      <trkpt lat="46.35964" lon="6.0431">
        <ele>1049</ele>
        <time>2020-11-01T11:37:53.021Z</time>
      </trkpt>
      <trkpt lat="46.35966" lon="6.04307">
        <ele>1049.4</ele>
        <time>2020-11-01T11:37:54.02Z</time>
      </trkpt>
      <trkpt lat="46.35967" lon="6.04303">
        <ele>1049.6</ele>
        <time>2020-11-01T11:37:55.02Z</time>
      </trkpt>
      <trkpt lat="46.35967" lon="6.04303">
        <ele>1049.6</ele>
        <time>2020-11-01T11:37:56.022Z</time>
      </trkpt>
      <trkpt lat="46.35969" lon="6.043">
        <ele>1050</ele>
        <time>2020-11-01T11:37:57.021Z</time>
      </trkpt>
      <trkpt lat="46.3597" lon="6.04298">
        <ele>1050.2</ele>
        <time>2020-11-01T11:37:58.022Z</time>
      </trkpt>
      <trkpt lat="46.35971" lon="6.04294">
        <ele>1050.6</ele>
        <time>2020-11-01T11:37:59.021Z</time>
      </trkpt>
      <trkpt lat="46.35971" lon="6.04294">
        <ele>1050.6</ele>
        <time>2020-11-01T11:38:00.022Z</time>
      </trkpt>
      <trkpt lat="46.35973" lon="6.04291">
        <ele>1050.6</ele>
        <time>2020-11-01T11:38:01.02Z</time>
      </trkpt>
      <trkpt lat="46.35974" lon="6.04287">
        <ele>1050.8</ele>
        <time>2020-11-01T11:38:02.021Z</time>
      </trkpt>
      <trkpt lat="46.35975" lon="6.04283">
        <ele>1051.2</ele>
        <time>2020-11-01T11:38:03.021Z</time>
      </trkpt>
      <trkpt lat="46.35975" lon="6.04283">
        <ele>1051.2</ele>
        <time>2020-11-01T11:38:04.02Z</time>
      </trkpt>
      <trkpt lat="46.35976" lon="6.0428">
        <ele>1051.4</ele>
        <time>2020-11-01T11:38:05.021Z</time>
      </trkpt>
      <trkpt lat="46.35976" lon="6.0428">
        <ele>1051.4</ele>
        <time>2020-11-01T11:38:06.021Z</time>
      </trkpt>
      <trkpt lat="46.35977" lon="6.04275">
        <ele>1051.6</ele>
        <time>2020-11-01T11:38:07.021Z</time>
      </trkpt>
      <trkpt lat="46.35978" lon="6.04271">
        <ele>1052</ele>
        <time>2020-11-01T11:38:08.022Z</time>
      </trkpt>
      <trkpt lat="46.35978" lon="6.04271">
        <ele>1052</ele>
        <time>2020-11-01T11:38:09.023Z</time>
      </trkpt>
      <trkpt lat="46.35979" lon="6.04267">
        <ele>1052.2</ele>
        <time>2020-11-01T11:38:10.021Z</time>
      </trkpt>
      <trkpt lat="46.35979" lon="6.04267">
        <ele>1052.2</ele>
        <time>2020-11-01T11:38:11.021Z</time>
      </trkpt>
      <trkpt lat="46.3598" lon="6.04263">
        <ele>1052.4</ele>
        <time>2020-11-01T11:38:12.022Z</time>
      </trkpt>
      <trkpt lat="46.35981" lon="6.04259">
        <ele>1052.8</ele>
        <time>2020-11-01T11:38:13.023Z</time>
      </trkpt>
      <trkpt lat="46.35981" lon="6.04259">
        <ele>1052.8</ele>
        <time>2020-11-01T11:38:14.022Z</time>
      </trkpt>
      <trkpt lat="46.35982" lon="6.04255">
        <ele>1053</ele>
        <time>2020-11-01T11:38:15.022Z</time>
      </trkpt>
      <trkpt lat="46.35982" lon="6.04255">
        <ele>1053</ele>
        <time>2020-11-01T11:38:16.02Z</time>
      </trkpt>
      <trkpt lat="46.35983" lon="6.04251">
        <ele>1053.2</ele>
        <time>2020-11-01T11:38:17.022Z</time>
      </trkpt>
      <trkpt lat="46.35984" lon="6.04246">
        <ele>1053.6</ele>
        <time>2020-11-01T11:38:18.023Z</time>
      </trkpt>
      <trkpt lat="46.35984" lon="6.04242">
        <ele>1053.6</ele>
        <time>2020-11-01T11:38:19.021Z</time>
      </trkpt>
      <trkpt lat="46.35984" lon="6.04242">
        <ele>1053.6</ele>
        <time>2020-11-01T11:38:20.021Z</time>
      </trkpt>
      <trkpt lat="46.35985" lon="6.04239">
        <ele>1053.8</ele>
        <time>2020-11-01T11:38:21.021Z</time>
      </trkpt>
      <trkpt lat="46.35986" lon="6.04235">
        <ele>1054</ele>
        <time>2020-11-01T11:38:22.021Z</time>
      </trkpt>
      <trkpt lat="46.35986" lon="6.04235">
        <ele>1054</ele>
        <time>2020-11-01T11:38:23.02Z</time>
      </trkpt>
      <trkpt lat="46.35987" lon="6.04231">
        <ele>1054.2</ele>
        <time>2020-11-01T11:38:24.021Z</time>
      </trkpt>
      <trkpt lat="46.35987" lon="6.04231">
        <ele>1054.2</ele>
        <time>2020-11-01T11:38:25.021Z</time>
      </trkpt>
      <trkpt lat="46.35988" lon="6.04227">
        <ele>1054.4</ele>
        <time>2020-11-01T11:38:26.021Z</time>
      </trkpt>
      <trkpt lat="46.35989" lon="6.04223">
        <ele>1054.6</ele>
        <time>2020-11-01T11:38:27.021Z</time>
      </trkpt>
      <trkpt lat="46.35989" lon="6.04223">
        <ele>1054.6</ele>
        <time>2020-11-01T11:38:28.02Z</time>
      </trkpt>
      <trkpt lat="46.35989" lon="6.04218">
        <ele>1055</ele>
        <time>2020-11-01T11:38:29.021Z</time>
      </trkpt>
      <trkpt lat="46.35989" lon="6.04218">
        <ele>1055</ele>
        <time>2020-11-01T11:38:30.023Z</time>
      </trkpt>
      <trkpt lat="46.3599" lon="6.04214">
        <ele>1055.2</ele>
        <time>2020-11-01T11:38:31.021Z</time>
      </trkpt>
      <trkpt lat="46.3599" lon="6.04214">
        <ele>1055.2</ele>
        <time>2020-11-01T11:38:32.02Z</time>
      </trkpt>
      <trkpt lat="46.3599" lon="6.04209">
        <ele>1055.6</ele>
        <time>2020-11-01T11:38:33.021Z</time>
      </trkpt>
      <trkpt lat="46.35989" lon="6.04205">
        <ele>1055.8</ele>
        <time>2020-11-01T11:38:34.022Z</time>
      </trkpt>
      <trkpt lat="46.35989" lon="6.04205">
        <ele>1055.8</ele>
        <time>2020-11-01T11:38:35.023Z</time>
      </trkpt>
      <trkpt lat="46.35989" lon="6.042">
        <ele>1056.2</ele>
        <time>2020-11-01T11:38:36.021Z</time>
      </trkpt>
      <trkpt lat="46.35989" lon="6.04196">
        <ele>1056.4</ele>
        <time>2020-11-01T11:38:37.021Z</time>
      </trkpt>
      <trkpt lat="46.35989" lon="6.04196">
        <ele>1056.4</ele>
        <time>2020-11-01T11:38:38.021Z</time>
      </trkpt>
      <trkpt lat="46.35989" lon="6.04191">
        <ele>1056.8</ele>
        <time>2020-11-01T11:38:39.023Z</time>
      </trkpt>
      <trkpt lat="46.35989" lon="6.04191">
        <ele>1056.8</ele>
        <time>2020-11-01T11:38:40.021Z</time>
      </trkpt>
      <trkpt lat="46.35988" lon="6.04187">
        <ele>1057.2</ele>
        <time>2020-11-01T11:38:41.021Z</time>
      </trkpt>
      <trkpt lat="46.35988" lon="6.04182">
        <ele>1057.4</ele>
        <time>2020-11-01T11:38:42.02Z</time>
      </trkpt>
      <trkpt lat="46.35988" lon="6.04182">
        <ele>1057.4</ele>
        <time>2020-11-01T11:38:43.022Z</time>
      </trkpt>
      <trkpt lat="46.35987" lon="6.04178">
        <ele>1057.4</ele>
        <time>2020-11-01T11:38:44.021Z</time>
      </trkpt>
      <trkpt lat="46.35987" lon="6.04178">
        <ele>1057.4</ele>
        <time>2020-11-01T11:38:45.021Z</time>
      </trkpt>
      <trkpt lat="46.35987" lon="6.04174">
        <ele>1057.6</ele>
        <time>2020-11-01T11:38:46.021Z</time>
      </trkpt>
      <trkpt lat="46.35986" lon="6.0417">
        <ele>1058</ele>
        <time>2020-11-01T11:38:47.022Z</time>
      </trkpt>
      <trkpt lat="46.35986" lon="6.0417">
        <ele>1058</ele>
        <time>2020-11-01T11:38:48.022Z</time>
      </trkpt>
      <trkpt lat="46.35985" lon="6.04166">
        <ele>1058.2</ele>
        <time>2020-11-01T11:38:49.022Z</time>
      </trkpt>
      <trkpt lat="46.35985" lon="6.04166">
        <ele>1058.2</ele>
        <time>2020-11-01T11:38:50.021Z</time>
      </trkpt>
      <trkpt lat="46.35984" lon="6.04162">
        <ele>1058.4</ele>
        <time>2020-11-01T11:38:51.02Z</time>
      </trkpt>
      <trkpt lat="46.35983" lon="6.04158">
        <ele>1058.6</ele>
        <time>2020-11-01T11:38:52.024Z</time>
      </trkpt>
      <trkpt lat="46.35982" lon="6.04154">
        <ele>1058.8</ele>
        <time>2020-11-01T11:38:53.021Z</time>
      </trkpt>
      <trkpt lat="46.35982" lon="6.04154">
        <ele>1058.8</ele>
        <time>2020-11-01T11:38:54.021Z</time>
      </trkpt>
      <trkpt lat="46.3598" lon="6.0415">
        <ele>1059</ele>
        <time>2020-11-01T11:38:55.022Z</time>
      </trkpt>
      <trkpt lat="46.3598" lon="6.0415">
        <ele>1059</ele>
        <time>2020-11-01T11:38:56.022Z</time>
      </trkpt>
      <trkpt lat="46.35978" lon="6.04146">
        <ele>1059.2</ele>
        <time>2020-11-01T11:38:57.022Z</time>
      </trkpt>
      <trkpt lat="46.35978" lon="6.04146">
        <ele>1059.2</ele>
        <time>2020-11-01T11:38:58.022Z</time>
      </trkpt>
      <trkpt lat="46.35977" lon="6.04142">
        <ele>1059.2</ele>
        <time>2020-11-01T11:38:59.022Z</time>
      </trkpt>
      <trkpt lat="46.35977" lon="6.04142">
        <ele>1059.2</ele>
        <time>2020-11-01T11:39:00.021Z</time>
      </trkpt>
      <trkpt lat="46.35974" lon="6.04137">
        <ele>1059.6</ele>
        <time>2020-11-01T11:39:01.02Z</time>
      </trkpt>
      <trkpt lat="46.35974" lon="6.04137">
        <ele>1059.6</ele>
        <time>2020-11-01T11:39:02.022Z</time>
      </trkpt>
      <trkpt lat="46.35971" lon="6.04133">
        <ele>1059.8</ele>
        <time>2020-11-01T11:39:03.02Z</time>
      </trkpt>
      <trkpt lat="46.35971" lon="6.04133">
        <ele>1059.8</ele>
        <time>2020-11-01T11:39:04.023Z</time>
      </trkpt>
      <trkpt lat="46.3597" lon="6.04129">
        <ele>1060</ele>
        <time>2020-11-01T11:39:05.02Z</time>
      </trkpt>
      <trkpt lat="46.3597" lon="6.04129">
        <ele>1060</ele>
        <time>2020-11-01T11:39:06.022Z</time>
      </trkpt>
      <trkpt lat="46.35968" lon="6.04125">
        <ele>1060.6</ele>
        <time>2020-11-01T11:39:07.021Z</time>
      </trkpt>
      <trkpt lat="46.35968" lon="6.04125">
        <ele>1060.6</ele>
        <time>2020-11-01T11:39:08.021Z</time>
      </trkpt>
      <trkpt lat="46.35968" lon="6.04125">
        <ele>1060.6</ele>
        <time>2020-11-01T11:39:09.023Z</time>
      </trkpt>
      <trkpt lat="46.35968" lon="6.04125">
        <ele>1060.6</ele>
        <time>2020-11-01T11:39:10.021Z</time>
      </trkpt>
      <trkpt lat="46.35965" lon="6.04117">
        <ele>1060.8</ele>
        <time>2020-11-01T11:39:11.021Z</time>
      </trkpt>
      <trkpt lat="46.35963" lon="6.04114">
        <ele>1061.2</ele>
        <time>2020-11-01T11:39:12.021Z</time>
      </trkpt>
      <trkpt lat="46.35963" lon="6.04114">
        <ele>1061.2</ele>
        <time>2020-11-01T11:39:13.023Z</time>
      </trkpt>
      <trkpt lat="46.35961" lon="6.0411">
        <ele>1061.6</ele>
        <time>2020-11-01T11:39:14.022Z</time>
      </trkpt>
      <trkpt lat="46.35961" lon="6.0411">
        <ele>1061.6</ele>
        <time>2020-11-01T11:39:15.021Z</time>
      </trkpt>
      <trkpt lat="46.3596" lon="6.04106">
        <ele>1061.8</ele>
        <time>2020-11-01T11:39:16.021Z</time>
      </trkpt>
      <trkpt lat="46.35959" lon="6.04103">
        <ele>1062.2</ele>
        <time>2020-11-01T11:39:17.021Z</time>
      </trkpt>
      <trkpt lat="46.35959" lon="6.04103">
        <ele>1062.2</ele>
        <time>2020-11-01T11:39:18.02Z</time>
      </trkpt>
      <trkpt lat="46.35957" lon="6.04099">
        <ele>1062.4</ele>
        <time>2020-11-01T11:39:19.021Z</time>
      </trkpt>
      <trkpt lat="46.35955" lon="6.04096">
        <ele>1062.6</ele>
        <time>2020-11-01T11:39:20.021Z</time>
      </trkpt>
      <trkpt lat="46.35954" lon="6.04092">
        <ele>1063</ele>
        <time>2020-11-01T11:39:21.021Z</time>
      </trkpt>
      <trkpt lat="46.35954" lon="6.04092">
        <ele>1063</ele>
        <time>2020-11-01T11:39:22.023Z</time>
      </trkpt>
      <trkpt lat="46.35952" lon="6.04089">
        <ele>1063.4</ele>
        <time>2020-11-01T11:39:23.02Z</time>
      </trkpt>
      <trkpt lat="46.35952" lon="6.04089">
        <ele>1063.4</ele>
        <time>2020-11-01T11:39:24.021Z</time>
      </trkpt>
      <trkpt lat="46.35951" lon="6.04085">
        <ele>1063.8</ele>
        <time>2020-11-01T11:39:25.021Z</time>
      </trkpt>
      <trkpt lat="46.35949" lon="6.04082">
        <ele>1064</ele>
        <time>2020-11-01T11:39:26.022Z</time>
      </trkpt>
      <trkpt lat="46.35949" lon="6.04082">
        <ele>1064</ele>
        <time>2020-11-01T11:39:27.021Z</time>
      </trkpt>
      <trkpt lat="46.35947" lon="6.04078">
        <ele>1064.4</ele>
        <time>2020-11-01T11:39:28.021Z</time>
      </trkpt>
      <trkpt lat="46.35947" lon="6.04078">
        <ele>1064.4</ele>
        <time>2020-11-01T11:39:29.02Z</time>
      </trkpt>
      <trkpt lat="46.35946" lon="6.04075">
        <ele>1065</ele>
        <time>2020-11-01T11:39:30.024Z</time>
      </trkpt>
      <trkpt lat="46.35944" lon="6.04072">
        <ele>1065</ele>
        <time>2020-11-01T11:39:31.022Z</time>
      </trkpt>
      <trkpt lat="46.35944" lon="6.04072">
        <ele>1065</ele>
        <time>2020-11-01T11:39:32.022Z</time>
      </trkpt>
      <trkpt lat="46.35943" lon="6.04068">
        <ele>1065</ele>
        <time>2020-11-01T11:39:33.02Z</time>
      </trkpt>
      <trkpt lat="46.35943" lon="6.04068">
        <ele>1065</ele>
        <time>2020-11-01T11:39:34.024Z</time>
      </trkpt>
      <trkpt lat="46.35941" lon="6.04064">
        <ele>1065.4</ele>
        <time>2020-11-01T11:39:35.021Z</time>
      </trkpt>
      <trkpt lat="46.35939" lon="6.0406">
        <ele>1065.6</ele>
        <time>2020-11-01T11:39:36.021Z</time>
      </trkpt>
      <trkpt lat="46.35939" lon="6.0406">
        <ele>1065.6</ele>
        <time>2020-11-01T11:39:37.021Z</time>
      </trkpt>
      <trkpt lat="46.35938" lon="6.04057">
        <ele>1066</ele>
        <time>2020-11-01T11:39:38.021Z</time>
      </trkpt>
      <trkpt lat="46.35938" lon="6.04057">
        <ele>1066</ele>
        <time>2020-11-01T11:39:39.023Z</time>
      </trkpt>
      <trkpt lat="46.35937" lon="6.04053">
        <ele>1066.2</ele>
        <time>2020-11-01T11:39:40.021Z</time>
      </trkpt>
      <trkpt lat="46.35937" lon="6.04053">
        <ele>1066.2</ele>
        <time>2020-11-01T11:39:41.021Z</time>
      </trkpt>
      <trkpt lat="46.35936" lon="6.04049">
        <ele>1066.4</ele>
        <time>2020-11-01T11:39:42.022Z</time>
      </trkpt>
      <trkpt lat="46.35934" lon="6.04045">
        <ele>1066.8</ele>
        <time>2020-11-01T11:39:43.023Z</time>
      </trkpt>
      <trkpt lat="46.35934" lon="6.04045">
        <ele>1066.8</ele>
        <time>2020-11-01T11:39:44.021Z</time>
      </trkpt>
      <trkpt lat="46.35933" lon="6.0404">
        <ele>1067</ele>
        <time>2020-11-01T11:39:45.021Z</time>
      </trkpt>
      <trkpt lat="46.35933" lon="6.0404">
        <ele>1067</ele>
        <time>2020-11-01T11:39:46.021Z</time>
      </trkpt>
      <trkpt lat="46.35933" lon="6.04036">
        <ele>1067.2</ele>
        <time>2020-11-01T11:39:47.022Z</time>
      </trkpt>
      <trkpt lat="46.35932" lon="6.04032">
        <ele>1067.4</ele>
        <time>2020-11-01T11:39:48.02Z</time>
      </trkpt>
      <trkpt lat="46.35932" lon="6.04032">
        <ele>1067.4</ele>
        <time>2020-11-01T11:39:49.021Z</time>
      </trkpt>
      <trkpt lat="46.35931" lon="6.04027">
        <ele>1067.6</ele>
        <time>2020-11-01T11:39:50.022Z</time>
      </trkpt>
      <trkpt lat="46.35931" lon="6.04027">
        <ele>1067.6</ele>
        <time>2020-11-01T11:39:51.023Z</time>
      </trkpt>
      <trkpt lat="46.35931" lon="6.04023">
        <ele>1067.8</ele>
        <time>2020-11-01T11:39:52.02Z</time>
      </trkpt>
      <trkpt lat="46.35931" lon="6.04023">
        <ele>1067.8</ele>
        <time>2020-11-01T11:39:53.022Z</time>
      </trkpt>
      <trkpt lat="46.3593" lon="6.04018">
        <ele>1068</ele>
        <time>2020-11-01T11:39:54.02Z</time>
      </trkpt>
      <trkpt lat="46.3593" lon="6.04018">
        <ele>1068</ele>
        <time>2020-11-01T11:39:55.021Z</time>
      </trkpt>
      <trkpt lat="46.3593" lon="6.04013">
        <ele>1068.4</ele>
        <time>2020-11-01T11:39:56.021Z</time>
      </trkpt>
      <trkpt lat="46.3593" lon="6.04009">
        <ele>1068.6</ele>
        <time>2020-11-01T11:39:57.021Z</time>
      </trkpt>
      <trkpt lat="46.3593" lon="6.04009">
        <ele>1068.6</ele>
        <time>2020-11-01T11:39:58.021Z</time>
      </trkpt>
      <trkpt lat="46.3593" lon="6.04004">
        <ele>1069</ele>
        <time>2020-11-01T11:39:59.021Z</time>
      </trkpt>
      <trkpt lat="46.3593" lon="6.04004">
        <ele>1069</ele>
        <time>2020-11-01T11:40:00.021Z</time>
      </trkpt>
      <trkpt lat="46.35931" lon="6.03999">
        <ele>1069.2</ele>
        <time>2020-11-01T11:40:01.021Z</time>
      </trkpt>
      <trkpt lat="46.35931" lon="6.03999">
        <ele>1069.2</ele>
        <time>2020-11-01T11:40:02.021Z</time>
      </trkpt>
      <trkpt lat="46.35932" lon="6.03995">
        <ele>1069.4</ele>
        <time>2020-11-01T11:40:03.02Z</time>
      </trkpt>
      <trkpt lat="46.35932" lon="6.0399">
        <ele>1069.6</ele>
        <time>2020-11-01T11:40:04.023Z</time>
      </trkpt>
      <trkpt lat="46.35932" lon="6.0399">
        <ele>1069.6</ele>
        <time>2020-11-01T11:40:05.021Z</time>
      </trkpt>
      <trkpt lat="46.35933" lon="6.03986">
        <ele>1070</ele>
        <time>2020-11-01T11:40:06.021Z</time>
      </trkpt>
      <trkpt lat="46.35933" lon="6.03986">
        <ele>1070</ele>
        <time>2020-11-01T11:40:07.021Z</time>
      </trkpt>
      <trkpt lat="46.35934" lon="6.03982">
        <ele>1070.2</ele>
        <time>2020-11-01T11:40:08.02Z</time>
      </trkpt>
      <trkpt lat="46.35935" lon="6.03978">
        <ele>1070.4</ele>
        <time>2020-11-01T11:40:09.02Z</time>
      </trkpt>
      <trkpt lat="46.35935" lon="6.03978">
        <ele>1070.4</ele>
        <time>2020-11-01T11:40:10.021Z</time>
      </trkpt>
      <trkpt lat="46.35936" lon="6.03973">
        <ele>1070.8</ele>
        <time>2020-11-01T11:40:11.02Z</time>
      </trkpt>
      <trkpt lat="46.35937" lon="6.03969">
        <ele>1071</ele>
        <time>2020-11-01T11:40:12.02Z</time>
      </trkpt>
      <trkpt lat="46.35937" lon="6.03969">
        <ele>1071</ele>
        <time>2020-11-01T11:40:13.023Z</time>
      </trkpt>
      <trkpt lat="46.35938" lon="6.03965">
        <ele>1071.2</ele>
        <time>2020-11-01T11:40:14.021Z</time>
      </trkpt>
      <trkpt lat="46.35939" lon="6.03961">
        <ele>1071.6</ele>
        <time>2020-11-01T11:40:15.021Z</time>
      </trkpt>
      <trkpt lat="46.35939" lon="6.03961">
        <ele>1071.6</ele>
        <time>2020-11-01T11:40:16.02Z</time>
      </trkpt>
      <trkpt lat="46.3594" lon="6.03957">
        <ele>1071.8</ele>
        <time>2020-11-01T11:40:17.021Z</time>
      </trkpt>
      <trkpt lat="46.35941" lon="6.03953">
        <ele>1072.2</ele>
        <time>2020-11-01T11:40:18.022Z</time>
      </trkpt>
      <trkpt lat="46.35941" lon="6.03953">
        <ele>1072.2</ele>
        <time>2020-11-01T11:40:19.021Z</time>
      </trkpt>
      <trkpt lat="46.35942" lon="6.03949">
        <ele>1072.6</ele>
        <time>2020-11-01T11:40:20.022Z</time>
      </trkpt>
      <trkpt lat="46.35943" lon="6.03944">
        <ele>1073</ele>
        <time>2020-11-01T11:40:21.023Z</time>
      </trkpt>
      <trkpt lat="46.35943" lon="6.03944">
        <ele>1073</ele>
        <time>2020-11-01T11:40:22.021Z</time>
      </trkpt>
      <trkpt lat="46.35944" lon="6.0394">
        <ele>1073.4</ele>
        <time>2020-11-01T11:40:23.022Z</time>
      </trkpt>
      <trkpt lat="46.35945" lon="6.03936">
        <ele>1073.8</ele>
        <time>2020-11-01T11:40:24.021Z</time>
      </trkpt>
      <trkpt lat="46.35945" lon="6.03936">
        <ele>1073.8</ele>
        <time>2020-11-01T11:40:25.021Z</time>
      </trkpt>
      <trkpt lat="46.35946" lon="6.03932">
        <ele>1074</ele>
        <time>2020-11-01T11:40:26.026Z</time>
      </trkpt>
      <trkpt lat="46.35946" lon="6.03932">
        <ele>1074</ele>
        <time>2020-11-01T11:40:27.022Z</time>
      </trkpt>
      <trkpt lat="46.35947" lon="6.03928">
        <ele>1074.4</ele>
        <time>2020-11-01T11:40:28.021Z</time>
      </trkpt>
      <trkpt lat="46.35948" lon="6.03924">
        <ele>1074.6</ele>
        <time>2020-11-01T11:40:29.021Z</time>
      </trkpt>
      <trkpt lat="46.35948" lon="6.03924">
        <ele>1074.6</ele>
        <time>2020-11-01T11:40:30.021Z</time>
      </trkpt>
      <trkpt lat="46.35949" lon="6.0392">
        <ele>1075</ele>
        <time>2020-11-01T11:40:31.021Z</time>
      </trkpt>
      <trkpt lat="46.3595" lon="6.03917">
        <ele>1075.4</ele>
        <time>2020-11-01T11:40:32.021Z</time>
      </trkpt>
      <trkpt lat="46.3595" lon="6.03917">
        <ele>1075.4</ele>
        <time>2020-11-01T11:40:33.021Z</time>
      </trkpt>
      <trkpt lat="46.35951" lon="6.03913">
        <ele>1075.6</ele>
        <time>2020-11-01T11:40:34.021Z</time>
      </trkpt>
      <trkpt lat="46.35951" lon="6.03913">
        <ele>1075.6</ele>
        <time>2020-11-01T11:40:35.022Z</time>
      </trkpt>
      <trkpt lat="46.35952" lon="6.03909">
        <ele>1075.8</ele>
        <time>2020-11-01T11:40:36.021Z</time>
      </trkpt>
      <trkpt lat="46.35953" lon="6.03905">
        <ele>1076</ele>
        <time>2020-11-01T11:40:37.02Z</time>
      </trkpt>
      <trkpt lat="46.35953" lon="6.03905">
        <ele>1076</ele>
        <time>2020-11-01T11:40:38.023Z</time>
      </trkpt>
      <trkpt lat="46.35954" lon="6.03901">
        <ele>1076.4</ele>
        <time>2020-11-01T11:40:39.02Z</time>
      </trkpt>
      <trkpt lat="46.35955" lon="6.03897">
        <ele>1076.6</ele>
        <time>2020-11-01T11:40:40.021Z</time>
      </trkpt>
      <trkpt lat="46.35955" lon="6.03897">
        <ele>1076.6</ele>
        <time>2020-11-01T11:40:41.021Z</time>
      </trkpt>
      <trkpt lat="46.35956" lon="6.03894">
        <ele>1077</ele>
        <time>2020-11-01T11:40:42.021Z</time>
      </trkpt>
      <trkpt lat="46.35956" lon="6.03894">
        <ele>1077</ele>
        <time>2020-11-01T11:40:43.023Z</time>
      </trkpt>
      <trkpt lat="46.35957" lon="6.0389">
        <ele>1077.2</ele>
        <time>2020-11-01T11:40:44.021Z</time>
      </trkpt>
      <trkpt lat="46.35958" lon="6.03886">
        <ele>1077.4</ele>
        <time>2020-11-01T11:40:45.021Z</time>
      </trkpt>
      <trkpt lat="46.35958" lon="6.03886">
        <ele>1077.4</ele>
        <time>2020-11-01T11:40:46.02Z</time>
      </trkpt>
      <trkpt lat="46.35959" lon="6.03882">
        <ele>1077.6</ele>
        <time>2020-11-01T11:40:47.023Z</time>
      </trkpt>
      <trkpt lat="46.3596" lon="6.03878">
        <ele>1077.8</ele>
        <time>2020-11-01T11:40:48.021Z</time>
      </trkpt>
      <trkpt lat="46.3596" lon="6.03878">
        <ele>1077.8</ele>
        <time>2020-11-01T11:40:49.021Z</time>
      </trkpt>
      <trkpt lat="46.35961" lon="6.03875">
        <ele>1078</ele>
        <time>2020-11-01T11:40:50.02Z</time>
      </trkpt>
      <trkpt lat="46.35962" lon="6.03871">
        <ele>1078.2</ele>
        <time>2020-11-01T11:40:51.023Z</time>
      </trkpt>
      <trkpt lat="46.35962" lon="6.03871">
        <ele>1078.2</ele>
        <time>2020-11-01T11:40:52.022Z</time>
      </trkpt>
      <trkpt lat="46.35963" lon="6.03867">
        <ele>1078.4</ele>
        <time>2020-11-01T11:40:53.022Z</time>
      </trkpt>
      <trkpt lat="46.35964" lon="6.03863">
        <ele>1078.6</ele>
        <time>2020-11-01T11:40:54.02Z</time>
      </trkpt>
      <trkpt lat="46.35964" lon="6.03863">
        <ele>1078.6</ele>
        <time>2020-11-01T11:40:55.023Z</time>
      </trkpt>
      <trkpt lat="46.35965" lon="6.03859">
        <ele>1078.8</ele>
        <time>2020-11-01T11:40:56.021Z</time>
      </trkpt>
      <trkpt lat="46.35965" lon="6.03859">
        <ele>1078.8</ele>
        <time>2020-11-01T11:40:57.02Z</time>
      </trkpt>
      <trkpt lat="46.35966" lon="6.03856">
        <ele>1079.2</ele>
        <time>2020-11-01T11:40:58.02Z</time>
      </trkpt>
      <trkpt lat="46.35968" lon="6.03852">
        <ele>1079.4</ele>
        <time>2020-11-01T11:40:59.021Z</time>
      </trkpt>
      <trkpt lat="46.35968" lon="6.03852">
        <ele>1079.4</ele>
        <time>2020-11-01T11:41:00.021Z</time>
      </trkpt>
      <trkpt lat="46.35969" lon="6.03848">
        <ele>1079.6</ele>
        <time>2020-11-01T11:41:01.021Z</time>
      </trkpt>
      <trkpt lat="46.35971" lon="6.03845">
        <ele>1080</ele>
        <time>2020-11-01T11:41:02.021Z</time>
      </trkpt>
      <trkpt lat="46.35971" lon="6.03845">
        <ele>1080</ele>
        <time>2020-11-01T11:41:03.021Z</time>
      </trkpt>
      <trkpt lat="46.35972" lon="6.03841">
        <ele>1080.4</ele>
        <time>2020-11-01T11:41:04.023Z</time>
      </trkpt>
      <trkpt lat="46.35972" lon="6.03841">
        <ele>1080.4</ele>
        <time>2020-11-01T11:41:05.02Z</time>
      </trkpt>
      <trkpt lat="46.35974" lon="6.03838">
        <ele>1080.8</ele>
        <time>2020-11-01T11:41:06.022Z</time>
      </trkpt>
      <trkpt lat="46.35976" lon="6.03834">
        <ele>1081</ele>
        <time>2020-11-01T11:41:07.022Z</time>
      </trkpt>
      <trkpt lat="46.35977" lon="6.03831">
        <ele>1081.2</ele>
        <time>2020-11-01T11:41:08.021Z</time>
      </trkpt>
      <trkpt lat="46.35977" lon="6.03831">
        <ele>1081.2</ele>
        <time>2020-11-01T11:41:09.021Z</time>
      </trkpt>
      <trkpt lat="46.35979" lon="6.03827">
        <ele>1081.4</ele>
        <time>2020-11-01T11:41:10.021Z</time>
      </trkpt>
      <trkpt lat="46.35979" lon="6.03827">
        <ele>1081.4</ele>
        <time>2020-11-01T11:41:11.02Z</time>
      </trkpt>
      <trkpt lat="46.35981" lon="6.03824">
        <ele>1081.4</ele>
        <time>2020-11-01T11:41:12.021Z</time>
      </trkpt>
      <trkpt lat="46.35981" lon="6.03824">
        <ele>1081.4</ele>
        <time>2020-11-01T11:41:13.021Z</time>
      </trkpt>
      <trkpt lat="46.35981" lon="6.03824">
        <ele>1081.4</ele>
        <time>2020-11-01T11:41:14.022Z</time>
      </trkpt>
      <trkpt lat="46.35985" lon="6.03818">
        <ele>1082</ele>
        <time>2020-11-01T11:41:15.02Z</time>
      </trkpt>
      <trkpt lat="46.35985" lon="6.03818">
        <ele>1082</ele>
        <time>2020-11-01T11:41:16.02Z</time>
      </trkpt>
      <trkpt lat="46.35988" lon="6.03816">
        <ele>1082.2</ele>
        <time>2020-11-01T11:41:17.023Z</time>
      </trkpt>
      <trkpt lat="46.35988" lon="6.03816">
        <ele>1082.2</ele>
        <time>2020-11-01T11:41:18.02Z</time>
      </trkpt>
      <trkpt lat="46.3599" lon="6.03813">
        <ele>1082.6</ele>
        <time>2020-11-01T11:41:19.021Z</time>
      </trkpt>
      <trkpt lat="46.35992" lon="6.03811">
        <ele>1082.8</ele>
        <time>2020-11-01T11:41:20.02Z</time>
      </trkpt>
      <trkpt lat="46.35992" lon="6.03811">
        <ele>1082.8</ele>
        <time>2020-11-01T11:41:21.023Z</time>
      </trkpt>
      <trkpt lat="46.35995" lon="6.03808">
        <ele>1083</ele>
        <time>2020-11-01T11:41:22.022Z</time>
      </trkpt>
      <trkpt lat="46.35995" lon="6.03808">
        <ele>1083</ele>
        <time>2020-11-01T11:41:23.021Z</time>
      </trkpt>
      <trkpt lat="46.35998" lon="6.03806">
        <ele>1083.2</ele>
        <time>2020-11-01T11:41:24.021Z</time>
      </trkpt>
      <trkpt lat="46.36" lon="6.03804">
        <ele>1083.6</ele>
        <time>2020-11-01T11:41:25.023Z</time>
      </trkpt>
      <trkpt lat="46.36" lon="6.03804">
        <ele>1083.6</ele>
        <time>2020-11-01T11:41:26.021Z</time>
      </trkpt>
      <trkpt lat="46.36003" lon="6.03802">
        <ele>1083.8</ele>
        <time>2020-11-01T11:41:27.021Z</time>
      </trkpt>
      <trkpt lat="46.36003" lon="6.03802">
        <ele>1083.8</ele>
        <time>2020-11-01T11:41:28.02Z</time>
      </trkpt>
      <trkpt lat="46.36006" lon="6.038">
        <ele>1084.2</ele>
        <time>2020-11-01T11:41:29.02Z</time>
      </trkpt>
      <trkpt lat="46.36008" lon="6.03798">
        <ele>1084.8</ele>
        <time>2020-11-01T11:41:30.023Z</time>
      </trkpt>
      <trkpt lat="46.36008" lon="6.03798">
        <ele>1084.8</ele>
        <time>2020-11-01T11:41:31.02Z</time>
      </trkpt>
      <trkpt lat="46.36011" lon="6.03797">
        <ele>1085</ele>
        <time>2020-11-01T11:41:32.021Z</time>
      </trkpt>
      <trkpt lat="46.36013" lon="6.03795">
        <ele>1085.4</ele>
        <time>2020-11-01T11:41:33.02Z</time>
      </trkpt>
      <trkpt lat="46.36013" lon="6.03795">
        <ele>1085.4</ele>
        <time>2020-11-01T11:41:34.022Z</time>
      </trkpt>
      <trkpt lat="46.36016" lon="6.03793">
        <ele>1085.6</ele>
        <time>2020-11-01T11:41:35.021Z</time>
      </trkpt>
      <trkpt lat="46.36016" lon="6.03793">
        <ele>1085.6</ele>
        <time>2020-11-01T11:41:36.021Z</time>
      </trkpt>
      <trkpt lat="46.36018" lon="6.03792">
        <ele>1086</ele>
        <time>2020-11-01T11:41:37.02Z</time>
      </trkpt>
      <trkpt lat="46.36021" lon="6.03791">
        <ele>1086.2</ele>
        <time>2020-11-01T11:41:38.022Z</time>
      </trkpt>
      <trkpt lat="46.36023" lon="6.0379">
        <ele>1086.4</ele>
        <time>2020-11-01T11:41:39.02Z</time>
      </trkpt>
      <trkpt lat="46.36023" lon="6.0379">
        <ele>1086.4</ele>
        <time>2020-11-01T11:41:40.021Z</time>
      </trkpt>
      <trkpt lat="46.36025" lon="6.03789">
        <ele>1086.8</ele>
        <time>2020-11-01T11:41:41.021Z</time>
      </trkpt>
      <trkpt lat="46.36028" lon="6.03788">
        <ele>1087</ele>
        <time>2020-11-01T11:41:42.021Z</time>
      </trkpt>
      <trkpt lat="46.36028" lon="6.03788">
        <ele>1087</ele>
        <time>2020-11-01T11:41:43.022Z</time>
      </trkpt>
      <trkpt lat="46.3603" lon="6.03787">
        <ele>1087.2</ele>
        <time>2020-11-01T11:41:44.021Z</time>
      </trkpt>
      <trkpt lat="46.36033" lon="6.03786">
        <ele>1087.4</ele>
        <time>2020-11-01T11:41:45.02Z</time>
      </trkpt>
      <trkpt lat="46.36033" lon="6.03786">
        <ele>1087.4</ele>
        <time>2020-11-01T11:41:46.021Z</time>
      </trkpt>
      <trkpt lat="46.36036" lon="6.03785">
        <ele>1087.8</ele>
        <time>2020-11-01T11:41:47.022Z</time>
      </trkpt>
      <trkpt lat="46.36038" lon="6.03784">
        <ele>1088</ele>
        <time>2020-11-01T11:41:48.021Z</time>
      </trkpt>
      <trkpt lat="46.36038" lon="6.03784">
        <ele>1088</ele>
        <time>2020-11-01T11:41:49.021Z</time>
      </trkpt>
      <trkpt lat="46.36041" lon="6.03782">
        <ele>1088.2</ele>
        <time>2020-11-01T11:41:50.02Z</time>
      </trkpt>
      <trkpt lat="46.36044" lon="6.03781">
        <ele>1088.8</ele>
        <time>2020-11-01T11:41:51.023Z</time>
      </trkpt>
      <trkpt lat="46.36044" lon="6.03781">
        <ele>1088.8</ele>
        <time>2020-11-01T11:41:52.021Z</time>
      </trkpt>
      <trkpt lat="46.36046" lon="6.03779">
        <ele>1089.2</ele>
        <time>2020-11-01T11:41:53.021Z</time>
      </trkpt>
      <trkpt lat="46.36049" lon="6.03777">
        <ele>1089.4</ele>
        <time>2020-11-01T11:41:54.02Z</time>
      </trkpt>
      <trkpt lat="46.36049" lon="6.03777">
        <ele>1089.4</ele>
        <time>2020-11-01T11:41:55.021Z</time>
      </trkpt>
      <trkpt lat="46.36052" lon="6.03775">
        <ele>1089.4</ele>
        <time>2020-11-01T11:41:56.02Z</time>
      </trkpt>
      <trkpt lat="46.36052" lon="6.03775">
        <ele>1089.4</ele>
        <time>2020-11-01T11:41:57.021Z</time>
      </trkpt>
      <trkpt lat="46.36055" lon="6.03773">
        <ele>1089.6</ele>
        <time>2020-11-01T11:41:58.021Z</time>
      </trkpt>
      <trkpt lat="46.36055" lon="6.03773">
        <ele>1089.6</ele>
        <time>2020-11-01T11:41:59.02Z</time>
      </trkpt>
      <trkpt lat="46.36057" lon="6.03771">
        <ele>1089.8</ele>
        <time>2020-11-01T11:42:00.021Z</time>
      </trkpt>
      <trkpt lat="46.36059" lon="6.03768">
        <ele>1090</ele>
        <time>2020-11-01T11:42:01.022Z</time>
      </trkpt>
      <trkpt lat="46.36059" lon="6.03768">
        <ele>1090</ele>
        <time>2020-11-01T11:42:02.021Z</time>
      </trkpt>
      <trkpt lat="46.36061" lon="6.03765">
        <ele>1090.2</ele>
        <time>2020-11-01T11:42:03.02Z</time>
      </trkpt>
      <trkpt lat="46.36063" lon="6.03763">
        <ele>1090.4</ele>
        <time>2020-11-01T11:42:04.02Z</time>
      </trkpt>
      <trkpt lat="46.36065" lon="6.0376">
        <ele>1090.8</ele>
        <time>2020-11-01T11:42:05.02Z</time>
      </trkpt>
      <trkpt lat="46.36065" lon="6.0376">
        <ele>1090.8</ele>
        <time>2020-11-01T11:42:06.02Z</time>
      </trkpt>
      <trkpt lat="46.36066" lon="6.03757">
        <ele>1091</ele>
        <time>2020-11-01T11:42:07.02Z</time>
      </trkpt>
      <trkpt lat="46.36068" lon="6.03755">
        <ele>1091.2</ele>
        <time>2020-11-01T11:42:08.02Z</time>
      </trkpt>
      <trkpt lat="46.36068" lon="6.03755">
        <ele>1091.2</ele>
        <time>2020-11-01T11:42:09.02Z</time>
      </trkpt>
      <trkpt lat="46.3607" lon="6.03752">
        <ele>1091.4</ele>
        <time>2020-11-01T11:42:10.022Z</time>
      </trkpt>
      <trkpt lat="46.3607" lon="6.03752">
        <ele>1091.4</ele>
        <time>2020-11-01T11:42:11.02Z</time>
      </trkpt>
      <trkpt lat="46.36072" lon="6.03748">
        <ele>1091.8</ele>
        <time>2020-11-01T11:42:12.023Z</time>
      </trkpt>
      <trkpt lat="46.36074" lon="6.03745">
        <ele>1092</ele>
        <time>2020-11-01T11:42:13.02Z</time>
      </trkpt>
      <trkpt lat="46.36074" lon="6.03745">
        <ele>1092</ele>
        <time>2020-11-01T11:42:14.021Z</time>
      </trkpt>
      <trkpt lat="46.36075" lon="6.03741">
        <ele>1092.4</ele>
        <time>2020-11-01T11:42:15.02Z</time>
      </trkpt>
      <trkpt lat="46.36075" lon="6.03741">
        <ele>1092.4</ele>
        <time>2020-11-01T11:42:16.02Z</time>
      </trkpt>
      <trkpt lat="46.36077" lon="6.03738">
        <ele>1092.6</ele>
        <time>2020-11-01T11:42:17.021Z</time>
      </trkpt>
      <trkpt lat="46.36078" lon="6.03734">
        <ele>1093</ele>
        <time>2020-11-01T11:42:18.022Z</time>
      </trkpt>
      <trkpt lat="46.36078" lon="6.03734">
        <ele>1093</ele>
        <time>2020-11-01T11:42:19.02Z</time>
      </trkpt>
      <trkpt lat="46.3608" lon="6.0373">
        <ele>1093</ele>
        <time>2020-11-01T11:42:20.02Z</time>
      </trkpt>
      <trkpt lat="46.36081" lon="6.03726">
        <ele>1093.4</ele>
        <time>2020-11-01T11:42:21.02Z</time>
      </trkpt>
      <trkpt lat="46.36081" lon="6.03726">
        <ele>1093.4</ele>
        <time>2020-11-01T11:42:22.021Z</time>
      </trkpt>
      <trkpt lat="46.36082" lon="6.03722">
        <ele>1093.6</ele>
        <time>2020-11-01T11:42:23.021Z</time>
      </trkpt>
      <trkpt lat="46.36084" lon="6.03719">
        <ele>1094</ele>
        <time>2020-11-01T11:42:24.023Z</time>
      </trkpt>
      <trkpt lat="46.36084" lon="6.03719">
        <ele>1094</ele>
        <time>2020-11-01T11:42:25.021Z</time>
      </trkpt>
      <trkpt lat="46.36086" lon="6.03715">
        <ele>1094</ele>
        <time>2020-11-01T11:42:26.021Z</time>
      </trkpt>
      <trkpt lat="46.36086" lon="6.03715">
        <ele>1094</ele>
        <time>2020-11-01T11:42:27.022Z</time>
      </trkpt>
      <trkpt lat="46.36087" lon="6.03712">
        <ele>1094.4</ele>
        <time>2020-11-01T11:42:28.02Z</time>
      </trkpt>
      <trkpt lat="46.36087" lon="6.03712">
        <ele>1094.4</ele>
        <time>2020-11-01T11:42:29.021Z</time>
      </trkpt>
      <trkpt lat="46.36088" lon="6.03708">
        <ele>1094.6</ele>
        <time>2020-11-01T11:42:30.02Z</time>
      </trkpt>
      <trkpt lat="46.36089" lon="6.03704">
        <ele>1094.8</ele>
        <time>2020-11-01T11:42:31.021Z</time>
      </trkpt>
      <trkpt lat="46.3609" lon="6.037">
        <ele>1095.2</ele>
        <time>2020-11-01T11:42:32.022Z</time>
      </trkpt>
      <trkpt lat="46.3609" lon="6.037">
        <ele>1095.2</ele>
        <time>2020-11-01T11:42:33.021Z</time>
      </trkpt>
      <trkpt lat="46.36092" lon="6.03697">
        <ele>1095.4</ele>
        <time>2020-11-01T11:42:34.021Z</time>
      </trkpt>
      <trkpt lat="46.36092" lon="6.03697">
        <ele>1095.4</ele>
        <time>2020-11-01T11:42:35.02Z</time>
      </trkpt>
      <trkpt lat="46.36093" lon="6.03693">
        <ele>1095.8</ele>
        <time>2020-11-01T11:42:36.02Z</time>
      </trkpt>
      <trkpt lat="46.36094" lon="6.03689">
        <ele>1096.2</ele>
        <time>2020-11-01T11:42:37.021Z</time>
      </trkpt>
      <trkpt lat="46.36094" lon="6.03689">
        <ele>1096.2</ele>
        <time>2020-11-01T11:42:38.021Z</time>
      </trkpt>
      <trkpt lat="46.36095" lon="6.03685">
        <ele>1096.4</ele>
        <time>2020-11-01T11:42:39.021Z</time>
      </trkpt>
      <trkpt lat="46.36096" lon="6.03682">
        <ele>1096.6</ele>
        <time>2020-11-01T11:42:40.021Z</time>
      </trkpt>
      <trkpt lat="46.36096" lon="6.03682">
        <ele>1096.6</ele>
        <time>2020-11-01T11:42:41.021Z</time>
      </trkpt>
      <trkpt lat="46.36097" lon="6.03677">
        <ele>1096.8</ele>
        <time>2020-11-01T11:42:42.023Z</time>
      </trkpt>
      <trkpt lat="46.36097" lon="6.03677">
        <ele>1096.8</ele>
        <time>2020-11-01T11:42:43.021Z</time>
      </trkpt>
      <trkpt lat="46.36098" lon="6.03673">
        <ele>1097</ele>
        <time>2020-11-01T11:42:44.021Z</time>
      </trkpt>
      <trkpt lat="46.36098" lon="6.03673">
        <ele>1097</ele>
        <time>2020-11-01T11:42:45.021Z</time>
      </trkpt>
      <trkpt lat="46.36099" lon="6.03669">
        <ele>1097.4</ele>
        <time>2020-11-01T11:42:46.021Z</time>
      </trkpt>
      <trkpt lat="46.361" lon="6.03665">
        <ele>1097.4</ele>
        <time>2020-11-01T11:42:47.02Z</time>
      </trkpt>
      <trkpt lat="46.361" lon="6.03665">
        <ele>1097.4</ele>
        <time>2020-11-01T11:42:48.021Z</time>
      </trkpt>
      <trkpt lat="46.36101" lon="6.03661">
        <ele>1097.6</ele>
        <time>2020-11-01T11:42:49.021Z</time>
      </trkpt>
      <trkpt lat="46.36101" lon="6.03661">
        <ele>1097.6</ele>
        <time>2020-11-01T11:42:50.021Z</time>
      </trkpt>
      <trkpt lat="46.36103" lon="6.03657">
        <ele>1097.8</ele>
        <time>2020-11-01T11:42:51.023Z</time>
      </trkpt>
      <trkpt lat="46.36104" lon="6.03654">
        <ele>1098</ele>
        <time>2020-11-01T11:42:52.021Z</time>
      </trkpt>
      <trkpt lat="46.36104" lon="6.03654">
        <ele>1098</ele>
        <time>2020-11-01T11:42:53.02Z</time>
      </trkpt>
      <trkpt lat="46.36105" lon="6.0365">
        <ele>1098.2</ele>
        <time>2020-11-01T11:42:54.021Z</time>
      </trkpt>
      <trkpt lat="46.36105" lon="6.0365">
        <ele>1098.2</ele>
        <time>2020-11-01T11:42:55.021Z</time>
      </trkpt>
      <trkpt lat="46.36106" lon="6.03646">
        <ele>1098.6</ele>
        <time>2020-11-01T11:42:56.021Z</time>
      </trkpt>
      <trkpt lat="46.36107" lon="6.03642">
        <ele>1098.8</ele>
        <time>2020-11-01T11:42:57.02Z</time>
      </trkpt>
      <trkpt lat="46.36107" lon="6.03642">
        <ele>1098.8</ele>
        <time>2020-11-01T11:42:58.02Z</time>
      </trkpt>
      <trkpt lat="46.36109" lon="6.03639">
        <ele>1099.2</ele>
        <time>2020-11-01T11:42:59.024Z</time>
      </trkpt>
      <trkpt lat="46.3611" lon="6.03635">
        <ele>1099.4</ele>
        <time>2020-11-01T11:43:00.02Z</time>
      </trkpt>
      <trkpt lat="46.3611" lon="6.03635">
        <ele>1099.4</ele>
        <time>2020-11-01T11:43:01.022Z</time>
      </trkpt>
      <trkpt lat="46.36111" lon="6.03631">
        <ele>1099.6</ele>
        <time>2020-11-01T11:43:02.02Z</time>
      </trkpt>
      <trkpt lat="46.36112" lon="6.03627">
        <ele>1100</ele>
        <time>2020-11-01T11:43:03.02Z</time>
      </trkpt>
      <trkpt lat="46.36112" lon="6.03627">
        <ele>1100</ele>
        <time>2020-11-01T11:43:04.02Z</time>
      </trkpt>
      <trkpt lat="46.36113" lon="6.03624">
        <ele>1100</ele>
        <time>2020-11-01T11:43:05.021Z</time>
      </trkpt>
      <trkpt lat="46.36113" lon="6.03624">
        <ele>1100</ele>
        <time>2020-11-01T11:43:06.02Z</time>
      </trkpt>
      <trkpt lat="46.36115" lon="6.0362">
        <ele>1100.2</ele>
        <time>2020-11-01T11:43:07.021Z</time>
      </trkpt>
      <trkpt lat="46.36115" lon="6.0362">
        <ele>1100.2</ele>
        <time>2020-11-01T11:43:08.023Z</time>
      </trkpt>
      <trkpt lat="46.36118" lon="6.03616">
        <ele>1100.4</ele>
        <time>2020-11-01T11:43:09.02Z</time>
      </trkpt>
      <trkpt lat="46.36118" lon="6.03616">
        <ele>1100.4</ele>
        <time>2020-11-01T11:43:10.021Z</time>
      </trkpt>
      <trkpt lat="46.3612" lon="6.03612">
        <ele>1100.8</ele>
        <time>2020-11-01T11:43:11.021Z</time>
      </trkpt>
      <trkpt lat="46.3612" lon="6.03612">
        <ele>1100.8</ele>
        <time>2020-11-01T11:43:12.023Z</time>
      </trkpt>
      <trkpt lat="46.36122" lon="6.03609">
        <ele>1101.2</ele>
        <time>2020-11-01T11:43:13.021Z</time>
      </trkpt>
      <trkpt lat="46.36124" lon="6.03606">
        <ele>1101.4</ele>
        <time>2020-11-01T11:43:14.021Z</time>
      </trkpt>
      <trkpt lat="46.36124" lon="6.03606">
        <ele>1101.4</ele>
        <time>2020-11-01T11:43:15.021Z</time>
      </trkpt>
      <trkpt lat="46.36127" lon="6.03603">
        <ele>1101.6</ele>
        <time>2020-11-01T11:43:16.021Z</time>
      </trkpt>
      <trkpt lat="46.36127" lon="6.03603">
        <ele>1101.6</ele>
        <time>2020-11-01T11:43:17.021Z</time>
      </trkpt>
      <trkpt lat="46.36129" lon="6.03599">
        <ele>1102</ele>
        <time>2020-11-01T11:43:18.022Z</time>
      </trkpt>
      <trkpt lat="46.36129" lon="6.03599">
        <ele>1102</ele>
        <time>2020-11-01T11:43:19.021Z</time>
      </trkpt>
      <trkpt lat="46.36131" lon="6.03596">
        <ele>1102.4</ele>
        <time>2020-11-01T11:43:20.021Z</time>
      </trkpt>
      <trkpt lat="46.36131" lon="6.03596">
        <ele>1102.4</ele>
        <time>2020-11-01T11:43:21.023Z</time>
      </trkpt>
      <trkpt lat="46.36134" lon="6.03593">
        <ele>1102.6</ele>
        <time>2020-11-01T11:43:22.022Z</time>
      </trkpt>
      <trkpt lat="46.36134" lon="6.03593">
        <ele>1102.6</ele>
        <time>2020-11-01T11:43:23.02Z</time>
      </trkpt>
      <trkpt lat="46.36136" lon="6.03589">
        <ele>1102.8</ele>
        <time>2020-11-01T11:43:24.021Z</time>
      </trkpt>
      <trkpt lat="46.36136" lon="6.03589">
        <ele>1102.8</ele>
        <time>2020-11-01T11:43:25.021Z</time>
      </trkpt>
      <trkpt lat="46.36139" lon="6.03585">
        <ele>1103.2</ele>
        <time>2020-11-01T11:43:26.02Z</time>
      </trkpt>
      <trkpt lat="46.36139" lon="6.03585">
        <ele>1103.2</ele>
        <time>2020-11-01T11:43:27.021Z</time>
      </trkpt>
      <trkpt lat="46.36141" lon="6.03583">
        <ele>1103.4</ele>
        <time>2020-11-01T11:43:28.02Z</time>
      </trkpt>
      <trkpt lat="46.36141" lon="6.03583">
        <ele>1103.4</ele>
        <time>2020-11-01T11:43:29.021Z</time>
      </trkpt>
      <trkpt lat="46.36144" lon="6.0358">
        <ele>1104</ele>
        <time>2020-11-01T11:43:30.021Z</time>
      </trkpt>
      <trkpt lat="46.36146" lon="6.03577">
        <ele>1104.2</ele>
        <time>2020-11-01T11:43:31.02Z</time>
      </trkpt>
      <trkpt lat="46.36146" lon="6.03577">
        <ele>1104.2</ele>
        <time>2020-11-01T11:43:32.02Z</time>
      </trkpt>
      <trkpt lat="46.36149" lon="6.03574">
        <ele>1104.4</ele>
        <time>2020-11-01T11:43:33.023Z</time>
      </trkpt>
      <trkpt lat="46.36149" lon="6.03574">
        <ele>1104.4</ele>
        <time>2020-11-01T11:43:34.021Z</time>
      </trkpt>
      <trkpt lat="46.36151" lon="6.03571">
        <ele>1104.8</ele>
        <time>2020-11-01T11:43:35.021Z</time>
      </trkpt>
      <trkpt lat="46.36151" lon="6.03571">
        <ele>1104.8</ele>
        <time>2020-11-01T11:43:36.02Z</time>
      </trkpt>
      <trkpt lat="46.36154" lon="6.03568">
        <ele>1105</ele>
        <time>2020-11-01T11:43:37.022Z</time>
      </trkpt>
      <trkpt lat="46.36156" lon="6.03566">
        <ele>1105.2</ele>
        <time>2020-11-01T11:43:38.023Z</time>
      </trkpt>
      <trkpt lat="46.36156" lon="6.03566">
        <ele>1105.2</ele>
        <time>2020-11-01T11:43:39.021Z</time>
      </trkpt>
      <trkpt lat="46.36158" lon="6.03563">
        <ele>1105.4</ele>
        <time>2020-11-01T11:43:40.02Z</time>
      </trkpt>
      <trkpt lat="46.36158" lon="6.03563">
        <ele>1105.4</ele>
        <time>2020-11-01T11:43:41.021Z</time>
      </trkpt>
      <trkpt lat="46.36161" lon="6.0356">
        <ele>1105.6</ele>
        <time>2020-11-01T11:43:42.022Z</time>
      </trkpt>
      <trkpt lat="46.36163" lon="6.03557">
        <ele>1106</ele>
        <time>2020-11-01T11:43:43.021Z</time>
      </trkpt>
      <trkpt lat="46.36163" lon="6.03557">
        <ele>1106</ele>
        <time>2020-11-01T11:43:44.021Z</time>
      </trkpt>
      <trkpt lat="46.36165" lon="6.03555">
        <ele>1106.2</ele>
        <time>2020-11-01T11:43:45.021Z</time>
      </trkpt>
      <trkpt lat="46.36165" lon="6.03555">
        <ele>1106.2</ele>
        <time>2020-11-01T11:43:46.023Z</time>
      </trkpt>
      <trkpt lat="46.36168" lon="6.03552">
        <ele>1106.6</ele>
        <time>2020-11-01T11:43:47.021Z</time>
      </trkpt>
      <trkpt lat="46.3617" lon="6.03549">
        <ele>1106.8</ele>
        <time>2020-11-01T11:43:48.021Z</time>
      </trkpt>
      <trkpt lat="46.3617" lon="6.03549">
        <ele>1106.8</ele>
        <time>2020-11-01T11:43:49.02Z</time>
      </trkpt>
      <trkpt lat="46.36171" lon="6.03546">
        <ele>1107.2</ele>
        <time>2020-11-01T11:43:50.023Z</time>
      </trkpt>
      <trkpt lat="46.36173" lon="6.03542">
        <ele>1107.4</ele>
        <time>2020-11-01T11:43:51.02Z</time>
      </trkpt>
      <trkpt lat="46.36173" lon="6.03542">
        <ele>1107.4</ele>
        <time>2020-11-01T11:43:52.022Z</time>
      </trkpt>
      <trkpt lat="46.36175" lon="6.03539">
        <ele>1107.8</ele>
        <time>2020-11-01T11:43:53.02Z</time>
      </trkpt>
      <trkpt lat="46.36175" lon="6.03539">
        <ele>1107.8</ele>
        <time>2020-11-01T11:43:54.021Z</time>
      </trkpt>
      <trkpt lat="46.36177" lon="6.03536">
        <ele>1108</ele>
        <time>2020-11-01T11:43:55.021Z</time>
      </trkpt>
      <trkpt lat="46.36178" lon="6.03532">
        <ele>1108.2</ele>
        <time>2020-11-01T11:43:56.022Z</time>
      </trkpt>
      <trkpt lat="46.36178" lon="6.03532">
        <ele>1108.2</ele>
        <time>2020-11-01T11:43:57.021Z</time>
      </trkpt>
      <trkpt lat="46.36179" lon="6.03528">
        <ele>1108.4</ele>
        <time>2020-11-01T11:43:58.02Z</time>
      </trkpt>
      <trkpt lat="46.36181" lon="6.03524">
        <ele>1108.6</ele>
        <time>2020-11-01T11:43:59.022Z</time>
      </trkpt>
      <trkpt lat="46.36181" lon="6.03524">
        <ele>1108.6</ele>
        <time>2020-11-01T11:44:00.021Z</time>
      </trkpt>
      <trkpt lat="46.36182" lon="6.0352">
        <ele>1108.8</ele>
        <time>2020-11-01T11:44:01.022Z</time>
      </trkpt>
      <trkpt lat="46.36182" lon="6.0352">
        <ele>1108.8</ele>
        <time>2020-11-01T11:44:02.021Z</time>
      </trkpt>
      <trkpt lat="46.36184" lon="6.03516">
        <ele>1109</ele>
        <time>2020-11-01T11:44:03.022Z</time>
      </trkpt>
      <trkpt lat="46.36184" lon="6.03516">
        <ele>1109</ele>
        <time>2020-11-01T11:44:04.022Z</time>
      </trkpt>
      <trkpt lat="46.36185" lon="6.03513">
        <ele>1109.4</ele>
        <time>2020-11-01T11:44:05.022Z</time>
      </trkpt>
      <trkpt lat="46.36187" lon="6.03509">
        <ele>1109.6</ele>
        <time>2020-11-01T11:44:06.02Z</time>
      </trkpt>
      <trkpt lat="46.36187" lon="6.03509">
        <ele>1109.6</ele>
        <time>2020-11-01T11:44:07.023Z</time>
      </trkpt>
      <trkpt lat="46.36188" lon="6.03505">
        <ele>1110</ele>
        <time>2020-11-01T11:44:08.022Z</time>
      </trkpt>
      <trkpt lat="46.36188" lon="6.03505">
        <ele>1110</ele>
        <time>2020-11-01T11:44:09.022Z</time>
      </trkpt>
      <trkpt lat="46.36189" lon="6.03501">
        <ele>1110.2</ele>
        <time>2020-11-01T11:44:10.02Z</time>
      </trkpt>
      <trkpt lat="46.3619" lon="6.03497">
        <ele>1110.6</ele>
        <time>2020-11-01T11:44:11.021Z</time>
      </trkpt>
      <trkpt lat="46.3619" lon="6.03497">
        <ele>1110.6</ele>
        <time>2020-11-01T11:44:12.021Z</time>
      </trkpt>
      <trkpt lat="46.36191" lon="6.03493">
        <ele>1110.8</ele>
        <time>2020-11-01T11:44:13.021Z</time>
      </trkpt>
      <trkpt lat="46.36192" lon="6.03489">
        <ele>1111</ele>
        <time>2020-11-01T11:44:14.021Z</time>
      </trkpt>
      <trkpt lat="46.36192" lon="6.03489">
        <ele>1111</ele>
        <time>2020-11-01T11:44:15.02Z</time>
      </trkpt>
      <trkpt lat="46.36193" lon="6.03485">
        <ele>1111.2</ele>
        <time>2020-11-01T11:44:16.023Z</time>
      </trkpt>
      <trkpt lat="46.36193" lon="6.03485">
        <ele>1111.2</ele>
        <time>2020-11-01T11:44:17.021Z</time>
      </trkpt>
      <trkpt lat="46.36194" lon="6.03481">
        <ele>1111.6</ele>
        <time>2020-11-01T11:44:18.022Z</time>
      </trkpt>
      <trkpt lat="46.36194" lon="6.03481">
        <ele>1111.6</ele>
        <time>2020-11-01T11:44:19.021Z</time>
      </trkpt>
      <trkpt lat="46.36195" lon="6.03476">
        <ele>1111.8</ele>
        <time>2020-11-01T11:44:20.023Z</time>
      </trkpt>
      <trkpt lat="46.36196" lon="6.03472">
        <ele>1112.2</ele>
        <time>2020-11-01T11:44:21.021Z</time>
      </trkpt>
      <trkpt lat="46.36196" lon="6.03472">
        <ele>1112.2</ele>
        <time>2020-11-01T11:44:22.022Z</time>
      </trkpt>
      <trkpt lat="46.36197" lon="6.03468">
        <ele>1112.4</ele>
        <time>2020-11-01T11:44:23.02Z</time>
      </trkpt>
      <trkpt lat="46.36197" lon="6.03468">
        <ele>1112.4</ele>
        <time>2020-11-01T11:44:24.026Z</time>
      </trkpt>
      <trkpt lat="46.36198" lon="6.03464">
        <ele>1112.6</ele>
        <time>2020-11-01T11:44:25.022Z</time>
      </trkpt>
      <trkpt lat="46.36199" lon="6.0346">
        <ele>1112.6</ele>
        <time>2020-11-01T11:44:26.022Z</time>
      </trkpt>
      <trkpt lat="46.36199" lon="6.0346">
        <ele>1112.6</ele>
        <time>2020-11-01T11:44:27.02Z</time>
      </trkpt>
      <trkpt lat="46.362" lon="6.03456">
        <ele>1112.8</ele>
        <time>2020-11-01T11:44:28.021Z</time>
      </trkpt>
      <trkpt lat="46.362" lon="6.03456">
        <ele>1112.8</ele>
        <time>2020-11-01T11:44:29.021Z</time>
      </trkpt>
      <trkpt lat="46.36201" lon="6.03452">
        <ele>1113</ele>
        <time>2020-11-01T11:44:30.021Z</time>
      </trkpt>
      <trkpt lat="46.36202" lon="6.03447">
        <ele>1113.2</ele>
        <time>2020-11-01T11:44:31.021Z</time>
      </trkpt>
      <trkpt lat="46.36202" lon="6.03447">
        <ele>1113.2</ele>
        <time>2020-11-01T11:44:32.02Z</time>
      </trkpt>
      <trkpt lat="46.36204" lon="6.03443">
        <ele>1113.4</ele>
        <time>2020-11-01T11:44:33.021Z</time>
      </trkpt>
      <trkpt lat="46.36204" lon="6.03443">
        <ele>1113.4</ele>
        <time>2020-11-01T11:44:34.021Z</time>
      </trkpt>
      <trkpt lat="46.36205" lon="6.03439">
        <ele>1113.6</ele>
        <time>2020-11-01T11:44:35.021Z</time>
      </trkpt>
      <trkpt lat="46.36206" lon="6.03435">
        <ele>1113.8</ele>
        <time>2020-11-01T11:44:36.021Z</time>
      </trkpt>
      <trkpt lat="46.36206" lon="6.03435">
        <ele>1113.8</ele>
        <time>2020-11-01T11:44:37.021Z</time>
      </trkpt>
      <trkpt lat="46.36208" lon="6.03432">
        <ele>1114.2</ele>
        <time>2020-11-01T11:44:38.022Z</time>
      </trkpt>
      <trkpt lat="46.36208" lon="6.03432">
        <ele>1114.2</ele>
        <time>2020-11-01T11:44:39.022Z</time>
      </trkpt>
      <trkpt lat="46.36209" lon="6.03428">
        <ele>1114.4</ele>
        <time>2020-11-01T11:44:40.022Z</time>
      </trkpt>
      <trkpt lat="46.36209" lon="6.03428">
        <ele>1114.4</ele>
        <time>2020-11-01T11:44:41.022Z</time>
      </trkpt>
      <trkpt lat="46.36211" lon="6.03424">
        <ele>1114.8</ele>
        <time>2020-11-01T11:44:42.021Z</time>
      </trkpt>
      <trkpt lat="46.36212" lon="6.0342">
        <ele>1115</ele>
        <time>2020-11-01T11:44:43.021Z</time>
      </trkpt>
      <trkpt lat="46.36212" lon="6.0342">
        <ele>1115</ele>
        <time>2020-11-01T11:44:44.02Z</time>
      </trkpt>
      <trkpt lat="46.36213" lon="6.03416">
        <ele>1115.4</ele>
        <time>2020-11-01T11:44:45.021Z</time>
      </trkpt>
      <trkpt lat="46.36213" lon="6.03416">
        <ele>1115.4</ele>
        <time>2020-11-01T11:44:46.021Z</time>
      </trkpt>
      <trkpt lat="46.36215" lon="6.03413">
        <ele>1115.4</ele>
        <time>2020-11-01T11:44:47.021Z</time>
      </trkpt>
      <trkpt lat="46.36217" lon="6.03409">
        <ele>1115.8</ele>
        <time>2020-11-01T11:44:48.02Z</time>
      </trkpt>
      <trkpt lat="46.36217" lon="6.03409">
        <ele>1115.8</ele>
        <time>2020-11-01T11:44:49.021Z</time>
      </trkpt>
      <trkpt lat="46.36219" lon="6.03406">
        <ele>1116</ele>
        <time>2020-11-01T11:44:50.022Z</time>
      </trkpt>
      <trkpt lat="46.36219" lon="6.03406">
        <ele>1116</ele>
        <time>2020-11-01T11:44:51.021Z</time>
      </trkpt>
      <trkpt lat="46.36221" lon="6.03402">
        <ele>1116.2</ele>
        <time>2020-11-01T11:44:52.02Z</time>
      </trkpt>
      <trkpt lat="46.36221" lon="6.03402">
        <ele>1116.2</ele>
        <time>2020-11-01T11:44:53.021Z</time>
      </trkpt>
      <trkpt lat="46.36223" lon="6.03399">
        <ele>1116.4</ele>
        <time>2020-11-01T11:44:54.022Z</time>
      </trkpt>
      <trkpt lat="46.36225" lon="6.03396">
        <ele>1116.8</ele>
        <time>2020-11-01T11:44:55.021Z</time>
      </trkpt>
      <trkpt lat="46.36226" lon="6.03392">
        <ele>1117</ele>
        <time>2020-11-01T11:44:56.021Z</time>
      </trkpt>
      <trkpt lat="46.36226" lon="6.03392">
        <ele>1117</ele>
        <time>2020-11-01T11:44:57.02Z</time>
      </trkpt>
      <trkpt lat="46.36228" lon="6.03389">
        <ele>1117.4</ele>
        <time>2020-11-01T11:44:58.021Z</time>
      </trkpt>
      <trkpt lat="46.3623" lon="6.03386">
        <ele>1117.6</ele>
        <time>2020-11-01T11:44:59.023Z</time>
      </trkpt>
      <trkpt lat="46.3623" lon="6.03386">
        <ele>1117.6</ele>
        <time>2020-11-01T11:45:00.022Z</time>
      </trkpt>
      <trkpt lat="46.36232" lon="6.03382">
        <ele>1118</ele>
        <time>2020-11-01T11:45:01.02Z</time>
      </trkpt>
      <trkpt lat="46.36232" lon="6.03382">
        <ele>1118</ele>
        <time>2020-11-01T11:45:02.021Z</time>
      </trkpt>
      <trkpt lat="46.36234" lon="6.03379">
        <ele>1118.2</ele>
        <time>2020-11-01T11:45:03.023Z</time>
      </trkpt>
      <trkpt lat="46.36235" lon="6.03376">
        <ele>1118.4</ele>
        <time>2020-11-01T11:45:04.021Z</time>
      </trkpt>
      <trkpt lat="46.36235" lon="6.03376">
        <ele>1118.4</ele>
        <time>2020-11-01T11:45:05.022Z</time>
      </trkpt>
      <trkpt lat="46.36237" lon="6.03372">
        <ele>1118.8</ele>
        <time>2020-11-01T11:45:06.022Z</time>
      </trkpt>
      <trkpt lat="46.36237" lon="6.03372">
        <ele>1118.8</ele>
        <time>2020-11-01T11:45:07.021Z</time>
      </trkpt>
      <trkpt lat="46.36239" lon="6.03368">
        <ele>1119.2</ele>
        <time>2020-11-01T11:45:08.022Z</time>
      </trkpt>
      <trkpt lat="46.3624" lon="6.03365">
        <ele>1119.4</ele>
        <time>2020-11-01T11:45:09.022Z</time>
      </trkpt>
      <trkpt lat="46.3624" lon="6.03365">
        <ele>1119.4</ele>
        <time>2020-11-01T11:45:10.02Z</time>
      </trkpt>
      <trkpt lat="46.36242" lon="6.03361">
        <ele>1119.8</ele>
        <time>2020-11-01T11:45:11.021Z</time>
      </trkpt>
      <trkpt lat="46.36242" lon="6.03361">
        <ele>1119.8</ele>
        <time>2020-11-01T11:45:12.02Z</time>
      </trkpt>
      <trkpt lat="46.36243" lon="6.03357">
        <ele>1120</ele>
        <time>2020-11-01T11:45:13.021Z</time>
      </trkpt>
      <trkpt lat="46.36244" lon="6.03353">
        <ele>1120.4</ele>
        <time>2020-11-01T11:45:14.021Z</time>
      </trkpt>
      <trkpt lat="46.36245" lon="6.03349">
        <ele>1120.6</ele>
        <time>2020-11-01T11:45:15.022Z</time>
      </trkpt>
      <trkpt lat="46.36245" lon="6.03349">
        <ele>1120.6</ele>
        <time>2020-11-01T11:45:16.023Z</time>
      </trkpt>
      <trkpt lat="46.36247" lon="6.03345">
        <ele>1120.8</ele>
        <time>2020-11-01T11:45:17.021Z</time>
      </trkpt>
      <trkpt lat="46.36247" lon="6.03345">
        <ele>1120.8</ele>
        <time>2020-11-01T11:45:18.021Z</time>
      </trkpt>
      <trkpt lat="46.36247" lon="6.03341">
        <ele>1121</ele>
        <time>2020-11-01T11:45:19.021Z</time>
      </trkpt>
      <trkpt lat="46.36249" lon="6.03337">
        <ele>1121.4</ele>
        <time>2020-11-01T11:45:20.023Z</time>
      </trkpt>
      <trkpt lat="46.36249" lon="6.03337">
        <ele>1121.4</ele>
        <time>2020-11-01T11:45:21.021Z</time>
      </trkpt>
      <trkpt lat="46.3625" lon="6.03333">
        <ele>1121.6</ele>
        <time>2020-11-01T11:45:22.021Z</time>
      </trkpt>
      <trkpt lat="46.36251" lon="6.03329">
        <ele>1121.8</ele>
        <time>2020-11-01T11:45:23.021Z</time>
      </trkpt>
      <trkpt lat="46.36251" lon="6.03329">
        <ele>1121.8</ele>
        <time>2020-11-01T11:45:24.023Z</time>
      </trkpt>
      <trkpt lat="46.36252" lon="6.03325">
        <ele>1122</ele>
        <time>2020-11-01T11:45:25.022Z</time>
      </trkpt>
      <trkpt lat="46.36254" lon="6.03321">
        <ele>1122.2</ele>
        <time>2020-11-01T11:45:26.021Z</time>
      </trkpt>
      <trkpt lat="46.36254" lon="6.03321">
        <ele>1122.2</ele>
        <time>2020-11-01T11:45:27.021Z</time>
      </trkpt>
      <trkpt lat="46.36255" lon="6.03317">
        <ele>1122.4</ele>
        <time>2020-11-01T11:45:28.023Z</time>
      </trkpt>
      <trkpt lat="46.36256" lon="6.03313">
        <ele>1122.8</ele>
        <time>2020-11-01T11:45:29.023Z</time>
      </trkpt>
      <trkpt lat="46.36257" lon="6.03309">
        <ele>1123</ele>
        <time>2020-11-01T11:45:30.02Z</time>
      </trkpt>
      <trkpt lat="46.36257" lon="6.03309">
        <ele>1123</ele>
        <time>2020-11-01T11:45:31.02Z</time>
      </trkpt>
      <trkpt lat="46.36258" lon="6.03305">
        <ele>1123.2</ele>
        <time>2020-11-01T11:45:32.02Z</time>
      </trkpt>
      <trkpt lat="46.36259" lon="6.03301">
        <ele>1123.4</ele>
        <time>2020-11-01T11:45:33.021Z</time>
      </trkpt>
      <trkpt lat="46.36261" lon="6.03298">
        <ele>1123.6</ele>
        <time>2020-11-01T11:45:34.021Z</time>
      </trkpt>
      <trkpt lat="46.36261" lon="6.03298">
        <ele>1123.6</ele>
        <time>2020-11-01T11:45:35.02Z</time>
      </trkpt>
      <trkpt lat="46.36262" lon="6.03294">
        <ele>1123.6</ele>
        <time>2020-11-01T11:45:36.02Z</time>
      </trkpt>
      <trkpt lat="46.36264" lon="6.03291">
        <ele>1123.8</ele>
        <time>2020-11-01T11:45:37.023Z</time>
      </trkpt>
      <trkpt lat="46.36265" lon="6.03287">
        <ele>1124.2</ele>
        <time>2020-11-01T11:45:38.021Z</time>
      </trkpt>
      <trkpt lat="46.36265" lon="6.03287">
        <ele>1124.2</ele>
        <time>2020-11-01T11:45:39.021Z</time>
      </trkpt>
      <trkpt lat="46.36266" lon="6.03283">
        <ele>1124.4</ele>
        <time>2020-11-01T11:45:40.02Z</time>
      </trkpt>
      <trkpt lat="46.36268" lon="6.03279">
        <ele>1124.6</ele>
        <time>2020-11-01T11:45:41.024Z</time>
      </trkpt>
      <trkpt lat="46.36268" lon="6.03279">
        <ele>1124.6</ele>
        <time>2020-11-01T11:45:42.021Z</time>
      </trkpt>
      <trkpt lat="46.36269" lon="6.03275">
        <ele>1124.8</ele>
        <time>2020-11-01T11:45:43.021Z</time>
      </trkpt>
      <trkpt lat="46.3627" lon="6.03271">
        <ele>1125</ele>
        <time>2020-11-01T11:45:44.02Z</time>
      </trkpt>
      <trkpt lat="46.3627" lon="6.03271">
        <ele>1125</ele>
        <time>2020-11-01T11:45:45.021Z</time>
      </trkpt>
      <trkpt lat="46.36272" lon="6.03267">
        <ele>1125.2</ele>
        <time>2020-11-01T11:45:46.022Z</time>
      </trkpt>
      <trkpt lat="46.36273" lon="6.03263">
        <ele>1125.4</ele>
        <time>2020-11-01T11:45:47.02Z</time>
      </trkpt>
      <trkpt lat="46.36273" lon="6.03263">
        <ele>1125.4</ele>
        <time>2020-11-01T11:45:48.02Z</time>
      </trkpt>
      <trkpt lat="46.36275" lon="6.03259">
        <ele>1125.6</ele>
        <time>2020-11-01T11:45:49.02Z</time>
      </trkpt>
      <trkpt lat="46.36276" lon="6.03255">
        <ele>1125.8</ele>
        <time>2020-11-01T11:45:50.023Z</time>
      </trkpt>
      <trkpt lat="46.36276" lon="6.03255">
        <ele>1125.8</ele>
        <time>2020-11-01T11:45:51.02Z</time>
      </trkpt>
      <trkpt lat="46.36277" lon="6.03251">
        <ele>1126.6</ele>
        <time>2020-11-01T11:45:52.021Z</time>
      </trkpt>
      <trkpt lat="46.36278" lon="6.03247">
        <ele>1127</ele>
        <time>2020-11-01T11:45:53.02Z</time>
      </trkpt>
      <trkpt lat="46.36278" lon="6.03247">
        <ele>1127</ele>
        <time>2020-11-01T11:45:54.021Z</time>
      </trkpt>
      <trkpt lat="46.3628" lon="6.03243">
        <ele>1127.4</ele>
        <time>2020-11-01T11:45:55.022Z</time>
      </trkpt>
      <trkpt lat="46.36281" lon="6.03239">
        <ele>1127.6</ele>
        <time>2020-11-01T11:45:56.021Z</time>
      </trkpt>
      <trkpt lat="46.36281" lon="6.03239">
        <ele>1127.6</ele>
        <time>2020-11-01T11:45:57.02Z</time>
      </trkpt>
      <trkpt lat="46.36283" lon="6.03235">
        <ele>1128</ele>
        <time>2020-11-01T11:45:58.021Z</time>
      </trkpt>
      <trkpt lat="46.36285" lon="6.03231">
        <ele>1128.2</ele>
        <time>2020-11-01T11:45:59.021Z</time>
      </trkpt>
      <trkpt lat="46.36286" lon="6.03228">
        <ele>1128.6</ele>
        <time>2020-11-01T11:46:00.022Z</time>
      </trkpt>
      <trkpt lat="46.36286" lon="6.03228">
        <ele>1128.6</ele>
        <time>2020-11-01T11:46:01.02Z</time>
      </trkpt>
      <trkpt lat="46.36288" lon="6.03224">
        <ele>1128.8</ele>
        <time>2020-11-01T11:46:02.021Z</time>
      </trkpt>
      <trkpt lat="46.36288" lon="6.03224">
        <ele>1128.8</ele>
        <time>2020-11-01T11:46:03.023Z</time>
      </trkpt>
      <trkpt lat="46.3629" lon="6.0322">
        <ele>1128.8</ele>
        <time>2020-11-01T11:46:04.022Z</time>
      </trkpt>
      <trkpt lat="46.36291" lon="6.03216">
        <ele>1129.2</ele>
        <time>2020-11-01T11:46:05.021Z</time>
      </trkpt>
      <trkpt lat="46.36291" lon="6.03216">
        <ele>1129.2</ele>
        <time>2020-11-01T11:46:06.02Z</time>
      </trkpt>
      <trkpt lat="46.36292" lon="6.03211">
        <ele>1129.4</ele>
        <time>2020-11-01T11:46:07.023Z</time>
      </trkpt>
      <trkpt lat="46.36293" lon="6.03207">
        <ele>1129.8</ele>
        <time>2020-11-01T11:46:08.021Z</time>
      </trkpt>
      <trkpt lat="46.36293" lon="6.03207">
        <ele>1129.8</ele>
        <time>2020-11-01T11:46:09.021Z</time>
      </trkpt>
      <trkpt lat="46.36295" lon="6.03202">
        <ele>1130</ele>
        <time>2020-11-01T11:46:10.021Z</time>
      </trkpt>
      <trkpt lat="46.36296" lon="6.03198">
        <ele>1130.4</ele>
        <time>2020-11-01T11:46:11.023Z</time>
      </trkpt>
      <trkpt lat="46.36296" lon="6.03198">
        <ele>1130.4</ele>
        <time>2020-11-01T11:46:12.022Z</time>
      </trkpt>
      <trkpt lat="46.36297" lon="6.03194">
        <ele>1130.6</ele>
        <time>2020-11-01T11:46:13.022Z</time>
      </trkpt>
      <trkpt lat="46.36297" lon="6.0319">
        <ele>1130.8</ele>
        <time>2020-11-01T11:46:14.02Z</time>
      </trkpt>
      <trkpt lat="46.36297" lon="6.0319">
        <ele>1130.8</ele>
        <time>2020-11-01T11:46:15.024Z</time>
      </trkpt>
      <trkpt lat="46.36298" lon="6.03186">
        <ele>1131.2</ele>
        <time>2020-11-01T11:46:16.02Z</time>
      </trkpt>
      <trkpt lat="46.36299" lon="6.03181">
        <ele>1131.4</ele>
        <time>2020-11-01T11:46:17.022Z</time>
      </trkpt>
      <trkpt lat="46.36299" lon="6.03177">
        <ele>1131.6</ele>
        <time>2020-11-01T11:46:18.02Z</time>
      </trkpt>
      <trkpt lat="46.36299" lon="6.03177">
        <ele>1131.6</ele>
        <time>2020-11-01T11:46:19.023Z</time>
      </trkpt>
      <trkpt lat="46.36299" lon="6.03172">
        <ele>1132</ele>
        <time>2020-11-01T11:46:20.022Z</time>
      </trkpt>
      <trkpt lat="46.36299" lon="6.03168">
        <ele>1132</ele>
        <time>2020-11-01T11:46:21.022Z</time>
      </trkpt>
      <trkpt lat="46.36299" lon="6.03168">
        <ele>1132</ele>
        <time>2020-11-01T11:46:22.021Z</time>
      </trkpt>
      <trkpt lat="46.36299" lon="6.03164">
        <ele>1132.2</ele>
        <time>2020-11-01T11:46:23.021Z</time>
      </trkpt>
      <trkpt lat="46.36298" lon="6.03159">
        <ele>1132.4</ele>
        <time>2020-11-01T11:46:24.02Z</time>
      </trkpt>
      <trkpt lat="46.36298" lon="6.03159">
        <ele>1132.4</ele>
        <time>2020-11-01T11:46:25.022Z</time>
      </trkpt>
      <trkpt lat="46.36297" lon="6.03155">
        <ele>1132.8</ele>
        <time>2020-11-01T11:46:26.021Z</time>
      </trkpt>
      <trkpt lat="46.36297" lon="6.03155">
        <ele>1132.8</ele>
        <time>2020-11-01T11:46:27.02Z</time>
      </trkpt>
      <trkpt lat="46.36296" lon="6.0315">
        <ele>1133.2</ele>
        <time>2020-11-01T11:46:28.024Z</time>
      </trkpt>
      <trkpt lat="46.36295" lon="6.03145">
        <ele>1133.4</ele>
        <time>2020-11-01T11:46:29.023Z</time>
      </trkpt>
      <trkpt lat="46.36295" lon="6.03145">
        <ele>1133.4</ele>
        <time>2020-11-01T11:46:30.02Z</time>
      </trkpt>
      <trkpt lat="46.36294" lon="6.03141">
        <ele>1133.8</ele>
        <time>2020-11-01T11:46:31.02Z</time>
      </trkpt>
      <trkpt lat="46.36293" lon="6.03136">
        <ele>1134</ele>
        <time>2020-11-01T11:46:32.023Z</time>
      </trkpt>
      <trkpt lat="46.36292" lon="6.03132">
        <ele>1134.2</ele>
        <time>2020-11-01T11:46:33.021Z</time>
      </trkpt>
      <trkpt lat="46.36292" lon="6.03132">
        <ele>1134.2</ele>
        <time>2020-11-01T11:46:34.022Z</time>
      </trkpt>
      <trkpt lat="46.36292" lon="6.03128">
        <ele>1134.4</ele>
        <time>2020-11-01T11:46:35.021Z</time>
      </trkpt>
      <trkpt lat="46.36291" lon="6.03123">
        <ele>1135</ele>
        <time>2020-11-01T11:46:36.022Z</time>
      </trkpt>
      <trkpt lat="46.36291" lon="6.03123">
        <ele>1135</ele>
        <time>2020-11-01T11:46:37.022Z</time>
      </trkpt>
      <trkpt lat="46.36291" lon="6.03119">
        <ele>1135.2</ele>
        <time>2020-11-01T11:46:38.021Z</time>
      </trkpt>
      <trkpt lat="46.3629" lon="6.03114">
        <ele>1135.4</ele>
        <time>2020-11-01T11:46:39.021Z</time>
      </trkpt>
      <trkpt lat="46.3629" lon="6.03114">
        <ele>1135.4</ele>
        <time>2020-11-01T11:46:40.021Z</time>
      </trkpt>
      <trkpt lat="46.36289" lon="6.03109">
        <ele>1135.6</ele>
        <time>2020-11-01T11:46:41.021Z</time>
      </trkpt>
      <trkpt lat="46.36289" lon="6.03104">
        <ele>1135.8</ele>
        <time>2020-11-01T11:46:42.021Z</time>
      </trkpt>
      <trkpt lat="46.36289" lon="6.03104">
        <ele>1135.8</ele>
        <time>2020-11-01T11:46:43.021Z</time>
      </trkpt>
      <trkpt lat="46.36289" lon="6.031">
        <ele>1135.8</ele>
        <time>2020-11-01T11:46:44.02Z</time>
      </trkpt>
      <trkpt lat="46.36289" lon="6.031">
        <ele>1135.8</ele>
        <time>2020-11-01T11:46:45.022Z</time>
      </trkpt>
      <trkpt lat="46.3629" lon="6.03095">
        <ele>1135.8</ele>
        <time>2020-11-01T11:46:46.022Z</time>
      </trkpt>
      <trkpt lat="46.3629" lon="6.0309">
        <ele>1136.2</ele>
        <time>2020-11-01T11:46:47.021Z</time>
      </trkpt>
      <trkpt lat="46.3629" lon="6.0309">
        <ele>1136.2</ele>
        <time>2020-11-01T11:46:48.021Z</time>
      </trkpt>
      <trkpt lat="46.3629" lon="6.03086">
        <ele>1136.6</ele>
        <time>2020-11-01T11:46:49.022Z</time>
      </trkpt>
      <trkpt lat="46.3629" lon="6.03081">
        <ele>1136.8</ele>
        <time>2020-11-01T11:46:50.022Z</time>
      </trkpt>
      <trkpt lat="46.3629" lon="6.03081">
        <ele>1136.8</ele>
        <time>2020-11-01T11:46:51.022Z</time>
      </trkpt>
      <trkpt lat="46.3629" lon="6.03076">
        <ele>1137.2</ele>
        <time>2020-11-01T11:46:52.021Z</time>
      </trkpt>
      <trkpt lat="46.36291" lon="6.03071">
        <ele>1137.6</ele>
        <time>2020-11-01T11:46:53.022Z</time>
      </trkpt>
      <trkpt lat="46.36291" lon="6.03071">
        <ele>1137.6</ele>
        <time>2020-11-01T11:46:54.021Z</time>
      </trkpt>
      <trkpt lat="46.36292" lon="6.03067">
        <ele>1138</ele>
        <time>2020-11-01T11:46:55.02Z</time>
      </trkpt>
      <trkpt lat="46.36292" lon="6.03062">
        <ele>1138.2</ele>
        <time>2020-11-01T11:46:56.021Z</time>
      </trkpt>
      <trkpt lat="46.36292" lon="6.03062">
        <ele>1138.2</ele>
        <time>2020-11-01T11:46:57.021Z</time>
      </trkpt>
      <trkpt lat="46.36293" lon="6.03057">
        <ele>1138.6</ele>
        <time>2020-11-01T11:46:58.023Z</time>
      </trkpt>
      <trkpt lat="46.36294" lon="6.03053">
        <ele>1138.8</ele>
        <time>2020-11-01T11:46:59.021Z</time>
      </trkpt>
      <trkpt lat="46.36294" lon="6.03053">
        <ele>1138.8</ele>
        <time>2020-11-01T11:47:00.021Z</time>
      </trkpt>
      <trkpt lat="46.36295" lon="6.03049">
        <ele>1139</ele>
        <time>2020-11-01T11:47:01.02Z</time>
      </trkpt>
      <trkpt lat="46.36296" lon="6.03045">
        <ele>1139.4</ele>
        <time>2020-11-01T11:47:02.023Z</time>
      </trkpt>
      <trkpt lat="46.36296" lon="6.03045">
        <ele>1139.4</ele>
        <time>2020-11-01T11:47:03.022Z</time>
      </trkpt>
      <trkpt lat="46.36297" lon="6.03041">
        <ele>1139.6</ele>
        <time>2020-11-01T11:47:04.021Z</time>
      </trkpt>
      <trkpt lat="46.36297" lon="6.03036">
        <ele>1140</ele>
        <time>2020-11-01T11:47:05.021Z</time>
      </trkpt>
      <trkpt lat="46.36297" lon="6.03036">
        <ele>1140</ele>
        <time>2020-11-01T11:47:06.023Z</time>
      </trkpt>
      <trkpt lat="46.36297" lon="6.03032">
        <ele>1140.2</ele>
        <time>2020-11-01T11:47:07.023Z</time>
      </trkpt>
      <trkpt lat="46.36297" lon="6.03032">
        <ele>1140.2</ele>
        <time>2020-11-01T11:47:08.022Z</time>
      </trkpt>
      <trkpt lat="46.36296" lon="6.03027">
        <ele>1140.6</ele>
        <time>2020-11-01T11:47:09.02Z</time>
      </trkpt>
      <trkpt lat="46.36296" lon="6.03022">
        <ele>1140.8</ele>
        <time>2020-11-01T11:47:10.022Z</time>
      </trkpt>
      <trkpt lat="46.36296" lon="6.03022">
        <ele>1140.8</ele>
        <time>2020-11-01T11:47:11.022Z</time>
      </trkpt>
      <trkpt lat="46.36295" lon="6.03018">
        <ele>1141.2</ele>
        <time>2020-11-01T11:47:12.021Z</time>
      </trkpt>
      <trkpt lat="46.36295" lon="6.03018">
        <ele>1141.2</ele>
        <time>2020-11-01T11:47:13.021Z</time>
      </trkpt>
      <trkpt lat="46.36294" lon="6.03013">
        <ele>1141.4</ele>
        <time>2020-11-01T11:47:14.021Z</time>
      </trkpt>
      <trkpt lat="46.36294" lon="6.03013">
        <ele>1141.4</ele>
        <time>2020-11-01T11:47:15.021Z</time>
      </trkpt>
      <trkpt lat="46.36294" lon="6.03009">
        <ele>1141.6</ele>
        <time>2020-11-01T11:47:16.022Z</time>
      </trkpt>
      <trkpt lat="46.36294" lon="6.03009">
        <ele>1141.6</ele>
        <time>2020-11-01T11:47:17.022Z</time>
      </trkpt>
      <trkpt lat="46.36293" lon="6.03004">
        <ele>1142</ele>
        <time>2020-11-01T11:47:18.021Z</time>
      </trkpt>
      <trkpt lat="46.36292" lon="6.03">
        <ele>1142.2</ele>
        <time>2020-11-01T11:47:19.023Z</time>
      </trkpt>
      <trkpt lat="46.36292" lon="6.03">
        <ele>1142.2</ele>
        <time>2020-11-01T11:47:20.02Z</time>
      </trkpt>
      <trkpt lat="46.36291" lon="6.02995">
        <ele>1142.6</ele>
        <time>2020-11-01T11:47:21.022Z</time>
      </trkpt>
      <trkpt lat="46.36291" lon="6.02995">
        <ele>1142.6</ele>
        <time>2020-11-01T11:47:22.02Z</time>
      </trkpt>
      <trkpt lat="46.3629" lon="6.02991">
        <ele>1142.8</ele>
        <time>2020-11-01T11:47:23.02Z</time>
      </trkpt>
      <trkpt lat="46.3629" lon="6.02991">
        <ele>1142.8</ele>
        <time>2020-11-01T11:47:24.023Z</time>
      </trkpt>
      <trkpt lat="46.36288" lon="6.02986">
        <ele>1143.2</ele>
        <time>2020-11-01T11:47:25.022Z</time>
      </trkpt>
      <trkpt lat="46.36288" lon="6.02986">
        <ele>1143.2</ele>
        <time>2020-11-01T11:47:26.021Z</time>
      </trkpt>
      <trkpt lat="46.36288" lon="6.02982">
        <ele>1143.4</ele>
        <time>2020-11-01T11:47:27.021Z</time>
      </trkpt>
      <trkpt lat="46.36287" lon="6.02978">
        <ele>1143.6</ele>
        <time>2020-11-01T11:47:28.023Z</time>
      </trkpt>
      <trkpt lat="46.36287" lon="6.02978">
        <ele>1143.6</ele>
        <time>2020-11-01T11:47:29.021Z</time>
      </trkpt>
      <trkpt lat="46.36286" lon="6.02974">
        <ele>1143.8</ele>
        <time>2020-11-01T11:47:30.021Z</time>
      </trkpt>
      <trkpt lat="46.36286" lon="6.02974">
        <ele>1143.8</ele>
        <time>2020-11-01T11:47:31.022Z</time>
      </trkpt>
      <trkpt lat="46.36285" lon="6.02969">
        <ele>1144</ele>
        <time>2020-11-01T11:47:32.025Z</time>
      </trkpt>
      <trkpt lat="46.36285" lon="6.02969">
        <ele>1144</ele>
        <time>2020-11-01T11:47:33.022Z</time>
      </trkpt>
      <trkpt lat="46.36284" lon="6.02965">
        <ele>1144.2</ele>
        <time>2020-11-01T11:47:34.021Z</time>
      </trkpt>
      <trkpt lat="46.36283" lon="6.02961">
        <ele>1144.4</ele>
        <time>2020-11-01T11:47:35.021Z</time>
      </trkpt>
      <trkpt lat="46.36283" lon="6.02961">
        <ele>1144.4</ele>
        <time>2020-11-01T11:47:36.022Z</time>
      </trkpt>
      <trkpt lat="46.36283" lon="6.02956">
        <ele>1144.6</ele>
        <time>2020-11-01T11:47:37.022Z</time>
      </trkpt>
      <trkpt lat="46.36283" lon="6.02956">
        <ele>1144.6</ele>
        <time>2020-11-01T11:47:38.021Z</time>
      </trkpt>
      <trkpt lat="46.36282" lon="6.02952">
        <ele>1144.8</ele>
        <time>2020-11-01T11:47:39.02Z</time>
      </trkpt>
      <trkpt lat="46.36282" lon="6.02952">
        <ele>1144.8</ele>
        <time>2020-11-01T11:47:40.023Z</time>
      </trkpt>
      <trkpt lat="46.36281" lon="6.02948">
        <ele>1145</ele>
        <time>2020-11-01T11:47:41.023Z</time>
      </trkpt>
      <trkpt lat="46.36281" lon="6.02948">
        <ele>1145</ele>
        <time>2020-11-01T11:47:42.021Z</time>
      </trkpt>
      <trkpt lat="46.3628" lon="6.02944">
        <ele>1145.2</ele>
        <time>2020-11-01T11:47:43.02Z</time>
      </trkpt>
      <trkpt lat="46.3628" lon="6.02939">
        <ele>1145.4</ele>
        <time>2020-11-01T11:47:44.021Z</time>
      </trkpt>
      <trkpt lat="46.36279" lon="6.02935">
        <ele>1145.6</ele>
        <time>2020-11-01T11:47:45.023Z</time>
      </trkpt>
      <trkpt lat="46.36279" lon="6.02935">
        <ele>1145.6</ele>
        <time>2020-11-01T11:47:46.021Z</time>
      </trkpt>
      <trkpt lat="46.36279" lon="6.02931">
        <ele>1146</ele>
        <time>2020-11-01T11:47:47.02Z</time>
      </trkpt>
      <trkpt lat="46.36279" lon="6.02931">
        <ele>1146</ele>
        <time>2020-11-01T11:47:48.02Z</time>
      </trkpt>
      <trkpt lat="46.36279" lon="6.02927">
        <ele>1146</ele>
        <time>2020-11-01T11:47:49.023Z</time>
      </trkpt>
      <trkpt lat="46.36278" lon="6.02922">
        <ele>1146.2</ele>
        <time>2020-11-01T11:47:50.022Z</time>
      </trkpt>
      <trkpt lat="46.36278" lon="6.02922">
        <ele>1146.2</ele>
        <time>2020-11-01T11:47:51.021Z</time>
      </trkpt>
      <trkpt lat="46.36278" lon="6.02918">
        <ele>1146.6</ele>
        <time>2020-11-01T11:47:52.021Z</time>
      </trkpt>
      <trkpt lat="46.36278" lon="6.02918">
        <ele>1146.6</ele>
        <time>2020-11-01T11:47:53.02Z</time>
      </trkpt>
      <trkpt lat="46.36277" lon="6.02914">
        <ele>1146.8</ele>
        <time>2020-11-01T11:47:54.022Z</time>
      </trkpt>
      <trkpt lat="46.36276" lon="6.02909">
        <ele>1147.2</ele>
        <time>2020-11-01T11:47:55.021Z</time>
      </trkpt>
      <trkpt lat="46.36276" lon="6.02909">
        <ele>1147.2</ele>
        <time>2020-11-01T11:47:56.02Z</time>
      </trkpt>
      <trkpt lat="46.36274" lon="6.02905">
        <ele>1147.6</ele>
        <time>2020-11-01T11:47:57.021Z</time>
      </trkpt>
      <trkpt lat="46.36272" lon="6.02901">
        <ele>1148</ele>
        <time>2020-11-01T11:47:58.023Z</time>
      </trkpt>
      <trkpt lat="46.36272" lon="6.02901">
        <ele>1148</ele>
        <time>2020-11-01T11:47:59.021Z</time>
      </trkpt>
      <trkpt lat="46.36269" lon="6.02897">
        <ele>1148.2</ele>
        <time>2020-11-01T11:48:00.021Z</time>
      </trkpt>
      <trkpt lat="46.36269" lon="6.02897">
        <ele>1148.2</ele>
        <time>2020-11-01T11:48:01.021Z</time>
      </trkpt>
      <trkpt lat="46.36267" lon="6.02893">
        <ele>1148.4</ele>
        <time>2020-11-01T11:48:02.023Z</time>
      </trkpt>
      <trkpt lat="46.36267" lon="6.02893">
        <ele>1148.4</ele>
        <time>2020-11-01T11:48:03.02Z</time>
      </trkpt>
      <trkpt lat="46.36265" lon="6.02889">
        <ele>1148.8</ele>
        <time>2020-11-01T11:48:04.022Z</time>
      </trkpt>
      <trkpt lat="46.36262" lon="6.02885">
        <ele>1148.8</ele>
        <time>2020-11-01T11:48:05.021Z</time>
      </trkpt>
      <trkpt lat="46.36262" lon="6.02885">
        <ele>1148.8</ele>
        <time>2020-11-01T11:48:06.021Z</time>
      </trkpt>
      <trkpt lat="46.3626" lon="6.02882">
        <ele>1149.2</ele>
        <time>2020-11-01T11:48:07.023Z</time>
      </trkpt>
      <trkpt lat="46.3626" lon="6.02882">
        <ele>1149.2</ele>
        <time>2020-11-01T11:48:08.022Z</time>
      </trkpt>
      <trkpt lat="46.36258" lon="6.02878">
        <ele>1149.2</ele>
        <time>2020-11-01T11:48:09.02Z</time>
      </trkpt>
      <trkpt lat="46.36258" lon="6.02878">
        <ele>1149.2</ele>
        <time>2020-11-01T11:48:10.02Z</time>
      </trkpt>
      <trkpt lat="46.36255" lon="6.02875">
        <ele>1149.6</ele>
        <time>2020-11-01T11:48:11.023Z</time>
      </trkpt>
      <trkpt lat="46.36252" lon="6.02872">
        <ele>1149.8</ele>
        <time>2020-11-01T11:48:12.021Z</time>
      </trkpt>
      <trkpt lat="46.36252" lon="6.02872">
        <ele>1149.8</ele>
        <time>2020-11-01T11:48:13.02Z</time>
      </trkpt>
      <trkpt lat="46.36249" lon="6.0287">
        <ele>1150</ele>
        <time>2020-11-01T11:48:14.02Z</time>
      </trkpt>
      <trkpt lat="46.36249" lon="6.0287">
        <ele>1150</ele>
        <time>2020-11-01T11:48:15.021Z</time>
      </trkpt>
      <trkpt lat="46.36245" lon="6.02867">
        <ele>1150.2</ele>
        <time>2020-11-01T11:48:16.021Z</time>
      </trkpt>
      <trkpt lat="46.36245" lon="6.02867">
        <ele>1150.2</ele>
        <time>2020-11-01T11:48:17.021Z</time>
      </trkpt>
      <trkpt lat="46.36242" lon="6.02865">
        <ele>1150.4</ele>
        <time>2020-11-01T11:48:18.021Z</time>
      </trkpt>
      <trkpt lat="46.36242" lon="6.02865">
        <ele>1150.4</ele>
        <time>2020-11-01T11:48:19.022Z</time>
      </trkpt>
      <trkpt lat="46.36238" lon="6.02862">
        <ele>1150.4</ele>
        <time>2020-11-01T11:48:20.021Z</time>
      </trkpt>
      <trkpt lat="46.36235" lon="6.0286">
        <ele>1150.4</ele>
        <time>2020-11-01T11:48:21.021Z</time>
      </trkpt>
      <trkpt lat="46.36235" lon="6.0286">
        <ele>1150.4</ele>
        <time>2020-11-01T11:48:22.022Z</time>
      </trkpt>
      <trkpt lat="46.36235" lon="6.0286">
        <ele>1150.4</ele>
        <time>2020-11-01T11:48:23.023Z</time>
      </trkpt>
      <trkpt lat="46.36231" lon="6.02857">
        <ele>1150.6</ele>
        <time>2020-11-01T11:48:24.021Z</time>
      </trkpt>
      <trkpt lat="46.36227" lon="6.02854">
        <ele>1150.8</ele>
        <time>2020-11-01T11:48:25.02Z</time>
      </trkpt>
      <trkpt lat="46.36227" lon="6.02854">
        <ele>1150.8</ele>
        <time>2020-11-01T11:48:26.021Z</time>
      </trkpt>
      <trkpt lat="46.36224" lon="6.02851">
        <ele>1150.8</ele>
        <time>2020-11-01T11:48:27.021Z</time>
      </trkpt>
      <trkpt lat="46.36224" lon="6.02851">
        <ele>1150.8</ele>
        <time>2020-11-01T11:48:28.021Z</time>
      </trkpt>
      <trkpt lat="46.3622" lon="6.02848">
        <ele>1150.8</ele>
        <time>2020-11-01T11:48:29.021Z</time>
      </trkpt>
      <trkpt lat="46.3622" lon="6.02848">
        <ele>1150.8</ele>
        <time>2020-11-01T11:48:30.02Z</time>
      </trkpt>
      <trkpt lat="46.36218" lon="6.02845">
        <ele>1151</ele>
        <time>2020-11-01T11:48:31.022Z</time>
      </trkpt>
      <trkpt lat="46.36218" lon="6.02845">
        <ele>1151</ele>
        <time>2020-11-01T11:48:32.022Z</time>
      </trkpt>
      <trkpt lat="46.36214" lon="6.02841">
        <ele>1151</ele>
        <time>2020-11-01T11:48:33.021Z</time>
      </trkpt>
      <trkpt lat="46.36214" lon="6.02841">
        <ele>1151</ele>
        <time>2020-11-01T11:48:34.021Z</time>
      </trkpt>
      <trkpt lat="46.36212" lon="6.02836">
        <ele>1151.2</ele>
        <time>2020-11-01T11:48:35.021Z</time>
      </trkpt>
      <trkpt lat="46.36212" lon="6.02836">
        <ele>1151.2</ele>
        <time>2020-11-01T11:48:36.021Z</time>
      </trkpt>
      <trkpt lat="46.36209" lon="6.02832">
        <ele>1151.4</ele>
        <time>2020-11-01T11:48:37.022Z</time>
      </trkpt>
      <trkpt lat="46.36209" lon="6.02832">
        <ele>1151.4</ele>
        <time>2020-11-01T11:48:38.021Z</time>
      </trkpt>
      <trkpt lat="46.36206" lon="6.02828">
        <ele>1151.4</ele>
        <time>2020-11-01T11:48:39.02Z</time>
      </trkpt>
      <trkpt lat="46.36206" lon="6.02828">
        <ele>1151.4</ele>
        <time>2020-11-01T11:48:40.022Z</time>
      </trkpt>
      <trkpt lat="46.36203" lon="6.02824">
        <ele>1151.4</ele>
        <time>2020-11-01T11:48:41.02Z</time>
      </trkpt>
      <trkpt lat="46.36201" lon="6.02819">
        <ele>1151.6</ele>
        <time>2020-11-01T11:48:42.021Z</time>
      </trkpt>
      <trkpt lat="46.36201" lon="6.02819">
        <ele>1151.6</ele>
        <time>2020-11-01T11:48:43.021Z</time>
      </trkpt>
      <trkpt lat="46.36199" lon="6.02815">
        <ele>1151.8</ele>
        <time>2020-11-01T11:48:44.022Z</time>
      </trkpt>
      <trkpt lat="46.36199" lon="6.02815">
        <ele>1151.8</ele>
        <time>2020-11-01T11:48:45.027Z</time>
      </trkpt>
      <trkpt lat="46.36197" lon="6.02811">
        <ele>1151.6</ele>
        <time>2020-11-01T11:48:46.021Z</time>
      </trkpt>
      <trkpt lat="46.36197" lon="6.02811">
        <ele>1151.6</ele>
        <time>2020-11-01T11:48:47.02Z</time>
      </trkpt>
      <trkpt lat="46.36195" lon="6.02808">
        <ele>1151.8</ele>
        <time>2020-11-01T11:48:48.021Z</time>
      </trkpt>
      <trkpt lat="46.36193" lon="6.02804">
        <ele>1152</ele>
        <time>2020-11-01T11:48:49.021Z</time>
      </trkpt>
      <trkpt lat="46.36193" lon="6.02804">
        <ele>1152</ele>
        <time>2020-11-01T11:48:50.021Z</time>
      </trkpt>
      <trkpt lat="46.36191" lon="6.028">
        <ele>1152</ele>
        <time>2020-11-01T11:48:51.02Z</time>
      </trkpt>
      <trkpt lat="46.36191" lon="6.028">
        <ele>1152</ele>
        <time>2020-11-01T11:48:52.023Z</time>
      </trkpt>
      <trkpt lat="46.36189" lon="6.02797">
        <ele>1152.2</ele>
        <time>2020-11-01T11:48:53.023Z</time>
      </trkpt>
      <trkpt lat="46.36189" lon="6.02797">
        <ele>1152.2</ele>
        <time>2020-11-01T11:48:54.02Z</time>
      </trkpt>
      <trkpt lat="46.36186" lon="6.02793">
        <ele>1152.4</ele>
        <time>2020-11-01T11:48:55.02Z</time>
      </trkpt>
      <trkpt lat="46.36186" lon="6.02793">
        <ele>1152.4</ele>
        <time>2020-11-01T11:48:56.02Z</time>
      </trkpt>
      <trkpt lat="46.36184" lon="6.0279">
        <ele>1152.6</ele>
        <time>2020-11-01T11:48:57.022Z</time>
      </trkpt>
      <trkpt lat="46.36184" lon="6.0279">
        <ele>1152.6</ele>
        <time>2020-11-01T11:48:58.023Z</time>
      </trkpt>
      <trkpt lat="46.36182" lon="6.02787">
        <ele>1153</ele>
        <time>2020-11-01T11:48:59.021Z</time>
      </trkpt>
      <trkpt lat="46.3618" lon="6.02784">
        <ele>1153.4</ele>
        <time>2020-11-01T11:49:00.02Z</time>
      </trkpt>
      <trkpt lat="46.3618" lon="6.02784">
        <ele>1153.4</ele>
        <time>2020-11-01T11:49:01.02Z</time>
      </trkpt>
      <trkpt lat="46.36178" lon="6.02781">
        <ele>1153.8</ele>
        <time>2020-11-01T11:49:02.022Z</time>
      </trkpt>
      <trkpt lat="46.36175" lon="6.02778">
        <ele>1154.2</ele>
        <time>2020-11-01T11:49:03.021Z</time>
      </trkpt>
      <trkpt lat="46.36175" lon="6.02778">
        <ele>1154.2</ele>
        <time>2020-11-01T11:49:04.02Z</time>
      </trkpt>
      <trkpt lat="46.36173" lon="6.02774">
        <ele>1154.6</ele>
        <time>2020-11-01T11:49:05.021Z</time>
      </trkpt>
      <trkpt lat="46.36173" lon="6.02774">
        <ele>1154.6</ele>
        <time>2020-11-01T11:49:06.021Z</time>
      </trkpt>
      <trkpt lat="46.36171" lon="6.02771">
        <ele>1154.8</ele>
        <time>2020-11-01T11:49:07.02Z</time>
      </trkpt>
      <trkpt lat="46.36171" lon="6.02771">
        <ele>1154.8</ele>
        <time>2020-11-01T11:49:08.021Z</time>
      </trkpt>
      <trkpt lat="46.36169" lon="6.02767">
        <ele>1155.6</ele>
        <time>2020-11-01T11:49:09.02Z</time>
      </trkpt>
      <trkpt lat="46.36169" lon="6.02767">
        <ele>1155.6</ele>
        <time>2020-11-01T11:49:10.021Z</time>
      </trkpt>
      <trkpt lat="46.36166" lon="6.02764">
        <ele>1155.8</ele>
        <time>2020-11-01T11:49:11.021Z</time>
      </trkpt>
      <trkpt lat="46.36166" lon="6.02764">
        <ele>1155.8</ele>
        <time>2020-11-01T11:49:12.02Z</time>
      </trkpt>
      <trkpt lat="46.36163" lon="6.02761">
        <ele>1156.2</ele>
        <time>2020-11-01T11:49:13.02Z</time>
      </trkpt>
      <trkpt lat="46.36163" lon="6.02761">
        <ele>1156.2</ele>
        <time>2020-11-01T11:49:14.023Z</time>
      </trkpt>
      <trkpt lat="46.36161" lon="6.02757">
        <ele>1156.4</ele>
        <time>2020-11-01T11:49:15.021Z</time>
      </trkpt>
      <trkpt lat="46.36161" lon="6.02757">
        <ele>1156.4</ele>
        <time>2020-11-01T11:49:16.022Z</time>
      </trkpt>
      <trkpt lat="46.36158" lon="6.02753">
        <ele>1156.6</ele>
        <time>2020-11-01T11:49:17.02Z</time>
      </trkpt>
      <trkpt lat="46.36156" lon="6.0275">
        <ele>1157</ele>
        <time>2020-11-01T11:49:18.022Z</time>
      </trkpt>
      <trkpt lat="46.36156" lon="6.0275">
        <ele>1157</ele>
        <time>2020-11-01T11:49:19.022Z</time>
      </trkpt>
      <trkpt lat="46.36156" lon="6.0275">
        <ele>1157</ele>
        <time>2020-11-01T11:49:20.021Z</time>
      </trkpt>
      <trkpt lat="46.36154" lon="6.02746">
        <ele>1157.2</ele>
        <time>2020-11-01T11:49:21.021Z</time>
      </trkpt>
      <trkpt lat="46.36154" lon="6.02746">
        <ele>1157.2</ele>
        <time>2020-11-01T11:49:22.02Z</time>
      </trkpt>
      <trkpt lat="46.36152" lon="6.02743">
        <ele>1157.6</ele>
        <time>2020-11-01T11:49:23.021Z</time>
      </trkpt>
      <trkpt lat="46.3615" lon="6.02739">
        <ele>1157.8</ele>
        <time>2020-11-01T11:49:24.02Z</time>
      </trkpt>
      <trkpt lat="46.3615" lon="6.02739">
        <ele>1157.8</ele>
        <time>2020-11-01T11:49:25.021Z</time>
      </trkpt>
      <trkpt lat="46.36147" lon="6.02735">
        <ele>1158</ele>
        <time>2020-11-01T11:49:26.021Z</time>
      </trkpt>
      <trkpt lat="46.36147" lon="6.02735">
        <ele>1158</ele>
        <time>2020-11-01T11:49:27.023Z</time>
      </trkpt>
      <trkpt lat="46.36147" lon="6.02735">
        <ele>1158</ele>
        <time>2020-11-01T11:49:28.021Z</time>
      </trkpt>
      <trkpt lat="46.36144" lon="6.02732">
        <ele>1158.4</ele>
        <time>2020-11-01T11:49:29.022Z</time>
      </trkpt>
      <trkpt lat="46.36144" lon="6.02732">
        <ele>1158.4</ele>
        <time>2020-11-01T11:49:30.02Z</time>
      </trkpt>
      <trkpt lat="46.36141" lon="6.02729">
        <ele>1158.4</ele>
        <time>2020-11-01T11:49:31.022Z</time>
      </trkpt>
      <trkpt lat="46.36141" lon="6.02729">
        <ele>1158.4</ele>
        <time>2020-11-01T11:49:32.022Z</time>
      </trkpt>
      <trkpt lat="46.36138" lon="6.02726">
        <ele>1158.8</ele>
        <time>2020-11-01T11:49:33.021Z</time>
      </trkpt>
      <trkpt lat="46.36136" lon="6.02724">
        <ele>1159</ele>
        <time>2020-11-01T11:49:34.021Z</time>
      </trkpt>
      <trkpt lat="46.36136" lon="6.02724">
        <ele>1159</ele>
        <time>2020-11-01T11:49:35.021Z</time>
      </trkpt>
      <trkpt lat="46.36133" lon="6.02721">
        <ele>1159.4</ele>
        <time>2020-11-01T11:49:36.022Z</time>
      </trkpt>
      <trkpt lat="46.36133" lon="6.02721">
        <ele>1159.4</ele>
        <time>2020-11-01T11:49:37.021Z</time>
      </trkpt>
      <trkpt lat="46.36131" lon="6.02718">
        <ele>1159.6</ele>
        <time>2020-11-01T11:49:38.021Z</time>
      </trkpt>
      <trkpt lat="46.36129" lon="6.02716">
        <ele>1160</ele>
        <time>2020-11-01T11:49:39.021Z</time>
      </trkpt>
      <trkpt lat="46.36129" lon="6.02716">
        <ele>1160</ele>
        <time>2020-11-01T11:49:40.02Z</time>
      </trkpt>
      <trkpt lat="46.36126" lon="6.02713">
        <ele>1160.2</ele>
        <time>2020-11-01T11:49:41.022Z</time>
      </trkpt>
      <trkpt lat="46.36126" lon="6.02713">
        <ele>1160.2</ele>
        <time>2020-11-01T11:49:42.022Z</time>
      </trkpt>
      <trkpt lat="46.36124" lon="6.02711">
        <ele>1160.6</ele>
        <time>2020-11-01T11:49:43.02Z</time>
      </trkpt>
      <trkpt lat="46.36121" lon="6.02709">
        <ele>1161</ele>
        <time>2020-11-01T11:49:44.022Z</time>
      </trkpt>
      <trkpt lat="46.36121" lon="6.02709">
        <ele>1161</ele>
        <time>2020-11-01T11:49:45.02Z</time>
      </trkpt>
      <trkpt lat="46.36119" lon="6.02706">
        <ele>1161.2</ele>
        <time>2020-11-01T11:49:46.022Z</time>
      </trkpt>
      <trkpt lat="46.36116" lon="6.02704">
        <ele>1161.6</ele>
        <time>2020-11-01T11:49:47.02Z</time>
      </trkpt>
      <trkpt lat="46.36116" lon="6.02704">
        <ele>1161.6</ele>
        <time>2020-11-01T11:49:48.023Z</time>
      </trkpt>
      <trkpt lat="46.36114" lon="6.02701">
        <ele>1161.6</ele>
        <time>2020-11-01T11:49:49.023Z</time>
      </trkpt>
      <trkpt lat="46.36114" lon="6.02701">
        <ele>1161.6</ele>
        <time>2020-11-01T11:49:50.021Z</time>
      </trkpt>
      <trkpt lat="46.36111" lon="6.02698">
        <ele>1161.8</ele>
        <time>2020-11-01T11:49:51.02Z</time>
      </trkpt>
      <trkpt lat="46.36111" lon="6.02698">
        <ele>1161.8</ele>
        <time>2020-11-01T11:49:52.02Z</time>
      </trkpt>
      <trkpt lat="46.36109" lon="6.02696">
        <ele>1162</ele>
        <time>2020-11-01T11:49:53.024Z</time>
      </trkpt>
      <trkpt lat="46.36109" lon="6.02696">
        <ele>1162</ele>
        <time>2020-11-01T11:49:54.021Z</time>
      </trkpt>
      <trkpt lat="46.36106" lon="6.02693">
        <ele>1162.4</ele>
        <time>2020-11-01T11:49:55.02Z</time>
      </trkpt>
      <trkpt lat="46.36103" lon="6.0269">
        <ele>1162.6</ele>
        <time>2020-11-01T11:49:56.02Z</time>
      </trkpt>
      <trkpt lat="46.36103" lon="6.0269">
        <ele>1162.6</ele>
        <time>2020-11-01T11:49:57.023Z</time>
      </trkpt>
      <trkpt lat="46.361" lon="6.02687">
        <ele>1163</ele>
        <time>2020-11-01T11:49:58.021Z</time>
      </trkpt>
      <trkpt lat="46.361" lon="6.02687">
        <ele>1163</ele>
        <time>2020-11-01T11:49:59.021Z</time>
      </trkpt>
      <trkpt lat="46.36097" lon="6.02685">
        <ele>1163.4</ele>
        <time>2020-11-01T11:50:00.02Z</time>
      </trkpt>
      <trkpt lat="46.36097" lon="6.02685">
        <ele>1163.4</ele>
        <time>2020-11-01T11:50:01.022Z</time>
      </trkpt>
      <trkpt lat="46.36094" lon="6.02683">
        <ele>1164</ele>
        <time>2020-11-01T11:50:02.022Z</time>
      </trkpt>
      <trkpt lat="46.36094" lon="6.02683">
        <ele>1164</ele>
        <time>2020-11-01T11:50:03.022Z</time>
      </trkpt>
      <trkpt lat="46.36091" lon="6.02681">
        <ele>1164.4</ele>
        <time>2020-11-01T11:50:04.021Z</time>
      </trkpt>
      <trkpt lat="46.36091" lon="6.02681">
        <ele>1164.4</ele>
        <time>2020-11-01T11:50:05.02Z</time>
      </trkpt>
      <trkpt lat="46.36089" lon="6.02678">
        <ele>1164.8</ele>
        <time>2020-11-01T11:50:06.021Z</time>
      </trkpt>
      <trkpt lat="46.36086" lon="6.02676">
        <ele>1165</ele>
        <time>2020-11-01T11:50:07.02Z</time>
      </trkpt>
      <trkpt lat="46.36086" lon="6.02676">
        <ele>1165</ele>
        <time>2020-11-01T11:50:08.021Z</time>
      </trkpt>
      <trkpt lat="46.36084" lon="6.02673">
        <ele>1165.4</ele>
        <time>2020-11-01T11:50:09.021Z</time>
      </trkpt>
      <trkpt lat="46.36081" lon="6.02671">
        <ele>1165.6</ele>
        <time>2020-11-01T11:50:10.023Z</time>
      </trkpt>
      <trkpt lat="46.36081" lon="6.02671">
        <ele>1165.6</ele>
        <time>2020-11-01T11:50:11.021Z</time>
      </trkpt>
      <trkpt lat="46.36079" lon="6.02668">
        <ele>1166</ele>
        <time>2020-11-01T11:50:12.021Z</time>
      </trkpt>
      <trkpt lat="46.36076" lon="6.02666">
        <ele>1166.2</ele>
        <time>2020-11-01T11:50:13.02Z</time>
      </trkpt>
      <trkpt lat="46.36076" lon="6.02666">
        <ele>1166.2</ele>
        <time>2020-11-01T11:50:14.021Z</time>
      </trkpt>
      <trkpt lat="46.36073" lon="6.02664">
        <ele>1166.4</ele>
        <time>2020-11-01T11:50:15.022Z</time>
      </trkpt>
      <trkpt lat="46.3607" lon="6.02662">
        <ele>1166.6</ele>
        <time>2020-11-01T11:50:16.021Z</time>
      </trkpt>
      <trkpt lat="46.3607" lon="6.02662">
        <ele>1166.6</ele>
        <time>2020-11-01T11:50:17.021Z</time>
      </trkpt>
      <trkpt lat="46.36068" lon="6.02659">
        <ele>1166.8</ele>
        <time>2020-11-01T11:50:18.02Z</time>
      </trkpt>
      <trkpt lat="46.36065" lon="6.02656">
        <ele>1166.8</ele>
        <time>2020-11-01T11:50:19.023Z</time>
      </trkpt>
      <trkpt lat="46.36062" lon="6.02654">
        <ele>1167.2</ele>
        <time>2020-11-01T11:50:20.022Z</time>
      </trkpt>
      <trkpt lat="46.36062" lon="6.02654">
        <ele>1167.2</ele>
        <time>2020-11-01T11:50:21.02Z</time>
      </trkpt>
      <trkpt lat="46.36059" lon="6.02652">
        <ele>1167.4</ele>
        <time>2020-11-01T11:50:22.021Z</time>
      </trkpt>
      <trkpt lat="46.36059" lon="6.02652">
        <ele>1167.4</ele>
        <time>2020-11-01T11:50:23.023Z</time>
      </trkpt>
      <trkpt lat="46.36055" lon="6.02651">
        <ele>1167.6</ele>
        <time>2020-11-01T11:50:24.021Z</time>
      </trkpt>
      <trkpt lat="46.36052" lon="6.02649">
        <ele>1167.8</ele>
        <time>2020-11-01T11:50:25.021Z</time>
      </trkpt>
      <trkpt lat="46.36052" lon="6.02649">
        <ele>1167.8</ele>
        <time>2020-11-01T11:50:26.021Z</time>
      </trkpt>
      <trkpt lat="46.36049" lon="6.02647">
        <ele>1168</ele>
        <time>2020-11-01T11:50:27.023Z</time>
      </trkpt>
      <trkpt lat="46.36046" lon="6.02645">
        <ele>1168.2</ele>
        <time>2020-11-01T11:50:28.021Z</time>
      </trkpt>
      <trkpt lat="46.36046" lon="6.02645">
        <ele>1168.2</ele>
        <time>2020-11-01T11:50:29.021Z</time>
      </trkpt>
      <trkpt lat="46.36043" lon="6.02643">
        <ele>1168.4</ele>
        <time>2020-11-01T11:50:30.021Z</time>
      </trkpt>
      <trkpt lat="46.3604" lon="6.02641">
        <ele>1168.8</ele>
        <time>2020-11-01T11:50:31.022Z</time>
      </trkpt>
      <trkpt lat="46.3604" lon="6.02641">
        <ele>1168.8</ele>
        <time>2020-11-01T11:50:32.021Z</time>
      </trkpt>
      <trkpt lat="46.36037" lon="6.0264">
        <ele>1169</ele>
        <time>2020-11-01T11:50:33.021Z</time>
      </trkpt>
      <trkpt lat="46.36034" lon="6.02637">
        <ele>1169.2</ele>
        <time>2020-11-01T11:50:34.02Z</time>
      </trkpt>
      <trkpt lat="46.36034" lon="6.02637">
        <ele>1169.2</ele>
        <time>2020-11-01T11:50:35.023Z</time>
      </trkpt>
      <trkpt lat="46.36031" lon="6.02636">
        <ele>1169.4</ele>
        <time>2020-11-01T11:50:36.023Z</time>
      </trkpt>
      <trkpt lat="46.36028" lon="6.02634">
        <ele>1169.4</ele>
        <time>2020-11-01T11:50:37.023Z</time>
      </trkpt>
      <trkpt lat="46.36028" lon="6.02634">
        <ele>1169.4</ele>
        <time>2020-11-01T11:50:38.021Z</time>
      </trkpt>
      <trkpt lat="46.36026" lon="6.02632">
        <ele>1169.6</ele>
        <time>2020-11-01T11:50:39.021Z</time>
      </trkpt>
      <trkpt lat="46.36023" lon="6.02631">
        <ele>1170</ele>
        <time>2020-11-01T11:50:40.022Z</time>
      </trkpt>
      <trkpt lat="46.36021" lon="6.02629">
        <ele>1170.4</ele>
        <time>2020-11-01T11:50:41.021Z</time>
      </trkpt>
      <trkpt lat="46.36018" lon="6.02627">
        <ele>1170.8</ele>
        <time>2020-11-01T11:50:42.021Z</time>
      </trkpt>
      <trkpt lat="46.36018" lon="6.02627">
        <ele>1170.8</ele>
        <time>2020-11-01T11:50:43.021Z</time>
      </trkpt>
      <trkpt lat="46.36015" lon="6.02625">
        <ele>1171.2</ele>
        <time>2020-11-01T11:50:44.022Z</time>
      </trkpt>
      <trkpt lat="46.36015" lon="6.02625">
        <ele>1171.2</ele>
        <time>2020-11-01T11:50:45.02Z</time>
      </trkpt>
      <trkpt lat="46.36013" lon="6.02623">
        <ele>1171.8</ele>
        <time>2020-11-01T11:50:46.021Z</time>
      </trkpt>
      <trkpt lat="46.3601" lon="6.0262">
        <ele>1172.4</ele>
        <time>2020-11-01T11:50:47.02Z</time>
      </trkpt>
      <trkpt lat="46.3601" lon="6.0262">
        <ele>1172.4</ele>
        <time>2020-11-01T11:50:48.023Z</time>
      </trkpt>
      <trkpt lat="46.36007" lon="6.02618">
        <ele>1172.6</ele>
        <time>2020-11-01T11:50:49.024Z</time>
      </trkpt>
      <trkpt lat="46.36005" lon="6.02615">
        <ele>1172.8</ele>
        <time>2020-11-01T11:50:50.022Z</time>
      </trkpt>
      <trkpt lat="46.36005" lon="6.02615">
        <ele>1172.8</ele>
        <time>2020-11-01T11:50:51.02Z</time>
      </trkpt>
      <trkpt lat="46.36002" lon="6.02613">
        <ele>1173</ele>
        <time>2020-11-01T11:50:52.024Z</time>
      </trkpt>
      <trkpt lat="46.35999" lon="6.02611">
        <ele>1173.2</ele>
        <time>2020-11-01T11:50:53.023Z</time>
      </trkpt>
      <trkpt lat="46.35996" lon="6.02609">
        <ele>1173.4</ele>
        <time>2020-11-01T11:50:54.022Z</time>
      </trkpt>
      <trkpt lat="46.35996" lon="6.02609">
        <ele>1173.4</ele>
        <time>2020-11-01T11:50:55.02Z</time>
      </trkpt>
      <trkpt lat="46.35993" lon="6.02607">
        <ele>1173.6</ele>
        <time>2020-11-01T11:50:56.021Z</time>
      </trkpt>
      <trkpt lat="46.35993" lon="6.02607">
        <ele>1173.6</ele>
        <time>2020-11-01T11:50:57.021Z</time>
      </trkpt>
      <trkpt lat="46.3599" lon="6.02606">
        <ele>1173.8</ele>
        <time>2020-11-01T11:50:58.021Z</time>
      </trkpt>
      <trkpt lat="46.35987" lon="6.02605">
        <ele>1174.2</ele>
        <time>2020-11-01T11:50:59.021Z</time>
      </trkpt>
      <trkpt lat="46.35987" lon="6.02605">
        <ele>1174.2</ele>
        <time>2020-11-01T11:51:00.021Z</time>
      </trkpt>
      <trkpt lat="46.35984" lon="6.02604">
        <ele>1174.4</ele>
        <time>2020-11-01T11:51:01.023Z</time>
      </trkpt>
      <trkpt lat="46.35981" lon="6.02602">
        <ele>1174.6</ele>
        <time>2020-11-01T11:51:02.022Z</time>
      </trkpt>
      <trkpt lat="46.35981" lon="6.02602">
        <ele>1174.6</ele>
        <time>2020-11-01T11:51:03.021Z</time>
      </trkpt>
      <trkpt lat="46.35978" lon="6.026">
        <ele>1174.8</ele>
        <time>2020-11-01T11:51:04.02Z</time>
      </trkpt>
      <trkpt lat="46.35975" lon="6.02598">
        <ele>1175.2</ele>
        <time>2020-11-01T11:51:05.022Z</time>
      </trkpt>
      <trkpt lat="46.35975" lon="6.02598">
        <ele>1175.2</ele>
        <time>2020-11-01T11:51:06.023Z</time>
      </trkpt>
      <trkpt lat="46.35972" lon="6.02597">
        <ele>1175.4</ele>
        <time>2020-11-01T11:51:07.021Z</time>
      </trkpt>
      <trkpt lat="46.35969" lon="6.02595">
        <ele>1175.6</ele>
        <time>2020-11-01T11:51:08.02Z</time>
      </trkpt>
      <trkpt lat="46.35967" lon="6.02593">
        <ele>1175.8</ele>
        <time>2020-11-01T11:51:09.021Z</time>
      </trkpt>
      <trkpt lat="46.35967" lon="6.02593">
        <ele>1175.8</ele>
        <time>2020-11-01T11:51:10.021Z</time>
      </trkpt>
      <trkpt lat="46.35964" lon="6.02592">
        <ele>1176</ele>
        <time>2020-11-01T11:51:11.022Z</time>
      </trkpt>
      <trkpt lat="46.35964" lon="6.02592">
        <ele>1176</ele>
        <time>2020-11-01T11:51:12.021Z</time>
      </trkpt>
      <trkpt lat="46.3596" lon="6.02591">
        <ele>1176.4</ele>
        <time>2020-11-01T11:51:13.021Z</time>
      </trkpt>
      <trkpt lat="46.35957" lon="6.0259">
        <ele>1176.6</ele>
        <time>2020-11-01T11:51:14.02Z</time>
      </trkpt>
      <trkpt lat="46.35957" lon="6.0259">
        <ele>1176.6</ele>
        <time>2020-11-01T11:51:15.021Z</time>
      </trkpt>
      <trkpt lat="46.35954" lon="6.02589">
        <ele>1177</ele>
        <time>2020-11-01T11:51:16.021Z</time>
      </trkpt>
      <trkpt lat="46.35951" lon="6.02588">
        <ele>1177.2</ele>
        <time>2020-11-01T11:51:17.02Z</time>
      </trkpt>
      <trkpt lat="46.35951" lon="6.02588">
        <ele>1177.2</ele>
        <time>2020-11-01T11:51:18.021Z</time>
      </trkpt>
      <trkpt lat="46.35948" lon="6.02587">
        <ele>1177.2</ele>
        <time>2020-11-01T11:51:19.022Z</time>
      </trkpt>
      <trkpt lat="46.35945" lon="6.02586">
        <ele>1177.4</ele>
        <time>2020-11-01T11:51:20.022Z</time>
      </trkpt>
      <trkpt lat="46.35945" lon="6.02586">
        <ele>1177.4</ele>
        <time>2020-11-01T11:51:21.021Z</time>
      </trkpt>
      <trkpt lat="46.35945" lon="6.02586">
        <ele>1177.4</ele>
        <time>2020-11-01T11:51:22.021Z</time>
      </trkpt>
      <trkpt lat="46.35942" lon="6.02586">
        <ele>1177.6</ele>
        <time>2020-11-01T11:51:23.021Z</time>
      </trkpt>
      <trkpt lat="46.35942" lon="6.02586">
        <ele>1177.6</ele>
        <time>2020-11-01T11:51:24.022Z</time>
      </trkpt>
      <trkpt lat="46.35939" lon="6.02584">
        <ele>1178</ele>
        <time>2020-11-01T11:51:25.021Z</time>
      </trkpt>
      <trkpt lat="46.35935" lon="6.02584">
        <ele>1178.2</ele>
        <time>2020-11-01T11:51:26.021Z</time>
      </trkpt>
      <trkpt lat="46.35935" lon="6.02584">
        <ele>1178.2</ele>
        <time>2020-11-01T11:51:27.023Z</time>
      </trkpt>
      <trkpt lat="46.35932" lon="6.02583">
        <ele>1178.2</ele>
        <time>2020-11-01T11:51:28.021Z</time>
      </trkpt>
      <trkpt lat="46.35932" lon="6.02583">
        <ele>1178.2</ele>
        <time>2020-11-01T11:51:29.021Z</time>
      </trkpt>
      <trkpt lat="46.35929" lon="6.02582">
        <ele>1178.6</ele>
        <time>2020-11-01T11:51:30.02Z</time>
      </trkpt>
      <trkpt lat="46.35929" lon="6.02582">
        <ele>1178.6</ele>
        <time>2020-11-01T11:51:31.02Z</time>
      </trkpt>
      <trkpt lat="46.35926" lon="6.0258">
        <ele>1179</ele>
        <time>2020-11-01T11:51:32.021Z</time>
      </trkpt>
      <trkpt lat="46.35923" lon="6.02579">
        <ele>1179.2</ele>
        <time>2020-11-01T11:51:33.021Z</time>
      </trkpt>
      <trkpt lat="46.35923" lon="6.02579">
        <ele>1179.2</ele>
        <time>2020-11-01T11:51:34.021Z</time>
      </trkpt>
      <trkpt lat="46.3592" lon="6.02578">
        <ele>1180</ele>
        <time>2020-11-01T11:51:35.021Z</time>
      </trkpt>
      <trkpt lat="46.3592" lon="6.02578">
        <ele>1180</ele>
        <time>2020-11-01T11:51:36.021Z</time>
      </trkpt>
      <trkpt lat="46.35917" lon="6.02576">
        <ele>1180.4</ele>
        <time>2020-11-01T11:51:37.022Z</time>
      </trkpt>
      <trkpt lat="46.35915" lon="6.02575">
        <ele>1180.6</ele>
        <time>2020-11-01T11:51:38.021Z</time>
      </trkpt>
      <trkpt lat="46.35915" lon="6.02575">
        <ele>1180.6</ele>
        <time>2020-11-01T11:51:39.02Z</time>
      </trkpt>
      <trkpt lat="46.35913" lon="6.02572">
        <ele>1180.6</ele>
        <time>2020-11-01T11:51:40.021Z</time>
      </trkpt>
      <trkpt lat="46.35912" lon="6.02569">
        <ele>1180.8</ele>
        <time>2020-11-01T11:51:41.023Z</time>
      </trkpt>
      <trkpt lat="46.35912" lon="6.02565">
        <ele>1180.8</ele>
        <time>2020-11-01T11:51:42.02Z</time>
      </trkpt>
      <trkpt lat="46.35912" lon="6.02565">
        <ele>1180.8</ele>
        <time>2020-11-01T11:51:43.022Z</time>
      </trkpt>
      <trkpt lat="46.35913" lon="6.02562">
        <ele>1181.2</ele>
        <time>2020-11-01T11:51:44.022Z</time>
      </trkpt>
      <trkpt lat="46.35915" lon="6.02559">
        <ele>1181.4</ele>
        <time>2020-11-01T11:51:45.021Z</time>
      </trkpt>
      <trkpt lat="46.35915" lon="6.02559">
        <ele>1181.4</ele>
        <time>2020-11-01T11:51:46.021Z</time>
      </trkpt>
      <trkpt lat="46.35917" lon="6.02558">
        <ele>1181.6</ele>
        <time>2020-11-01T11:51:47.02Z</time>
      </trkpt>
      <trkpt lat="46.35919" lon="6.02557">
        <ele>1182</ele>
        <time>2020-11-01T11:51:48.02Z</time>
      </trkpt>
      <trkpt lat="46.35922" lon="6.02558">
        <ele>1182.2</ele>
        <time>2020-11-01T11:51:49.021Z</time>
      </trkpt>
      <trkpt lat="46.35922" lon="6.02558">
        <ele>1182.2</ele>
        <time>2020-11-01T11:51:50.021Z</time>
      </trkpt>
      <trkpt lat="46.35925" lon="6.02559">
        <ele>1182.4</ele>
        <time>2020-11-01T11:51:51.02Z</time>
      </trkpt>
      <trkpt lat="46.35925" lon="6.02559">
        <ele>1182.4</ele>
        <time>2020-11-01T11:51:52.023Z</time>
      </trkpt>
      <trkpt lat="46.35928" lon="6.0256">
        <ele>1182.8</ele>
        <time>2020-11-01T11:51:53.02Z</time>
      </trkpt>
      <trkpt lat="46.35928" lon="6.0256">
        <ele>1182.8</ele>
        <time>2020-11-01T11:51:54.022Z</time>
      </trkpt>
      <trkpt lat="46.35931" lon="6.02562">
        <ele>1183</ele>
        <time>2020-11-01T11:51:55.02Z</time>
      </trkpt>
      <trkpt lat="46.35934" lon="6.02563">
        <ele>1183.2</ele>
        <time>2020-11-01T11:51:56.024Z</time>
      </trkpt>
      <trkpt lat="46.35934" lon="6.02563">
        <ele>1183.2</ele>
        <time>2020-11-01T11:51:57.022Z</time>
      </trkpt>
      <trkpt lat="46.35937" lon="6.02564">
        <ele>1183.6</ele>
        <time>2020-11-01T11:51:58.021Z</time>
      </trkpt>
      <trkpt lat="46.3594" lon="6.02566">
        <ele>1183.8</ele>
        <time>2020-11-01T11:51:59.02Z</time>
      </trkpt>
      <trkpt lat="46.3594" lon="6.02566">
        <ele>1183.8</ele>
        <time>2020-11-01T11:52:00.022Z</time>
      </trkpt>
      <trkpt lat="46.35943" lon="6.02567">
        <ele>1184</ele>
        <time>2020-11-01T11:52:01.023Z</time>
      </trkpt>
      <trkpt lat="46.35943" lon="6.02567">
        <ele>1184</ele>
        <time>2020-11-01T11:52:02.021Z</time>
      </trkpt>
      <trkpt lat="46.35946" lon="6.02569">
        <ele>1184.2</ele>
        <time>2020-11-01T11:52:03.021Z</time>
      </trkpt>
      <trkpt lat="46.35949" lon="6.0257">
        <ele>1184.4</ele>
        <time>2020-11-01T11:52:04.021Z</time>
      </trkpt>
      <trkpt lat="46.35949" lon="6.0257">
        <ele>1184.4</ele>
        <time>2020-11-01T11:52:05.023Z</time>
      </trkpt>
      <trkpt lat="46.35952" lon="6.02571">
        <ele>1184.6</ele>
        <time>2020-11-01T11:52:06.022Z</time>
      </trkpt>
      <trkpt lat="46.35952" lon="6.02571">
        <ele>1184.6</ele>
        <time>2020-11-01T11:52:07.022Z</time>
      </trkpt>
      <trkpt lat="46.35955" lon="6.02572">
        <ele>1184.8</ele>
        <time>2020-11-01T11:52:08.021Z</time>
      </trkpt>
      <trkpt lat="46.35958" lon="6.02573">
        <ele>1185.2</ele>
        <time>2020-11-01T11:52:09.023Z</time>
      </trkpt>
      <trkpt lat="46.35958" lon="6.02573">
        <ele>1185.2</ele>
        <time>2020-11-01T11:52:10.02Z</time>
      </trkpt>
      <trkpt lat="46.35961" lon="6.02574">
        <ele>1185.6</ele>
        <time>2020-11-01T11:52:11.021Z</time>
      </trkpt>
      <trkpt lat="46.35961" lon="6.02574">
        <ele>1185.6</ele>
        <time>2020-11-01T11:52:12.02Z</time>
      </trkpt>
      <trkpt lat="46.35964" lon="6.02575">
        <ele>1185.6</ele>
        <time>2020-11-01T11:52:13.022Z</time>
      </trkpt>
      <trkpt lat="46.35967" lon="6.02576">
        <ele>1186</ele>
        <time>2020-11-01T11:52:14.02Z</time>
      </trkpt>
      <trkpt lat="46.35967" lon="6.02576">
        <ele>1186</ele>
        <time>2020-11-01T11:52:15.022Z</time>
      </trkpt>
      <trkpt lat="46.35969" lon="6.02577">
        <ele>1186.2</ele>
        <time>2020-11-01T11:52:16.02Z</time>
      </trkpt>
      <trkpt lat="46.35972" lon="6.02578">
        <ele>1186.4</ele>
        <time>2020-11-01T11:52:17.021Z</time>
      </trkpt>
      <trkpt lat="46.35972" lon="6.02578">
        <ele>1186.4</ele>
        <time>2020-11-01T11:52:18.02Z</time>
      </trkpt>
      <trkpt lat="46.35975" lon="6.02579">
        <ele>1186.8</ele>
        <time>2020-11-01T11:52:19.022Z</time>
      </trkpt>
      <trkpt lat="46.35975" lon="6.02579">
        <ele>1186.8</ele>
        <time>2020-11-01T11:52:20.021Z</time>
      </trkpt>
      <trkpt lat="46.35978" lon="6.02579">
        <ele>1187.6</ele>
        <time>2020-11-01T11:52:21.022Z</time>
      </trkpt>
      <trkpt lat="46.35981" lon="6.02579">
        <ele>1187.8</ele>
        <time>2020-11-01T11:52:22.022Z</time>
      </trkpt>
      <trkpt lat="46.35981" lon="6.02579">
        <ele>1187.8</ele>
        <time>2020-11-01T11:52:23.021Z</time>
      </trkpt>
      <trkpt lat="46.35984" lon="6.0258">
        <ele>1188.2</ele>
        <time>2020-11-01T11:52:24.022Z</time>
      </trkpt>
      <trkpt lat="46.35984" lon="6.0258">
        <ele>1188.2</ele>
        <time>2020-11-01T11:52:25.021Z</time>
      </trkpt>
      <trkpt lat="46.35987" lon="6.0258">
        <ele>1188.4</ele>
        <time>2020-11-01T11:52:26.022Z</time>
      </trkpt>
      <trkpt lat="46.3599" lon="6.0258">
        <ele>1188.8</ele>
        <time>2020-11-01T11:52:27.021Z</time>
      </trkpt>
      <trkpt lat="46.3599" lon="6.0258">
        <ele>1188.8</ele>
        <time>2020-11-01T11:52:28.022Z</time>
      </trkpt>
      <trkpt lat="46.35993" lon="6.0258">
        <ele>1188.8</ele>
        <time>2020-11-01T11:52:29.02Z</time>
      </trkpt>
      <trkpt lat="46.35993" lon="6.0258">
        <ele>1188.8</ele>
        <time>2020-11-01T11:52:30.022Z</time>
      </trkpt>
      <trkpt lat="46.35996" lon="6.0258">
        <ele>1189.2</ele>
        <time>2020-11-01T11:52:31.023Z</time>
      </trkpt>
      <trkpt lat="46.35999" lon="6.02579">
        <ele>1189.2</ele>
        <time>2020-11-01T11:52:32.021Z</time>
      </trkpt>
      <trkpt lat="46.35999" lon="6.02579">
        <ele>1189.2</ele>
        <time>2020-11-01T11:52:33.021Z</time>
      </trkpt>
      <trkpt lat="46.36001" lon="6.02579">
        <ele>1189.4</ele>
        <time>2020-11-01T11:52:34.02Z</time>
      </trkpt>
      <trkpt lat="46.36004" lon="6.02578">
        <ele>1189.6</ele>
        <time>2020-11-01T11:52:35.02Z</time>
      </trkpt>
      <trkpt lat="46.36004" lon="6.02578">
        <ele>1189.6</ele>
        <time>2020-11-01T11:52:36.021Z</time>
      </trkpt>
      <trkpt lat="46.36007" lon="6.02578">
        <ele>1190</ele>
        <time>2020-11-01T11:52:37.02Z</time>
      </trkpt>
      <trkpt lat="46.36009" lon="6.02578">
        <ele>1190.2</ele>
        <time>2020-11-01T11:52:38.02Z</time>
      </trkpt>
      <trkpt lat="46.36009" lon="6.02578">
        <ele>1190.2</ele>
        <time>2020-11-01T11:52:39.021Z</time>
      </trkpt>
      <trkpt lat="46.36012" lon="6.02577">
        <ele>1190.4</ele>
        <time>2020-11-01T11:52:40.022Z</time>
      </trkpt>
      <trkpt lat="46.36015" lon="6.02577">
        <ele>1190.6</ele>
        <time>2020-11-01T11:52:41.022Z</time>
      </trkpt>
      <trkpt lat="46.36015" lon="6.02577">
        <ele>1190.6</ele>
        <time>2020-11-01T11:52:42.021Z</time>
      </trkpt>
      <trkpt lat="46.36018" lon="6.02576">
        <ele>1191</ele>
        <time>2020-11-01T11:52:43.023Z</time>
      </trkpt>
      <trkpt lat="46.36018" lon="6.02576">
        <ele>1191</ele>
        <time>2020-11-01T11:52:44.023Z</time>
      </trkpt>
      <trkpt lat="46.36021" lon="6.02575">
        <ele>1191.2</ele>
        <time>2020-11-01T11:52:45.021Z</time>
      </trkpt>
      <trkpt lat="46.36023" lon="6.02575">
        <ele>1191.2</ele>
        <time>2020-11-01T11:52:46.021Z</time>
      </trkpt>
      <trkpt lat="46.36023" lon="6.02575">
        <ele>1191.2</ele>
        <time>2020-11-01T11:52:47.022Z</time>
      </trkpt>
      <trkpt lat="46.36027" lon="6.02575">
        <ele>1191.2</ele>
        <time>2020-11-01T11:52:48.021Z</time>
      </trkpt>
      <trkpt lat="46.36027" lon="6.02575">
        <ele>1191.2</ele>
        <time>2020-11-01T11:52:49.021Z</time>
      </trkpt>
      <trkpt lat="46.3603" lon="6.02576">
        <ele>1191.6</ele>
        <time>2020-11-01T11:52:50.02Z</time>
      </trkpt>
      <trkpt lat="46.36033" lon="6.02576">
        <ele>1191.8</ele>
        <time>2020-11-01T11:52:51.021Z</time>
      </trkpt>
      <trkpt lat="46.36033" lon="6.02576">
        <ele>1191.8</ele>
        <time>2020-11-01T11:52:52.023Z</time>
      </trkpt>
      <trkpt lat="46.36033" lon="6.02576">
        <ele>1191.8</ele>
        <time>2020-11-01T11:52:53.021Z</time>
      </trkpt>
      <trkpt lat="46.36037" lon="6.02576">
        <ele>1192</ele>
        <time>2020-11-01T11:52:54.021Z</time>
      </trkpt>
      <trkpt lat="46.36037" lon="6.02576">
        <ele>1192</ele>
        <time>2020-11-01T11:52:55.021Z</time>
      </trkpt>
      <trkpt lat="46.3604" lon="6.02576">
        <ele>1192.2</ele>
        <time>2020-11-01T11:52:56.022Z</time>
      </trkpt>
      <trkpt lat="46.3604" lon="6.02576">
        <ele>1192.2</ele>
        <time>2020-11-01T11:52:57.023Z</time>
      </trkpt>
      <trkpt lat="46.36044" lon="6.02577">
        <ele>1192.4</ele>
        <time>2020-11-01T11:52:58.021Z</time>
      </trkpt>
      <trkpt lat="46.36044" lon="6.02577">
        <ele>1192.4</ele>
        <time>2020-11-01T11:52:59.02Z</time>
      </trkpt>
      <trkpt lat="46.36047" lon="6.02577">
        <ele>1192.8</ele>
        <time>2020-11-01T11:53:00.022Z</time>
      </trkpt>
      <trkpt lat="46.36047" lon="6.02577">
        <ele>1192.8</ele>
        <time>2020-11-01T11:53:01.02Z</time>
      </trkpt>
      <trkpt lat="46.36051" lon="6.02577">
        <ele>1193.2</ele>
        <time>2020-11-01T11:53:02.022Z</time>
      </trkpt>
      <trkpt lat="46.36051" lon="6.02577">
        <ele>1193.2</ele>
        <time>2020-11-01T11:53:03.02Z</time>
      </trkpt>
      <trkpt lat="46.36054" lon="6.02577">
        <ele>1193.4</ele>
        <time>2020-11-01T11:53:04.021Z</time>
      </trkpt>
      <trkpt lat="46.36054" lon="6.02577">
        <ele>1193.4</ele>
        <time>2020-11-01T11:53:05.023Z</time>
      </trkpt>
      <trkpt lat="46.36057" lon="6.02578">
        <ele>1193.6</ele>
        <time>2020-11-01T11:53:06.021Z</time>
      </trkpt>
      <trkpt lat="46.36057" lon="6.02578">
        <ele>1193.6</ele>
        <time>2020-11-01T11:53:07.021Z</time>
      </trkpt>
      <trkpt lat="46.36061" lon="6.02579">
        <ele>1193.8</ele>
        <time>2020-11-01T11:53:08.02Z</time>
      </trkpt>
      <trkpt lat="46.36061" lon="6.02579">
        <ele>1193.8</ele>
        <time>2020-11-01T11:53:09.021Z</time>
      </trkpt>
      <trkpt lat="46.36064" lon="6.0258">
        <ele>1194.2</ele>
        <time>2020-11-01T11:53:10.021Z</time>
      </trkpt>
      <trkpt lat="46.36064" lon="6.0258">
        <ele>1194.2</ele>
        <time>2020-11-01T11:53:11.022Z</time>
      </trkpt>
      <trkpt lat="46.36067" lon="6.02581">
        <ele>1194.4</ele>
        <time>2020-11-01T11:53:12.02Z</time>
      </trkpt>
      <trkpt lat="46.36067" lon="6.02581">
        <ele>1194.4</ele>
        <time>2020-11-01T11:53:13.023Z</time>
      </trkpt>
      <trkpt lat="46.3607" lon="6.02582">
        <ele>1194.8</ele>
        <time>2020-11-01T11:53:14.023Z</time>
      </trkpt>
      <trkpt lat="46.3607" lon="6.02582">
        <ele>1194.8</ele>
        <time>2020-11-01T11:53:15.021Z</time>
      </trkpt>
      <trkpt lat="46.36073" lon="6.02584">
        <ele>1195</ele>
        <time>2020-11-01T11:53:16.02Z</time>
      </trkpt>
      <trkpt lat="46.36076" lon="6.02585">
        <ele>1195.2</ele>
        <time>2020-11-01T11:53:17.022Z</time>
      </trkpt>
      <trkpt lat="46.36076" lon="6.02585">
        <ele>1195.2</ele>
        <time>2020-11-01T11:53:18.022Z</time>
      </trkpt>
      <trkpt lat="46.36079" lon="6.02587">
        <ele>1195.6</ele>
        <time>2020-11-01T11:53:19.021Z</time>
      </trkpt>
      <trkpt lat="46.36079" lon="6.02587">
        <ele>1195.6</ele>
        <time>2020-11-01T11:53:20.021Z</time>
      </trkpt>
      <trkpt lat="46.36082" lon="6.02589">
        <ele>1195.8</ele>
        <time>2020-11-01T11:53:21.02Z</time>
      </trkpt>
      <trkpt lat="46.36082" lon="6.02589">
        <ele>1195.8</ele>
        <time>2020-11-01T11:53:22.021Z</time>
      </trkpt>
      <trkpt lat="46.36085" lon="6.02592">
        <ele>1196.2</ele>
        <time>2020-11-01T11:53:23.02Z</time>
      </trkpt>
      <trkpt lat="46.36087" lon="6.02593">
        <ele>1196.4</ele>
        <time>2020-11-01T11:53:24.02Z</time>
      </trkpt>
      <trkpt lat="46.36087" lon="6.02593">
        <ele>1196.4</ele>
        <time>2020-11-01T11:53:25.02Z</time>
      </trkpt>
      <trkpt lat="46.3609" lon="6.02595">
        <ele>1196.6</ele>
        <time>2020-11-01T11:53:26.022Z</time>
      </trkpt>
      <trkpt lat="46.3609" lon="6.02595">
        <ele>1196.6</ele>
        <time>2020-11-01T11:53:27.022Z</time>
      </trkpt>
      <trkpt lat="46.36092" lon="6.02597">
        <ele>1196.8</ele>
        <time>2020-11-01T11:53:28.021Z</time>
      </trkpt>
      <trkpt lat="46.36095" lon="6.026">
        <ele>1197.2</ele>
        <time>2020-11-01T11:53:29.02Z</time>
      </trkpt>
      <trkpt lat="46.36095" lon="6.026">
        <ele>1197.2</ele>
        <time>2020-11-01T11:53:30.022Z</time>
      </trkpt>
      <trkpt lat="46.36097" lon="6.02602">
        <ele>1197.4</ele>
        <time>2020-11-01T11:53:31.023Z</time>
      </trkpt>
      <trkpt lat="46.36097" lon="6.02602">
        <ele>1197.4</ele>
        <time>2020-11-01T11:53:32.021Z</time>
      </trkpt>
      <trkpt lat="46.361" lon="6.02604">
        <ele>1197.8</ele>
        <time>2020-11-01T11:53:33.02Z</time>
      </trkpt>
      <trkpt lat="46.36103" lon="6.02607">
        <ele>1198</ele>
        <time>2020-11-01T11:53:34.022Z</time>
      </trkpt>
      <trkpt lat="46.36103" lon="6.02607">
        <ele>1198</ele>
        <time>2020-11-01T11:53:35.022Z</time>
      </trkpt>
      <trkpt lat="46.36105" lon="6.02609">
        <ele>1198.2</ele>
        <time>2020-11-01T11:53:36.021Z</time>
      </trkpt>
      <trkpt lat="46.36105" lon="6.02609">
        <ele>1198.2</ele>
        <time>2020-11-01T11:53:37.02Z</time>
      </trkpt>
      <trkpt lat="46.36108" lon="6.02612">
        <ele>1198.4</ele>
        <time>2020-11-01T11:53:38.021Z</time>
      </trkpt>
      <trkpt lat="46.3611" lon="6.02614">
        <ele>1198.6</ele>
        <time>2020-11-01T11:53:39.021Z</time>
      </trkpt>
      <trkpt lat="46.3611" lon="6.02614">
        <ele>1198.6</ele>
        <time>2020-11-01T11:53:40.021Z</time>
      </trkpt>
      <trkpt lat="46.36113" lon="6.02616">
        <ele>1198.6</ele>
        <time>2020-11-01T11:53:41.021Z</time>
      </trkpt>
      <trkpt lat="46.36113" lon="6.02616">
        <ele>1198.6</ele>
        <time>2020-11-01T11:53:42.021Z</time>
      </trkpt>
      <trkpt lat="46.36116" lon="6.02618">
        <ele>1198.8</ele>
        <time>2020-11-01T11:53:43.024Z</time>
      </trkpt>
      <trkpt lat="46.36116" lon="6.02618">
        <ele>1198.8</ele>
        <time>2020-11-01T11:53:44.021Z</time>
      </trkpt>
      <trkpt lat="46.36118" lon="6.02621">
        <ele>1199</ele>
        <time>2020-11-01T11:53:45.021Z</time>
      </trkpt>
      <trkpt lat="46.36121" lon="6.02623">
        <ele>1199.2</ele>
        <time>2020-11-01T11:53:46.02Z</time>
      </trkpt>
      <trkpt lat="46.36121" lon="6.02623">
        <ele>1199.2</ele>
        <time>2020-11-01T11:53:47.023Z</time>
      </trkpt>
      <trkpt lat="46.36123" lon="6.02625">
        <ele>1199.6</ele>
        <time>2020-11-01T11:53:48.023Z</time>
      </trkpt>
      <trkpt lat="46.36123" lon="6.02625">
        <ele>1199.6</ele>
        <time>2020-11-01T11:53:49.022Z</time>
      </trkpt>
      <trkpt lat="46.36126" lon="6.02627">
        <ele>1199.8</ele>
        <time>2020-11-01T11:53:50.02Z</time>
      </trkpt>
      <trkpt lat="46.36129" lon="6.0263">
        <ele>1200</ele>
        <time>2020-11-01T11:53:51.022Z</time>
      </trkpt>
      <trkpt lat="46.36129" lon="6.0263">
        <ele>1200</ele>
        <time>2020-11-01T11:53:52.024Z</time>
      </trkpt>
      <trkpt lat="46.36131" lon="6.02632">
        <ele>1200.2</ele>
        <time>2020-11-01T11:53:53.021Z</time>
      </trkpt>
      <trkpt lat="46.36131" lon="6.02632">
        <ele>1200.2</ele>
        <time>2020-11-01T11:53:54.021Z</time>
      </trkpt>
      <trkpt lat="46.36134" lon="6.02634">
        <ele>1200.6</ele>
        <time>2020-11-01T11:53:55.02Z</time>
      </trkpt>
      <trkpt lat="46.36136" lon="6.02637">
        <ele>1200.8</ele>
        <time>2020-11-01T11:53:56.023Z</time>
      </trkpt>
      <trkpt lat="46.36136" lon="6.02637">
        <ele>1200.8</ele>
        <time>2020-11-01T11:53:57.021Z</time>
      </trkpt>
      <trkpt lat="46.36139" lon="6.02639">
        <ele>1201</ele>
        <time>2020-11-01T11:53:58.021Z</time>
      </trkpt>
      <trkpt lat="46.36139" lon="6.02639">
        <ele>1201</ele>
        <time>2020-11-01T11:53:59.021Z</time>
      </trkpt>
      <trkpt lat="46.36141" lon="6.02641">
        <ele>1201.2</ele>
        <time>2020-11-01T11:54:00.023Z</time>
      </trkpt>
      <trkpt lat="46.36144" lon="6.02643">
        <ele>1201.6</ele>
        <time>2020-11-01T11:54:01.021Z</time>
      </trkpt>
      <trkpt lat="46.36144" lon="6.02643">
        <ele>1201.6</ele>
        <time>2020-11-01T11:54:02.022Z</time>
      </trkpt>
      <trkpt lat="46.36147" lon="6.02645">
        <ele>1201.8</ele>
        <time>2020-11-01T11:54:03.02Z</time>
      </trkpt>
      <trkpt lat="46.36147" lon="6.02645">
        <ele>1201.8</ele>
        <time>2020-11-01T11:54:04.024Z</time>
      </trkpt>
      <trkpt lat="46.36149" lon="6.02647">
        <ele>1202</ele>
        <time>2020-11-01T11:54:05.021Z</time>
      </trkpt>
      <trkpt lat="46.36152" lon="6.02649">
        <ele>1202.2</ele>
        <time>2020-11-01T11:54:06.021Z</time>
      </trkpt>
      <trkpt lat="46.36152" lon="6.02649">
        <ele>1202.2</ele>
        <time>2020-11-01T11:54:07.02Z</time>
      </trkpt>
      <trkpt lat="46.36154" lon="6.02652">
        <ele>1202.6</ele>
        <time>2020-11-01T11:54:08.02Z</time>
      </trkpt>
      <trkpt lat="46.36157" lon="6.02654">
        <ele>1202.8</ele>
        <time>2020-11-01T11:54:09.021Z</time>
      </trkpt>
      <trkpt lat="46.36157" lon="6.02654">
        <ele>1202.8</ele>
        <time>2020-11-01T11:54:10.021Z</time>
      </trkpt>
      <trkpt lat="46.36159" lon="6.02656">
        <ele>1203</ele>
        <time>2020-11-01T11:54:11.02Z</time>
      </trkpt>
      <trkpt lat="46.36159" lon="6.02656">
        <ele>1203</ele>
        <time>2020-11-01T11:54:12.02Z</time>
      </trkpt>
      <trkpt lat="46.36162" lon="6.02658">
        <ele>1203.4</ele>
        <time>2020-11-01T11:54:13.02Z</time>
      </trkpt>
      <trkpt lat="46.36165" lon="6.0266">
        <ele>1203.6</ele>
        <time>2020-11-01T11:54:14.021Z</time>
      </trkpt>
      <trkpt lat="46.36165" lon="6.0266">
        <ele>1203.6</ele>
        <time>2020-11-01T11:54:15.021Z</time>
      </trkpt>
      <trkpt lat="46.36167" lon="6.02662">
        <ele>1203.8</ele>
        <time>2020-11-01T11:54:16.021Z</time>
      </trkpt>
      <trkpt lat="46.3617" lon="6.02664">
        <ele>1204</ele>
        <time>2020-11-01T11:54:17.023Z</time>
      </trkpt>
      <trkpt lat="46.3617" lon="6.02664">
        <ele>1204</ele>
        <time>2020-11-01T11:54:18.02Z</time>
      </trkpt>
      <trkpt lat="46.36173" lon="6.02666">
        <ele>1204.2</ele>
        <time>2020-11-01T11:54:19.021Z</time>
      </trkpt>
      <trkpt lat="46.36175" lon="6.02667">
        <ele>1204.6</ele>
        <time>2020-11-01T11:54:20.02Z</time>
      </trkpt>
      <trkpt lat="46.36175" lon="6.02667">
        <ele>1204.6</ele>
        <time>2020-11-01T11:54:21.021Z</time>
      </trkpt>
      <trkpt lat="46.36178" lon="6.02669">
        <ele>1204.8</ele>
        <time>2020-11-01T11:54:22.021Z</time>
      </trkpt>
      <trkpt lat="46.36178" lon="6.02669">
        <ele>1204.8</ele>
        <time>2020-11-01T11:54:23.021Z</time>
      </trkpt>
      <trkpt lat="46.36181" lon="6.02671">
        <ele>1205</ele>
        <time>2020-11-01T11:54:24.02Z</time>
      </trkpt>
      <trkpt lat="46.36184" lon="6.02672">
        <ele>1205.4</ele>
        <time>2020-11-01T11:54:25.022Z</time>
      </trkpt>
      <trkpt lat="46.36184" lon="6.02672">
        <ele>1205.4</ele>
        <time>2020-11-01T11:54:26.021Z</time>
      </trkpt>
      <trkpt lat="46.36187" lon="6.02673">
        <ele>1205.4</ele>
        <time>2020-11-01T11:54:27.021Z</time>
      </trkpt>
      <trkpt lat="46.36187" lon="6.02673">
        <ele>1205.4</ele>
        <time>2020-11-01T11:54:28.021Z</time>
      </trkpt>
      <trkpt lat="46.3619" lon="6.02674">
        <ele>1205.8</ele>
        <time>2020-11-01T11:54:29.021Z</time>
      </trkpt>
      <trkpt lat="46.36192" lon="6.02674">
        <ele>1206</ele>
        <time>2020-11-01T11:54:30.023Z</time>
      </trkpt>
      <trkpt lat="46.36192" lon="6.02674">
        <ele>1206</ele>
        <time>2020-11-01T11:54:31.021Z</time>
      </trkpt>
      <trkpt lat="46.36195" lon="6.02675">
        <ele>1206.2</ele>
        <time>2020-11-01T11:54:32.022Z</time>
      </trkpt>
      <trkpt lat="46.36198" lon="6.02675">
        <ele>1206.6</ele>
        <time>2020-11-01T11:54:33.021Z</time>
      </trkpt>
      <trkpt lat="46.36198" lon="6.02675">
        <ele>1206.6</ele>
        <time>2020-11-01T11:54:34.022Z</time>
      </trkpt>
      <trkpt lat="46.362" lon="6.02675">
        <ele>1206.8</ele>
        <time>2020-11-01T11:54:35.023Z</time>
      </trkpt>
      <trkpt lat="46.36203" lon="6.02675">
        <ele>1207</ele>
        <time>2020-11-01T11:54:36.022Z</time>
      </trkpt>
      <trkpt lat="46.36206" lon="6.02675">
        <ele>1207.2</ele>
        <time>2020-11-01T11:54:37.02Z</time>
      </trkpt>
      <trkpt lat="46.36206" lon="6.02675">
        <ele>1207.2</ele>
        <time>2020-11-01T11:54:38.021Z</time>
      </trkpt>
      <trkpt lat="46.36208" lon="6.02675">
        <ele>1207.4</ele>
        <time>2020-11-01T11:54:39.02Z</time>
      </trkpt>
      <trkpt lat="46.36211" lon="6.02675">
        <ele>1207.8</ele>
        <time>2020-11-01T11:54:40.021Z</time>
      </trkpt>
      <trkpt lat="46.36213" lon="6.02675">
        <ele>1208</ele>
        <time>2020-11-01T11:54:41.02Z</time>
      </trkpt>
      <trkpt lat="46.36216" lon="6.02675">
        <ele>1208.2</ele>
        <time>2020-11-01T11:54:42.021Z</time>
      </trkpt>
      <trkpt lat="46.36216" lon="6.02675">
        <ele>1208.2</ele>
        <time>2020-11-01T11:54:43.02Z</time>
      </trkpt>
      <trkpt lat="46.36219" lon="6.02676">
        <ele>1208.6</ele>
        <time>2020-11-01T11:54:44.021Z</time>
      </trkpt>
      <trkpt lat="46.36221" lon="6.02676">
        <ele>1208.8</ele>
        <time>2020-11-01T11:54:45.021Z</time>
      </trkpt>
      <trkpt lat="46.36224" lon="6.02676">
        <ele>1209</ele>
        <time>2020-11-01T11:54:46.022Z</time>
      </trkpt>
      <trkpt lat="46.36226" lon="6.02676">
        <ele>1209.2</ele>
        <time>2020-11-01T11:54:47.023Z</time>
      </trkpt>
      <trkpt lat="46.36229" lon="6.02675">
        <ele>1209.8</ele>
        <time>2020-11-01T11:54:48.021Z</time>
      </trkpt>
      <trkpt lat="46.36232" lon="6.02675">
        <ele>1210</ele>
        <time>2020-11-01T11:54:49.022Z</time>
      </trkpt>
      <trkpt lat="46.36232" lon="6.02675">
        <ele>1210</ele>
        <time>2020-11-01T11:54:50.02Z</time>
      </trkpt>
      <trkpt lat="46.36234" lon="6.02675">
        <ele>1210.2</ele>
        <time>2020-11-01T11:54:51.021Z</time>
      </trkpt>
      <trkpt lat="46.36237" lon="6.02674">
        <ele>1210.4</ele>
        <time>2020-11-01T11:54:52.023Z</time>
      </trkpt>
      <trkpt lat="46.36237" lon="6.02674">
        <ele>1210.4</ele>
        <time>2020-11-01T11:54:53.022Z</time>
      </trkpt>
      <trkpt lat="46.3624" lon="6.02674">
        <ele>1210.8</ele>
        <time>2020-11-01T11:54:54.021Z</time>
      </trkpt>
      <trkpt lat="46.36243" lon="6.02674">
        <ele>1211</ele>
        <time>2020-11-01T11:54:55.022Z</time>
      </trkpt>
      <trkpt lat="46.36246" lon="6.02673">
        <ele>1211.2</ele>
        <time>2020-11-01T11:54:56.023Z</time>
      </trkpt>
      <trkpt lat="46.36249" lon="6.02673">
        <ele>1211.4</ele>
        <time>2020-11-01T11:54:57.021Z</time>
      </trkpt>
      <trkpt lat="46.36249" lon="6.02673">
        <ele>1211.4</ele>
        <time>2020-11-01T11:54:58.021Z</time>
      </trkpt>
      <trkpt lat="46.36251" lon="6.02672">
        <ele>1211.6</ele>
        <time>2020-11-01T11:54:59.021Z</time>
      </trkpt>
      <trkpt lat="46.36254" lon="6.02672">
        <ele>1211.8</ele>
        <time>2020-11-01T11:55:00.021Z</time>
      </trkpt>
      <trkpt lat="46.36257" lon="6.02672">
        <ele>1212</ele>
        <time>2020-11-01T11:55:01.021Z</time>
      </trkpt>
      <trkpt lat="46.36257" lon="6.02672">
        <ele>1212</ele>
        <time>2020-11-01T11:55:02.021Z</time>
      </trkpt>
      <trkpt lat="46.36259" lon="6.02671">
        <ele>1212.2</ele>
        <time>2020-11-01T11:55:03.021Z</time>
      </trkpt>
      <trkpt lat="46.36262" lon="6.0267">
        <ele>1212.4</ele>
        <time>2020-11-01T11:55:04.024Z</time>
      </trkpt>
      <trkpt lat="46.36265" lon="6.02669">
        <ele>1212.4</ele>
        <time>2020-11-01T11:55:05.022Z</time>
      </trkpt>
      <trkpt lat="46.36265" lon="6.02669">
        <ele>1212.4</ele>
        <time>2020-11-01T11:55:06.021Z</time>
      </trkpt>
      <trkpt lat="46.36268" lon="6.02669">
        <ele>1212.6</ele>
        <time>2020-11-01T11:55:07.02Z</time>
      </trkpt>
      <trkpt lat="46.3627" lon="6.02668">
        <ele>1212.6</ele>
        <time>2020-11-01T11:55:08.023Z</time>
      </trkpt>
      <trkpt lat="46.36273" lon="6.02667">
        <ele>1212.8</ele>
        <time>2020-11-01T11:55:09.023Z</time>
      </trkpt>
      <trkpt lat="46.36273" lon="6.02667">
        <ele>1212.8</ele>
        <time>2020-11-01T11:55:10.021Z</time>
      </trkpt>
      <trkpt lat="46.36276" lon="6.02665">
        <ele>1213</ele>
        <time>2020-11-01T11:55:11.02Z</time>
      </trkpt>
      <trkpt lat="46.36278" lon="6.02664">
        <ele>1213.2</ele>
        <time>2020-11-01T11:55:12.02Z</time>
      </trkpt>
      <trkpt lat="46.36278" lon="6.02664">
        <ele>1213.2</ele>
        <time>2020-11-01T11:55:13.021Z</time>
      </trkpt>
      <trkpt lat="46.36281" lon="6.02662">
        <ele>1213.6</ele>
        <time>2020-11-01T11:55:14.021Z</time>
      </trkpt>
      <trkpt lat="46.36284" lon="6.02661">
        <ele>1213.8</ele>
        <time>2020-11-01T11:55:15.021Z</time>
      </trkpt>
      <trkpt lat="46.36284" lon="6.02661">
        <ele>1213.8</ele>
        <time>2020-11-01T11:55:16.02Z</time>
      </trkpt>
      <trkpt lat="46.36287" lon="6.02659">
        <ele>1214</ele>
        <time>2020-11-01T11:55:17.021Z</time>
      </trkpt>
      <trkpt lat="46.36289" lon="6.02657">
        <ele>1214.4</ele>
        <time>2020-11-01T11:55:18.022Z</time>
      </trkpt>
      <trkpt lat="46.36291" lon="6.02655">
        <ele>1214.4</ele>
        <time>2020-11-01T11:55:19.021Z</time>
      </trkpt>
      <trkpt lat="46.36291" lon="6.02655">
        <ele>1214.4</ele>
        <time>2020-11-01T11:55:20.021Z</time>
      </trkpt>
      <trkpt lat="46.36294" lon="6.02653">
        <ele>1214.8</ele>
        <time>2020-11-01T11:55:21.021Z</time>
      </trkpt>
      <trkpt lat="46.36294" lon="6.02653">
        <ele>1214.8</ele>
        <time>2020-11-01T11:55:22.021Z</time>
      </trkpt>
      <trkpt lat="46.36296" lon="6.02651">
        <ele>1215</ele>
        <time>2020-11-01T11:55:23.021Z</time>
      </trkpt>
      <trkpt lat="46.36299" lon="6.02648">
        <ele>1215.4</ele>
        <time>2020-11-01T11:55:24.02Z</time>
      </trkpt>
      <trkpt lat="46.36302" lon="6.02646">
        <ele>1215.4</ele>
        <time>2020-11-01T11:55:25.021Z</time>
      </trkpt>
      <trkpt lat="46.36302" lon="6.02646">
        <ele>1215.4</ele>
        <time>2020-11-01T11:55:26.022Z</time>
      </trkpt>
      <trkpt lat="46.36304" lon="6.02644">
        <ele>1215.8</ele>
        <time>2020-11-01T11:55:27.021Z</time>
      </trkpt>
      <trkpt lat="46.36307" lon="6.02642">
        <ele>1216</ele>
        <time>2020-11-01T11:55:28.02Z</time>
      </trkpt>
      <trkpt lat="46.36307" lon="6.02642">
        <ele>1216</ele>
        <time>2020-11-01T11:55:29.02Z</time>
      </trkpt>
      <trkpt lat="46.36309" lon="6.02639">
        <ele>1216.6</ele>
        <time>2020-11-01T11:55:30.023Z</time>
      </trkpt>
      <trkpt lat="46.36311" lon="6.02636">
        <ele>1217</ele>
        <time>2020-11-01T11:55:31.021Z</time>
      </trkpt>
      <trkpt lat="46.36311" lon="6.02636">
        <ele>1217</ele>
        <time>2020-11-01T11:55:32.021Z</time>
      </trkpt>
      <trkpt lat="46.36314" lon="6.02634">
        <ele>1217.2</ele>
        <time>2020-11-01T11:55:33.02Z</time>
      </trkpt>
      <trkpt lat="46.36316" lon="6.02631">
        <ele>1217.4</ele>
        <time>2020-11-01T11:55:34.021Z</time>
      </trkpt>
      <trkpt lat="46.36316" lon="6.02631">
        <ele>1217.4</ele>
        <time>2020-11-01T11:55:35.023Z</time>
      </trkpt>
      <trkpt lat="46.36319" lon="6.02629">
        <ele>1217.8</ele>
        <time>2020-11-01T11:55:36.021Z</time>
      </trkpt>
      <trkpt lat="46.36321" lon="6.02626">
        <ele>1218</ele>
        <time>2020-11-01T11:55:37.02Z</time>
      </trkpt>
      <trkpt lat="46.36321" lon="6.02626">
        <ele>1218</ele>
        <time>2020-11-01T11:55:38.021Z</time>
      </trkpt>
      <trkpt lat="46.36323" lon="6.02623">
        <ele>1218.2</ele>
        <time>2020-11-01T11:55:39.022Z</time>
      </trkpt>
      <trkpt lat="46.36326" lon="6.0262">
        <ele>1218.6</ele>
        <time>2020-11-01T11:55:40.022Z</time>
      </trkpt>
      <trkpt lat="46.36328" lon="6.02617">
        <ele>1218.8</ele>
        <time>2020-11-01T11:55:41.021Z</time>
      </trkpt>
      <trkpt lat="46.36328" lon="6.02617">
        <ele>1218.8</ele>
        <time>2020-11-01T11:55:42.023Z</time>
      </trkpt>
      <trkpt lat="46.3633" lon="6.02613">
        <ele>1219</ele>
        <time>2020-11-01T11:55:43.023Z</time>
      </trkpt>
      <trkpt lat="46.36332" lon="6.0261">
        <ele>1219.2</ele>
        <time>2020-11-01T11:55:44.022Z</time>
      </trkpt>
      <trkpt lat="46.36332" lon="6.0261">
        <ele>1219.2</ele>
        <time>2020-11-01T11:55:45.02Z</time>
      </trkpt>
      <trkpt lat="46.36334" lon="6.02607">
        <ele>1219.4</ele>
        <time>2020-11-01T11:55:46.02Z</time>
      </trkpt>
      <trkpt lat="46.36336" lon="6.02604">
        <ele>1219.6</ele>
        <time>2020-11-01T11:55:47.023Z</time>
      </trkpt>
      <trkpt lat="46.36336" lon="6.02604">
        <ele>1219.6</ele>
        <time>2020-11-01T11:55:48.021Z</time>
      </trkpt>
      <trkpt lat="46.36338" lon="6.026">
        <ele>1220</ele>
        <time>2020-11-01T11:55:49.021Z</time>
      </trkpt>
      <trkpt lat="46.3634" lon="6.02597">
        <ele>1220.2</ele>
        <time>2020-11-01T11:55:50.022Z</time>
      </trkpt>
      <trkpt lat="46.3634" lon="6.02597">
        <ele>1220.2</ele>
        <time>2020-11-01T11:55:51.021Z</time>
      </trkpt>
      <trkpt lat="46.36342" lon="6.02594">
        <ele>1220.4</ele>
        <time>2020-11-01T11:55:52.022Z</time>
      </trkpt>
      <trkpt lat="46.36344" lon="6.02591">
        <ele>1220.6</ele>
        <time>2020-11-01T11:55:53.022Z</time>
      </trkpt>
      <trkpt lat="46.36346" lon="6.02587">
        <ele>1220.8</ele>
        <time>2020-11-01T11:55:54.02Z</time>
      </trkpt>
      <trkpt lat="46.36346" lon="6.02587">
        <ele>1220.8</ele>
        <time>2020-11-01T11:55:55.024Z</time>
      </trkpt>
      <trkpt lat="46.36348" lon="6.02585">
        <ele>1221</ele>
        <time>2020-11-01T11:55:56.023Z</time>
      </trkpt>
      <trkpt lat="46.3635" lon="6.02582">
        <ele>1221.2</ele>
        <time>2020-11-01T11:55:57.023Z</time>
      </trkpt>
      <trkpt lat="46.3635" lon="6.02582">
        <ele>1221.2</ele>
        <time>2020-11-01T11:55:58.02Z</time>
      </trkpt>
      <trkpt lat="46.36352" lon="6.02579">
        <ele>1221.6</ele>
        <time>2020-11-01T11:55:59.022Z</time>
      </trkpt>
      <trkpt lat="46.36352" lon="6.02579">
        <ele>1221.6</ele>
        <time>2020-11-01T11:56:00.023Z</time>
      </trkpt>
      <trkpt lat="46.36355" lon="6.02575">
        <ele>1221.8</ele>
        <time>2020-11-01T11:56:01.022Z</time>
      </trkpt>
      <trkpt lat="46.36356" lon="6.02572">
        <ele>1222.2</ele>
        <time>2020-11-01T11:56:02.021Z</time>
      </trkpt>
      <trkpt lat="46.36356" lon="6.02572">
        <ele>1222.2</ele>
        <time>2020-11-01T11:56:03.021Z</time>
      </trkpt>
      <trkpt lat="46.36359" lon="6.02569">
        <ele>1222.4</ele>
        <time>2020-11-01T11:56:04.022Z</time>
      </trkpt>
      <trkpt lat="46.36359" lon="6.02569">
        <ele>1222.4</ele>
        <time>2020-11-01T11:56:05.02Z</time>
      </trkpt>
      <trkpt lat="46.3636" lon="6.02566">
        <ele>1222.8</ele>
        <time>2020-11-01T11:56:06.021Z</time>
      </trkpt>
      <trkpt lat="46.3636" lon="6.02566">
        <ele>1222.8</ele>
        <time>2020-11-01T11:56:07.021Z</time>
      </trkpt>
      <trkpt lat="46.36362" lon="6.02563">
        <ele>1223</ele>
        <time>2020-11-01T11:56:08.023Z</time>
      </trkpt>
      <trkpt lat="46.36365" lon="6.0256">
        <ele>1223.4</ele>
        <time>2020-11-01T11:56:09.023Z</time>
      </trkpt>
      <trkpt lat="46.36365" lon="6.0256">
        <ele>1223.4</ele>
        <time>2020-11-01T11:56:10.022Z</time>
      </trkpt>
      <trkpt lat="46.36366" lon="6.02557">
        <ele>1223.6</ele>
        <time>2020-11-01T11:56:11.02Z</time>
      </trkpt>
      <trkpt lat="46.36368" lon="6.02554">
        <ele>1224</ele>
        <time>2020-11-01T11:56:12.021Z</time>
      </trkpt>
      <trkpt lat="46.36368" lon="6.02554">
        <ele>1224</ele>
        <time>2020-11-01T11:56:13.022Z</time>
      </trkpt>
      <trkpt lat="46.3637" lon="6.0255">
        <ele>1224.2</ele>
        <time>2020-11-01T11:56:14.022Z</time>
      </trkpt>
      <trkpt lat="46.3637" lon="6.0255">
        <ele>1224.2</ele>
        <time>2020-11-01T11:56:15.02Z</time>
      </trkpt>
      <trkpt lat="46.36371" lon="6.02547">
        <ele>1224.6</ele>
        <time>2020-11-01T11:56:16.022Z</time>
      </trkpt>
      <trkpt lat="46.36372" lon="6.02543">
        <ele>1224.8</ele>
        <time>2020-11-01T11:56:17.021Z</time>
      </trkpt>
      <trkpt lat="46.36372" lon="6.02543">
        <ele>1224.8</ele>
        <time>2020-11-01T11:56:18.021Z</time>
      </trkpt>
      <trkpt lat="46.36373" lon="6.0254">
        <ele>1225.2</ele>
        <time>2020-11-01T11:56:19.02Z</time>
      </trkpt>
      <trkpt lat="46.36374" lon="6.02536">
        <ele>1225.4</ele>
        <time>2020-11-01T11:56:20.021Z</time>
      </trkpt>
      <trkpt lat="46.36374" lon="6.02536">
        <ele>1225.4</ele>
        <time>2020-11-01T11:56:21.022Z</time>
      </trkpt>
      <trkpt lat="46.36374" lon="6.02532">
        <ele>1225.6</ele>
        <time>2020-11-01T11:56:22.021Z</time>
      </trkpt>
      <trkpt lat="46.36374" lon="6.02532">
        <ele>1225.6</ele>
        <time>2020-11-01T11:56:23.021Z</time>
      </trkpt>
      <trkpt lat="46.36375" lon="6.02528">
        <ele>1226</ele>
        <time>2020-11-01T11:56:24.021Z</time>
      </trkpt>
      <trkpt lat="46.36375" lon="6.02524">
        <ele>1226.2</ele>
        <time>2020-11-01T11:56:25.02Z</time>
      </trkpt>
      <trkpt lat="46.36375" lon="6.02524">
        <ele>1226.2</ele>
        <time>2020-11-01T11:56:26.022Z</time>
      </trkpt>
      <trkpt lat="46.36375" lon="6.0252">
        <ele>1226.4</ele>
        <time>2020-11-01T11:56:27.022Z</time>
      </trkpt>
      <trkpt lat="46.36374" lon="6.02516">
        <ele>1226.8</ele>
        <time>2020-11-01T11:56:28.02Z</time>
      </trkpt>
      <trkpt lat="46.36374" lon="6.02516">
        <ele>1226.8</ele>
        <time>2020-11-01T11:56:29.022Z</time>
      </trkpt>
      <trkpt lat="46.36374" lon="6.02512">
        <ele>1227</ele>
        <time>2020-11-01T11:56:30.021Z</time>
      </trkpt>
      <trkpt lat="46.36374" lon="6.02512">
        <ele>1227</ele>
        <time>2020-11-01T11:56:31.022Z</time>
      </trkpt>
      <trkpt lat="46.36374" lon="6.02507">
        <ele>1227.2</ele>
        <time>2020-11-01T11:56:32.02Z</time>
      </trkpt>
      <trkpt lat="46.36373" lon="6.02503">
        <ele>1227.6</ele>
        <time>2020-11-01T11:56:33.02Z</time>
      </trkpt>
      <trkpt lat="46.36373" lon="6.02503">
        <ele>1227.6</ele>
        <time>2020-11-01T11:56:34.021Z</time>
      </trkpt>
      <trkpt lat="46.36372" lon="6.02499">
        <ele>1227.8</ele>
        <time>2020-11-01T11:56:35.021Z</time>
      </trkpt>
      <trkpt lat="46.36372" lon="6.02499">
        <ele>1227.8</ele>
        <time>2020-11-01T11:56:36.021Z</time>
      </trkpt>
      <trkpt lat="46.36371" lon="6.02495">
        <ele>1228</ele>
        <time>2020-11-01T11:56:37.021Z</time>
      </trkpt>
      <trkpt lat="46.3637" lon="6.02491">
        <ele>1228.4</ele>
        <time>2020-11-01T11:56:38.023Z</time>
      </trkpt>
      <trkpt lat="46.3637" lon="6.02491">
        <ele>1228.4</ele>
        <time>2020-11-01T11:56:39.023Z</time>
      </trkpt>
      <trkpt lat="46.36369" lon="6.02486">
        <ele>1228.4</ele>
        <time>2020-11-01T11:56:40.021Z</time>
      </trkpt>
      <trkpt lat="46.36369" lon="6.02486">
        <ele>1228.4</ele>
        <time>2020-11-01T11:56:41.02Z</time>
      </trkpt>
      <trkpt lat="46.36368" lon="6.02482">
        <ele>1228.8</ele>
        <time>2020-11-01T11:56:42.022Z</time>
      </trkpt>
      <trkpt lat="46.36368" lon="6.02482">
        <ele>1228.8</ele>
        <time>2020-11-01T11:56:43.023Z</time>
      </trkpt>
      <trkpt lat="46.36366" lon="6.02478">
        <ele>1229</ele>
        <time>2020-11-01T11:56:44.021Z</time>
      </trkpt>
      <trkpt lat="46.36366" lon="6.02478">
        <ele>1229</ele>
        <time>2020-11-01T11:56:45.02Z</time>
      </trkpt>
      <trkpt lat="46.36365" lon="6.02474">
        <ele>1229.2</ele>
        <time>2020-11-01T11:56:46.022Z</time>
      </trkpt>
      <trkpt lat="46.36364" lon="6.02471">
        <ele>1229.6</ele>
        <time>2020-11-01T11:56:47.021Z</time>
      </trkpt>
      <trkpt lat="46.36364" lon="6.02471">
        <ele>1229.6</ele>
        <time>2020-11-01T11:56:48.022Z</time>
      </trkpt>
      <trkpt lat="46.36363" lon="6.02467">
        <ele>1229.8</ele>
        <time>2020-11-01T11:56:49.021Z</time>
      </trkpt>
      <trkpt lat="46.36363" lon="6.02467">
        <ele>1229.8</ele>
        <time>2020-11-01T11:56:50.021Z</time>
      </trkpt>
      <trkpt lat="46.36361" lon="6.02463">
        <ele>1230</ele>
        <time>2020-11-01T11:56:51.023Z</time>
      </trkpt>
      <trkpt lat="46.36359" lon="6.02459">
        <ele>1230.2</ele>
        <time>2020-11-01T11:56:52.021Z</time>
      </trkpt>
      <trkpt lat="46.36359" lon="6.02459">
        <ele>1230.2</ele>
        <time>2020-11-01T11:56:53.021Z</time>
      </trkpt>
      <trkpt lat="46.36358" lon="6.02455">
        <ele>1230.4</ele>
        <time>2020-11-01T11:56:54.021Z</time>
      </trkpt>
      <trkpt lat="46.36358" lon="6.02455">
        <ele>1230.4</ele>
        <time>2020-11-01T11:56:55.022Z</time>
      </trkpt>
      <trkpt lat="46.36357" lon="6.02451">
        <ele>1230.4</ele>
        <time>2020-11-01T11:56:56.021Z</time>
      </trkpt>
      <trkpt lat="46.36355" lon="6.02448">
        <ele>1230.6</ele>
        <time>2020-11-01T11:56:57.021Z</time>
      </trkpt>
      <trkpt lat="46.36355" lon="6.02448">
        <ele>1230.6</ele>
        <time>2020-11-01T11:56:58.021Z</time>
      </trkpt>
      <trkpt lat="46.36354" lon="6.02444">
        <ele>1230.8</ele>
        <time>2020-11-01T11:56:59.022Z</time>
      </trkpt>
      <trkpt lat="46.36354" lon="6.02444">
        <ele>1230.8</ele>
        <time>2020-11-01T11:57:00.022Z</time>
      </trkpt>
      <trkpt lat="46.36352" lon="6.0244">
        <ele>1231.2</ele>
        <time>2020-11-01T11:57:01.02Z</time>
      </trkpt>
      <trkpt lat="46.36352" lon="6.02436">
        <ele>1231.4</ele>
        <time>2020-11-01T11:57:02.02Z</time>
      </trkpt>
      <trkpt lat="46.36352" lon="6.02436">
        <ele>1231.4</ele>
        <time>2020-11-01T11:57:03.022Z</time>
      </trkpt>
      <trkpt lat="46.36351" lon="6.02432">
        <ele>1231.6</ele>
        <time>2020-11-01T11:57:04.023Z</time>
      </trkpt>
      <trkpt lat="46.36351" lon="6.02432">
        <ele>1231.6</ele>
        <time>2020-11-01T11:57:05.021Z</time>
      </trkpt>
      <trkpt lat="46.3635" lon="6.02428">
        <ele>1231.8</ele>
        <time>2020-11-01T11:57:06.021Z</time>
      </trkpt>
      <trkpt lat="46.3635" lon="6.02428">
        <ele>1231.8</ele>
        <time>2020-11-01T11:57:07.021Z</time>
      </trkpt>
      <trkpt lat="46.36349" lon="6.02423">
        <ele>1232.2</ele>
        <time>2020-11-01T11:57:08.022Z</time>
      </trkpt>
      <trkpt lat="46.36349" lon="6.02423">
        <ele>1232.2</ele>
        <time>2020-11-01T11:57:09.021Z</time>
      </trkpt>
      <trkpt lat="46.36349" lon="6.02419">
        <ele>1232.4</ele>
        <time>2020-11-01T11:57:10.021Z</time>
      </trkpt>
      <trkpt lat="46.36349" lon="6.02419">
        <ele>1232.4</ele>
        <time>2020-11-01T11:57:11.021Z</time>
      </trkpt>
      <trkpt lat="46.36348" lon="6.02415">
        <ele>1232.8</ele>
        <time>2020-11-01T11:57:12.023Z</time>
      </trkpt>
      <trkpt lat="46.36347" lon="6.0241">
        <ele>1233</ele>
        <time>2020-11-01T11:57:13.023Z</time>
      </trkpt>
      <trkpt lat="46.36347" lon="6.0241">
        <ele>1233</ele>
        <time>2020-11-01T11:57:14.02Z</time>
      </trkpt>
      <trkpt lat="46.36347" lon="6.02406">
        <ele>1233.2</ele>
        <time>2020-11-01T11:57:15.021Z</time>
      </trkpt>
      <trkpt lat="46.36347" lon="6.02406">
        <ele>1233.2</ele>
        <time>2020-11-01T11:57:16.022Z</time>
      </trkpt>
      <trkpt lat="46.36347" lon="6.02402">
        <ele>1233.4</ele>
        <time>2020-11-01T11:57:17.021Z</time>
      </trkpt>
      <trkpt lat="46.36347" lon="6.02397">
        <ele>1233.8</ele>
        <time>2020-11-01T11:57:18.022Z</time>
      </trkpt>
      <trkpt lat="46.36347" lon="6.02397">
        <ele>1233.8</ele>
        <time>2020-11-01T11:57:19.02Z</time>
      </trkpt>
      <trkpt lat="46.36346" lon="6.02393">
        <ele>1233.8</ele>
        <time>2020-11-01T11:57:20.021Z</time>
      </trkpt>
      <trkpt lat="46.36346" lon="6.02393">
        <ele>1233.8</ele>
        <time>2020-11-01T11:57:21.022Z</time>
      </trkpt>
      <trkpt lat="46.36347" lon="6.02389">
        <ele>1234</ele>
        <time>2020-11-01T11:57:22.021Z</time>
      </trkpt>
      <trkpt lat="46.36347" lon="6.02389">
        <ele>1234</ele>
        <time>2020-11-01T11:57:23.02Z</time>
      </trkpt>
      <trkpt lat="46.36346" lon="6.02384">
        <ele>1234.2</ele>
        <time>2020-11-01T11:57:24.02Z</time>
      </trkpt>
      <trkpt lat="46.36346" lon="6.02384">
        <ele>1234.2</ele>
        <time>2020-11-01T11:57:25.023Z</time>
      </trkpt>
      <trkpt lat="46.36346" lon="6.0238">
        <ele>1234.4</ele>
        <time>2020-11-01T11:57:26.021Z</time>
      </trkpt>
      <trkpt lat="46.36347" lon="6.02375">
        <ele>1234.6</ele>
        <time>2020-11-01T11:57:27.02Z</time>
      </trkpt>
      <trkpt lat="46.36347" lon="6.02375">
        <ele>1234.6</ele>
        <time>2020-11-01T11:57:28.021Z</time>
      </trkpt>
      <trkpt lat="46.36347" lon="6.02371">
        <ele>1234.8</ele>
        <time>2020-11-01T11:57:29.021Z</time>
      </trkpt>
      <trkpt lat="46.36347" lon="6.02371">
        <ele>1234.8</ele>
        <time>2020-11-01T11:57:30.02Z</time>
      </trkpt>
      <trkpt lat="46.36347" lon="6.02367">
        <ele>1235.2</ele>
        <time>2020-11-01T11:57:31.021Z</time>
      </trkpt>
      <trkpt lat="46.36347" lon="6.02363">
        <ele>1235.4</ele>
        <time>2020-11-01T11:57:32.021Z</time>
      </trkpt>
      <trkpt lat="46.36347" lon="6.02363">
        <ele>1235.4</ele>
        <time>2020-11-01T11:57:33.023Z</time>
      </trkpt>
      <trkpt lat="46.36348" lon="6.02359">
        <ele>1235.6</ele>
        <time>2020-11-01T11:57:34.023Z</time>
      </trkpt>
      <trkpt lat="46.36348" lon="6.02354">
        <ele>1236</ele>
        <time>2020-11-01T11:57:35.022Z</time>
      </trkpt>
      <trkpt lat="46.36348" lon="6.02354">
        <ele>1236</ele>
        <time>2020-11-01T11:57:36.021Z</time>
      </trkpt>
      <trkpt lat="46.36348" lon="6.0235">
        <ele>1236.2</ele>
        <time>2020-11-01T11:57:37.02Z</time>
      </trkpt>
      <trkpt lat="46.36349" lon="6.02346">
        <ele>1236.4</ele>
        <time>2020-11-01T11:57:38.021Z</time>
      </trkpt>
      <trkpt lat="46.36349" lon="6.02346">
        <ele>1236.4</ele>
        <time>2020-11-01T11:57:39.02Z</time>
      </trkpt>
      <trkpt lat="46.3635" lon="6.02342">
        <ele>1236.8</ele>
        <time>2020-11-01T11:57:40.02Z</time>
      </trkpt>
      <trkpt lat="46.3635" lon="6.02342">
        <ele>1236.8</ele>
        <time>2020-11-01T11:57:41.02Z</time>
      </trkpt>
      <trkpt lat="46.36351" lon="6.02338">
        <ele>1237</ele>
        <time>2020-11-01T11:57:42.022Z</time>
      </trkpt>
      <trkpt lat="46.36353" lon="6.02334">
        <ele>1237.2</ele>
        <time>2020-11-01T11:57:43.021Z</time>
      </trkpt>
      <trkpt lat="46.36353" lon="6.02334">
        <ele>1237.2</ele>
        <time>2020-11-01T11:57:44.02Z</time>
      </trkpt>
      <trkpt lat="46.36355" lon="6.02331">
        <ele>1237.6</ele>
        <time>2020-11-01T11:57:45.02Z</time>
      </trkpt>
      <trkpt lat="46.36357" lon="6.02328">
        <ele>1237.8</ele>
        <time>2020-11-01T11:57:46.022Z</time>
      </trkpt>
      <trkpt lat="46.36357" lon="6.02328">
        <ele>1237.8</ele>
        <time>2020-11-01T11:57:47.023Z</time>
      </trkpt>
      <trkpt lat="46.36359" lon="6.02325">
        <ele>1238.2</ele>
        <time>2020-11-01T11:57:48.022Z</time>
      </trkpt>
      <trkpt lat="46.36359" lon="6.02325">
        <ele>1238.2</ele>
        <time>2020-11-01T11:57:49.021Z</time>
      </trkpt>
      <trkpt lat="46.36361" lon="6.02323">
        <ele>1238.4</ele>
        <time>2020-11-01T11:57:50.022Z</time>
      </trkpt>
      <trkpt lat="46.36364" lon="6.02322">
        <ele>1238.6</ele>
        <time>2020-11-01T11:57:51.023Z</time>
      </trkpt>
      <trkpt lat="46.36364" lon="6.02322">
        <ele>1238.6</ele>
        <time>2020-11-01T11:57:52.02Z</time>
      </trkpt>
      <trkpt lat="46.36367" lon="6.02321">
        <ele>1239</ele>
        <time>2020-11-01T11:57:53.021Z</time>
      </trkpt>
      <trkpt lat="46.36369" lon="6.02321">
        <ele>1239</ele>
        <time>2020-11-01T11:57:54.021Z</time>
      </trkpt>
      <trkpt lat="46.36369" lon="6.02321">
        <ele>1239</ele>
        <time>2020-11-01T11:57:55.023Z</time>
      </trkpt>
      <trkpt lat="46.36372" lon="6.02322">
        <ele>1239.4</ele>
        <time>2020-11-01T11:57:56.021Z</time>
      </trkpt>
      <trkpt lat="46.36372" lon="6.02322">
        <ele>1239.4</ele>
        <time>2020-11-01T11:57:57.02Z</time>
      </trkpt>
      <trkpt lat="46.36375" lon="6.02323">
        <ele>1239.6</ele>
        <time>2020-11-01T11:57:58.02Z</time>
      </trkpt>
      <trkpt lat="46.36378" lon="6.02325">
        <ele>1239.8</ele>
        <time>2020-11-01T11:57:59.023Z</time>
      </trkpt>
      <trkpt lat="46.36378" lon="6.02325">
        <ele>1239.8</ele>
        <time>2020-11-01T11:58:00.02Z</time>
      </trkpt>
      <trkpt lat="46.3638" lon="6.02328">
        <ele>1239.8</ele>
        <time>2020-11-01T11:58:01.021Z</time>
      </trkpt>
      <trkpt lat="46.3638" lon="6.02328">
        <ele>1239.8</ele>
        <time>2020-11-01T11:58:02.02Z</time>
      </trkpt>
      <trkpt lat="46.36383" lon="6.0233">
        <ele>1240</ele>
        <time>2020-11-01T11:58:03.022Z</time>
      </trkpt>
      <trkpt lat="46.36385" lon="6.02333">
        <ele>1240.4</ele>
        <time>2020-11-01T11:58:04.022Z</time>
      </trkpt>
      <trkpt lat="46.36385" lon="6.02333">
        <ele>1240.4</ele>
        <time>2020-11-01T11:58:05.021Z</time>
      </trkpt>
      <trkpt lat="46.36387" lon="6.02336">
        <ele>1240.6</ele>
        <time>2020-11-01T11:58:06.02Z</time>
      </trkpt>
      <trkpt lat="46.36389" lon="6.0234">
        <ele>1241</ele>
        <time>2020-11-01T11:58:07.023Z</time>
      </trkpt>
      <trkpt lat="46.36389" lon="6.0234">
        <ele>1241</ele>
        <time>2020-11-01T11:58:08.023Z</time>
      </trkpt>
      <trkpt lat="46.36391" lon="6.02344">
        <ele>1241.2</ele>
        <time>2020-11-01T11:58:09.022Z</time>
      </trkpt>
      <trkpt lat="46.36391" lon="6.02344">
        <ele>1241.2</ele>
        <time>2020-11-01T11:58:10.02Z</time>
      </trkpt>
      <trkpt lat="46.36392" lon="6.02347">
        <ele>1241.6</ele>
        <time>2020-11-01T11:58:11.021Z</time>
      </trkpt>
      <trkpt lat="46.36393" lon="6.02351">
        <ele>1241.6</ele>
        <time>2020-11-01T11:58:12.021Z</time>
      </trkpt>
      <trkpt lat="46.36393" lon="6.02351">
        <ele>1241.6</ele>
        <time>2020-11-01T11:58:13.02Z</time>
      </trkpt>
      <trkpt lat="46.36395" lon="6.02355">
        <ele>1241.8</ele>
        <time>2020-11-01T11:58:14.021Z</time>
      </trkpt>
      <trkpt lat="46.36396" lon="6.02359">
        <ele>1242</ele>
        <time>2020-11-01T11:58:15.02Z</time>
      </trkpt>
      <trkpt lat="46.36397" lon="6.02362">
        <ele>1242</ele>
        <time>2020-11-01T11:58:16.023Z</time>
      </trkpt>
      <trkpt lat="46.36398" lon="6.02366">
        <ele>1242.2</ele>
        <time>2020-11-01T11:58:17.022Z</time>
      </trkpt>
      <trkpt lat="46.36398" lon="6.02366">
        <ele>1242.2</ele>
        <time>2020-11-01T11:58:18.022Z</time>
      </trkpt>
      <trkpt lat="46.364" lon="6.0237">
        <ele>1242.2</ele>
        <time>2020-11-01T11:58:19.02Z</time>
      </trkpt>
      <trkpt lat="46.36401" lon="6.02374">
        <ele>1242.2</ele>
        <time>2020-11-01T11:58:20.022Z</time>
      </trkpt>
      <trkpt lat="46.36401" lon="6.02374">
        <ele>1242.2</ele>
        <time>2020-11-01T11:58:21.021Z</time>
      </trkpt>
      <trkpt lat="46.36402" lon="6.02378">
        <ele>1242.4</ele>
        <time>2020-11-01T11:58:22.021Z</time>
      </trkpt>
      <trkpt lat="46.36403" lon="6.02382">
        <ele>1242.4</ele>
        <time>2020-11-01T11:58:23.02Z</time>
      </trkpt>
      <trkpt lat="46.36403" lon="6.02382">
        <ele>1242.4</ele>
        <time>2020-11-01T11:58:24.021Z</time>
      </trkpt>
      <trkpt lat="46.36405" lon="6.02386">
        <ele>1242.6</ele>
        <time>2020-11-01T11:58:25.022Z</time>
      </trkpt>
      <trkpt lat="46.36406" lon="6.02389">
        <ele>1242.6</ele>
        <time>2020-11-01T11:58:26.021Z</time>
      </trkpt>
      <trkpt lat="46.36406" lon="6.02389">
        <ele>1242.6</ele>
        <time>2020-11-01T11:58:27.02Z</time>
      </trkpt>
      <trkpt lat="46.36407" lon="6.02394">
        <ele>1243</ele>
        <time>2020-11-01T11:58:28.02Z</time>
      </trkpt>
      <trkpt lat="46.36408" lon="6.02398">
        <ele>1243.2</ele>
        <time>2020-11-01T11:58:29.021Z</time>
      </trkpt>
      <trkpt lat="46.36409" lon="6.02402">
        <ele>1243.4</ele>
        <time>2020-11-01T11:58:30.021Z</time>
      </trkpt>
      <trkpt lat="46.36409" lon="6.02402">
        <ele>1243.4</ele>
        <time>2020-11-01T11:58:31.021Z</time>
      </trkpt>
      <trkpt lat="46.36411" lon="6.02406">
        <ele>1243.6</ele>
        <time>2020-11-01T11:58:32.024Z</time>
      </trkpt>
      <trkpt lat="46.36412" lon="6.02409">
        <ele>1244</ele>
        <time>2020-11-01T11:58:33.023Z</time>
      </trkpt>
      <trkpt lat="46.36412" lon="6.02409">
        <ele>1244</ele>
        <time>2020-11-01T11:58:34.021Z</time>
      </trkpt>
      <trkpt lat="46.36414" lon="6.02413">
        <ele>1244.2</ele>
        <time>2020-11-01T11:58:35.021Z</time>
      </trkpt>
      <trkpt lat="46.36415" lon="6.02417">
        <ele>1244.4</ele>
        <time>2020-11-01T11:58:36.02Z</time>
      </trkpt>
      <trkpt lat="46.36415" lon="6.02417">
        <ele>1244.4</ele>
        <time>2020-11-01T11:58:37.021Z</time>
      </trkpt>
      <trkpt lat="46.36416" lon="6.02421">
        <ele>1245</ele>
        <time>2020-11-01T11:58:38.021Z</time>
      </trkpt>
      <trkpt lat="46.36416" lon="6.02421">
        <ele>1245</ele>
        <time>2020-11-01T11:58:39.021Z</time>
      </trkpt>
      <trkpt lat="46.36416" lon="6.02421">
        <ele>1245</ele>
        <time>2020-11-01T11:58:40.021Z</time>
      </trkpt>
      <trkpt lat="46.36419" lon="6.02429">
        <ele>1245.2</ele>
        <time>2020-11-01T11:58:41.021Z</time>
      </trkpt>
      <trkpt lat="46.36419" lon="6.02429">
        <ele>1245.2</ele>
        <time>2020-11-01T11:58:42.021Z</time>
      </trkpt>
      <trkpt lat="46.3642" lon="6.02433">
        <ele>1245.6</ele>
        <time>2020-11-01T11:58:43.021Z</time>
      </trkpt>
      <trkpt lat="46.3642" lon="6.02433">
        <ele>1245.6</ele>
        <time>2020-11-01T11:58:44.021Z</time>
      </trkpt>
      <trkpt lat="46.36421" lon="6.02437">
        <ele>1245.8</ele>
        <time>2020-11-01T11:58:45.02Z</time>
      </trkpt>
      <trkpt lat="46.36423" lon="6.02441">
        <ele>1246</ele>
        <time>2020-11-01T11:58:46.022Z</time>
      </trkpt>
      <trkpt lat="46.36423" lon="6.02441">
        <ele>1246</ele>
        <time>2020-11-01T11:58:47.021Z</time>
      </trkpt>
      <trkpt lat="46.36424" lon="6.02445">
        <ele>1246.4</ele>
        <time>2020-11-01T11:58:48.021Z</time>
      </trkpt>
      <trkpt lat="46.36424" lon="6.02445">
        <ele>1246.4</ele>
        <time>2020-11-01T11:58:49.021Z</time>
      </trkpt>
      <trkpt lat="46.36426" lon="6.02448">
        <ele>1246.6</ele>
        <time>2020-11-01T11:58:50.02Z</time>
      </trkpt>
      <trkpt lat="46.36426" lon="6.02448">
        <ele>1246.6</ele>
        <time>2020-11-01T11:58:51.021Z</time>
      </trkpt>
      <trkpt lat="46.36427" lon="6.02452">
        <ele>1246.8</ele>
        <time>2020-11-01T11:58:52.021Z</time>
      </trkpt>
      <trkpt lat="46.36429" lon="6.02456">
        <ele>1247</ele>
        <time>2020-11-01T11:58:53.02Z</time>
      </trkpt>
      <trkpt lat="46.36429" lon="6.02456">
        <ele>1247</ele>
        <time>2020-11-01T11:58:54.023Z</time>
      </trkpt>
      <trkpt lat="46.3643" lon="6.02459">
        <ele>1247.4</ele>
        <time>2020-11-01T11:58:55.021Z</time>
      </trkpt>
      <trkpt lat="46.3643" lon="6.02459">
        <ele>1247.4</ele>
        <time>2020-11-01T11:58:56.021Z</time>
      </trkpt>
      <trkpt lat="46.36432" lon="6.02463">
        <ele>1247.8</ele>
        <time>2020-11-01T11:58:57.02Z</time>
      </trkpt>
      <trkpt lat="46.36433" lon="6.02467">
        <ele>1248</ele>
        <time>2020-11-01T11:58:58.022Z</time>
      </trkpt>
      <trkpt lat="46.36433" lon="6.02467">
        <ele>1248</ele>
        <time>2020-11-01T11:58:59.024Z</time>
      </trkpt>
      <trkpt lat="46.36435" lon="6.0247">
        <ele>1248.2</ele>
        <time>2020-11-01T11:59:00.021Z</time>
      </trkpt>
      <trkpt lat="46.36435" lon="6.0247">
        <ele>1248.2</ele>
        <time>2020-11-01T11:59:01.021Z</time>
      </trkpt>
      <trkpt lat="46.36437" lon="6.02474">
        <ele>1248.6</ele>
        <time>2020-11-01T11:59:02.021Z</time>
      </trkpt>
      <trkpt lat="46.36439" lon="6.02477">
        <ele>1248.8</ele>
        <time>2020-11-01T11:59:03.02Z</time>
      </trkpt>
      <trkpt lat="46.36439" lon="6.02477">
        <ele>1248.8</ele>
        <time>2020-11-01T11:59:04.022Z</time>
      </trkpt>
      <trkpt lat="46.3644" lon="6.0248">
        <ele>1249</ele>
        <time>2020-11-01T11:59:05.021Z</time>
      </trkpt>
      <trkpt lat="46.3644" lon="6.0248">
        <ele>1249</ele>
        <time>2020-11-01T11:59:06.021Z</time>
      </trkpt>
      <trkpt lat="46.36442" lon="6.02484">
        <ele>1249.2</ele>
        <time>2020-11-01T11:59:07.021Z</time>
      </trkpt>
      <trkpt lat="46.36444" lon="6.02487">
        <ele>1249.6</ele>
        <time>2020-11-01T11:59:08.021Z</time>
      </trkpt>
      <trkpt lat="46.36444" lon="6.02487">
        <ele>1249.6</ele>
        <time>2020-11-01T11:59:09.021Z</time>
      </trkpt>
      <trkpt lat="46.36446" lon="6.0249">
        <ele>1249.8</ele>
        <time>2020-11-01T11:59:10.021Z</time>
      </trkpt>
      <trkpt lat="46.36446" lon="6.0249">
        <ele>1249.8</ele>
        <time>2020-11-01T11:59:11.02Z</time>
      </trkpt>
      <trkpt lat="46.36449" lon="6.02493">
        <ele>1250.2</ele>
        <time>2020-11-01T11:59:12.023Z</time>
      </trkpt>
      <trkpt lat="46.36451" lon="6.02496">
        <ele>1250.4</ele>
        <time>2020-11-01T11:59:13.022Z</time>
      </trkpt>
      <trkpt lat="46.36451" lon="6.02496">
        <ele>1250.4</ele>
        <time>2020-11-01T11:59:14.02Z</time>
      </trkpt>
      <trkpt lat="46.36454" lon="6.02498">
        <ele>1250.6</ele>
        <time>2020-11-01T11:59:15.023Z</time>
      </trkpt>
      <trkpt lat="46.36454" lon="6.02498">
        <ele>1250.6</ele>
        <time>2020-11-01T11:59:16.022Z</time>
      </trkpt>
      <trkpt lat="46.36456" lon="6.02501">
        <ele>1251</ele>
        <time>2020-11-01T11:59:17.021Z</time>
      </trkpt>
      <trkpt lat="46.36459" lon="6.02503">
        <ele>1251.2</ele>
        <time>2020-11-01T11:59:18.021Z</time>
      </trkpt>
      <trkpt lat="46.36459" lon="6.02503">
        <ele>1251.2</ele>
        <time>2020-11-01T11:59:19.025Z</time>
      </trkpt>
      <trkpt lat="46.36461" lon="6.02505">
        <ele>1251.4</ele>
        <time>2020-11-01T11:59:20.023Z</time>
      </trkpt>
      <trkpt lat="46.36461" lon="6.02505">
        <ele>1251.4</ele>
        <time>2020-11-01T11:59:21.023Z</time>
      </trkpt>
      <trkpt lat="46.36464" lon="6.02507">
        <ele>1251.8</ele>
        <time>2020-11-01T11:59:22.021Z</time>
      </trkpt>
      <trkpt lat="46.36467" lon="6.02508">
        <ele>1252</ele>
        <time>2020-11-01T11:59:23.02Z</time>
      </trkpt>
      <trkpt lat="46.36467" lon="6.02508">
        <ele>1252</ele>
        <time>2020-11-01T11:59:24.021Z</time>
      </trkpt>
      <trkpt lat="46.3647" lon="6.02509">
        <ele>1252.4</ele>
        <time>2020-11-01T11:59:25.023Z</time>
      </trkpt>
      <trkpt lat="46.3647" lon="6.02509">
        <ele>1252.4</ele>
        <time>2020-11-01T11:59:26.022Z</time>
      </trkpt>
      <trkpt lat="46.36472" lon="6.0251">
        <ele>1252.8</ele>
        <time>2020-11-01T11:59:27.021Z</time>
      </trkpt>
      <trkpt lat="46.36472" lon="6.0251">
        <ele>1252.8</ele>
        <time>2020-11-01T11:59:28.022Z</time>
      </trkpt>
      <trkpt lat="46.36475" lon="6.0251">
        <ele>1253.2</ele>
        <time>2020-11-01T11:59:29.022Z</time>
      </trkpt>
      <trkpt lat="46.36478" lon="6.0251">
        <ele>1253.2</ele>
        <time>2020-11-01T11:59:30.021Z</time>
      </trkpt>
      <trkpt lat="46.36478" lon="6.0251">
        <ele>1253.2</ele>
        <time>2020-11-01T11:59:31.021Z</time>
      </trkpt>
      <trkpt lat="46.36481" lon="6.0251">
        <ele>1253.6</ele>
        <time>2020-11-01T11:59:32.021Z</time>
      </trkpt>
      <trkpt lat="46.36484" lon="6.0251">
        <ele>1253.8</ele>
        <time>2020-11-01T11:59:33.023Z</time>
      </trkpt>
      <trkpt lat="46.36484" lon="6.0251">
        <ele>1253.8</ele>
        <time>2020-11-01T11:59:34.021Z</time>
      </trkpt>
      <trkpt lat="46.36487" lon="6.0251">
        <ele>1253.8</ele>
        <time>2020-11-01T11:59:35.021Z</time>
      </trkpt>
      <trkpt lat="46.36487" lon="6.0251">
        <ele>1253.8</ele>
        <time>2020-11-01T11:59:36.02Z</time>
      </trkpt>
      <trkpt lat="46.3649" lon="6.02509">
        <ele>1254</ele>
        <time>2020-11-01T11:59:37.021Z</time>
      </trkpt>
      <trkpt lat="46.36493" lon="6.02508">
        <ele>1254.2</ele>
        <time>2020-11-01T11:59:38.023Z</time>
      </trkpt>
      <trkpt lat="46.36493" lon="6.02508">
        <ele>1254.2</ele>
        <time>2020-11-01T11:59:39.022Z</time>
      </trkpt>
      <trkpt lat="46.36496" lon="6.02507">
        <ele>1254.4</ele>
        <time>2020-11-01T11:59:40.021Z</time>
      </trkpt>
      <trkpt lat="46.36496" lon="6.02507">
        <ele>1254.4</ele>
        <time>2020-11-01T11:59:41.023Z</time>
      </trkpt>
      <trkpt lat="46.36499" lon="6.02506">
        <ele>1254.6</ele>
        <time>2020-11-01T11:59:42.023Z</time>
      </trkpt>
      <trkpt lat="46.36499" lon="6.02506">
        <ele>1254.6</ele>
        <time>2020-11-01T11:59:43.022Z</time>
      </trkpt>
      <trkpt lat="46.36502" lon="6.02504">
        <ele>1254.8</ele>
        <time>2020-11-01T11:59:44.02Z</time>
      </trkpt>
      <trkpt lat="46.36504" lon="6.02502">
        <ele>1255.2</ele>
        <time>2020-11-01T11:59:45.021Z</time>
      </trkpt>
      <trkpt lat="46.36504" lon="6.02502">
        <ele>1255.2</ele>
        <time>2020-11-01T11:59:46.022Z</time>
      </trkpt>
      <trkpt lat="46.36507" lon="6.02501">
        <ele>1255.4</ele>
        <time>2020-11-01T11:59:47.021Z</time>
      </trkpt>
      <trkpt lat="46.36507" lon="6.02501">
        <ele>1255.4</ele>
        <time>2020-11-01T11:59:48.021Z</time>
      </trkpt>
      <trkpt lat="46.3651" lon="6.02499">
        <ele>1255.6</ele>
        <time>2020-11-01T11:59:49.02Z</time>
      </trkpt>
      <trkpt lat="46.36512" lon="6.02497">
        <ele>1255.8</ele>
        <time>2020-11-01T11:59:50.023Z</time>
      </trkpt>
      <trkpt lat="46.36512" lon="6.02497">
        <ele>1255.8</ele>
        <time>2020-11-01T11:59:51.021Z</time>
      </trkpt>
      <trkpt lat="46.36515" lon="6.02495">
        <ele>1256.2</ele>
        <time>2020-11-01T11:59:52.021Z</time>
      </trkpt>
      <trkpt lat="46.36518" lon="6.02493">
        <ele>1256.6</ele>
        <time>2020-11-01T11:59:53.02Z</time>
      </trkpt>
      <trkpt lat="46.36518" lon="6.02493">
        <ele>1256.6</ele>
        <time>2020-11-01T11:59:54.023Z</time>
      </trkpt>
      <trkpt lat="46.3652" lon="6.02491">
        <ele>1256.8</ele>
        <time>2020-11-01T11:59:55.023Z</time>
      </trkpt>
      <trkpt lat="46.3652" lon="6.02491">
        <ele>1256.8</ele>
        <time>2020-11-01T11:59:56.022Z</time>
      </trkpt>
      <trkpt lat="46.36523" lon="6.0249">
        <ele>1257</ele>
        <time>2020-11-01T11:59:57.02Z</time>
      </trkpt>
      <trkpt lat="46.36526" lon="6.02488">
        <ele>1257.4</ele>
        <time>2020-11-01T11:59:58.021Z</time>
      </trkpt>
      <trkpt lat="46.36526" lon="6.02488">
        <ele>1257.4</ele>
        <time>2020-11-01T11:59:59.023Z</time>
      </trkpt>
      <trkpt lat="46.36528" lon="6.02486">
        <ele>1257.6</ele>
        <time>2020-11-01T12:00:00.021Z</time>
      </trkpt>
      <trkpt lat="46.36528" lon="6.02486">
        <ele>1257.6</ele>
        <time>2020-11-01T12:00:01.02Z</time>
      </trkpt>
      <trkpt lat="46.36531" lon="6.02483">
        <ele>1258</ele>
        <time>2020-11-01T12:00:02.021Z</time>
      </trkpt>
      <trkpt lat="46.36533" lon="6.02482">
        <ele>1258.2</ele>
        <time>2020-11-01T12:00:03.023Z</time>
      </trkpt>
      <trkpt lat="46.36533" lon="6.02482">
        <ele>1258.2</ele>
        <time>2020-11-01T12:00:04.021Z</time>
      </trkpt>
      <trkpt lat="46.36536" lon="6.0248">
        <ele>1258.4</ele>
        <time>2020-11-01T12:00:05.021Z</time>
      </trkpt>
      <trkpt lat="46.36539" lon="6.02479">
        <ele>1258.6</ele>
        <time>2020-11-01T12:00:06.021Z</time>
      </trkpt>
      <trkpt lat="46.36541" lon="6.02477">
        <ele>1259</ele>
        <time>2020-11-01T12:00:07.023Z</time>
      </trkpt>
      <trkpt lat="46.36541" lon="6.02477">
        <ele>1259</ele>
        <time>2020-11-01T12:00:08.023Z</time>
      </trkpt>
      <trkpt lat="46.36544" lon="6.02476">
        <ele>1259.2</ele>
        <time>2020-11-01T12:00:09.021Z</time>
      </trkpt>
      <trkpt lat="46.36546" lon="6.02474">
        <ele>1259.6</ele>
        <time>2020-11-01T12:00:10.02Z</time>
      </trkpt>
      <trkpt lat="46.36546" lon="6.02474">
        <ele>1259.6</ele>
        <time>2020-11-01T12:00:11.023Z</time>
      </trkpt>
      <trkpt lat="46.36549" lon="6.02473">
        <ele>1259.8</ele>
        <time>2020-11-01T12:00:12.023Z</time>
      </trkpt>
      <trkpt lat="46.36549" lon="6.02473">
        <ele>1259.8</ele>
        <time>2020-11-01T12:00:13.021Z</time>
      </trkpt>
      <trkpt lat="46.36552" lon="6.02471">
        <ele>1260.2</ele>
        <time>2020-11-01T12:00:14.02Z</time>
      </trkpt>
      <trkpt lat="46.36554" lon="6.02469">
        <ele>1260.6</ele>
        <time>2020-11-01T12:00:15.021Z</time>
      </trkpt>
      <trkpt lat="46.36554" lon="6.02469">
        <ele>1260.6</ele>
        <time>2020-11-01T12:00:16.021Z</time>
      </trkpt>
      <trkpt lat="46.36557" lon="6.02467">
        <ele>1261</ele>
        <time>2020-11-01T12:00:17.022Z</time>
      </trkpt>
      <trkpt lat="46.36557" lon="6.02467">
        <ele>1261</ele>
        <time>2020-11-01T12:00:18.02Z</time>
      </trkpt>
      <trkpt lat="46.3656" lon="6.02465">
        <ele>1261.2</ele>
        <time>2020-11-01T12:00:19.021Z</time>
      </trkpt>
      <trkpt lat="46.3656" lon="6.02465">
        <ele>1261.2</ele>
        <time>2020-11-01T12:00:20.023Z</time>
      </trkpt>
      <trkpt lat="46.36562" lon="6.02463">
        <ele>1261.4</ele>
        <time>2020-11-01T12:00:21.021Z</time>
      </trkpt>
      <trkpt lat="46.36565" lon="6.0246">
        <ele>1261.8</ele>
        <time>2020-11-01T12:00:22.021Z</time>
      </trkpt>
      <trkpt lat="46.36565" lon="6.0246">
        <ele>1261.8</ele>
        <time>2020-11-01T12:00:23.02Z</time>
      </trkpt>
      <trkpt lat="46.36567" lon="6.02458">
        <ele>1262</ele>
        <time>2020-11-01T12:00:24.023Z</time>
      </trkpt>
      <trkpt lat="46.36567" lon="6.02458">
        <ele>1262</ele>
        <time>2020-11-01T12:00:25.022Z</time>
      </trkpt>
      <trkpt lat="46.36569" lon="6.02455">
        <ele>1262.2</ele>
        <time>2020-11-01T12:00:26.021Z</time>
      </trkpt>
      <trkpt lat="46.36571" lon="6.02452">
        <ele>1262.4</ele>
        <time>2020-11-01T12:00:27.02Z</time>
      </trkpt>
      <trkpt lat="46.36571" lon="6.02452">
        <ele>1262.4</ele>
        <time>2020-11-01T12:00:28.023Z</time>
      </trkpt>
      <trkpt lat="46.36573" lon="6.02449">
        <ele>1262.6</ele>
        <time>2020-11-01T12:00:29.023Z</time>
      </trkpt>
      <trkpt lat="46.36573" lon="6.02449">
        <ele>1262.6</ele>
        <time>2020-11-01T12:00:30.022Z</time>
      </trkpt>
      <trkpt lat="46.36575" lon="6.02445">
        <ele>1263</ele>
        <time>2020-11-01T12:00:31.02Z</time>
      </trkpt>
      <trkpt lat="46.36577" lon="6.02442">
        <ele>1263</ele>
        <time>2020-11-01T12:00:32.022Z</time>
      </trkpt>
      <trkpt lat="46.36577" lon="6.02442">
        <ele>1263</ele>
        <time>2020-11-01T12:00:33.023Z</time>
      </trkpt>
      <trkpt lat="46.36579" lon="6.02439">
        <ele>1263.2</ele>
        <time>2020-11-01T12:00:34.023Z</time>
      </trkpt>
      <trkpt lat="46.36579" lon="6.02439">
        <ele>1263.2</ele>
        <time>2020-11-01T12:00:35.021Z</time>
      </trkpt>
      <trkpt lat="46.36581" lon="6.02436">
        <ele>1263.6</ele>
        <time>2020-11-01T12:00:36.02Z</time>
      </trkpt>
      <trkpt lat="46.36581" lon="6.02436">
        <ele>1263.6</ele>
        <time>2020-11-01T12:00:37.023Z</time>
      </trkpt>
      <trkpt lat="46.36584" lon="6.02433">
        <ele>1263.8</ele>
        <time>2020-11-01T12:00:38.021Z</time>
      </trkpt>
      <trkpt lat="46.36585" lon="6.02429">
        <ele>1264</ele>
        <time>2020-11-01T12:00:39.021Z</time>
      </trkpt>
      <trkpt lat="46.36585" lon="6.02429">
        <ele>1264</ele>
        <time>2020-11-01T12:00:40.02Z</time>
      </trkpt>
      <trkpt lat="46.36587" lon="6.02425">
        <ele>1264.4</ele>
        <time>2020-11-01T12:00:41.023Z</time>
      </trkpt>
      <trkpt lat="46.36587" lon="6.02425">
        <ele>1264.4</ele>
        <time>2020-11-01T12:00:42.023Z</time>
      </trkpt>
      <trkpt lat="46.36589" lon="6.02422">
        <ele>1264.8</ele>
        <time>2020-11-01T12:00:43.021Z</time>
      </trkpt>
      <trkpt lat="46.36591" lon="6.02419">
        <ele>1264.8</ele>
        <time>2020-11-01T12:00:44.02Z</time>
      </trkpt>
      <trkpt lat="46.36591" lon="6.02419">
        <ele>1264.8</ele>
        <time>2020-11-01T12:00:45.023Z</time>
      </trkpt>
      <trkpt lat="46.36593" lon="6.02416">
        <ele>1265.2</ele>
        <time>2020-11-01T12:00:46.021Z</time>
      </trkpt>
      <trkpt lat="46.36595" lon="6.02412">
        <ele>1265.4</ele>
        <time>2020-11-01T12:00:47.021Z</time>
      </trkpt>
      <trkpt lat="46.36595" lon="6.02412">
        <ele>1265.4</ele>
        <time>2020-11-01T12:00:48.022Z</time>
      </trkpt>
      <trkpt lat="46.36598" lon="6.02409">
        <ele>1265.6</ele>
        <time>2020-11-01T12:00:49.022Z</time>
      </trkpt>
      <trkpt lat="46.36598" lon="6.02409">
        <ele>1265.6</ele>
        <time>2020-11-01T12:00:50.023Z</time>
      </trkpt>
      <trkpt lat="46.36599" lon="6.02405">
        <ele>1266</ele>
        <time>2020-11-01T12:00:51.021Z</time>
      </trkpt>
      <trkpt lat="46.36601" lon="6.02401">
        <ele>1266.2</ele>
        <time>2020-11-01T12:00:52.021Z</time>
      </trkpt>
      <trkpt lat="46.36601" lon="6.02401">
        <ele>1266.2</ele>
        <time>2020-11-01T12:00:53.02Z</time>
      </trkpt>
      <trkpt lat="46.36602" lon="6.02397">
        <ele>1266.6</ele>
        <time>2020-11-01T12:00:54.022Z</time>
      </trkpt>
      <trkpt lat="46.36602" lon="6.02397">
        <ele>1266.6</ele>
        <time>2020-11-01T12:00:55.023Z</time>
      </trkpt>
      <trkpt lat="46.36603" lon="6.02393">
        <ele>1266.8</ele>
        <time>2020-11-01T12:00:56.02Z</time>
      </trkpt>
      <trkpt lat="46.36603" lon="6.02393">
        <ele>1266.8</ele>
        <time>2020-11-01T12:00:57.022Z</time>
      </trkpt>
      <trkpt lat="46.36604" lon="6.02389">
        <ele>1267</ele>
        <time>2020-11-01T12:00:58.023Z</time>
      </trkpt>
      <trkpt lat="46.36606" lon="6.02385">
        <ele>1267.2</ele>
        <time>2020-11-01T12:00:59.02Z</time>
      </trkpt>
      <trkpt lat="46.36606" lon="6.02385">
        <ele>1267.2</ele>
        <time>2020-11-01T12:01:00.022Z</time>
      </trkpt>
      <trkpt lat="46.36608" lon="6.02382">
        <ele>1267.4</ele>
        <time>2020-11-01T12:01:01.02Z</time>
      </trkpt>
      <trkpt lat="46.36608" lon="6.02382">
        <ele>1267.4</ele>
        <time>2020-11-01T12:01:02.022Z</time>
      </trkpt>
      <trkpt lat="46.36609" lon="6.02378">
        <ele>1267.6</ele>
        <time>2020-11-01T12:01:03.023Z</time>
      </trkpt>
      <trkpt lat="46.3661" lon="6.02374">
        <ele>1267.8</ele>
        <time>2020-11-01T12:01:04.02Z</time>
      </trkpt>
      <trkpt lat="46.3661" lon="6.02374">
        <ele>1267.8</ele>
        <time>2020-11-01T12:01:05.02Z</time>
      </trkpt>
      <trkpt lat="46.36612" lon="6.0237">
        <ele>1268.2</ele>
        <time>2020-11-01T12:01:06.022Z</time>
      </trkpt>
      <trkpt lat="46.36612" lon="6.0237">
        <ele>1268.2</ele>
        <time>2020-11-01T12:01:07.02Z</time>
      </trkpt>
      <trkpt lat="46.36613" lon="6.02366">
        <ele>1268.4</ele>
        <time>2020-11-01T12:01:08.023Z</time>
      </trkpt>
      <trkpt lat="46.36615" lon="6.02363">
        <ele>1268.4</ele>
        <time>2020-11-01T12:01:09.02Z</time>
      </trkpt>
      <trkpt lat="46.36615" lon="6.02363">
        <ele>1268.4</ele>
        <time>2020-11-01T12:01:10.02Z</time>
      </trkpt>
      <trkpt lat="46.36616" lon="6.02359">
        <ele>1268.8</ele>
        <time>2020-11-01T12:01:11.023Z</time>
      </trkpt>
      <trkpt lat="46.36616" lon="6.02359">
        <ele>1268.8</ele>
        <time>2020-11-01T12:01:12.02Z</time>
      </trkpt>
      <trkpt lat="46.36617" lon="6.02355">
        <ele>1269.2</ele>
        <time>2020-11-01T12:01:13.021Z</time>
      </trkpt>
      <trkpt lat="46.36618" lon="6.02351">
        <ele>1269.4</ele>
        <time>2020-11-01T12:01:14.022Z</time>
      </trkpt>
      <trkpt lat="46.36618" lon="6.02351">
        <ele>1269.4</ele>
        <time>2020-11-01T12:01:15.02Z</time>
      </trkpt>
      <trkpt lat="46.36619" lon="6.02347">
        <ele>1269.6</ele>
        <time>2020-11-01T12:01:16.023Z</time>
      </trkpt>
      <trkpt lat="46.36619" lon="6.02347">
        <ele>1269.6</ele>
        <time>2020-11-01T12:01:17.021Z</time>
      </trkpt>
      <trkpt lat="46.3662" lon="6.02343">
        <ele>1270</ele>
        <time>2020-11-01T12:01:18.02Z</time>
      </trkpt>
      <trkpt lat="46.36622" lon="6.02339">
        <ele>1270.2</ele>
        <time>2020-11-01T12:01:19.021Z</time>
      </trkpt>
      <trkpt lat="46.36622" lon="6.02339">
        <ele>1270.2</ele>
        <time>2020-11-01T12:01:20.021Z</time>
      </trkpt>
      <trkpt lat="46.36623" lon="6.02335">
        <ele>1270.6</ele>
        <time>2020-11-01T12:01:21.022Z</time>
      </trkpt>
      <trkpt lat="46.36624" lon="6.02331">
        <ele>1270.8</ele>
        <time>2020-11-01T12:01:22.02Z</time>
      </trkpt>
      <trkpt lat="46.36624" lon="6.02331">
        <ele>1270.8</ele>
        <time>2020-11-01T12:01:23.022Z</time>
      </trkpt>
      <trkpt lat="46.36626" lon="6.02327">
        <ele>1271</ele>
        <time>2020-11-01T12:01:24.023Z</time>
      </trkpt>
      <trkpt lat="46.36626" lon="6.02327">
        <ele>1271</ele>
        <time>2020-11-01T12:01:25.02Z</time>
      </trkpt>
      <trkpt lat="46.36627" lon="6.02324">
        <ele>1271.4</ele>
        <time>2020-11-01T12:01:26.021Z</time>
      </trkpt>
      <trkpt lat="46.36627" lon="6.02324">
        <ele>1271.4</ele>
        <time>2020-11-01T12:01:27.021Z</time>
      </trkpt>
      <trkpt lat="46.36628" lon="6.02319">
        <ele>1271.8</ele>
        <time>2020-11-01T12:01:28.02Z</time>
      </trkpt>
      <trkpt lat="46.36628" lon="6.02319">
        <ele>1271.8</ele>
        <time>2020-11-01T12:01:29.023Z</time>
      </trkpt>
      <trkpt lat="46.3663" lon="6.02315">
        <ele>1272</ele>
        <time>2020-11-01T12:01:30.021Z</time>
      </trkpt>
      <trkpt lat="46.3663" lon="6.02315">
        <ele>1272</ele>
        <time>2020-11-01T12:01:31.02Z</time>
      </trkpt>
      <trkpt lat="46.36631" lon="6.02311">
        <ele>1272.4</ele>
        <time>2020-11-01T12:01:32.023Z</time>
      </trkpt>
      <trkpt lat="46.36633" lon="6.02307">
        <ele>1272.6</ele>
        <time>2020-11-01T12:01:33.021Z</time>
      </trkpt>
      <trkpt lat="46.36633" lon="6.02307">
        <ele>1272.6</ele>
        <time>2020-11-01T12:01:34.022Z</time>
      </trkpt>
      <trkpt lat="46.36635" lon="6.02303">
        <ele>1273</ele>
        <time>2020-11-01T12:01:35.02Z</time>
      </trkpt>
      <trkpt lat="46.36635" lon="6.02303">
        <ele>1273</ele>
        <time>2020-11-01T12:01:36.021Z</time>
      </trkpt>
      <trkpt lat="46.36636" lon="6.023">
        <ele>1273.2</ele>
        <time>2020-11-01T12:01:37.024Z</time>
      </trkpt>
      <trkpt lat="46.36638" lon="6.02296">
        <ele>1273.4</ele>
        <time>2020-11-01T12:01:38.022Z</time>
      </trkpt>
      <trkpt lat="46.36638" lon="6.02296">
        <ele>1273.4</ele>
        <time>2020-11-01T12:01:39.02Z</time>
      </trkpt>
      <trkpt lat="46.36638" lon="6.02296">
        <ele>1273.4</ele>
        <time>2020-11-01T12:01:40.021Z</time>
      </trkpt>
      <trkpt lat="46.36638" lon="6.02296">
        <ele>1273.4</ele>
        <time>2020-11-01T12:01:41.021Z</time>
      </trkpt>
      <trkpt lat="46.36642" lon="6.0229">
        <ele>1273.8</ele>
        <time>2020-11-01T12:01:42.023Z</time>
      </trkpt>
      <trkpt lat="46.36644" lon="6.02287">
        <ele>1274.2</ele>
        <time>2020-11-01T12:01:43.021Z</time>
      </trkpt>
      <trkpt lat="46.36644" lon="6.02287">
        <ele>1274.2</ele>
        <time>2020-11-01T12:01:44.02Z</time>
      </trkpt>
      <trkpt lat="46.36646" lon="6.02284">
        <ele>1274.4</ele>
        <time>2020-11-01T12:01:45.023Z</time>
      </trkpt>
      <trkpt lat="46.36649" lon="6.02282">
        <ele>1274.6</ele>
        <time>2020-11-01T12:01:46.021Z</time>
      </trkpt>
      <trkpt lat="46.36649" lon="6.02282">
        <ele>1274.6</ele>
        <time>2020-11-01T12:01:47.021Z</time>
      </trkpt>
      <trkpt lat="46.36651" lon="6.0228">
        <ele>1274.8</ele>
        <time>2020-11-01T12:01:48.02Z</time>
      </trkpt>
      <trkpt lat="46.36651" lon="6.0228">
        <ele>1274.8</ele>
        <time>2020-11-01T12:01:49.022Z</time>
      </trkpt>
      <trkpt lat="46.36654" lon="6.02279">
        <ele>1275</ele>
        <time>2020-11-01T12:01:50.023Z</time>
      </trkpt>
      <trkpt lat="46.36656" lon="6.02277">
        <ele>1275.2</ele>
        <time>2020-11-01T12:01:51.022Z</time>
      </trkpt>
      <trkpt lat="46.36656" lon="6.02277">
        <ele>1275.2</ele>
        <time>2020-11-01T12:01:52.02Z</time>
      </trkpt>
      <trkpt lat="46.36659" lon="6.02276">
        <ele>1275.4</ele>
        <time>2020-11-01T12:01:53.022Z</time>
      </trkpt>
      <trkpt lat="46.36661" lon="6.02274">
        <ele>1275.4</ele>
        <time>2020-11-01T12:01:54.023Z</time>
      </trkpt>
      <trkpt lat="46.36661" lon="6.02274">
        <ele>1275.4</ele>
        <time>2020-11-01T12:01:55.022Z</time>
      </trkpt>
      <trkpt lat="46.36664" lon="6.02273">
        <ele>1275.8</ele>
        <time>2020-11-01T12:01:56.02Z</time>
      </trkpt>
      <trkpt lat="46.36666" lon="6.02271">
        <ele>1276</ele>
        <time>2020-11-01T12:01:57.021Z</time>
      </trkpt>
      <trkpt lat="46.36668" lon="6.0227">
        <ele>1276.4</ele>
        <time>2020-11-01T12:01:58.023Z</time>
      </trkpt>
      <trkpt lat="46.36668" lon="6.0227">
        <ele>1276.4</ele>
        <time>2020-11-01T12:01:59.021Z</time>
      </trkpt>
      <trkpt lat="46.3667" lon="6.02268">
        <ele>1276.6</ele>
        <time>2020-11-01T12:02:00.02Z</time>
      </trkpt>
      <trkpt lat="46.36673" lon="6.02266">
        <ele>1276.8</ele>
        <time>2020-11-01T12:02:01.022Z</time>
      </trkpt>
      <trkpt lat="46.36673" lon="6.02266">
        <ele>1276.8</ele>
        <time>2020-11-01T12:02:02.023Z</time>
      </trkpt>
      <trkpt lat="46.36676" lon="6.02265">
        <ele>1277</ele>
        <time>2020-11-01T12:02:03.022Z</time>
      </trkpt>
      <trkpt lat="46.36678" lon="6.02264">
        <ele>1277.4</ele>
        <time>2020-11-01T12:02:04.022Z</time>
      </trkpt>
      <trkpt lat="46.36678" lon="6.02264">
        <ele>1277.4</ele>
        <time>2020-11-01T12:02:05.02Z</time>
      </trkpt>
      <trkpt lat="46.36681" lon="6.02263">
        <ele>1277.6</ele>
        <time>2020-11-01T12:02:06.02Z</time>
      </trkpt>
      <trkpt lat="46.36681" lon="6.02263">
        <ele>1277.6</ele>
        <time>2020-11-01T12:02:07.023Z</time>
      </trkpt>
      <trkpt lat="46.36684" lon="6.02262">
        <ele>1277.8</ele>
        <time>2020-11-01T12:02:08.021Z</time>
      </trkpt>
      <trkpt lat="46.36687" lon="6.02262">
        <ele>1278.2</ele>
        <time>2020-11-01T12:02:09.021Z</time>
      </trkpt>
      <trkpt lat="46.36687" lon="6.02262">
        <ele>1278.2</ele>
        <time>2020-11-01T12:02:10.022Z</time>
      </trkpt>
      <trkpt lat="46.3669" lon="6.02261">
        <ele>1278.6</ele>
        <time>2020-11-01T12:02:11.02Z</time>
      </trkpt>
      <trkpt lat="46.36692" lon="6.0226">
        <ele>1278.8</ele>
        <time>2020-11-01T12:02:12.021Z</time>
      </trkpt>
      <trkpt lat="46.36692" lon="6.0226">
        <ele>1278.8</ele>
        <time>2020-11-01T12:02:13.021Z</time>
      </trkpt>
      <trkpt lat="46.36695" lon="6.02259">
        <ele>1279</ele>
        <time>2020-11-01T12:02:14.021Z</time>
      </trkpt>
      <trkpt lat="46.36695" lon="6.02259">
        <ele>1279</ele>
        <time>2020-11-01T12:02:15.023Z</time>
      </trkpt>
      <trkpt lat="46.36698" lon="6.02258">
        <ele>1279.4</ele>
        <time>2020-11-01T12:02:16.022Z</time>
      </trkpt>
      <trkpt lat="46.36698" lon="6.02258">
        <ele>1279.4</ele>
        <time>2020-11-01T12:02:17.021Z</time>
      </trkpt>
      <trkpt lat="46.36702" lon="6.02256">
        <ele>1279.6</ele>
        <time>2020-11-01T12:02:18.022Z</time>
      </trkpt>
      <trkpt lat="46.36705" lon="6.02255">
        <ele>1279.8</ele>
        <time>2020-11-01T12:02:19.023Z</time>
      </trkpt>
      <trkpt lat="46.36709" lon="6.02254">
        <ele>1280.2</ele>
        <time>2020-11-01T12:02:20.024Z</time>
      </trkpt>
      <trkpt lat="46.36709" lon="6.02254">
        <ele>1280.2</ele>
        <time>2020-11-01T12:02:21.02Z</time>
      </trkpt>
      <trkpt lat="46.36713" lon="6.02253">
        <ele>1280.4</ele>
        <time>2020-11-01T12:02:22.02Z</time>
      </trkpt>
      <trkpt lat="46.36713" lon="6.02253">
        <ele>1280.4</ele>
        <time>2020-11-01T12:02:23.023Z</time>
      </trkpt>
      <trkpt lat="46.36717" lon="6.02251">
        <ele>1280.6</ele>
        <time>2020-11-01T12:02:24.022Z</time>
      </trkpt>
      <trkpt lat="46.36721" lon="6.0225">
        <ele>1281</ele>
        <time>2020-11-01T12:02:25.022Z</time>
      </trkpt>
      <trkpt lat="46.36721" lon="6.0225">
        <ele>1281</ele>
        <time>2020-11-01T12:02:26.02Z</time>
      </trkpt>
      <trkpt lat="46.36726" lon="6.02248">
        <ele>1281.2</ele>
        <time>2020-11-01T12:02:27.02Z</time>
      </trkpt>
      <trkpt lat="46.3673" lon="6.02247">
        <ele>1281.2</ele>
        <time>2020-11-01T12:02:28.023Z</time>
      </trkpt>
      <trkpt lat="46.36734" lon="6.02246">
        <ele>1281.4</ele>
        <time>2020-11-01T12:02:29.02Z</time>
      </trkpt>
      <trkpt lat="46.36734" lon="6.02246">
        <ele>1281.4</ele>
        <time>2020-11-01T12:02:30.021Z</time>
      </trkpt>
      <trkpt lat="46.36739" lon="6.02244">
        <ele>1281.4</ele>
        <time>2020-11-01T12:02:31.021Z</time>
      </trkpt>
      <trkpt lat="46.36743" lon="6.02243">
        <ele>1281.4</ele>
        <time>2020-11-01T12:02:32.023Z</time>
      </trkpt>
      <trkpt lat="46.36743" lon="6.02243">
        <ele>1281.4</ele>
        <time>2020-11-01T12:02:33.023Z</time>
      </trkpt>
      <trkpt lat="46.36748" lon="6.02242">
        <ele>1281.6</ele>
        <time>2020-11-01T12:02:34.02Z</time>
      </trkpt>
      <trkpt lat="46.36753" lon="6.0224">
        <ele>1281.6</ele>
        <time>2020-11-01T12:02:35.02Z</time>
      </trkpt>
      <trkpt lat="46.36753" lon="6.0224">
        <ele>1281.6</ele>
        <time>2020-11-01T12:02:36.021Z</time>
      </trkpt>
      <trkpt lat="46.36758" lon="6.02239">
        <ele>1281.6</ele>
        <time>2020-11-01T12:02:37.021Z</time>
      </trkpt>
      <trkpt lat="46.36763" lon="6.02238">
        <ele>1281.6</ele>
        <time>2020-11-01T12:02:38.022Z</time>
      </trkpt>
      <trkpt lat="46.36768" lon="6.02236">
        <ele>1281.6</ele>
        <time>2020-11-01T12:02:39.02Z</time>
      </trkpt>
      <trkpt lat="46.36768" lon="6.02236">
        <ele>1281.6</ele>
        <time>2020-11-01T12:02:40.023Z</time>
      </trkpt>
      <trkpt lat="46.36772" lon="6.02233">
        <ele>1281.6</ele>
        <time>2020-11-01T12:02:41.023Z</time>
      </trkpt>
      <trkpt lat="46.36777" lon="6.02231">
        <ele>1281.6</ele>
        <time>2020-11-01T12:02:42.021Z</time>
      </trkpt>
      <trkpt lat="46.36777" lon="6.02231">
        <ele>1281.6</ele>
        <time>2020-11-01T12:02:43.02Z</time>
      </trkpt>
      <trkpt lat="46.36782" lon="6.02227">
        <ele>1281.6</ele>
        <time>2020-11-01T12:02:44.02Z</time>
      </trkpt>
      <trkpt lat="46.36787" lon="6.02223">
        <ele>1281.6</ele>
        <time>2020-11-01T12:02:45.02Z</time>
      </trkpt>
      <trkpt lat="46.36787" lon="6.02223">
        <ele>1281.6</ele>
        <time>2020-11-01T12:02:46.022Z</time>
      </trkpt>
      <trkpt lat="46.36791" lon="6.02219">
        <ele>1281.6</ele>
        <time>2020-11-01T12:02:47.021Z</time>
      </trkpt>
      <trkpt lat="46.36795" lon="6.02214">
        <ele>1281.6</ele>
        <time>2020-11-01T12:02:48.02Z</time>
      </trkpt>
      <trkpt lat="46.36795" lon="6.02214">
        <ele>1281.6</ele>
        <time>2020-11-01T12:02:49.021Z</time>
      </trkpt>
      <trkpt lat="46.36799" lon="6.02209">
        <ele>1281.6</ele>
        <time>2020-11-01T12:02:50.021Z</time>
      </trkpt>
      <trkpt lat="46.36803" lon="6.02204">
        <ele>1281.6</ele>
        <time>2020-11-01T12:02:51.021Z</time>
      </trkpt>
      <trkpt lat="46.36803" lon="6.02204">
        <ele>1281.6</ele>
        <time>2020-11-01T12:02:52.02Z</time>
      </trkpt>
      <trkpt lat="46.36807" lon="6.02198">
        <ele>1281.6</ele>
        <time>2020-11-01T12:02:53.023Z</time>
      </trkpt>
      <trkpt lat="46.3681" lon="6.02192">
        <ele>1281.6</ele>
        <time>2020-11-01T12:02:54.023Z</time>
      </trkpt>
      <trkpt lat="46.3681" lon="6.02192">
        <ele>1281.6</ele>
        <time>2020-11-01T12:02:55.021Z</time>
      </trkpt>
      <trkpt lat="46.36813" lon="6.02186">
        <ele>1281.6</ele>
        <time>2020-11-01T12:02:56.021Z</time>
      </trkpt>
      <trkpt lat="46.36817" lon="6.0218">
        <ele>1281.6</ele>
        <time>2020-11-01T12:02:57.021Z</time>
      </trkpt>
      <trkpt lat="46.36817" lon="6.0218">
        <ele>1281.6</ele>
        <time>2020-11-01T12:02:58.02Z</time>
      </trkpt>
      <trkpt lat="46.3682" lon="6.02173">
        <ele>1281.6</ele>
        <time>2020-11-01T12:02:59.022Z</time>
      </trkpt>
      <trkpt lat="46.3682" lon="6.02173">
        <ele>1281.6</ele>
        <time>2020-11-01T12:03:00.02Z</time>
      </trkpt>
      <trkpt lat="46.36823" lon="6.02167">
        <ele>1281.6</ele>
        <time>2020-11-01T12:03:01.021Z</time>
      </trkpt>
      <trkpt lat="46.36825" lon="6.02161">
        <ele>1281.6</ele>
        <time>2020-11-01T12:03:02.023Z</time>
      </trkpt>
      <trkpt lat="46.36825" lon="6.02161">
        <ele>1281.6</ele>
        <time>2020-11-01T12:03:03.023Z</time>
      </trkpt>
      <trkpt lat="46.36828" lon="6.02154">
        <ele>1281.6</ele>
        <time>2020-11-01T12:03:04.021Z</time>
      </trkpt>
      <trkpt lat="46.36831" lon="6.02147">
        <ele>1281.6</ele>
        <time>2020-11-01T12:03:05.022Z</time>
      </trkpt>
      <trkpt lat="46.36831" lon="6.02147">
        <ele>1281.6</ele>
        <time>2020-11-01T12:03:06.02Z</time>
      </trkpt>
      <trkpt lat="46.36833" lon="6.02141">
        <ele>1281.6</ele>
        <time>2020-11-01T12:03:07.022Z</time>
      </trkpt>
      <trkpt lat="46.36833" lon="6.02141">
        <ele>1281.6</ele>
        <time>2020-11-01T12:03:08.021Z</time>
      </trkpt>
      <trkpt lat="46.36836" lon="6.02134">
        <ele>1281.8</ele>
        <time>2020-11-01T12:03:09.02Z</time>
      </trkpt>
      <trkpt lat="46.36839" lon="6.02128">
        <ele>1282</ele>
        <time>2020-11-01T12:03:10.024Z</time>
      </trkpt>
      <trkpt lat="46.36839" lon="6.02128">
        <ele>1282</ele>
        <time>2020-11-01T12:03:11.022Z</time>
      </trkpt>
      <trkpt lat="46.36841" lon="6.02122">
        <ele>1282</ele>
        <time>2020-11-01T12:03:12.021Z</time>
      </trkpt>
      <trkpt lat="46.36843" lon="6.02116">
        <ele>1282.4</ele>
        <time>2020-11-01T12:03:13.021Z</time>
      </trkpt>
      <trkpt lat="46.36843" lon="6.02116">
        <ele>1282.4</ele>
        <time>2020-11-01T12:03:14.02Z</time>
      </trkpt>
      <trkpt lat="46.36846" lon="6.0211">
        <ele>1282.6</ele>
        <time>2020-11-01T12:03:15.023Z</time>
      </trkpt>
      <trkpt lat="46.36848" lon="6.02104">
        <ele>1282.8</ele>
        <time>2020-11-01T12:03:16.021Z</time>
      </trkpt>
      <trkpt lat="46.36848" lon="6.02104">
        <ele>1282.8</ele>
        <time>2020-11-01T12:03:17.021Z</time>
      </trkpt>
      <trkpt lat="46.36851" lon="6.02099">
        <ele>1283.2</ele>
        <time>2020-11-01T12:03:18.021Z</time>
      </trkpt>
      <trkpt lat="46.36853" lon="6.02093">
        <ele>1283.4</ele>
        <time>2020-11-01T12:03:19.022Z</time>
      </trkpt>
      <trkpt lat="46.36855" lon="6.02088">
        <ele>1283.6</ele>
        <time>2020-11-01T12:03:20.023Z</time>
      </trkpt>
      <trkpt lat="46.36855" lon="6.02088">
        <ele>1283.6</ele>
        <time>2020-11-01T12:03:21.021Z</time>
      </trkpt>
      <trkpt lat="46.36857" lon="6.02083">
        <ele>1284</ele>
        <time>2020-11-01T12:03:22.021Z</time>
      </trkpt>
      <trkpt lat="46.36859" lon="6.02078">
        <ele>1284.4</ele>
        <time>2020-11-01T12:03:23.023Z</time>
      </trkpt>
      <trkpt lat="46.36862" lon="6.02073">
        <ele>1285.2</ele>
        <time>2020-11-01T12:03:24.021Z</time>
      </trkpt>
      <trkpt lat="46.36864" lon="6.02068">
        <ele>1285.6</ele>
        <time>2020-11-01T12:03:25.021Z</time>
      </trkpt>
      <trkpt lat="46.36864" lon="6.02068">
        <ele>1285.6</ele>
        <time>2020-11-01T12:03:26.022Z</time>
      </trkpt>
      <trkpt lat="46.36866" lon="6.02063">
        <ele>1285.6</ele>
        <time>2020-11-01T12:03:27.022Z</time>
      </trkpt>
      <trkpt lat="46.36868" lon="6.02058">
        <ele>1286.2</ele>
        <time>2020-11-01T12:03:28.023Z</time>
      </trkpt>
      <trkpt lat="46.3687" lon="6.02053">
        <ele>1286.8</ele>
        <time>2020-11-01T12:03:29.021Z</time>
      </trkpt>
      <trkpt lat="46.36872" lon="6.02049">
        <ele>1287.4</ele>
        <time>2020-11-01T12:03:30.02Z</time>
      </trkpt>
      <trkpt lat="46.36874" lon="6.02044">
        <ele>1288</ele>
        <time>2020-11-01T12:03:31.02Z</time>
      </trkpt>
      <trkpt lat="46.36876" lon="6.02039">
        <ele>1288.6</ele>
        <time>2020-11-01T12:03:32.023Z</time>
      </trkpt>
      <trkpt lat="46.36878" lon="6.02034">
        <ele>1289.2</ele>
        <time>2020-11-01T12:03:33.021Z</time>
      </trkpt>
      <trkpt lat="46.3688" lon="6.0203">
        <ele>1289.6</ele>
        <time>2020-11-01T12:03:34.021Z</time>
      </trkpt>
      <trkpt lat="46.36882" lon="6.02025">
        <ele>1290</ele>
        <time>2020-11-01T12:03:35.021Z</time>
      </trkpt>
      <trkpt lat="46.36884" lon="6.0202">
        <ele>1290.4</ele>
        <time>2020-11-01T12:03:36.023Z</time>
      </trkpt>
      <trkpt lat="46.36886" lon="6.02015">
        <ele>1290.8</ele>
        <time>2020-11-01T12:03:37.023Z</time>
      </trkpt>
      <trkpt lat="46.36888" lon="6.02011">
        <ele>1291.2</ele>
        <time>2020-11-01T12:03:38.021Z</time>
      </trkpt>
      <trkpt lat="46.3689" lon="6.02006">
        <ele>1291.6</ele>
        <time>2020-11-01T12:03:39.02Z</time>
      </trkpt>
      <trkpt lat="46.36892" lon="6.02002">
        <ele>1292</ele>
        <time>2020-11-01T12:03:40.02Z</time>
      </trkpt>
      <trkpt lat="46.36895" lon="6.01998">
        <ele>1292.2</ele>
        <time>2020-11-01T12:03:41.022Z</time>
      </trkpt>
      <trkpt lat="46.36897" lon="6.01994">
        <ele>1292.6</ele>
        <time>2020-11-01T12:03:42.022Z</time>
      </trkpt>
      <trkpt lat="46.369" lon="6.01989">
        <ele>1293</ele>
        <time>2020-11-01T12:03:43.02Z</time>
      </trkpt>
      <trkpt lat="46.36903" lon="6.01985">
        <ele>1293.4</ele>
        <time>2020-11-01T12:03:44.021Z</time>
      </trkpt>
      <trkpt lat="46.36906" lon="6.0198">
        <ele>1293.8</ele>
        <time>2020-11-01T12:03:45.02Z</time>
      </trkpt>
      <trkpt lat="46.36909" lon="6.01975">
        <ele>1294.2</ele>
        <time>2020-11-01T12:03:46.02Z</time>
      </trkpt>
      <trkpt lat="46.36909" lon="6.01975">
        <ele>1294.2</ele>
        <time>2020-11-01T12:03:47.021Z</time>
      </trkpt>
      <trkpt lat="46.36911" lon="6.0197">
        <ele>1294.4</ele>
        <time>2020-11-01T12:03:48.02Z</time>
      </trkpt>
      <trkpt lat="46.36914" lon="6.01965">
        <ele>1294.6</ele>
        <time>2020-11-01T12:03:49.021Z</time>
      </trkpt>
      <trkpt lat="46.36917" lon="6.0196">
        <ele>1294.6</ele>
        <time>2020-11-01T12:03:50.02Z</time>
      </trkpt>
      <trkpt lat="46.3692" lon="6.01955">
        <ele>1294.8</ele>
        <time>2020-11-01T12:03:51.02Z</time>
      </trkpt>
      <trkpt lat="46.36923" lon="6.01951">
        <ele>1294.8</ele>
        <time>2020-11-01T12:03:52.02Z</time>
      </trkpt>
      <trkpt lat="46.36926" lon="6.01946">
        <ele>1295</ele>
        <time>2020-11-01T12:03:53.021Z</time>
      </trkpt>
      <trkpt lat="46.36926" lon="6.01946">
        <ele>1295</ele>
        <time>2020-11-01T12:03:54.021Z</time>
      </trkpt>
      <trkpt lat="46.36929" lon="6.01941">
        <ele>1295</ele>
        <time>2020-11-01T12:03:55.021Z</time>
      </trkpt>
      <trkpt lat="46.36932" lon="6.01936">
        <ele>1295</ele>
        <time>2020-11-01T12:03:56.02Z</time>
      </trkpt>
      <trkpt lat="46.36936" lon="6.01931">
        <ele>1295</ele>
        <time>2020-11-01T12:03:57.022Z</time>
      </trkpt>
      <trkpt lat="46.36939" lon="6.01927">
        <ele>1295</ele>
        <time>2020-11-01T12:03:58.023Z</time>
      </trkpt>
      <trkpt lat="46.36943" lon="6.01923">
        <ele>1295.2</ele>
        <time>2020-11-01T12:03:59.021Z</time>
      </trkpt>
      <trkpt lat="46.36943" lon="6.01923">
        <ele>1295.2</ele>
        <time>2020-11-01T12:04:00.02Z</time>
      </trkpt>
      <trkpt lat="46.36947" lon="6.01918">
        <ele>1295.2</ele>
        <time>2020-11-01T12:04:01.02Z</time>
      </trkpt>
      <trkpt lat="46.3695" lon="6.01913">
        <ele>1295.2</ele>
        <time>2020-11-01T12:04:02.021Z</time>
      </trkpt>
      <trkpt lat="46.36953" lon="6.01908">
        <ele>1295.4</ele>
        <time>2020-11-01T12:04:03.022Z</time>
      </trkpt>
      <trkpt lat="46.36956" lon="6.01903">
        <ele>1295.4</ele>
        <time>2020-11-01T12:04:04.02Z</time>
      </trkpt>
      <trkpt lat="46.3696" lon="6.01898">
        <ele>1295.4</ele>
        <time>2020-11-01T12:04:05.022Z</time>
      </trkpt>
      <trkpt lat="46.3696" lon="6.01898">
        <ele>1295.4</ele>
        <time>2020-11-01T12:04:06.023Z</time>
      </trkpt>
      <trkpt lat="46.36963" lon="6.01894">
        <ele>1295.4</ele>
        <time>2020-11-01T12:04:07.021Z</time>
      </trkpt>
    </trkseg>
  </trk>
</gpx>